<?xml version="1.0" encoding="UTF-8" standalone="no" ?>
<gpx xmlns="http://www.topografix.com/GPX/1/1" xmlns:xsi="http://www.w3.org/2001/XMLSchema-instance" xsi:schemaLocation="http://www.topografix.com/GPX/1/1 http://www.topografix.com/GPX/1/1/gpx.xsd" version="1.1" creator="VisuGPX - https://www.visugpx.com">
  <metadata>
    <name>Longchaumois-Le Mont Fier</name>
  </metadata>
  <trk>
    <name><![CDATA[Longchaumois-Le Mont Fier_1]]></name>
    <extensions>
      <line xmlns="http://www.topografix.com/GPX/gpx_style/0/2">
        <color>0000FF</color>
        <width>4</width>
      </line>
    </extensions>
    <trkseg>
      <trkpt lat="46.45943" lon="5.9306">
        <ele>911.4</ele>
        <time>2022-06-14T07:37:52Z</time>
      </trkpt>
      <trkpt lat="46.4595" lon="5.93066">
        <ele>910</ele>
        <time>2022-06-14T07:37:56Z</time>
      </trkpt>
      <trkpt lat="46.45954" lon="5.93069">
        <ele>907.1</ele>
        <time>2022-06-14T07:37:59Z</time>
      </trkpt>
      <trkpt lat="46.45959" lon="5.9307">
        <ele>892.7</ele>
        <time>2022-06-14T07:38:35Z</time>
      </trkpt>
      <trkpt lat="46.45964" lon="5.93074">
        <ele>891.8</ele>
        <time>2022-06-14T07:38:45Z</time>
      </trkpt>
      <trkpt lat="46.45968" lon="5.93079">
        <ele>892.2</ele>
        <time>2022-06-14T07:38:49Z</time>
      </trkpt>
      <trkpt lat="46.45972" lon="5.93084">
        <ele>892.4</ele>
        <time>2022-06-14T07:38:53Z</time>
      </trkpt>
      <trkpt lat="46.45977" lon="5.93087">
        <ele>892.4</ele>
        <time>2022-06-14T07:38:59Z</time>
      </trkpt>
      <trkpt lat="46.45981" lon="5.9309">
        <ele>892.7</ele>
        <time>2022-06-14T07:39:05Z</time>
      </trkpt>
      <trkpt lat="46.45987" lon="5.9309">
        <ele>892.6</ele>
        <time>2022-06-14T07:39:13Z</time>
      </trkpt>
      <trkpt lat="46.45991" lon="5.93094">
        <ele>892.6</ele>
        <time>2022-06-14T07:39:20Z</time>
      </trkpt>
      <trkpt lat="46.45995" lon="5.93099">
        <ele>893.2</ele>
        <time>2022-06-14T07:39:25Z</time>
      </trkpt>
      <trkpt lat="46.46" lon="5.93105">
        <ele>893.6</ele>
        <time>2022-06-14T07:39:30Z</time>
      </trkpt>
      <trkpt lat="46.46003" lon="5.93111">
        <ele>893.8</ele>
        <time>2022-06-14T07:39:35Z</time>
      </trkpt>
      <trkpt lat="46.46006" lon="5.93117">
        <ele>894.3</ele>
        <time>2022-06-14T07:39:41Z</time>
      </trkpt>
      <trkpt lat="46.4601" lon="5.93122">
        <ele>895.1</ele>
        <time>2022-06-14T07:39:47Z</time>
      </trkpt>
      <trkpt lat="46.46014" lon="5.93126">
        <ele>895.3</ele>
        <time>2022-06-14T07:39:52Z</time>
      </trkpt>
      <trkpt lat="46.46018" lon="5.9313">
        <ele>895.3</ele>
        <time>2022-06-14T07:39:56Z</time>
      </trkpt>
      <trkpt lat="46.46022" lon="5.93132">
        <ele>895</ele>
        <time>2022-06-14T07:40:00Z</time>
      </trkpt>
      <trkpt lat="46.46026" lon="5.93136">
        <ele>895</ele>
        <time>2022-06-14T07:40:05Z</time>
      </trkpt>
      <trkpt lat="46.46028" lon="5.93142">
        <ele>895.2</ele>
        <time>2022-06-14T07:40:11Z</time>
      </trkpt>
      <trkpt lat="46.46032" lon="5.93147">
        <ele>894.6</ele>
        <time>2022-06-14T07:40:17Z</time>
      </trkpt>
      <trkpt lat="46.46036" lon="5.9315">
        <ele>894.7</ele>
        <time>2022-06-14T07:40:21Z</time>
      </trkpt>
      <trkpt lat="46.4604" lon="5.93155">
        <ele>895</ele>
        <time>2022-06-14T07:40:26Z</time>
      </trkpt>
      <trkpt lat="46.46044" lon="5.93161">
        <ele>895.3</ele>
        <time>2022-06-14T07:40:31Z</time>
      </trkpt>
      <trkpt lat="46.46048" lon="5.93165">
        <ele>895.7</ele>
        <time>2022-06-14T07:40:36Z</time>
      </trkpt>
      <trkpt lat="46.46053" lon="5.93169">
        <ele>896.4</ele>
        <time>2022-06-14T07:40:41Z</time>
      </trkpt>
      <trkpt lat="46.46058" lon="5.93171">
        <ele>898.3</ele>
        <time>2022-06-14T07:40:50Z</time>
      </trkpt>
      <trkpt lat="46.46063" lon="5.93172">
        <ele>899.9</ele>
        <time>2022-06-14T07:40:55Z</time>
      </trkpt>
      <trkpt lat="46.46068" lon="5.93172">
        <ele>901</ele>
        <time>2022-06-14T07:40:59Z</time>
      </trkpt>
      <trkpt lat="46.46073" lon="5.93173">
        <ele>901.4</ele>
        <time>2022-06-14T07:41:05Z</time>
      </trkpt>
      <trkpt lat="46.46077" lon="5.93176">
        <ele>900.9</ele>
        <time>2022-06-14T07:41:11Z</time>
      </trkpt>
      <trkpt lat="46.4608" lon="5.93181">
        <ele>899.1</ele>
        <time>2022-06-14T07:41:17Z</time>
      </trkpt>
      <trkpt lat="46.4608" lon="5.93188">
        <ele>897.5</ele>
        <time>2022-06-14T07:41:22Z</time>
      </trkpt>
      <trkpt lat="46.46083" lon="5.93195">
        <ele>895.6</ele>
        <time>2022-06-14T07:41:28Z</time>
      </trkpt>
      <trkpt lat="46.46083" lon="5.93201">
        <ele>893.9</ele>
        <time>2022-06-14T07:41:34Z</time>
      </trkpt>
      <trkpt lat="46.46083" lon="5.93209">
        <ele>893.4</ele>
        <time>2022-06-14T07:41:39Z</time>
      </trkpt>
      <trkpt lat="46.46084" lon="5.93216">
        <ele>893.3</ele>
        <time>2022-06-14T07:41:44Z</time>
      </trkpt>
      <trkpt lat="46.46086" lon="5.93223">
        <ele>893</ele>
        <time>2022-06-14T07:41:50Z</time>
      </trkpt>
      <trkpt lat="46.46088" lon="5.9323">
        <ele>892.4</ele>
        <time>2022-06-14T07:41:54Z</time>
      </trkpt>
      <trkpt lat="46.4609" lon="5.93237">
        <ele>891.3</ele>
        <time>2022-06-14T07:41:59Z</time>
      </trkpt>
      <trkpt lat="46.46093" lon="5.93243">
        <ele>890.3</ele>
        <time>2022-06-14T07:42:04Z</time>
      </trkpt>
      <trkpt lat="46.46098" lon="5.93248">
        <ele>890.4</ele>
        <time>2022-06-14T07:42:09Z</time>
      </trkpt>
      <trkpt lat="46.46101" lon="5.93253">
        <ele>890.9</ele>
        <time>2022-06-14T07:42:14Z</time>
      </trkpt>
      <trkpt lat="46.46104" lon="5.93259">
        <ele>891.2</ele>
        <time>2022-06-14T07:42:20Z</time>
      </trkpt>
      <trkpt lat="46.46108" lon="5.93263">
        <ele>891</ele>
        <time>2022-06-14T07:42:26Z</time>
      </trkpt>
      <trkpt lat="46.46111" lon="5.9327">
        <ele>890.5</ele>
        <time>2022-06-14T07:42:31Z</time>
      </trkpt>
      <trkpt lat="46.46113" lon="5.93277">
        <ele>890.2</ele>
        <time>2022-06-14T07:42:35Z</time>
      </trkpt>
      <trkpt lat="46.46114" lon="5.93284">
        <ele>890.8</ele>
        <time>2022-06-14T07:42:39Z</time>
      </trkpt>
      <trkpt lat="46.46115" lon="5.93291">
        <ele>891.3</ele>
        <time>2022-06-14T07:42:43Z</time>
      </trkpt>
      <trkpt lat="46.46114" lon="5.93298">
        <ele>891.2</ele>
        <time>2022-06-14T07:42:47Z</time>
      </trkpt>
      <trkpt lat="46.46109" lon="5.93302">
        <ele>890.8</ele>
        <time>2022-06-14T07:42:50Z</time>
      </trkpt>
      <trkpt lat="46.46106" lon="5.93307">
        <ele>891.1</ele>
        <time>2022-06-14T07:42:55Z</time>
      </trkpt>
      <trkpt lat="46.46103" lon="5.93302">
        <ele>891.1</ele>
        <time>2022-06-14T07:43:02Z</time>
      </trkpt>
      <trkpt lat="46.461" lon="5.93296">
        <ele>889.2</ele>
        <time>2022-06-14T07:43:07Z</time>
      </trkpt>
      <trkpt lat="46.46096" lon="5.93296">
        <ele>887.3</ele>
        <time>2022-06-14T07:43:13Z</time>
      </trkpt>
      <trkpt lat="46.46091" lon="5.93298">
        <ele>886.3</ele>
        <time>2022-06-14T07:43:18Z</time>
      </trkpt>
      <trkpt lat="46.46087" lon="5.93301">
        <ele>884.6</ele>
        <time>2022-06-14T07:43:26Z</time>
      </trkpt>
      <trkpt lat="46.46082" lon="5.93304">
        <ele>882.9</ele>
        <time>2022-06-14T07:43:32Z</time>
      </trkpt>
      <trkpt lat="46.46078" lon="5.93308">
        <ele>882.9</ele>
        <time>2022-06-14T07:43:36Z</time>
      </trkpt>
      <trkpt lat="46.46073" lon="5.93311">
        <ele>882.6</ele>
        <time>2022-06-14T07:43:40Z</time>
      </trkpt>
      <trkpt lat="46.46069" lon="5.93315">
        <ele>883</ele>
        <time>2022-06-14T07:43:44Z</time>
      </trkpt>
      <trkpt lat="46.46065" lon="5.93318">
        <ele>884.2</ele>
        <time>2022-06-14T07:43:48Z</time>
      </trkpt>
      <trkpt lat="46.4606" lon="5.93323">
        <ele>885.7</ele>
        <time>2022-06-14T07:43:53Z</time>
      </trkpt>
      <trkpt lat="46.46056" lon="5.93327">
        <ele>887.1</ele>
        <time>2022-06-14T07:43:59Z</time>
      </trkpt>
      <trkpt lat="46.46052" lon="5.93331">
        <ele>887.8</ele>
        <time>2022-06-14T07:44:03Z</time>
      </trkpt>
      <trkpt lat="46.4605" lon="5.93338">
        <ele>888.9</ele>
        <time>2022-06-14T07:44:08Z</time>
      </trkpt>
      <trkpt lat="46.46047" lon="5.93345">
        <ele>889.3</ele>
        <time>2022-06-14T07:44:11Z</time>
      </trkpt>
      <trkpt lat="46.46044" lon="5.9335">
        <ele>889.8</ele>
        <time>2022-06-14T07:44:14Z</time>
      </trkpt>
      <trkpt lat="46.46041" lon="5.93357">
        <ele>889.8</ele>
        <time>2022-06-14T07:44:20Z</time>
      </trkpt>
      <trkpt lat="46.46036" lon="5.93361">
        <ele>889.3</ele>
        <time>2022-06-14T07:44:26Z</time>
      </trkpt>
      <trkpt lat="46.46033" lon="5.93366">
        <ele>888.9</ele>
        <time>2022-06-14T07:44:31Z</time>
      </trkpt>
      <trkpt lat="46.46028" lon="5.9337">
        <ele>888.9</ele>
        <time>2022-06-14T07:44:37Z</time>
      </trkpt>
      <trkpt lat="46.46026" lon="5.93376">
        <ele>888</ele>
        <time>2022-06-14T07:44:42Z</time>
      </trkpt>
      <trkpt lat="46.46021" lon="5.9338">
        <ele>887</ele>
        <time>2022-06-14T07:44:47Z</time>
      </trkpt>
      <trkpt lat="46.46016" lon="5.93382">
        <ele>886.1</ele>
        <time>2022-06-14T07:44:51Z</time>
      </trkpt>
      <trkpt lat="46.46011" lon="5.93384">
        <ele>885.3</ele>
        <time>2022-06-14T07:44:57Z</time>
      </trkpt>
      <trkpt lat="46.46006" lon="5.93386">
        <ele>885.3</ele>
        <time>2022-06-14T07:45:02Z</time>
      </trkpt>
      <trkpt lat="46.46001" lon="5.93389">
        <ele>885.8</ele>
        <time>2022-06-14T07:45:07Z</time>
      </trkpt>
      <trkpt lat="46.45995" lon="5.93388">
        <ele>885.9</ele>
        <time>2022-06-14T07:45:13Z</time>
      </trkpt>
      <trkpt lat="46.4599" lon="5.93389">
        <ele>886.1</ele>
        <time>2022-06-14T07:45:17Z</time>
      </trkpt>
      <trkpt lat="46.45986" lon="5.93389">
        <ele>885.5</ele>
        <time>2022-06-14T07:45:22Z</time>
      </trkpt>
      <trkpt lat="46.4598" lon="5.93391">
        <ele>884.5</ele>
        <time>2022-06-14T07:45:27Z</time>
      </trkpt>
      <trkpt lat="46.45975" lon="5.93394">
        <ele>883.3</ele>
        <time>2022-06-14T07:45:32Z</time>
      </trkpt>
      <trkpt lat="46.45971" lon="5.93396">
        <ele>883.5</ele>
        <time>2022-06-14T07:45:36Z</time>
      </trkpt>
      <trkpt lat="46.45967" lon="5.934">
        <ele>884.2</ele>
        <time>2022-06-14T07:45:40Z</time>
      </trkpt>
      <trkpt lat="46.45964" lon="5.93405">
        <ele>885.3</ele>
        <time>2022-06-14T07:45:43Z</time>
      </trkpt>
      <trkpt lat="46.45959" lon="5.93408">
        <ele>887.1</ele>
        <time>2022-06-14T07:45:48Z</time>
      </trkpt>
      <trkpt lat="46.45954" lon="5.93411">
        <ele>887.6</ele>
        <time>2022-06-14T07:45:53Z</time>
      </trkpt>
      <trkpt lat="46.4595" lon="5.93414">
        <ele>887.9</ele>
        <time>2022-06-14T07:45:59Z</time>
      </trkpt>
      <trkpt lat="46.45944" lon="5.93417">
        <ele>887.7</ele>
        <time>2022-06-14T07:46:04Z</time>
      </trkpt>
      <trkpt lat="46.45939" lon="5.93419">
        <ele>887.3</ele>
        <time>2022-06-14T07:46:08Z</time>
      </trkpt>
      <trkpt lat="46.45935" lon="5.93421">
        <ele>886.8</ele>
        <time>2022-06-14T07:46:13Z</time>
      </trkpt>
      <trkpt lat="46.45932" lon="5.93427">
        <ele>886.5</ele>
        <time>2022-06-14T07:46:18Z</time>
      </trkpt>
      <trkpt lat="46.45929" lon="5.93432">
        <ele>886</ele>
        <time>2022-06-14T07:46:22Z</time>
      </trkpt>
      <trkpt lat="46.45925" lon="5.93436">
        <ele>885.7</ele>
        <time>2022-06-14T07:46:26Z</time>
      </trkpt>
      <trkpt lat="46.4592" lon="5.93437">
        <ele>886</ele>
        <time>2022-06-14T07:46:29Z</time>
      </trkpt>
      <trkpt lat="46.45915" lon="5.9344">
        <ele>885.9</ele>
        <time>2022-06-14T07:46:34Z</time>
      </trkpt>
      <trkpt lat="46.45911" lon="5.93444">
        <ele>885.3</ele>
        <time>2022-06-14T07:46:39Z</time>
      </trkpt>
      <trkpt lat="46.45907" lon="5.93449">
        <ele>884.6</ele>
        <time>2022-06-14T07:46:43Z</time>
      </trkpt>
      <trkpt lat="46.45903" lon="5.93454">
        <ele>883.5</ele>
        <time>2022-06-14T07:46:49Z</time>
      </trkpt>
      <trkpt lat="46.45902" lon="5.93461">
        <ele>883</ele>
        <time>2022-06-14T07:46:54Z</time>
      </trkpt>
      <trkpt lat="46.45902" lon="5.93468">
        <ele>882.8</ele>
        <time>2022-06-14T07:46:59Z</time>
      </trkpt>
      <trkpt lat="46.45901" lon="5.93474">
        <ele>882.6</ele>
        <time>2022-06-14T07:47:02Z</time>
      </trkpt>
      <trkpt lat="46.45901" lon="5.93483">
        <ele>882.7</ele>
        <time>2022-06-14T07:47:06Z</time>
      </trkpt>
      <trkpt lat="46.459" lon="5.9349">
        <ele>883.1</ele>
        <time>2022-06-14T07:47:10Z</time>
      </trkpt>
      <trkpt lat="46.45902" lon="5.93496">
        <ele>883.8</ele>
        <time>2022-06-14T07:47:14Z</time>
      </trkpt>
      <trkpt lat="46.45905" lon="5.93502">
        <ele>885.1</ele>
        <time>2022-06-14T07:47:18Z</time>
      </trkpt>
      <trkpt lat="46.45907" lon="5.93508">
        <ele>886.7</ele>
        <time>2022-06-14T07:47:22Z</time>
      </trkpt>
      <trkpt lat="46.45908" lon="5.93515">
        <ele>888.2</ele>
        <time>2022-06-14T07:47:28Z</time>
      </trkpt>
      <trkpt lat="46.45909" lon="5.93523">
        <ele>889.5</ele>
        <time>2022-06-14T07:47:34Z</time>
      </trkpt>
      <trkpt lat="46.45911" lon="5.9353">
        <ele>890.9</ele>
        <time>2022-06-14T07:47:39Z</time>
      </trkpt>
      <trkpt lat="46.45911" lon="5.93537">
        <ele>892.3</ele>
        <time>2022-06-14T07:47:45Z</time>
      </trkpt>
      <trkpt lat="46.45913" lon="5.93543">
        <ele>893.2</ele>
        <time>2022-06-14T07:47:50Z</time>
      </trkpt>
      <trkpt lat="46.45913" lon="5.9355">
        <ele>893.8</ele>
        <time>2022-06-14T07:47:53Z</time>
      </trkpt>
      <trkpt lat="46.45914" lon="5.93558">
        <ele>894.6</ele>
        <time>2022-06-14T07:47:57Z</time>
      </trkpt>
      <trkpt lat="46.45914" lon="5.93565">
        <ele>894.9</ele>
        <time>2022-06-14T07:48:01Z</time>
      </trkpt>
      <trkpt lat="46.45912" lon="5.93573">
        <ele>895.4</ele>
        <time>2022-06-14T07:48:06Z</time>
      </trkpt>
      <trkpt lat="46.4591" lon="5.93579">
        <ele>896</ele>
        <time>2022-06-14T07:48:11Z</time>
      </trkpt>
      <trkpt lat="46.45906" lon="5.93581">
        <ele>896.3</ele>
        <time>2022-06-14T07:48:21Z</time>
      </trkpt>
      <trkpt lat="46.45908" lon="5.93587">
        <ele>894.8</ele>
        <time>2022-06-14T07:48:29Z</time>
      </trkpt>
      <trkpt lat="46.45909" lon="5.93594">
        <ele>892.7</ele>
        <time>2022-06-14T07:48:36Z</time>
      </trkpt>
      <trkpt lat="46.4591" lon="5.93601">
        <ele>891.8</ele>
        <time>2022-06-14T07:48:41Z</time>
      </trkpt>
      <trkpt lat="46.4591" lon="5.93608">
        <ele>891.8</ele>
        <time>2022-06-14T07:48:47Z</time>
      </trkpt>
      <trkpt lat="46.45913" lon="5.93614">
        <ele>892.7</ele>
        <time>2022-06-14T07:48:53Z</time>
      </trkpt>
      <trkpt lat="46.45914" lon="5.93621">
        <ele>894.6</ele>
        <time>2022-06-14T07:49:00Z</time>
      </trkpt>
      <trkpt lat="46.45915" lon="5.93628">
        <ele>896.8</ele>
        <time>2022-06-14T07:49:06Z</time>
      </trkpt>
      <trkpt lat="46.45914" lon="5.93635">
        <ele>898.6</ele>
        <time>2022-06-14T07:49:12Z</time>
      </trkpt>
      <trkpt lat="46.45917" lon="5.9364">
        <ele>900.5</ele>
        <time>2022-06-14T07:49:18Z</time>
      </trkpt>
      <trkpt lat="46.45919" lon="5.93646">
        <ele>902.1</ele>
        <time>2022-06-14T07:49:23Z</time>
      </trkpt>
      <trkpt lat="46.45923" lon="5.93649">
        <ele>904</ele>
        <time>2022-06-14T07:49:30Z</time>
      </trkpt>
      <trkpt lat="46.45928" lon="5.93652">
        <ele>905</ele>
        <time>2022-06-14T07:49:36Z</time>
      </trkpt>
      <trkpt lat="46.45932" lon="5.93654">
        <ele>904.6</ele>
        <time>2022-06-14T07:49:44Z</time>
      </trkpt>
      <trkpt lat="46.45927" lon="5.93651">
        <ele>906.8</ele>
        <time>2022-06-14T07:50:01Z</time>
      </trkpt>
      <trkpt lat="46.45924" lon="5.93647">
        <ele>907.5</ele>
        <time>2022-06-14T07:50:06Z</time>
      </trkpt>
      <trkpt lat="46.45927" lon="5.93653">
        <ele>909.2</ele>
        <time>2022-06-14T07:50:58Z</time>
      </trkpt>
      <trkpt lat="46.4593" lon="5.93658">
        <ele>908.4</ele>
        <time>2022-06-14T07:51:03Z</time>
      </trkpt>
      <trkpt lat="46.45935" lon="5.93661">
        <ele>908.5</ele>
        <time>2022-06-14T07:51:07Z</time>
      </trkpt>
      <trkpt lat="46.45939" lon="5.93664">
        <ele>908.7</ele>
        <time>2022-06-14T07:51:12Z</time>
      </trkpt>
      <trkpt lat="46.45944" lon="5.93668">
        <ele>909</ele>
        <time>2022-06-14T07:51:16Z</time>
      </trkpt>
      <trkpt lat="46.45949" lon="5.93673">
        <ele>908.9</ele>
        <time>2022-06-14T07:51:20Z</time>
      </trkpt>
      <trkpt lat="46.45952" lon="5.93679">
        <ele>909.1</ele>
        <time>2022-06-14T07:51:24Z</time>
      </trkpt>
      <trkpt lat="46.45955" lon="5.93684">
        <ele>909.4</ele>
        <time>2022-06-14T07:51:28Z</time>
      </trkpt>
      <trkpt lat="46.45959" lon="5.93689">
        <ele>909.5</ele>
        <time>2022-06-14T07:51:32Z</time>
      </trkpt>
      <trkpt lat="46.45962" lon="5.93695">
        <ele>909.7</ele>
        <time>2022-06-14T07:51:36Z</time>
      </trkpt>
      <trkpt lat="46.45965" lon="5.93701">
        <ele>909.6</ele>
        <time>2022-06-14T07:51:40Z</time>
      </trkpt>
      <trkpt lat="46.45967" lon="5.93707">
        <ele>909.7</ele>
        <time>2022-06-14T07:51:44Z</time>
      </trkpt>
      <trkpt lat="46.4597" lon="5.93713">
        <ele>910.4</ele>
        <time>2022-06-14T07:51:49Z</time>
      </trkpt>
      <trkpt lat="46.45973" lon="5.93718">
        <ele>910.8</ele>
        <time>2022-06-14T07:51:54Z</time>
      </trkpt>
      <trkpt lat="46.45978" lon="5.93724">
        <ele>910.6</ele>
        <time>2022-06-14T07:52:00Z</time>
      </trkpt>
      <trkpt lat="46.45982" lon="5.93729">
        <ele>910.1</ele>
        <time>2022-06-14T07:52:04Z</time>
      </trkpt>
      <trkpt lat="46.45986" lon="5.93735">
        <ele>909.6</ele>
        <time>2022-06-14T07:52:08Z</time>
      </trkpt>
      <trkpt lat="46.45989" lon="5.9374">
        <ele>908.8</ele>
        <time>2022-06-14T07:52:12Z</time>
      </trkpt>
      <trkpt lat="46.45992" lon="5.93746">
        <ele>907.7</ele>
        <time>2022-06-14T07:52:17Z</time>
      </trkpt>
      <trkpt lat="46.45996" lon="5.93749">
        <ele>907.4</ele>
        <time>2022-06-14T07:52:21Z</time>
      </trkpt>
      <trkpt lat="46.46" lon="5.93751">
        <ele>907.9</ele>
        <time>2022-06-14T07:52:25Z</time>
      </trkpt>
      <trkpt lat="46.46005" lon="5.93755">
        <ele>908.3</ele>
        <time>2022-06-14T07:52:29Z</time>
      </trkpt>
      <trkpt lat="46.46007" lon="5.93761">
        <ele>908.3</ele>
        <time>2022-06-14T07:52:33Z</time>
      </trkpt>
      <trkpt lat="46.4601" lon="5.93767">
        <ele>909.1</ele>
        <time>2022-06-14T07:52:37Z</time>
      </trkpt>
      <trkpt lat="46.46014" lon="5.9377">
        <ele>910.2</ele>
        <time>2022-06-14T07:52:42Z</time>
      </trkpt>
      <trkpt lat="46.46017" lon="5.93776">
        <ele>910.7</ele>
        <time>2022-06-14T07:52:47Z</time>
      </trkpt>
      <trkpt lat="46.46018" lon="5.93783">
        <ele>911.3</ele>
        <time>2022-06-14T07:52:55Z</time>
      </trkpt>
      <trkpt lat="46.46018" lon="5.9379">
        <ele>911.4</ele>
        <time>2022-06-14T07:53:00Z</time>
      </trkpt>
      <trkpt lat="46.46017" lon="5.93797">
        <ele>911.3</ele>
        <time>2022-06-14T07:53:05Z</time>
      </trkpt>
      <trkpt lat="46.46017" lon="5.93804">
        <ele>911.4</ele>
        <time>2022-06-14T07:53:10Z</time>
      </trkpt>
      <trkpt lat="46.46014" lon="5.9381">
        <ele>910.8</ele>
        <time>2022-06-14T07:53:15Z</time>
      </trkpt>
      <trkpt lat="46.46012" lon="5.93816">
        <ele>910.4</ele>
        <time>2022-06-14T07:53:19Z</time>
      </trkpt>
      <trkpt lat="46.46008" lon="5.93821">
        <ele>909.7</ele>
        <time>2022-06-14T07:53:24Z</time>
      </trkpt>
      <trkpt lat="46.46004" lon="5.93825">
        <ele>909.2</ele>
        <time>2022-06-14T07:53:29Z</time>
      </trkpt>
      <trkpt lat="46.46001" lon="5.9383">
        <ele>908.4</ele>
        <time>2022-06-14T07:53:35Z</time>
      </trkpt>
      <trkpt lat="46.45998" lon="5.93835">
        <ele>907.7</ele>
        <time>2022-06-14T07:53:40Z</time>
      </trkpt>
      <trkpt lat="46.45995" lon="5.93843">
        <ele>907.1</ele>
        <time>2022-06-14T07:53:45Z</time>
      </trkpt>
      <trkpt lat="46.45994" lon="5.9385">
        <ele>907.1</ele>
        <time>2022-06-14T07:53:49Z</time>
      </trkpt>
      <trkpt lat="46.45991" lon="5.93856">
        <ele>907.4</ele>
        <time>2022-06-14T07:53:54Z</time>
      </trkpt>
      <trkpt lat="46.45988" lon="5.93862">
        <ele>908</ele>
        <time>2022-06-14T07:53:58Z</time>
      </trkpt>
      <trkpt lat="46.45984" lon="5.93867">
        <ele>909.5</ele>
        <time>2022-06-14T07:54:03Z</time>
      </trkpt>
      <trkpt lat="46.4598" lon="5.93871">
        <ele>910.6</ele>
        <time>2022-06-14T07:54:08Z</time>
      </trkpt>
      <trkpt lat="46.45976" lon="5.93866">
        <ele>912.4</ele>
        <time>2022-06-14T07:54:17Z</time>
      </trkpt>
      <trkpt lat="46.45971" lon="5.93867">
        <ele>913.4</ele>
        <time>2022-06-14T07:54:22Z</time>
      </trkpt>
      <trkpt lat="46.45966" lon="5.93869">
        <ele>913.9</ele>
        <time>2022-06-14T07:54:27Z</time>
      </trkpt>
      <trkpt lat="46.45961" lon="5.93869">
        <ele>914.7</ele>
        <time>2022-06-14T07:54:32Z</time>
      </trkpt>
      <trkpt lat="46.45956" lon="5.93869">
        <ele>915</ele>
        <time>2022-06-14T07:54:37Z</time>
      </trkpt>
      <trkpt lat="46.45951" lon="5.93866">
        <ele>912.7</ele>
        <time>2022-06-14T07:54:44Z</time>
      </trkpt>
      <trkpt lat="46.45946" lon="5.93867">
        <ele>911.3</ele>
        <time>2022-06-14T07:54:49Z</time>
      </trkpt>
      <trkpt lat="46.45941" lon="5.93869">
        <ele>911</ele>
        <time>2022-06-14T07:54:54Z</time>
      </trkpt>
      <trkpt lat="46.45937" lon="5.93872">
        <ele>910.9</ele>
        <time>2022-06-14T07:54:59Z</time>
      </trkpt>
      <trkpt lat="46.45934" lon="5.93877">
        <ele>911.3</ele>
        <time>2022-06-14T07:55:07Z</time>
      </trkpt>
      <trkpt lat="46.4593" lon="5.93881">
        <ele>911.9</ele>
        <time>2022-06-14T07:55:15Z</time>
      </trkpt>
      <trkpt lat="46.45928" lon="5.93888">
        <ele>911.2</ele>
        <time>2022-06-14T07:55:22Z</time>
      </trkpt>
      <trkpt lat="46.45928" lon="5.93896">
        <ele>911</ele>
        <time>2022-06-14T07:55:28Z</time>
      </trkpt>
      <trkpt lat="46.45927" lon="5.93903">
        <ele>911.1</ele>
        <time>2022-06-14T07:55:34Z</time>
      </trkpt>
      <trkpt lat="46.45927" lon="5.9391">
        <ele>911.4</ele>
        <time>2022-06-14T07:55:41Z</time>
      </trkpt>
      <trkpt lat="46.45928" lon="5.93918">
        <ele>911.2</ele>
        <time>2022-06-14T07:55:47Z</time>
      </trkpt>
      <trkpt lat="46.45929" lon="5.93925">
        <ele>911.6</ele>
        <time>2022-06-14T07:55:54Z</time>
      </trkpt>
      <trkpt lat="46.4593" lon="5.93932">
        <ele>912.3</ele>
        <time>2022-06-14T07:56:00Z</time>
      </trkpt>
      <trkpt lat="46.4593" lon="5.93939">
        <ele>913.4</ele>
        <time>2022-06-14T07:56:05Z</time>
      </trkpt>
      <trkpt lat="46.45931" lon="5.93947">
        <ele>914.7</ele>
        <time>2022-06-14T07:56:10Z</time>
      </trkpt>
      <trkpt lat="46.45931" lon="5.93954">
        <ele>916</ele>
        <time>2022-06-14T07:56:16Z</time>
      </trkpt>
      <trkpt lat="46.45931" lon="5.9396">
        <ele>916.8</ele>
        <time>2022-06-14T07:56:22Z</time>
      </trkpt>
      <trkpt lat="46.45932" lon="5.93967">
        <ele>917.2</ele>
        <time>2022-06-14T07:56:28Z</time>
      </trkpt>
      <trkpt lat="46.45931" lon="5.93974">
        <ele>917.7</ele>
        <time>2022-06-14T07:56:34Z</time>
      </trkpt>
      <trkpt lat="46.45931" lon="5.93981">
        <ele>918</ele>
        <time>2022-06-14T07:56:40Z</time>
      </trkpt>
      <trkpt lat="46.45932" lon="5.93989">
        <ele>917.9</ele>
        <time>2022-06-14T07:56:46Z</time>
      </trkpt>
      <trkpt lat="46.4593" lon="5.93996">
        <ele>918</ele>
        <time>2022-06-14T07:56:52Z</time>
      </trkpt>
      <trkpt lat="46.45929" lon="5.94003">
        <ele>918.5</ele>
        <time>2022-06-14T07:56:57Z</time>
      </trkpt>
      <trkpt lat="46.45928" lon="5.9401">
        <ele>919.3</ele>
        <time>2022-06-14T07:57:03Z</time>
      </trkpt>
      <trkpt lat="46.45928" lon="5.94018">
        <ele>920.1</ele>
        <time>2022-06-14T07:57:10Z</time>
      </trkpt>
      <trkpt lat="46.45925" lon="5.94024">
        <ele>920.8</ele>
        <time>2022-06-14T07:57:14Z</time>
      </trkpt>
      <trkpt lat="46.45925" lon="5.94032">
        <ele>921.6</ele>
        <time>2022-06-14T07:57:19Z</time>
      </trkpt>
      <trkpt lat="46.45924" lon="5.9404">
        <ele>922.4</ele>
        <time>2022-06-14T07:57:24Z</time>
      </trkpt>
      <trkpt lat="46.45922" lon="5.94046">
        <ele>923.2</ele>
        <time>2022-06-14T07:57:29Z</time>
      </trkpt>
      <trkpt lat="46.45918" lon="5.94052">
        <ele>924.5</ele>
        <time>2022-06-14T07:57:35Z</time>
      </trkpt>
      <trkpt lat="46.45915" lon="5.94057">
        <ele>925.3</ele>
        <time>2022-06-14T07:57:41Z</time>
      </trkpt>
      <trkpt lat="46.4591" lon="5.94061">
        <ele>925.8</ele>
        <time>2022-06-14T07:57:45Z</time>
      </trkpt>
      <trkpt lat="46.45905" lon="5.94064">
        <ele>927.2</ele>
        <time>2022-06-14T07:57:51Z</time>
      </trkpt>
      <trkpt lat="46.45901" lon="5.94067">
        <ele>927.7</ele>
        <time>2022-06-14T07:57:56Z</time>
      </trkpt>
      <trkpt lat="46.45897" lon="5.9407">
        <ele>927.9</ele>
        <time>2022-06-14T07:58:02Z</time>
      </trkpt>
      <trkpt lat="46.45893" lon="5.94074">
        <ele>928.2</ele>
        <time>2022-06-14T07:58:08Z</time>
      </trkpt>
      <trkpt lat="46.45889" lon="5.94072">
        <ele>928.7</ele>
        <time>2022-06-14T07:58:15Z</time>
      </trkpt>
      <trkpt lat="46.45884" lon="5.94068">
        <ele>929.6</ele>
        <time>2022-06-14T07:58:21Z</time>
      </trkpt>
      <trkpt lat="46.4588" lon="5.94064">
        <ele>930.2</ele>
        <time>2022-06-14T07:58:24Z</time>
      </trkpt>
      <trkpt lat="46.45875" lon="5.94062">
        <ele>930.9</ele>
        <time>2022-06-14T07:58:28Z</time>
      </trkpt>
      <trkpt lat="46.4587" lon="5.94062">
        <ele>931.9</ele>
        <time>2022-06-14T07:58:32Z</time>
      </trkpt>
      <trkpt lat="46.45866" lon="5.94064">
        <ele>932.8</ele>
        <time>2022-06-14T07:58:37Z</time>
      </trkpt>
      <trkpt lat="46.45861" lon="5.94065">
        <ele>933.2</ele>
        <time>2022-06-14T07:58:40Z</time>
      </trkpt>
      <trkpt lat="46.45856" lon="5.94063">
        <ele>933.7</ele>
        <time>2022-06-14T07:58:44Z</time>
      </trkpt>
      <trkpt lat="46.45851" lon="5.94062">
        <ele>934.1</ele>
        <time>2022-06-14T07:58:49Z</time>
      </trkpt>
      <trkpt lat="46.45846" lon="5.9406">
        <ele>934.6</ele>
        <time>2022-06-14T07:58:56Z</time>
      </trkpt>
      <trkpt lat="46.45841" lon="5.94061">
        <ele>934.9</ele>
        <time>2022-06-14T07:59:02Z</time>
      </trkpt>
      <trkpt lat="46.45837" lon="5.94062">
        <ele>935.4</ele>
        <time>2022-06-14T07:59:07Z</time>
      </trkpt>
      <trkpt lat="46.45832" lon="5.94064">
        <ele>935.7</ele>
        <time>2022-06-14T07:59:14Z</time>
      </trkpt>
      <trkpt lat="46.45827" lon="5.9407">
        <ele>935</ele>
        <time>2022-06-14T07:59:17Z</time>
      </trkpt>
      <trkpt lat="46.45825" lon="5.94075">
        <ele>934.7</ele>
        <time>2022-06-14T07:59:20Z</time>
      </trkpt>
      <trkpt lat="46.45823" lon="5.94082">
        <ele>935.2</ele>
        <time>2022-06-14T07:59:24Z</time>
      </trkpt>
      <trkpt lat="46.45821" lon="5.94088">
        <ele>937.6</ele>
        <time>2022-06-14T07:59:37Z</time>
      </trkpt>
      <trkpt lat="46.45817" lon="5.94093">
        <ele>939</ele>
        <time>2022-06-14T07:59:47Z</time>
      </trkpt>
      <trkpt lat="46.45816" lon="5.941">
        <ele>939.3</ele>
        <time>2022-06-14T07:59:53Z</time>
      </trkpt>
      <trkpt lat="46.45813" lon="5.94105">
        <ele>939.9</ele>
        <time>2022-06-14T08:00:00Z</time>
      </trkpt>
      <trkpt lat="46.45808" lon="5.94105">
        <ele>940.5</ele>
        <time>2022-06-14T08:00:06Z</time>
      </trkpt>
      <trkpt lat="46.45804" lon="5.94109">
        <ele>941</ele>
        <time>2022-06-14T08:00:10Z</time>
      </trkpt>
      <trkpt lat="46.458" lon="5.94112">
        <ele>942.5</ele>
        <time>2022-06-14T08:00:16Z</time>
      </trkpt>
      <trkpt lat="46.45795" lon="5.94115">
        <ele>944</ele>
        <time>2022-06-14T08:00:20Z</time>
      </trkpt>
      <trkpt lat="46.45791" lon="5.94117">
        <ele>945.7</ele>
        <time>2022-06-14T08:00:25Z</time>
      </trkpt>
      <trkpt lat="46.45786" lon="5.94117">
        <ele>948.1</ele>
        <time>2022-06-14T08:00:31Z</time>
      </trkpt>
      <trkpt lat="46.45781" lon="5.94119">
        <ele>949.8</ele>
        <time>2022-06-14T08:00:36Z</time>
      </trkpt>
      <trkpt lat="46.45776" lon="5.94122">
        <ele>950.2</ele>
        <time>2022-06-14T08:00:42Z</time>
      </trkpt>
      <trkpt lat="46.45771" lon="5.94123">
        <ele>950.2</ele>
        <time>2022-06-14T08:00:47Z</time>
      </trkpt>
      <trkpt lat="46.45766" lon="5.9412">
        <ele>949.1</ele>
        <time>2022-06-14T08:00:52Z</time>
      </trkpt>
      <trkpt lat="46.45761" lon="5.94119">
        <ele>948.3</ele>
        <time>2022-06-14T08:00:57Z</time>
      </trkpt>
      <trkpt lat="46.45756" lon="5.94118">
        <ele>948.1</ele>
        <time>2022-06-14T08:01:01Z</time>
      </trkpt>
      <trkpt lat="46.45751" lon="5.94117">
        <ele>948.1</ele>
        <time>2022-06-14T08:01:04Z</time>
      </trkpt>
      <trkpt lat="46.45747" lon="5.94115">
        <ele>947.3</ele>
        <time>2022-06-14T08:01:10Z</time>
      </trkpt>
      <trkpt lat="46.45744" lon="5.9411">
        <ele>946.5</ele>
        <time>2022-06-14T08:01:14Z</time>
      </trkpt>
      <trkpt lat="46.45739" lon="5.94107">
        <ele>945.8</ele>
        <time>2022-06-14T08:01:19Z</time>
      </trkpt>
      <trkpt lat="46.45735" lon="5.94103">
        <ele>945.4</ele>
        <time>2022-06-14T08:01:23Z</time>
      </trkpt>
      <trkpt lat="46.45733" lon="5.94098">
        <ele>945.2</ele>
        <time>2022-06-14T08:01:28Z</time>
      </trkpt>
      <trkpt lat="46.45728" lon="5.94093">
        <ele>945</ele>
        <time>2022-06-14T08:01:35Z</time>
      </trkpt>
      <trkpt lat="46.45726" lon="5.94086">
        <ele>944.6</ele>
        <time>2022-06-14T08:01:41Z</time>
      </trkpt>
      <trkpt lat="46.45724" lon="5.94079">
        <ele>944.8</ele>
        <time>2022-06-14T08:01:45Z</time>
      </trkpt>
      <trkpt lat="46.45719" lon="5.94074">
        <ele>945.2</ele>
        <time>2022-06-14T08:01:49Z</time>
      </trkpt>
      <trkpt lat="46.45714" lon="5.94069">
        <ele>945.7</ele>
        <time>2022-06-14T08:01:53Z</time>
      </trkpt>
      <trkpt lat="46.4571" lon="5.94065">
        <ele>946.1</ele>
        <time>2022-06-14T08:01:58Z</time>
      </trkpt>
      <trkpt lat="46.45708" lon="5.94059">
        <ele>946.5</ele>
        <time>2022-06-14T08:02:03Z</time>
      </trkpt>
      <trkpt lat="46.45706" lon="5.94053">
        <ele>947.3</ele>
        <time>2022-06-14T08:02:10Z</time>
      </trkpt>
      <trkpt lat="46.45703" lon="5.94046">
        <ele>947.6</ele>
        <time>2022-06-14T08:02:15Z</time>
      </trkpt>
      <trkpt lat="46.45701" lon="5.94041">
        <ele>948.4</ele>
        <time>2022-06-14T08:02:20Z</time>
      </trkpt>
      <trkpt lat="46.45697" lon="5.94036">
        <ele>949.3</ele>
        <time>2022-06-14T08:02:25Z</time>
      </trkpt>
      <trkpt lat="46.45694" lon="5.9403">
        <ele>950.7</ele>
        <time>2022-06-14T08:02:31Z</time>
      </trkpt>
      <trkpt lat="46.45691" lon="5.94024">
        <ele>951.6</ele>
        <time>2022-06-14T08:02:36Z</time>
      </trkpt>
      <trkpt lat="46.45687" lon="5.9402">
        <ele>951.9</ele>
        <time>2022-06-14T08:02:40Z</time>
      </trkpt>
      <trkpt lat="46.45684" lon="5.94014">
        <ele>952.1</ele>
        <time>2022-06-14T08:02:45Z</time>
      </trkpt>
      <trkpt lat="46.45682" lon="5.94007">
        <ele>951.9</ele>
        <time>2022-06-14T08:02:50Z</time>
      </trkpt>
      <trkpt lat="46.45678" lon="5.94004">
        <ele>953</ele>
        <time>2022-06-14T08:02:58Z</time>
      </trkpt>
      <trkpt lat="46.45674" lon="5.94001">
        <ele>954.3</ele>
        <time>2022-06-14T08:03:04Z</time>
      </trkpt>
      <trkpt lat="46.45668" lon="5.94003">
        <ele>954.8</ele>
        <time>2022-06-14T08:03:08Z</time>
      </trkpt>
      <trkpt lat="46.45662" lon="5.94003">
        <ele>955</ele>
        <time>2022-06-14T08:03:12Z</time>
      </trkpt>
      <trkpt lat="46.45658" lon="5.93999">
        <ele>954.1</ele>
        <time>2022-06-14T08:03:18Z</time>
      </trkpt>
      <trkpt lat="46.45654" lon="5.93995">
        <ele>953</ele>
        <time>2022-06-14T08:03:23Z</time>
      </trkpt>
      <trkpt lat="46.45649" lon="5.93991">
        <ele>951.6</ele>
        <time>2022-06-14T08:03:27Z</time>
      </trkpt>
      <trkpt lat="46.45644" lon="5.9399">
        <ele>949.3</ele>
        <time>2022-06-14T08:03:32Z</time>
      </trkpt>
      <trkpt lat="46.45639" lon="5.93992">
        <ele>948</ele>
        <time>2022-06-14T08:03:36Z</time>
      </trkpt>
      <trkpt lat="46.45635" lon="5.93997">
        <ele>946.9</ele>
        <time>2022-06-14T08:03:41Z</time>
      </trkpt>
      <trkpt lat="46.45633" lon="5.94004">
        <ele>944.1</ele>
        <time>2022-06-14T08:03:50Z</time>
      </trkpt>
      <trkpt lat="46.45629" lon="5.94009">
        <ele>943.4</ele>
        <time>2022-06-14T08:03:55Z</time>
      </trkpt>
      <trkpt lat="46.45627" lon="5.94015">
        <ele>943.3</ele>
        <time>2022-06-14T08:04:00Z</time>
      </trkpt>
      <trkpt lat="46.45627" lon="5.94022">
        <ele>943.4</ele>
        <time>2022-06-14T08:04:06Z</time>
      </trkpt>
      <trkpt lat="46.45627" lon="5.94028">
        <ele>943.5</ele>
        <time>2022-06-14T08:04:11Z</time>
      </trkpt>
      <trkpt lat="46.45627" lon="5.94035">
        <ele>943.9</ele>
        <time>2022-06-14T08:04:14Z</time>
      </trkpt>
      <trkpt lat="46.45627" lon="5.94042">
        <ele>944.5</ele>
        <time>2022-06-14T08:04:17Z</time>
      </trkpt>
      <trkpt lat="46.45627" lon="5.94049">
        <ele>945.3</ele>
        <time>2022-06-14T08:04:21Z</time>
      </trkpt>
      <trkpt lat="46.45627" lon="5.94055">
        <ele>946.9</ele>
        <time>2022-06-14T08:04:27Z</time>
      </trkpt>
      <trkpt lat="46.45629" lon="5.94061">
        <ele>948.1</ele>
        <time>2022-06-14T08:04:33Z</time>
      </trkpt>
      <trkpt lat="46.45631" lon="5.94069">
        <ele>948.7</ele>
        <time>2022-06-14T08:04:39Z</time>
      </trkpt>
      <trkpt lat="46.45633" lon="5.94075">
        <ele>948.6</ele>
        <time>2022-06-14T08:04:43Z</time>
      </trkpt>
      <trkpt lat="46.45634" lon="5.94082">
        <ele>948.5</ele>
        <time>2022-06-14T08:04:47Z</time>
      </trkpt>
      <trkpt lat="46.45637" lon="5.94089">
        <ele>948.3</ele>
        <time>2022-06-14T08:04:52Z</time>
      </trkpt>
      <trkpt lat="46.45639" lon="5.94096">
        <ele>948.6</ele>
        <time>2022-06-14T08:04:57Z</time>
      </trkpt>
      <trkpt lat="46.45639" lon="5.94102">
        <ele>948.8</ele>
        <time>2022-06-14T08:05:01Z</time>
      </trkpt>
      <trkpt lat="46.4564" lon="5.9411">
        <ele>949.2</ele>
        <time>2022-06-14T08:05:04Z</time>
      </trkpt>
      <trkpt lat="46.45639" lon="5.94117">
        <ele>950.2</ele>
        <time>2022-06-14T08:05:08Z</time>
      </trkpt>
      <trkpt lat="46.45642" lon="5.94123">
        <ele>951.1</ele>
        <time>2022-06-14T08:05:12Z</time>
      </trkpt>
      <trkpt lat="46.45642" lon="5.9413">
        <ele>951.7</ele>
        <time>2022-06-14T08:05:16Z</time>
      </trkpt>
      <trkpt lat="46.45644" lon="5.94137">
        <ele>952.4</ele>
        <time>2022-06-14T08:05:22Z</time>
      </trkpt>
      <trkpt lat="46.45646" lon="5.94142">
        <ele>952.3</ele>
        <time>2022-06-14T08:05:28Z</time>
      </trkpt>
      <trkpt lat="46.45649" lon="5.94148">
        <ele>951.9</ele>
        <time>2022-06-14T08:05:34Z</time>
      </trkpt>
      <trkpt lat="46.4565" lon="5.94155">
        <ele>952.2</ele>
        <time>2022-06-14T08:05:41Z</time>
      </trkpt>
      <trkpt lat="46.45647" lon="5.94161">
        <ele>953.7</ele>
        <time>2022-06-14T08:05:50Z</time>
      </trkpt>
      <trkpt lat="46.45646" lon="5.94168">
        <ele>954</ele>
        <time>2022-06-14T08:05:56Z</time>
      </trkpt>
      <trkpt lat="46.45644" lon="5.94175">
        <ele>954.2</ele>
        <time>2022-06-14T08:06:01Z</time>
      </trkpt>
      <trkpt lat="46.4564" lon="5.94182">
        <ele>954.4</ele>
        <time>2022-06-14T08:06:06Z</time>
      </trkpt>
      <trkpt lat="46.45637" lon="5.94187">
        <ele>954.6</ele>
        <time>2022-06-14T08:06:10Z</time>
      </trkpt>
      <trkpt lat="46.45633" lon="5.94193">
        <ele>954.9</ele>
        <time>2022-06-14T08:06:15Z</time>
      </trkpt>
      <trkpt lat="46.45631" lon="5.94199">
        <ele>955</ele>
        <time>2022-06-14T08:06:20Z</time>
      </trkpt>
      <trkpt lat="46.4563" lon="5.94205">
        <ele>955.3</ele>
        <time>2022-06-14T08:06:25Z</time>
      </trkpt>
      <trkpt lat="46.45628" lon="5.94212">
        <ele>955.2</ele>
        <time>2022-06-14T08:06:33Z</time>
      </trkpt>
      <trkpt lat="46.45626" lon="5.94219">
        <ele>954.7</ele>
        <time>2022-06-14T08:06:41Z</time>
      </trkpt>
      <trkpt lat="46.45623" lon="5.94224">
        <ele>954.2</ele>
        <time>2022-06-14T08:06:47Z</time>
      </trkpt>
      <trkpt lat="46.45619" lon="5.94229">
        <ele>954</ele>
        <time>2022-06-14T08:06:54Z</time>
      </trkpt>
      <trkpt lat="46.45616" lon="5.94234">
        <ele>954.4</ele>
        <time>2022-06-14T08:06:59Z</time>
      </trkpt>
      <trkpt lat="46.45613" lon="5.94239">
        <ele>954.7</ele>
        <time>2022-06-14T08:07:03Z</time>
      </trkpt>
      <trkpt lat="46.45609" lon="5.94244">
        <ele>955.1</ele>
        <time>2022-06-14T08:07:08Z</time>
      </trkpt>
      <trkpt lat="46.45606" lon="5.94249">
        <ele>955.7</ele>
        <time>2022-06-14T08:07:13Z</time>
      </trkpt>
      <trkpt lat="46.45602" lon="5.94253">
        <ele>956.4</ele>
        <time>2022-06-14T08:07:19Z</time>
      </trkpt>
      <trkpt lat="46.45597" lon="5.94256">
        <ele>957.3</ele>
        <time>2022-06-14T08:07:25Z</time>
      </trkpt>
      <trkpt lat="46.45592" lon="5.94258">
        <ele>958.2</ele>
        <time>2022-06-14T08:07:31Z</time>
      </trkpt>
      <trkpt lat="46.45589" lon="5.94261">
        <ele>958.8</ele>
        <time>2022-06-14T08:07:36Z</time>
      </trkpt>
      <trkpt lat="46.45584" lon="5.94265">
        <ele>959.2</ele>
        <time>2022-06-14T08:07:41Z</time>
      </trkpt>
      <trkpt lat="46.4558" lon="5.94265">
        <ele>959.5</ele>
        <time>2022-06-14T08:07:47Z</time>
      </trkpt>
      <trkpt lat="46.45575" lon="5.94265">
        <ele>959.3</ele>
        <time>2022-06-14T08:07:53Z</time>
      </trkpt>
      <trkpt lat="46.4557" lon="5.94264">
        <ele>959.1</ele>
        <time>2022-06-14T08:07:59Z</time>
      </trkpt>
      <trkpt lat="46.45565" lon="5.94265">
        <ele>959.7</ele>
        <time>2022-06-14T08:08:05Z</time>
      </trkpt>
      <trkpt lat="46.4556" lon="5.94267">
        <ele>961.5</ele>
        <time>2022-06-14T08:08:12Z</time>
      </trkpt>
      <trkpt lat="46.45555" lon="5.94268">
        <ele>963.4</ele>
        <time>2022-06-14T08:08:18Z</time>
      </trkpt>
      <trkpt lat="46.4555" lon="5.94271">
        <ele>965.4</ele>
        <time>2022-06-14T08:08:25Z</time>
      </trkpt>
      <trkpt lat="46.45546" lon="5.94276">
        <ele>967.1</ele>
        <time>2022-06-14T08:08:30Z</time>
      </trkpt>
      <trkpt lat="46.45542" lon="5.94281">
        <ele>968.7</ele>
        <time>2022-06-14T08:08:35Z</time>
      </trkpt>
      <trkpt lat="46.45537" lon="5.94279">
        <ele>970.6</ele>
        <time>2022-06-14T08:08:43Z</time>
      </trkpt>
      <trkpt lat="46.45537" lon="5.94286">
        <ele>971</ele>
        <time>2022-06-14T08:09:15Z</time>
      </trkpt>
      <trkpt lat="46.45533" lon="5.9429">
        <ele>970.3</ele>
        <time>2022-06-14T08:09:22Z</time>
      </trkpt>
      <trkpt lat="46.45529" lon="5.94295">
        <ele>970.4</ele>
        <time>2022-06-14T08:09:32Z</time>
      </trkpt>
      <trkpt lat="46.45525" lon="5.943">
        <ele>970.8</ele>
        <time>2022-06-14T08:09:39Z</time>
      </trkpt>
      <trkpt lat="46.4552" lon="5.943">
        <ele>970.7</ele>
        <time>2022-06-14T08:09:46Z</time>
      </trkpt>
      <trkpt lat="46.45516" lon="5.94303">
        <ele>970.3</ele>
        <time>2022-06-14T08:09:50Z</time>
      </trkpt>
      <trkpt lat="46.45511" lon="5.94304">
        <ele>969.7</ele>
        <time>2022-06-14T08:09:55Z</time>
      </trkpt>
      <trkpt lat="46.45506" lon="5.94304">
        <ele>969.2</ele>
        <time>2022-06-14T08:10:00Z</time>
      </trkpt>
      <trkpt lat="46.455" lon="5.94304">
        <ele>969</ele>
        <time>2022-06-14T08:10:05Z</time>
      </trkpt>
      <trkpt lat="46.45497" lon="5.94307">
        <ele>969</ele>
        <time>2022-06-14T08:10:09Z</time>
      </trkpt>
      <trkpt lat="46.45492" lon="5.94308">
        <ele>969.5</ele>
        <time>2022-06-14T08:10:14Z</time>
      </trkpt>
      <trkpt lat="46.45487" lon="5.94308">
        <ele>970</ele>
        <time>2022-06-14T08:10:19Z</time>
      </trkpt>
      <trkpt lat="46.45482" lon="5.9431">
        <ele>970.4</ele>
        <time>2022-06-14T08:10:24Z</time>
      </trkpt>
      <trkpt lat="46.45477" lon="5.94312">
        <ele>971.3</ele>
        <time>2022-06-14T08:10:28Z</time>
      </trkpt>
      <trkpt lat="46.45474" lon="5.94318">
        <ele>972.1</ele>
        <time>2022-06-14T08:10:34Z</time>
      </trkpt>
      <trkpt lat="46.4547" lon="5.9432">
        <ele>971.8</ele>
        <time>2022-06-14T08:10:41Z</time>
      </trkpt>
      <trkpt lat="46.45466" lon="5.94324">
        <ele>971.8</ele>
        <time>2022-06-14T08:10:47Z</time>
      </trkpt>
      <trkpt lat="46.45461" lon="5.94329">
        <ele>972.3</ele>
        <time>2022-06-14T08:10:53Z</time>
      </trkpt>
      <trkpt lat="46.45457" lon="5.94334">
        <ele>972.9</ele>
        <time>2022-06-14T08:10:56Z</time>
      </trkpt>
      <trkpt lat="46.45452" lon="5.94337">
        <ele>973.9</ele>
        <time>2022-06-14T08:11:01Z</time>
      </trkpt>
      <trkpt lat="46.45448" lon="5.94341">
        <ele>975.4</ele>
        <time>2022-06-14T08:11:07Z</time>
      </trkpt>
      <trkpt lat="46.45443" lon="5.94344">
        <ele>977.7</ele>
        <time>2022-06-14T08:11:14Z</time>
      </trkpt>
      <trkpt lat="46.45439" lon="5.94347">
        <ele>979.6</ele>
        <time>2022-06-14T08:11:19Z</time>
      </trkpt>
      <trkpt lat="46.45434" lon="5.94349">
        <ele>982.8</ele>
        <time>2022-06-14T08:11:27Z</time>
      </trkpt>
      <trkpt lat="46.45429" lon="5.94353">
        <ele>985.5</ele>
        <time>2022-06-14T08:11:33Z</time>
      </trkpt>
      <trkpt lat="46.45426" lon="5.94358">
        <ele>986.7</ele>
        <time>2022-06-14T08:11:36Z</time>
      </trkpt>
      <trkpt lat="46.45423" lon="5.94364">
        <ele>988.1</ele>
        <time>2022-06-14T08:11:40Z</time>
      </trkpt>
      <trkpt lat="46.45419" lon="5.94366">
        <ele>990</ele>
        <time>2022-06-14T08:11:45Z</time>
      </trkpt>
      <trkpt lat="46.45414" lon="5.94368">
        <ele>992.3</ele>
        <time>2022-06-14T08:11:52Z</time>
      </trkpt>
      <trkpt lat="46.45409" lon="5.94366">
        <ele>993</ele>
        <time>2022-06-14T08:12:01Z</time>
      </trkpt>
      <trkpt lat="46.45404" lon="5.9437">
        <ele>991.3</ele>
        <time>2022-06-14T08:12:05Z</time>
      </trkpt>
      <trkpt lat="46.454" lon="5.94372">
        <ele>989.9</ele>
        <time>2022-06-14T08:12:08Z</time>
      </trkpt>
      <trkpt lat="46.45395" lon="5.94373">
        <ele>989.1</ele>
        <time>2022-06-14T08:12:11Z</time>
      </trkpt>
      <trkpt lat="46.4539" lon="5.94377">
        <ele>988.7</ele>
        <time>2022-06-14T08:12:15Z</time>
      </trkpt>
      <trkpt lat="46.45386" lon="5.9438">
        <ele>986.3</ele>
        <time>2022-06-14T08:12:20Z</time>
      </trkpt>
      <trkpt lat="46.45381" lon="5.9438">
        <ele>983.6</ele>
        <time>2022-06-14T08:12:26Z</time>
      </trkpt>
      <trkpt lat="46.45375" lon="5.94382">
        <ele>981.6</ele>
        <time>2022-06-14T08:12:31Z</time>
      </trkpt>
      <trkpt lat="46.4537" lon="5.94382">
        <ele>980.6</ele>
        <time>2022-06-14T08:12:35Z</time>
      </trkpt>
      <trkpt lat="46.45365" lon="5.94385">
        <ele>980.3</ele>
        <time>2022-06-14T08:12:40Z</time>
      </trkpt>
      <trkpt lat="46.45362" lon="5.9439">
        <ele>980</ele>
        <time>2022-06-14T08:12:50Z</time>
      </trkpt>
      <trkpt lat="46.45357" lon="5.94392">
        <ele>979.8</ele>
        <time>2022-06-14T08:12:55Z</time>
      </trkpt>
      <trkpt lat="46.45353" lon="5.94392">
        <ele>980.2</ele>
        <time>2022-06-14T08:13:01Z</time>
      </trkpt>
      <trkpt lat="46.45348" lon="5.9439">
        <ele>980.6</ele>
        <time>2022-06-14T08:13:05Z</time>
      </trkpt>
      <trkpt lat="46.45343" lon="5.94393">
        <ele>980.5</ele>
        <time>2022-06-14T08:13:11Z</time>
      </trkpt>
      <trkpt lat="46.4534" lon="5.94399">
        <ele>979.5</ele>
        <time>2022-06-14T08:13:19Z</time>
      </trkpt>
      <trkpt lat="46.45342" lon="5.94405">
        <ele>976.5</ele>
        <time>2022-06-14T08:13:29Z</time>
      </trkpt>
      <trkpt lat="46.45341" lon="5.94412">
        <ele>975.7</ele>
        <time>2022-06-14T08:13:33Z</time>
      </trkpt>
      <trkpt lat="46.45341" lon="5.94418">
        <ele>975.2</ele>
        <time>2022-06-14T08:13:37Z</time>
      </trkpt>
      <trkpt lat="46.45337" lon="5.94423">
        <ele>974.8</ele>
        <time>2022-06-14T08:13:42Z</time>
      </trkpt>
      <trkpt lat="46.45332" lon="5.94424">
        <ele>974.5</ele>
        <time>2022-06-14T08:13:47Z</time>
      </trkpt>
      <trkpt lat="46.45327" lon="5.94425">
        <ele>974.4</ele>
        <time>2022-06-14T08:13:56Z</time>
      </trkpt>
      <trkpt lat="46.45324" lon="5.9443">
        <ele>974.5</ele>
        <time>2022-06-14T08:14:00Z</time>
      </trkpt>
      <trkpt lat="46.4532" lon="5.94434">
        <ele>974.8</ele>
        <time>2022-06-14T08:14:04Z</time>
      </trkpt>
      <trkpt lat="46.45314" lon="5.94438">
        <ele>975.3</ele>
        <time>2022-06-14T08:14:08Z</time>
      </trkpt>
      <trkpt lat="46.4531" lon="5.94442">
        <ele>975.7</ele>
        <time>2022-06-14T08:14:11Z</time>
      </trkpt>
      <trkpt lat="46.45305" lon="5.94446">
        <ele>976.8</ele>
        <time>2022-06-14T08:14:15Z</time>
      </trkpt>
      <trkpt lat="46.45303" lon="5.94452">
        <ele>978.6</ele>
        <time>2022-06-14T08:14:22Z</time>
      </trkpt>
      <trkpt lat="46.45298" lon="5.94456">
        <ele>979.2</ele>
        <time>2022-06-14T08:14:27Z</time>
      </trkpt>
      <trkpt lat="46.45294" lon="5.9446">
        <ele>979.8</ele>
        <time>2022-06-14T08:14:31Z</time>
      </trkpt>
      <trkpt lat="46.45291" lon="5.94465">
        <ele>981.1</ele>
        <time>2022-06-14T08:14:37Z</time>
      </trkpt>
      <trkpt lat="46.4529" lon="5.94472">
        <ele>982.8</ele>
        <time>2022-06-14T08:14:44Z</time>
      </trkpt>
      <trkpt lat="46.45291" lon="5.94478">
        <ele>983.4</ele>
        <time>2022-06-14T08:14:53Z</time>
      </trkpt>
      <trkpt lat="46.45295" lon="5.94474">
        <ele>984.5</ele>
        <time>2022-06-14T08:15:16Z</time>
      </trkpt>
      <trkpt lat="46.45298" lon="5.94479">
        <ele>984.8</ele>
        <time>2022-06-14T08:15:29Z</time>
      </trkpt>
      <trkpt lat="46.45302" lon="5.94483">
        <ele>985.1</ele>
        <time>2022-06-14T08:15:45Z</time>
      </trkpt>
      <trkpt lat="46.45306" lon="5.94485">
        <ele>986</ele>
        <time>2022-06-14T08:15:50Z</time>
      </trkpt>
      <trkpt lat="46.45308" lon="5.94491">
        <ele>986.5</ele>
        <time>2022-06-14T08:15:55Z</time>
      </trkpt>
      <trkpt lat="46.45312" lon="5.94497">
        <ele>987.2</ele>
        <time>2022-06-14T08:16:01Z</time>
      </trkpt>
      <trkpt lat="46.45317" lon="5.94501">
        <ele>987.7</ele>
        <time>2022-06-14T08:16:06Z</time>
      </trkpt>
      <trkpt lat="46.45322" lon="5.94502">
        <ele>988.8</ele>
        <time>2022-06-14T08:16:13Z</time>
      </trkpt>
      <trkpt lat="46.45324" lon="5.94507">
        <ele>989.6</ele>
        <time>2022-06-14T08:16:20Z</time>
      </trkpt>
      <trkpt lat="46.45327" lon="5.94514">
        <ele>990.9</ele>
        <time>2022-06-14T08:16:26Z</time>
      </trkpt>
      <trkpt lat="46.4533" lon="5.94518">
        <ele>992.1</ele>
        <time>2022-06-14T08:16:31Z</time>
      </trkpt>
      <trkpt lat="46.45335" lon="5.94522">
        <ele>992.8</ele>
        <time>2022-06-14T08:16:35Z</time>
      </trkpt>
      <trkpt lat="46.4534" lon="5.94525">
        <ele>993.3</ele>
        <time>2022-06-14T08:16:39Z</time>
      </trkpt>
      <trkpt lat="46.45345" lon="5.94528">
        <ele>993.7</ele>
        <time>2022-06-14T08:16:44Z</time>
      </trkpt>
      <trkpt lat="46.45348" lon="5.94534">
        <ele>993.4</ele>
        <time>2022-06-14T08:16:53Z</time>
      </trkpt>
      <trkpt lat="46.45352" lon="5.94536">
        <ele>993.5</ele>
        <time>2022-06-14T08:16:57Z</time>
      </trkpt>
      <trkpt lat="46.45358" lon="5.94536">
        <ele>992.9</ele>
        <time>2022-06-14T08:17:01Z</time>
      </trkpt>
      <trkpt lat="46.45361" lon="5.94541">
        <ele>991.4</ele>
        <time>2022-06-14T08:17:08Z</time>
      </trkpt>
      <trkpt lat="46.45363" lon="5.94548">
        <ele>991</ele>
        <time>2022-06-14T08:17:13Z</time>
      </trkpt>
      <trkpt lat="46.45367" lon="5.94553">
        <ele>990.9</ele>
        <time>2022-06-14T08:17:16Z</time>
      </trkpt>
      <trkpt lat="46.45372" lon="5.94556">
        <ele>990.7</ele>
        <time>2022-06-14T08:17:20Z</time>
      </trkpt>
      <trkpt lat="46.45377" lon="5.94558">
        <ele>990.8</ele>
        <time>2022-06-14T08:17:24Z</time>
      </trkpt>
      <trkpt lat="46.45381" lon="5.94561">
        <ele>990.9</ele>
        <time>2022-06-14T08:17:29Z</time>
      </trkpt>
      <trkpt lat="46.45385" lon="5.94566">
        <ele>989.8</ele>
        <time>2022-06-14T08:17:37Z</time>
      </trkpt>
      <trkpt lat="46.45389" lon="5.9457">
        <ele>988</ele>
        <time>2022-06-14T08:17:47Z</time>
      </trkpt>
      <trkpt lat="46.45394" lon="5.94574">
        <ele>987.2</ele>
        <time>2022-06-14T08:17:51Z</time>
      </trkpt>
      <trkpt lat="46.45397" lon="5.94579">
        <ele>986.8</ele>
        <time>2022-06-14T08:17:55Z</time>
      </trkpt>
      <trkpt lat="46.45401" lon="5.94584">
        <ele>986.7</ele>
        <time>2022-06-14T08:18:00Z</time>
      </trkpt>
      <trkpt lat="46.45405" lon="5.94588">
        <ele>987.8</ele>
        <time>2022-06-14T08:18:12Z</time>
      </trkpt>
      <trkpt lat="46.45406" lon="5.94596">
        <ele>988.9</ele>
        <time>2022-06-14T08:18:16Z</time>
      </trkpt>
      <trkpt lat="46.4541" lon="5.94601">
        <ele>989.9</ele>
        <time>2022-06-14T08:18:21Z</time>
      </trkpt>
      <trkpt lat="46.45413" lon="5.94607">
        <ele>989.9</ele>
        <time>2022-06-14T08:18:27Z</time>
      </trkpt>
      <trkpt lat="46.45417" lon="5.94607">
        <ele>988.8</ele>
        <time>2022-06-14T08:18:33Z</time>
      </trkpt>
      <trkpt lat="46.45422" lon="5.94609">
        <ele>988.2</ele>
        <time>2022-06-14T08:18:37Z</time>
      </trkpt>
      <trkpt lat="46.45427" lon="5.94611">
        <ele>988.1</ele>
        <time>2022-06-14T08:18:41Z</time>
      </trkpt>
      <trkpt lat="46.45431" lon="5.94613">
        <ele>987.6</ele>
        <time>2022-06-14T08:18:47Z</time>
      </trkpt>
      <trkpt lat="46.45437" lon="5.94617">
        <ele>988</ele>
        <time>2022-06-14T08:18:52Z</time>
      </trkpt>
      <trkpt lat="46.45441" lon="5.94622">
        <ele>988.1</ele>
        <time>2022-06-14T08:18:56Z</time>
      </trkpt>
      <trkpt lat="46.45446" lon="5.94626">
        <ele>988.6</ele>
        <time>2022-06-14T08:19:00Z</time>
      </trkpt>
      <trkpt lat="46.45449" lon="5.94631">
        <ele>989.6</ele>
        <time>2022-06-14T08:19:05Z</time>
      </trkpt>
      <trkpt lat="46.45453" lon="5.94635">
        <ele>990.3</ele>
        <time>2022-06-14T08:19:10Z</time>
      </trkpt>
      <trkpt lat="46.45458" lon="5.94638">
        <ele>990.7</ele>
        <time>2022-06-14T08:19:15Z</time>
      </trkpt>
      <trkpt lat="46.45462" lon="5.94642">
        <ele>990.9</ele>
        <time>2022-06-14T08:19:19Z</time>
      </trkpt>
      <trkpt lat="46.45466" lon="5.94645">
        <ele>991.1</ele>
        <time>2022-06-14T08:19:24Z</time>
      </trkpt>
      <trkpt lat="46.4547" lon="5.9465">
        <ele>990.7</ele>
        <time>2022-06-14T08:19:32Z</time>
      </trkpt>
      <trkpt lat="46.45472" lon="5.94657">
        <ele>989.8</ele>
        <time>2022-06-14T08:19:39Z</time>
      </trkpt>
      <trkpt lat="46.45474" lon="5.94663">
        <ele>989.7</ele>
        <time>2022-06-14T08:19:45Z</time>
      </trkpt>
      <trkpt lat="46.45477" lon="5.94669">
        <ele>989.7</ele>
        <time>2022-06-14T08:19:50Z</time>
      </trkpt>
      <trkpt lat="46.45477" lon="5.94676">
        <ele>989.2</ele>
        <time>2022-06-14T08:19:58Z</time>
      </trkpt>
      <trkpt lat="46.45474" lon="5.94681">
        <ele>989.3</ele>
        <time>2022-06-14T08:20:10Z</time>
      </trkpt>
      <trkpt lat="46.45478" lon="5.94676">
        <ele>990.4</ele>
        <time>2022-06-14T08:20:21Z</time>
      </trkpt>
      <trkpt lat="46.45473" lon="5.94676">
        <ele>991.9</ele>
        <time>2022-06-14T08:20:32Z</time>
      </trkpt>
      <trkpt lat="46.4548" lon="5.94674">
        <ele>990.2</ele>
        <time>2022-06-14T08:20:49Z</time>
      </trkpt>
      <trkpt lat="46.45484" lon="5.94675">
        <ele>991.5</ele>
        <time>2022-06-14T08:20:54Z</time>
      </trkpt>
      <trkpt lat="46.4548" lon="5.94675">
        <ele>995.1</ele>
        <time>2022-06-14T08:21:13Z</time>
      </trkpt>
      <trkpt lat="46.45475" lon="5.94674">
        <ele>996.2</ele>
        <time>2022-06-14T08:21:16Z</time>
      </trkpt>
      <trkpt lat="46.45473" lon="5.94681">
        <ele>996</ele>
        <time>2022-06-14T08:22:20Z</time>
      </trkpt>
      <trkpt lat="46.45474" lon="5.94689">
        <ele>995.3</ele>
        <time>2022-06-14T08:22:24Z</time>
      </trkpt>
      <trkpt lat="46.45475" lon="5.94697">
        <ele>994.7</ele>
        <time>2022-06-14T08:22:28Z</time>
      </trkpt>
      <trkpt lat="46.45476" lon="5.94705">
        <ele>994.2</ele>
        <time>2022-06-14T08:22:31Z</time>
      </trkpt>
      <trkpt lat="46.45476" lon="5.94713">
        <ele>993.8</ele>
        <time>2022-06-14T08:22:35Z</time>
      </trkpt>
      <trkpt lat="46.45477" lon="5.94719">
        <ele>993.1</ele>
        <time>2022-06-14T08:22:40Z</time>
      </trkpt>
      <trkpt lat="46.45477" lon="5.94727">
        <ele>991.5</ele>
        <time>2022-06-14T08:22:48Z</time>
      </trkpt>
      <trkpt lat="46.45475" lon="5.94733">
        <ele>990.1</ele>
        <time>2022-06-14T08:22:58Z</time>
      </trkpt>
      <trkpt lat="46.45473" lon="5.94739">
        <ele>989.9</ele>
        <time>2022-06-14T08:23:04Z</time>
      </trkpt>
      <trkpt lat="46.45474" lon="5.94746">
        <ele>989.3</ele>
        <time>2022-06-14T08:23:13Z</time>
      </trkpt>
      <trkpt lat="46.45478" lon="5.94749">
        <ele>988.7</ele>
        <time>2022-06-14T08:23:20Z</time>
      </trkpt>
      <trkpt lat="46.45481" lon="5.94755">
        <ele>988.1</ele>
        <time>2022-06-14T08:23:24Z</time>
      </trkpt>
      <trkpt lat="46.45486" lon="5.94761">
        <ele>987.8</ele>
        <time>2022-06-14T08:23:28Z</time>
      </trkpt>
      <trkpt lat="46.45488" lon="5.94767">
        <ele>987.9</ele>
        <time>2022-06-14T08:23:31Z</time>
      </trkpt>
      <trkpt lat="46.4549" lon="5.94774">
        <ele>987.9</ele>
        <time>2022-06-14T08:23:35Z</time>
      </trkpt>
      <trkpt lat="46.45493" lon="5.9478">
        <ele>988.1</ele>
        <time>2022-06-14T08:23:40Z</time>
      </trkpt>
      <trkpt lat="46.45495" lon="5.94786">
        <ele>988.4</ele>
        <time>2022-06-14T08:23:44Z</time>
      </trkpt>
      <trkpt lat="46.45498" lon="5.94793">
        <ele>988.7</ele>
        <time>2022-06-14T08:23:50Z</time>
      </trkpt>
      <trkpt lat="46.45501" lon="5.94799">
        <ele>988.7</ele>
        <time>2022-06-14T08:23:56Z</time>
      </trkpt>
      <trkpt lat="46.45501" lon="5.94807">
        <ele>988.5</ele>
        <time>2022-06-14T08:24:00Z</time>
      </trkpt>
      <trkpt lat="46.45503" lon="5.94813">
        <ele>988.4</ele>
        <time>2022-06-14T08:24:06Z</time>
      </trkpt>
      <trkpt lat="46.45505" lon="5.9482">
        <ele>988.4</ele>
        <time>2022-06-14T08:24:11Z</time>
      </trkpt>
      <trkpt lat="46.45505" lon="5.94826">
        <ele>988</ele>
        <time>2022-06-14T08:24:17Z</time>
      </trkpt>
      <trkpt lat="46.45507" lon="5.94833">
        <ele>987.1</ele>
        <time>2022-06-14T08:24:23Z</time>
      </trkpt>
      <trkpt lat="46.45508" lon="5.94841">
        <ele>986.5</ele>
        <time>2022-06-14T08:24:28Z</time>
      </trkpt>
      <trkpt lat="46.4551" lon="5.94849">
        <ele>986</ele>
        <time>2022-06-14T08:24:32Z</time>
      </trkpt>
      <trkpt lat="46.45513" lon="5.94854">
        <ele>985.5</ele>
        <time>2022-06-14T08:24:36Z</time>
      </trkpt>
      <trkpt lat="46.45517" lon="5.94859">
        <ele>985.4</ele>
        <time>2022-06-14T08:24:40Z</time>
      </trkpt>
      <trkpt lat="46.4552" lon="5.94864">
        <ele>985.1</ele>
        <time>2022-06-14T08:24:45Z</time>
      </trkpt>
      <trkpt lat="46.45523" lon="5.94871">
        <ele>984.8</ele>
        <time>2022-06-14T08:24:50Z</time>
      </trkpt>
      <trkpt lat="46.45524" lon="5.94877">
        <ele>984.6</ele>
        <time>2022-06-14T08:24:55Z</time>
      </trkpt>
      <trkpt lat="46.45524" lon="5.94884">
        <ele>984.9</ele>
        <time>2022-06-14T08:25:01Z</time>
      </trkpt>
      <trkpt lat="46.45523" lon="5.94891">
        <ele>985.3</ele>
        <time>2022-06-14T08:25:06Z</time>
      </trkpt>
      <trkpt lat="46.45523" lon="5.94897">
        <ele>985.9</ele>
        <time>2022-06-14T08:25:11Z</time>
      </trkpt>
      <trkpt lat="46.45523" lon="5.94905">
        <ele>986.2</ele>
        <time>2022-06-14T08:25:16Z</time>
      </trkpt>
      <trkpt lat="46.45526" lon="5.94911">
        <ele>985.6</ele>
        <time>2022-06-14T08:25:25Z</time>
      </trkpt>
      <trkpt lat="46.4553" lon="5.94916">
        <ele>984.5</ele>
        <time>2022-06-14T08:25:33Z</time>
      </trkpt>
      <trkpt lat="46.45532" lon="5.94922">
        <ele>984.3</ele>
        <time>2022-06-14T08:25:38Z</time>
      </trkpt>
      <trkpt lat="46.45537" lon="5.94926">
        <ele>984.3</ele>
        <time>2022-06-14T08:25:43Z</time>
      </trkpt>
      <trkpt lat="46.45541" lon="5.94927">
        <ele>984.2</ele>
        <time>2022-06-14T08:26:07Z</time>
      </trkpt>
      <trkpt lat="46.45546" lon="5.94931">
        <ele>984.7</ele>
        <time>2022-06-14T08:26:12Z</time>
      </trkpt>
      <trkpt lat="46.45549" lon="5.94936">
        <ele>985.3</ele>
        <time>2022-06-14T08:26:16Z</time>
      </trkpt>
      <trkpt lat="46.45552" lon="5.94942">
        <ele>987.5</ele>
        <time>2022-06-14T08:26:25Z</time>
      </trkpt>
      <trkpt lat="46.4555" lon="5.94949">
        <ele>988.4</ele>
        <time>2022-06-14T08:26:29Z</time>
      </trkpt>
      <trkpt lat="46.45548" lon="5.94955">
        <ele>988.5</ele>
        <time>2022-06-14T08:26:35Z</time>
      </trkpt>
      <trkpt lat="46.45549" lon="5.94962">
        <ele>988.5</ele>
        <time>2022-06-14T08:26:43Z</time>
      </trkpt>
      <trkpt lat="46.45549" lon="5.94969">
        <ele>989.8</ele>
        <time>2022-06-14T08:26:51Z</time>
      </trkpt>
      <trkpt lat="46.45554" lon="5.94971">
        <ele>990.4</ele>
        <time>2022-06-14T08:26:56Z</time>
      </trkpt>
      <trkpt lat="46.45557" lon="5.94977">
        <ele>991</ele>
        <time>2022-06-14T08:27:01Z</time>
      </trkpt>
      <trkpt lat="46.45559" lon="5.94982">
        <ele>991.6</ele>
        <time>2022-06-14T08:27:06Z</time>
      </trkpt>
      <trkpt lat="46.45563" lon="5.94987">
        <ele>991.8</ele>
        <time>2022-06-14T08:27:12Z</time>
      </trkpt>
      <trkpt lat="46.45565" lon="5.94993">
        <ele>992.7</ele>
        <time>2022-06-14T08:27:17Z</time>
      </trkpt>
      <trkpt lat="46.45568" lon="5.94999">
        <ele>994</ele>
        <time>2022-06-14T08:27:22Z</time>
      </trkpt>
      <trkpt lat="46.45571" lon="5.95005">
        <ele>994.9</ele>
        <time>2022-06-14T08:27:26Z</time>
      </trkpt>
      <trkpt lat="46.45572" lon="5.95012">
        <ele>996.1</ele>
        <time>2022-06-14T08:27:31Z</time>
      </trkpt>
      <trkpt lat="46.45575" lon="5.95018">
        <ele>997.5</ele>
        <time>2022-06-14T08:27:37Z</time>
      </trkpt>
      <trkpt lat="46.45578" lon="5.95024">
        <ele>998.5</ele>
        <time>2022-06-14T08:27:42Z</time>
      </trkpt>
      <trkpt lat="46.4558" lon="5.9503">
        <ele>999.3</ele>
        <time>2022-06-14T08:27:46Z</time>
      </trkpt>
      <trkpt lat="46.45583" lon="5.95036">
        <ele>1000.5</ele>
        <time>2022-06-14T08:27:52Z</time>
      </trkpt>
      <trkpt lat="46.45584" lon="5.95043">
        <ele>1001.8</ele>
        <time>2022-06-14T08:27:59Z</time>
      </trkpt>
      <trkpt lat="46.45587" lon="5.95049">
        <ele>1002.9</ele>
        <time>2022-06-14T08:28:05Z</time>
      </trkpt>
      <trkpt lat="46.4559" lon="5.95055">
        <ele>1004.3</ele>
        <time>2022-06-14T08:28:11Z</time>
      </trkpt>
      <trkpt lat="46.45593" lon="5.9506">
        <ele>1005.7</ele>
        <time>2022-06-14T08:28:17Z</time>
      </trkpt>
      <trkpt lat="46.45594" lon="5.95067">
        <ele>1007.8</ele>
        <time>2022-06-14T08:28:24Z</time>
      </trkpt>
      <trkpt lat="46.45596" lon="5.95072">
        <ele>1009.6</ele>
        <time>2022-06-14T08:28:31Z</time>
      </trkpt>
      <trkpt lat="46.456" lon="5.95077">
        <ele>1010.3</ele>
        <time>2022-06-14T08:28:36Z</time>
      </trkpt>
      <trkpt lat="46.45603" lon="5.95083">
        <ele>1010.5</ele>
        <time>2022-06-14T08:28:41Z</time>
      </trkpt>
      <trkpt lat="46.45605" lon="5.95088">
        <ele>1010.5</ele>
        <time>2022-06-14T08:28:46Z</time>
      </trkpt>
      <trkpt lat="46.45608" lon="5.95093">
        <ele>1010.9</ele>
        <time>2022-06-14T08:28:51Z</time>
      </trkpt>
      <trkpt lat="46.45611" lon="5.951">
        <ele>1010.8</ele>
        <time>2022-06-14T08:28:56Z</time>
      </trkpt>
      <trkpt lat="46.45613" lon="5.95105">
        <ele>1011.2</ele>
        <time>2022-06-14T08:29:06Z</time>
      </trkpt>
      <trkpt lat="46.45617" lon="5.95109">
        <ele>1010.9</ele>
        <time>2022-06-14T08:29:12Z</time>
      </trkpt>
      <trkpt lat="46.45621" lon="5.95113">
        <ele>1009.8</ele>
        <time>2022-06-14T08:29:16Z</time>
      </trkpt>
      <trkpt lat="46.45624" lon="5.95119">
        <ele>1008.8</ele>
        <time>2022-06-14T08:29:20Z</time>
      </trkpt>
      <trkpt lat="46.45626" lon="5.95126">
        <ele>1008.1</ele>
        <time>2022-06-14T08:29:23Z</time>
      </trkpt>
      <trkpt lat="46.45628" lon="5.95132">
        <ele>1007.6</ele>
        <time>2022-06-14T08:29:27Z</time>
      </trkpt>
      <trkpt lat="46.45627" lon="5.95139">
        <ele>1006.3</ele>
        <time>2022-06-14T08:29:33Z</time>
      </trkpt>
      <trkpt lat="46.45621" lon="5.95141">
        <ele>1005.1</ele>
        <time>2022-06-14T08:29:38Z</time>
      </trkpt>
      <trkpt lat="46.45616" lon="5.95143">
        <ele>1004.3</ele>
        <time>2022-06-14T08:29:41Z</time>
      </trkpt>
      <trkpt lat="46.45612" lon="5.95147">
        <ele>1003.1</ele>
        <time>2022-06-14T08:29:45Z</time>
      </trkpt>
      <trkpt lat="46.45611" lon="5.95154">
        <ele>1002.2</ele>
        <time>2022-06-14T08:29:49Z</time>
      </trkpt>
      <trkpt lat="46.45607" lon="5.9516">
        <ele>1001.7</ele>
        <time>2022-06-14T08:29:53Z</time>
      </trkpt>
      <trkpt lat="46.45603" lon="5.95161">
        <ele>1001.3</ele>
        <time>2022-06-14T08:30:01Z</time>
      </trkpt>
      <trkpt lat="46.45599" lon="5.95165">
        <ele>1000.6</ele>
        <time>2022-06-14T08:30:07Z</time>
      </trkpt>
      <trkpt lat="46.45595" lon="5.9517">
        <ele>999.9</ele>
        <time>2022-06-14T08:30:15Z</time>
      </trkpt>
      <trkpt lat="46.45593" lon="5.95176">
        <ele>998.7</ele>
        <time>2022-06-14T08:30:27Z</time>
      </trkpt>
      <trkpt lat="46.4559" lon="5.95183">
        <ele>998.3</ele>
        <time>2022-06-14T08:30:38Z</time>
      </trkpt>
      <trkpt lat="46.45591" lon="5.95191">
        <ele>999.2</ele>
        <time>2022-06-14T08:30:46Z</time>
      </trkpt>
      <trkpt lat="46.45593" lon="5.95198">
        <ele>1000.1</ele>
        <time>2022-06-14T08:30:50Z</time>
      </trkpt>
      <trkpt lat="46.45592" lon="5.95206">
        <ele>1000.9</ele>
        <time>2022-06-14T08:30:54Z</time>
      </trkpt>
      <trkpt lat="46.45592" lon="5.95214">
        <ele>1001.8</ele>
        <time>2022-06-14T08:30:59Z</time>
      </trkpt>
      <trkpt lat="46.45592" lon="5.9522">
        <ele>1002.5</ele>
        <time>2022-06-14T08:31:02Z</time>
      </trkpt>
      <trkpt lat="46.45592" lon="5.95227">
        <ele>1003.5</ele>
        <time>2022-06-14T08:31:07Z</time>
      </trkpt>
      <trkpt lat="46.45595" lon="5.95233">
        <ele>1004.4</ele>
        <time>2022-06-14T08:31:12Z</time>
      </trkpt>
      <trkpt lat="46.45597" lon="5.9524">
        <ele>1004.8</ele>
        <time>2022-06-14T08:31:18Z</time>
      </trkpt>
      <trkpt lat="46.45599" lon="5.95246">
        <ele>1005.2</ele>
        <time>2022-06-14T08:31:24Z</time>
      </trkpt>
      <trkpt lat="46.45602" lon="5.95252">
        <ele>1006</ele>
        <time>2022-06-14T08:31:30Z</time>
      </trkpt>
      <trkpt lat="46.45606" lon="5.95258">
        <ele>1007.4</ele>
        <time>2022-06-14T08:31:40Z</time>
      </trkpt>
      <trkpt lat="46.45607" lon="5.95265">
        <ele>1007.9</ele>
        <time>2022-06-14T08:31:45Z</time>
      </trkpt>
      <trkpt lat="46.45609" lon="5.95272">
        <ele>1008.5</ele>
        <time>2022-06-14T08:31:50Z</time>
      </trkpt>
      <trkpt lat="46.4561" lon="5.9528">
        <ele>1009.2</ele>
        <time>2022-06-14T08:31:56Z</time>
      </trkpt>
      <trkpt lat="46.45606" lon="5.95285">
        <ele>1009</ele>
        <time>2022-06-14T08:32:00Z</time>
      </trkpt>
      <trkpt lat="46.45607" lon="5.95292">
        <ele>1008.9</ele>
        <time>2022-06-14T08:32:07Z</time>
      </trkpt>
      <trkpt lat="46.4561" lon="5.95297">
        <ele>1009.4</ele>
        <time>2022-06-14T08:32:12Z</time>
      </trkpt>
      <trkpt lat="46.45613" lon="5.95302">
        <ele>1010.5</ele>
        <time>2022-06-14T08:32:22Z</time>
      </trkpt>
      <trkpt lat="46.45617" lon="5.95308">
        <ele>1011.3</ele>
        <time>2022-06-14T08:32:27Z</time>
      </trkpt>
      <trkpt lat="46.45617" lon="5.95314">
        <ele>1011.6</ele>
        <time>2022-06-14T08:32:31Z</time>
      </trkpt>
      <trkpt lat="46.45616" lon="5.95321">
        <ele>1011.5</ele>
        <time>2022-06-14T08:32:37Z</time>
      </trkpt>
      <trkpt lat="46.45618" lon="5.95328">
        <ele>1011.2</ele>
        <time>2022-06-14T08:32:44Z</time>
      </trkpt>
      <trkpt lat="46.45621" lon="5.95334">
        <ele>1011.2</ele>
        <time>2022-06-14T08:32:49Z</time>
      </trkpt>
      <trkpt lat="46.45622" lon="5.9534">
        <ele>1011.3</ele>
        <time>2022-06-14T08:32:54Z</time>
      </trkpt>
      <trkpt lat="46.45623" lon="5.95347">
        <ele>1011.1</ele>
        <time>2022-06-14T08:32:59Z</time>
      </trkpt>
      <trkpt lat="46.45625" lon="5.95354">
        <ele>1011.4</ele>
        <time>2022-06-14T08:33:05Z</time>
      </trkpt>
      <trkpt lat="46.45626" lon="5.95361">
        <ele>1011.7</ele>
        <time>2022-06-14T08:33:12Z</time>
      </trkpt>
      <trkpt lat="46.4563" lon="5.95367">
        <ele>1012</ele>
        <time>2022-06-14T08:33:19Z</time>
      </trkpt>
      <trkpt lat="46.45631" lon="5.95374">
        <ele>1012.2</ele>
        <time>2022-06-14T08:33:23Z</time>
      </trkpt>
      <trkpt lat="46.45632" lon="5.95381">
        <ele>1012.5</ele>
        <time>2022-06-14T08:33:28Z</time>
      </trkpt>
      <trkpt lat="46.4563" lon="5.95387">
        <ele>1013</ele>
        <time>2022-06-14T08:33:36Z</time>
      </trkpt>
      <trkpt lat="46.45632" lon="5.95394">
        <ele>1012.8</ele>
        <time>2022-06-14T08:33:44Z</time>
      </trkpt>
      <trkpt lat="46.45632" lon="5.95401">
        <ele>1012.5</ele>
        <time>2022-06-14T08:33:48Z</time>
      </trkpt>
      <trkpt lat="46.45633" lon="5.95408">
        <ele>1012.3</ele>
        <time>2022-06-14T08:33:53Z</time>
      </trkpt>
      <trkpt lat="46.45634" lon="5.95415">
        <ele>1012.5</ele>
        <time>2022-06-14T08:33:57Z</time>
      </trkpt>
      <trkpt lat="46.45634" lon="5.95422">
        <ele>1012.5</ele>
        <time>2022-06-14T08:34:01Z</time>
      </trkpt>
      <trkpt lat="46.45633" lon="5.9543">
        <ele>1012.7</ele>
        <time>2022-06-14T08:34:05Z</time>
      </trkpt>
      <trkpt lat="46.45631" lon="5.95436">
        <ele>1012.7</ele>
        <time>2022-06-14T08:34:09Z</time>
      </trkpt>
      <trkpt lat="46.45628" lon="5.95443">
        <ele>1012.7</ele>
        <time>2022-06-14T08:34:13Z</time>
      </trkpt>
      <trkpt lat="46.45627" lon="5.9545">
        <ele>1013.1</ele>
        <time>2022-06-14T08:34:18Z</time>
      </trkpt>
      <trkpt lat="46.45631" lon="5.95453">
        <ele>1014</ele>
        <time>2022-06-14T08:34:26Z</time>
      </trkpt>
      <trkpt lat="46.45635" lon="5.95457">
        <ele>1014.7</ele>
        <time>2022-06-14T08:34:35Z</time>
      </trkpt>
      <trkpt lat="46.45637" lon="5.95464">
        <ele>1015.1</ele>
        <time>2022-06-14T08:34:43Z</time>
      </trkpt>
      <trkpt lat="46.45635" lon="5.95472">
        <ele>1014.9</ele>
        <time>2022-06-14T08:34:47Z</time>
      </trkpt>
      <trkpt lat="46.45635" lon="5.95478">
        <ele>1014.6</ele>
        <time>2022-06-14T08:34:51Z</time>
      </trkpt>
      <trkpt lat="46.45634" lon="5.95485">
        <ele>1014.3</ele>
        <time>2022-06-14T08:34:55Z</time>
      </trkpt>
      <trkpt lat="46.45634" lon="5.95493">
        <ele>1014</ele>
        <time>2022-06-14T08:34:59Z</time>
      </trkpt>
      <trkpt lat="46.45633" lon="5.955">
        <ele>1013.8</ele>
        <time>2022-06-14T08:35:03Z</time>
      </trkpt>
      <trkpt lat="46.4563" lon="5.95507">
        <ele>1013.7</ele>
        <time>2022-06-14T08:35:08Z</time>
      </trkpt>
      <trkpt lat="46.45628" lon="5.95513">
        <ele>1013.9</ele>
        <time>2022-06-14T08:35:13Z</time>
      </trkpt>
      <trkpt lat="46.45628" lon="5.95521">
        <ele>1012.8</ele>
        <time>2022-06-14T08:35:28Z</time>
      </trkpt>
      <trkpt lat="46.45628" lon="5.95528">
        <ele>1010.8</ele>
        <time>2022-06-14T08:35:34Z</time>
      </trkpt>
      <trkpt lat="46.45628" lon="5.95535">
        <ele>1007.7</ele>
        <time>2022-06-14T08:35:41Z</time>
      </trkpt>
      <trkpt lat="46.45624" lon="5.95538">
        <ele>1006.2</ele>
        <time>2022-06-14T08:35:48Z</time>
      </trkpt>
      <trkpt lat="46.4562" lon="5.95541">
        <ele>1005.4</ele>
        <time>2022-06-14T08:35:52Z</time>
      </trkpt>
      <trkpt lat="46.45617" lon="5.95548">
        <ele>1004.8</ele>
        <time>2022-06-14T08:35:57Z</time>
      </trkpt>
      <trkpt lat="46.45617" lon="5.95555">
        <ele>1004.3</ele>
        <time>2022-06-14T08:36:01Z</time>
      </trkpt>
      <trkpt lat="46.45614" lon="5.95562">
        <ele>1003.7</ele>
        <time>2022-06-14T08:36:07Z</time>
      </trkpt>
      <trkpt lat="46.45607" lon="5.95569">
        <ele>1002.9</ele>
        <time>2022-06-14T08:36:10Z</time>
      </trkpt>
      <trkpt lat="46.45605" lon="5.95575">
        <ele>1001.8</ele>
        <time>2022-06-14T08:36:17Z</time>
      </trkpt>
      <trkpt lat="46.45602" lon="5.95581">
        <ele>1000.5</ele>
        <time>2022-06-14T08:36:26Z</time>
      </trkpt>
      <trkpt lat="46.45599" lon="5.95587">
        <ele>1000.1</ele>
        <time>2022-06-14T08:36:31Z</time>
      </trkpt>
      <trkpt lat="46.45596" lon="5.95593">
        <ele>999.9</ele>
        <time>2022-06-14T08:36:36Z</time>
      </trkpt>
      <trkpt lat="46.45594" lon="5.95599">
        <ele>999.9</ele>
        <time>2022-06-14T08:36:41Z</time>
      </trkpt>
      <trkpt lat="46.45594" lon="5.95606">
        <ele>1001.6</ele>
        <time>2022-06-14T08:36:52Z</time>
      </trkpt>
      <trkpt lat="46.45592" lon="5.95612">
        <ele>1011.5</ele>
        <time>2022-06-14T08:38:24Z</time>
      </trkpt>
      <trkpt lat="46.45592" lon="5.95619">
        <ele>1012.8</ele>
        <time>2022-06-14T08:38:39Z</time>
      </trkpt>
      <trkpt lat="46.45593" lon="5.95626">
        <ele>1014.1</ele>
        <time>2022-06-14T08:38:47Z</time>
      </trkpt>
      <trkpt lat="46.4559" lon="5.95631">
        <ele>1017.6</ele>
        <time>2022-06-14T08:39:09Z</time>
      </trkpt>
      <trkpt lat="46.45594" lon="5.95635">
        <ele>1020.7</ele>
        <time>2022-06-14T08:39:23Z</time>
      </trkpt>
      <trkpt lat="46.45589" lon="5.95637">
        <ele>1021.4</ele>
        <time>2022-06-14T08:39:27Z</time>
      </trkpt>
      <trkpt lat="46.45585" lon="5.95633">
        <ele>1022.7</ele>
        <time>2022-06-14T08:39:54Z</time>
      </trkpt>
      <trkpt lat="46.4559" lon="5.95631">
        <ele>1020.1</ele>
        <time>2022-06-14T08:40:56Z</time>
      </trkpt>
      <trkpt lat="46.45594" lon="5.95626">
        <ele>1018.4</ele>
        <time>2022-06-14T08:41:16Z</time>
      </trkpt>
      <trkpt lat="46.45589" lon="5.95627">
        <ele>1022.3</ele>
        <time>2022-06-14T08:41:40Z</time>
      </trkpt>
      <trkpt lat="46.45585" lon="5.95632">
        <ele>1022.9</ele>
        <time>2022-06-14T08:41:46Z</time>
      </trkpt>
      <trkpt lat="46.45581" lon="5.95636">
        <ele>1023.3</ele>
        <time>2022-06-14T08:41:49Z</time>
      </trkpt>
      <trkpt lat="46.45579" lon="5.95642">
        <ele>1023.7</ele>
        <time>2022-06-14T08:41:54Z</time>
      </trkpt>
      <trkpt lat="46.45574" lon="5.95645">
        <ele>1024.1</ele>
        <time>2022-06-14T08:42:00Z</time>
      </trkpt>
      <trkpt lat="46.45571" lon="5.95651">
        <ele>1024.3</ele>
        <time>2022-06-14T08:42:05Z</time>
      </trkpt>
      <trkpt lat="46.45567" lon="5.95659">
        <ele>1024.2</ele>
        <time>2022-06-14T08:42:09Z</time>
      </trkpt>
      <trkpt lat="46.45565" lon="5.95665">
        <ele>1024</ele>
        <time>2022-06-14T08:42:12Z</time>
      </trkpt>
      <trkpt lat="46.45563" lon="5.95674">
        <ele>1023.5</ele>
        <time>2022-06-14T08:42:16Z</time>
      </trkpt>
      <trkpt lat="46.45564" lon="5.9568">
        <ele>1023</ele>
        <time>2022-06-14T08:42:20Z</time>
      </trkpt>
      <trkpt lat="46.4556" lon="5.95685">
        <ele>1024.1</ele>
        <time>2022-06-14T08:42:26Z</time>
      </trkpt>
      <trkpt lat="46.45558" lon="5.95692">
        <ele>1025.2</ele>
        <time>2022-06-14T08:42:31Z</time>
      </trkpt>
      <trkpt lat="46.45558" lon="5.95701">
        <ele>1026.2</ele>
        <time>2022-06-14T08:42:35Z</time>
      </trkpt>
      <trkpt lat="46.45557" lon="5.95708">
        <ele>1026.8</ele>
        <time>2022-06-14T08:42:39Z</time>
      </trkpt>
      <trkpt lat="46.45557" lon="5.95715">
        <ele>1027.3</ele>
        <time>2022-06-14T08:42:44Z</time>
      </trkpt>
      <trkpt lat="46.45559" lon="5.95722">
        <ele>1029.5</ele>
        <time>2022-06-14T08:42:50Z</time>
      </trkpt>
      <trkpt lat="46.45558" lon="5.9573">
        <ele>1031.4</ele>
        <time>2022-06-14T08:42:56Z</time>
      </trkpt>
      <trkpt lat="46.45557" lon="5.95737">
        <ele>1033.2</ele>
        <time>2022-06-14T08:43:02Z</time>
      </trkpt>
      <trkpt lat="46.45555" lon="5.95743">
        <ele>1034.8</ele>
        <time>2022-06-14T08:43:15Z</time>
      </trkpt>
      <trkpt lat="46.4556" lon="5.95747">
        <ele>1035.2</ele>
        <time>2022-06-14T08:43:20Z</time>
      </trkpt>
      <trkpt lat="46.45559" lon="5.95754">
        <ele>1035.7</ele>
        <time>2022-06-14T08:43:26Z</time>
      </trkpt>
      <trkpt lat="46.45558" lon="5.95762">
        <ele>1036.4</ele>
        <time>2022-06-14T08:43:31Z</time>
      </trkpt>
      <trkpt lat="46.45557" lon="5.95769">
        <ele>1037.5</ele>
        <time>2022-06-14T08:43:37Z</time>
      </trkpt>
      <trkpt lat="46.45558" lon="5.95776">
        <ele>1037.8</ele>
        <time>2022-06-14T08:43:43Z</time>
      </trkpt>
      <trkpt lat="46.45558" lon="5.95783">
        <ele>1037.6</ele>
        <time>2022-06-14T08:43:50Z</time>
      </trkpt>
      <trkpt lat="46.45557" lon="5.95789">
        <ele>1037.6</ele>
        <time>2022-06-14T08:43:54Z</time>
      </trkpt>
      <trkpt lat="46.45555" lon="5.95795">
        <ele>1037.3</ele>
        <time>2022-06-14T08:43:58Z</time>
      </trkpt>
      <trkpt lat="46.45549" lon="5.95802">
        <ele>1036.1</ele>
        <time>2022-06-14T08:44:12Z</time>
      </trkpt>
      <trkpt lat="46.45543" lon="5.95805">
        <ele>1036.2</ele>
        <time>2022-06-14T08:44:15Z</time>
      </trkpt>
      <trkpt lat="46.45541" lon="5.95812">
        <ele>1036.1</ele>
        <time>2022-06-14T08:44:23Z</time>
      </trkpt>
      <trkpt lat="46.45541" lon="5.95821">
        <ele>1036.1</ele>
        <time>2022-06-14T08:44:27Z</time>
      </trkpt>
      <trkpt lat="46.4554" lon="5.95829">
        <ele>1036.5</ele>
        <time>2022-06-14T08:44:30Z</time>
      </trkpt>
      <trkpt lat="46.4554" lon="5.95837">
        <ele>1037</ele>
        <time>2022-06-14T08:44:34Z</time>
      </trkpt>
      <trkpt lat="46.45537" lon="5.95843">
        <ele>1037.1</ele>
        <time>2022-06-14T08:44:38Z</time>
      </trkpt>
      <trkpt lat="46.45535" lon="5.95849">
        <ele>1037.9</ele>
        <time>2022-06-14T08:44:43Z</time>
      </trkpt>
      <trkpt lat="46.45535" lon="5.95856">
        <ele>1038</ele>
        <time>2022-06-14T08:44:55Z</time>
      </trkpt>
      <trkpt lat="46.45531" lon="5.95863">
        <ele>1034.2</ele>
        <time>2022-06-14T08:45:12Z</time>
      </trkpt>
      <trkpt lat="46.45527" lon="5.95868">
        <ele>1033.7</ele>
        <time>2022-06-14T08:45:15Z</time>
      </trkpt>
      <trkpt lat="46.45524" lon="5.95872">
        <ele>1033.3</ele>
        <time>2022-06-14T08:45:18Z</time>
      </trkpt>
      <trkpt lat="46.45519" lon="5.95874">
        <ele>1033.3</ele>
        <time>2022-06-14T08:45:21Z</time>
      </trkpt>
      <trkpt lat="46.45514" lon="5.95877">
        <ele>1033.3</ele>
        <time>2022-06-14T08:45:25Z</time>
      </trkpt>
      <trkpt lat="46.4551" lon="5.95878">
        <ele>1033.6</ele>
        <time>2022-06-14T08:45:37Z</time>
      </trkpt>
      <trkpt lat="46.45504" lon="5.9588">
        <ele>1033.9</ele>
        <time>2022-06-14T08:45:40Z</time>
      </trkpt>
      <trkpt lat="46.455" lon="5.95885">
        <ele>1034.9</ele>
        <time>2022-06-14T08:45:45Z</time>
      </trkpt>
      <trkpt lat="46.45496" lon="5.95892">
        <ele>1035.3</ele>
        <time>2022-06-14T08:45:48Z</time>
      </trkpt>
      <trkpt lat="46.45495" lon="5.95898">
        <ele>1035.7</ele>
        <time>2022-06-14T08:45:53Z</time>
      </trkpt>
      <trkpt lat="46.45499" lon="5.95902">
        <ele>1036.1</ele>
        <time>2022-06-14T08:46:04Z</time>
      </trkpt>
      <trkpt lat="46.45498" lon="5.9591">
        <ele>1036.8</ele>
        <time>2022-06-14T08:46:10Z</time>
      </trkpt>
      <trkpt lat="46.45497" lon="5.95918">
        <ele>1037.3</ele>
        <time>2022-06-14T08:46:13Z</time>
      </trkpt>
      <trkpt lat="46.45496" lon="5.95925">
        <ele>1037.5</ele>
        <time>2022-06-14T08:46:18Z</time>
      </trkpt>
      <trkpt lat="46.45497" lon="5.95933">
        <ele>1037.2</ele>
        <time>2022-06-14T08:46:24Z</time>
      </trkpt>
      <trkpt lat="46.45499" lon="5.95939">
        <ele>1037.6</ele>
        <time>2022-06-14T08:46:27Z</time>
      </trkpt>
      <trkpt lat="46.45499" lon="5.95945">
        <ele>1039</ele>
        <time>2022-06-14T08:46:32Z</time>
      </trkpt>
      <trkpt lat="46.45495" lon="5.9595">
        <ele>1039.7</ele>
        <time>2022-06-14T08:46:39Z</time>
      </trkpt>
      <trkpt lat="46.45491" lon="5.95954">
        <ele>1040.2</ele>
        <time>2022-06-14T08:46:47Z</time>
      </trkpt>
      <trkpt lat="46.45496" lon="5.95956">
        <ele>1041</ele>
        <time>2022-06-14T08:46:58Z</time>
      </trkpt>
      <trkpt lat="46.45495" lon="5.95962">
        <ele>1041.3</ele>
        <time>2022-06-14T08:47:13Z</time>
      </trkpt>
      <trkpt lat="46.4549" lon="5.95957">
        <ele>1040.6</ele>
        <time>2022-06-14T08:47:20Z</time>
      </trkpt>
      <trkpt lat="46.45497" lon="5.95974">
        <ele>1039.3</ele>
        <time>2022-06-14T08:47:42Z</time>
      </trkpt>
      <trkpt lat="46.45481" lon="5.95973">
        <ele>1033.8</ele>
        <time>2022-06-14T08:48:04Z</time>
      </trkpt>
      <trkpt lat="46.4548" lon="5.95965">
        <ele>1032.5</ele>
        <time>2022-06-14T08:48:10Z</time>
      </trkpt>
      <trkpt lat="46.45483" lon="5.95961">
        <ele>1031.2</ele>
        <time>2022-06-14T08:48:18Z</time>
      </trkpt>
      <trkpt lat="46.45487" lon="5.95957">
        <ele>1030.8</ele>
        <time>2022-06-14T08:48:26Z</time>
      </trkpt>
      <trkpt lat="46.45485" lon="5.9595">
        <ele>1033.5</ele>
        <time>2022-06-14T08:48:43Z</time>
      </trkpt>
      <trkpt lat="46.45481" lon="5.95953">
        <ele>1037.8</ele>
        <time>2022-06-14T08:49:27Z</time>
      </trkpt>
      <trkpt lat="46.45485" lon="5.95957">
        <ele>1039.6</ele>
        <time>2022-06-14T08:49:33Z</time>
      </trkpt>
      <trkpt lat="46.45485" lon="5.95964">
        <ele>1041.9</ele>
        <time>2022-06-14T08:49:43Z</time>
      </trkpt>
      <trkpt lat="46.4548" lon="5.95965">
        <ele>1043.1</ele>
        <time>2022-06-14T08:49:50Z</time>
      </trkpt>
      <trkpt lat="46.45482" lon="5.95972">
        <ele>1043.7</ele>
        <time>2022-06-14T08:50:25Z</time>
      </trkpt>
      <trkpt lat="46.45487" lon="5.95974">
        <ele>1043.9</ele>
        <time>2022-06-14T08:50:43Z</time>
      </trkpt>
      <trkpt lat="46.4549" lon="5.95969">
        <ele>1048.9</ele>
        <time>2022-06-14T08:51:02Z</time>
      </trkpt>
      <trkpt lat="46.45488" lon="5.95962">
        <ele>1049.4</ele>
        <time>2022-06-14T08:51:05Z</time>
      </trkpt>
      <trkpt lat="46.45485" lon="5.95957">
        <ele>1049.6</ele>
        <time>2022-06-14T08:51:09Z</time>
      </trkpt>
      <trkpt lat="46.4548" lon="5.95959">
        <ele>1048.7</ele>
        <time>2022-06-14T08:51:14Z</time>
      </trkpt>
      <trkpt lat="46.45483" lon="5.95954">
        <ele>1045.3</ele>
        <time>2022-06-14T08:51:37Z</time>
      </trkpt>
      <trkpt lat="46.45478" lon="5.95956">
        <ele>1045.2</ele>
        <time>2022-06-14T08:51:50Z</time>
      </trkpt>
      <trkpt lat="46.45476" lon="5.9595">
        <ele>1047.2</ele>
        <time>2022-06-14T08:52:45Z</time>
      </trkpt>
      <trkpt lat="46.45476" lon="5.95957">
        <ele>1040.6</ele>
        <time>2022-06-14T08:53:37Z</time>
      </trkpt>
      <trkpt lat="46.45481" lon="5.95956">
        <ele>1037.4</ele>
        <time>2022-06-14T08:53:59Z</time>
      </trkpt>
      <trkpt lat="46.45477" lon="5.95953">
        <ele>1033.9</ele>
        <time>2022-06-14T08:54:26Z</time>
      </trkpt>
      <trkpt lat="46.45471" lon="5.95953">
        <ele>1033.8</ele>
        <time>2022-06-14T08:54:33Z</time>
      </trkpt>
      <trkpt lat="46.45467" lon="5.95953">
        <ele>1034</ele>
        <time>2022-06-14T08:54:37Z</time>
      </trkpt>
      <trkpt lat="46.45463" lon="5.95958">
        <ele>1034.4</ele>
        <time>2022-06-14T08:54:42Z</time>
      </trkpt>
      <trkpt lat="46.45461" lon="5.95963">
        <ele>1035</ele>
        <time>2022-06-14T08:54:48Z</time>
      </trkpt>
      <trkpt lat="46.45456" lon="5.95964">
        <ele>1037.1</ele>
        <time>2022-06-14T08:55:03Z</time>
      </trkpt>
      <trkpt lat="46.45452" lon="5.95966">
        <ele>1037.4</ele>
        <time>2022-06-14T08:55:09Z</time>
      </trkpt>
      <trkpt lat="46.45447" lon="5.95969">
        <ele>1037.3</ele>
        <time>2022-06-14T08:55:16Z</time>
      </trkpt>
      <trkpt lat="46.45442" lon="5.95971">
        <ele>1037.1</ele>
        <time>2022-06-14T08:55:19Z</time>
      </trkpt>
      <trkpt lat="46.45438" lon="5.9597">
        <ele>1037.1</ele>
        <time>2022-06-14T08:55:23Z</time>
      </trkpt>
      <trkpt lat="46.45433" lon="5.95969">
        <ele>1036.9</ele>
        <time>2022-06-14T08:55:28Z</time>
      </trkpt>
      <trkpt lat="46.45428" lon="5.9597">
        <ele>1036.9</ele>
        <time>2022-06-14T08:55:31Z</time>
      </trkpt>
      <trkpt lat="46.45421" lon="5.95972">
        <ele>1037</ele>
        <time>2022-06-14T08:55:34Z</time>
      </trkpt>
      <trkpt lat="46.45415" lon="5.95973">
        <ele>1036.9</ele>
        <time>2022-06-14T08:55:37Z</time>
      </trkpt>
      <trkpt lat="46.45411" lon="5.95972">
        <ele>1037</ele>
        <time>2022-06-14T08:55:41Z</time>
      </trkpt>
      <trkpt lat="46.45406" lon="5.9597">
        <ele>1037.1</ele>
        <time>2022-06-14T08:55:48Z</time>
      </trkpt>
      <trkpt lat="46.454" lon="5.9597">
        <ele>1037.2</ele>
        <time>2022-06-14T08:55:54Z</time>
      </trkpt>
      <trkpt lat="46.45395" lon="5.9597">
        <ele>1037.7</ele>
        <time>2022-06-14T08:56:00Z</time>
      </trkpt>
      <trkpt lat="46.4539" lon="5.95972">
        <ele>1038.1</ele>
        <time>2022-06-14T08:56:06Z</time>
      </trkpt>
      <trkpt lat="46.45386" lon="5.95973">
        <ele>1038.2</ele>
        <time>2022-06-14T08:56:10Z</time>
      </trkpt>
      <trkpt lat="46.45381" lon="5.95975">
        <ele>1038.4</ele>
        <time>2022-06-14T08:56:14Z</time>
      </trkpt>
      <trkpt lat="46.45377" lon="5.9598">
        <ele>1038.6</ele>
        <time>2022-06-14T08:56:19Z</time>
      </trkpt>
      <trkpt lat="46.45374" lon="5.95985">
        <ele>1038.9</ele>
        <time>2022-06-14T08:56:24Z</time>
      </trkpt>
      <trkpt lat="46.45371" lon="5.95991">
        <ele>1040.2</ele>
        <time>2022-06-14T08:56:36Z</time>
      </trkpt>
      <trkpt lat="46.45369" lon="5.95998">
        <ele>1041.6</ele>
        <time>2022-06-14T08:56:41Z</time>
      </trkpt>
      <trkpt lat="46.45366" lon="5.96004">
        <ele>1043</ele>
        <time>2022-06-14T08:56:45Z</time>
      </trkpt>
      <trkpt lat="46.45362" lon="5.96011">
        <ele>1044.5</ele>
        <time>2022-06-14T08:56:49Z</time>
      </trkpt>
      <trkpt lat="46.45359" lon="5.96016">
        <ele>1045.5</ele>
        <time>2022-06-14T08:56:53Z</time>
      </trkpt>
      <trkpt lat="46.45358" lon="5.96023">
        <ele>1046.2</ele>
        <time>2022-06-14T08:56:58Z</time>
      </trkpt>
      <trkpt lat="46.45354" lon="5.96027">
        <ele>1046.7</ele>
        <time>2022-06-14T08:57:03Z</time>
      </trkpt>
      <trkpt lat="46.45353" lon="5.96034">
        <ele>1046.2</ele>
        <time>2022-06-14T08:57:08Z</time>
      </trkpt>
      <trkpt lat="46.4535" lon="5.96041">
        <ele>1046</ele>
        <time>2022-06-14T08:57:13Z</time>
      </trkpt>
      <trkpt lat="46.45347" lon="5.96048">
        <ele>1045.9</ele>
        <time>2022-06-14T08:57:18Z</time>
      </trkpt>
      <trkpt lat="46.45343" lon="5.96052">
        <ele>1048.9</ele>
        <time>2022-06-14T08:57:25Z</time>
      </trkpt>
      <trkpt lat="46.4534" lon="5.96058">
        <ele>1051.2</ele>
        <time>2022-06-14T08:57:29Z</time>
      </trkpt>
      <trkpt lat="46.45338" lon="5.96064">
        <ele>1052.6</ele>
        <time>2022-06-14T08:57:34Z</time>
      </trkpt>
      <trkpt lat="46.45335" lon="5.96069">
        <ele>1053.2</ele>
        <time>2022-06-14T08:57:39Z</time>
      </trkpt>
      <trkpt lat="46.45332" lon="5.96074">
        <ele>1054</ele>
        <time>2022-06-14T08:57:43Z</time>
      </trkpt>
      <trkpt lat="46.45328" lon="5.96077">
        <ele>1054.9</ele>
        <time>2022-06-14T08:57:47Z</time>
      </trkpt>
      <trkpt lat="46.45324" lon="5.96082">
        <ele>1055.6</ele>
        <time>2022-06-14T08:57:52Z</time>
      </trkpt>
      <trkpt lat="46.45322" lon="5.9609">
        <ele>1056</ele>
        <time>2022-06-14T08:57:56Z</time>
      </trkpt>
      <trkpt lat="46.45319" lon="5.96096">
        <ele>1056.1</ele>
        <time>2022-06-14T08:58:00Z</time>
      </trkpt>
      <trkpt lat="46.45314" lon="5.96098">
        <ele>1056.2</ele>
        <time>2022-06-14T08:58:04Z</time>
      </trkpt>
      <trkpt lat="46.4531" lon="5.96101">
        <ele>1055.7</ele>
        <time>2022-06-14T08:58:09Z</time>
      </trkpt>
      <trkpt lat="46.45308" lon="5.96109">
        <ele>1055.2</ele>
        <time>2022-06-14T08:58:13Z</time>
      </trkpt>
      <trkpt lat="46.45308" lon="5.96116">
        <ele>1054.4</ele>
        <time>2022-06-14T08:58:18Z</time>
      </trkpt>
      <trkpt lat="46.45306" lon="5.96123">
        <ele>1053.5</ele>
        <time>2022-06-14T08:58:23Z</time>
      </trkpt>
      <trkpt lat="46.45302" lon="5.96128">
        <ele>1053.1</ele>
        <time>2022-06-14T08:58:27Z</time>
      </trkpt>
      <trkpt lat="46.45299" lon="5.96133">
        <ele>1052.9</ele>
        <time>2022-06-14T08:58:31Z</time>
      </trkpt>
      <trkpt lat="46.45296" lon="5.96138">
        <ele>1052.3</ele>
        <time>2022-06-14T08:58:36Z</time>
      </trkpt>
      <trkpt lat="46.45295" lon="5.96145">
        <ele>1051.8</ele>
        <time>2022-06-14T08:58:43Z</time>
      </trkpt>
      <trkpt lat="46.45292" lon="5.96151">
        <ele>1051.9</ele>
        <time>2022-06-14T08:58:48Z</time>
      </trkpt>
      <trkpt lat="46.45288" lon="5.96156">
        <ele>1052</ele>
        <time>2022-06-14T08:58:53Z</time>
      </trkpt>
      <trkpt lat="46.45287" lon="5.96163">
        <ele>1052.2</ele>
        <time>2022-06-14T08:58:58Z</time>
      </trkpt>
      <trkpt lat="46.45285" lon="5.9617">
        <ele>1052.6</ele>
        <time>2022-06-14T08:59:03Z</time>
      </trkpt>
      <trkpt lat="46.45283" lon="5.96177">
        <ele>1053</ele>
        <time>2022-06-14T08:59:09Z</time>
      </trkpt>
      <trkpt lat="46.45282" lon="5.96183">
        <ele>1053.2</ele>
        <time>2022-06-14T08:59:13Z</time>
      </trkpt>
      <trkpt lat="46.4528" lon="5.9619">
        <ele>1053.4</ele>
        <time>2022-06-14T08:59:17Z</time>
      </trkpt>
      <trkpt lat="46.45281" lon="5.96197">
        <ele>1053.6</ele>
        <time>2022-06-14T08:59:20Z</time>
      </trkpt>
      <trkpt lat="46.45278" lon="5.96204">
        <ele>1053.7</ele>
        <time>2022-06-14T08:59:24Z</time>
      </trkpt>
      <trkpt lat="46.45275" lon="5.9621">
        <ele>1053.7</ele>
        <time>2022-06-14T08:59:29Z</time>
      </trkpt>
      <trkpt lat="46.45272" lon="5.96215">
        <ele>1053.8</ele>
        <time>2022-06-14T08:59:35Z</time>
      </trkpt>
      <trkpt lat="46.4527" lon="5.96221">
        <ele>1054.6</ele>
        <time>2022-06-14T08:59:41Z</time>
      </trkpt>
      <trkpt lat="46.45268" lon="5.96228">
        <ele>1055.2</ele>
        <time>2022-06-14T08:59:47Z</time>
      </trkpt>
      <trkpt lat="46.45266" lon="5.96235">
        <ele>1055.5</ele>
        <time>2022-06-14T08:59:51Z</time>
      </trkpt>
      <trkpt lat="46.45263" lon="5.9624">
        <ele>1055.7</ele>
        <time>2022-06-14T08:59:56Z</time>
      </trkpt>
      <trkpt lat="46.4526" lon="5.96246">
        <ele>1055.6</ele>
        <time>2022-06-14T09:00:01Z</time>
      </trkpt>
      <trkpt lat="46.45257" lon="5.96253">
        <ele>1055.2</ele>
        <time>2022-06-14T09:00:06Z</time>
      </trkpt>
      <trkpt lat="46.45255" lon="5.9626">
        <ele>1055.1</ele>
        <time>2022-06-14T09:00:12Z</time>
      </trkpt>
      <trkpt lat="46.45253" lon="5.96267">
        <ele>1055.8</ele>
        <time>2022-06-14T09:00:19Z</time>
      </trkpt>
      <trkpt lat="46.45251" lon="5.96273">
        <ele>1055.8</ele>
        <time>2022-06-14T09:00:23Z</time>
      </trkpt>
      <trkpt lat="46.45248" lon="5.96279">
        <ele>1055.5</ele>
        <time>2022-06-14T09:00:27Z</time>
      </trkpt>
      <trkpt lat="46.45246" lon="5.96286">
        <ele>1055.4</ele>
        <time>2022-06-14T09:00:31Z</time>
      </trkpt>
      <trkpt lat="46.45244" lon="5.96292">
        <ele>1055.7</ele>
        <time>2022-06-14T09:00:34Z</time>
      </trkpt>
      <trkpt lat="46.45238" lon="5.96291">
        <ele>1055.8</ele>
        <time>2022-06-14T09:00:38Z</time>
      </trkpt>
      <trkpt lat="46.45233" lon="5.96291">
        <ele>1056.1</ele>
        <time>2022-06-14T09:00:44Z</time>
      </trkpt>
      <trkpt lat="46.4523" lon="5.96297">
        <ele>1056</ele>
        <time>2022-06-14T09:00:51Z</time>
      </trkpt>
      <trkpt lat="46.45226" lon="5.96302">
        <ele>1056.2</ele>
        <time>2022-06-14T09:00:56Z</time>
      </trkpt>
      <trkpt lat="46.4522" lon="5.96302">
        <ele>1057</ele>
        <time>2022-06-14T09:01:01Z</time>
      </trkpt>
      <trkpt lat="46.45216" lon="5.96302">
        <ele>1058.5</ele>
        <time>2022-06-14T09:01:06Z</time>
      </trkpt>
      <trkpt lat="46.45211" lon="5.96303">
        <ele>1060.2</ele>
        <time>2022-06-14T09:01:12Z</time>
      </trkpt>
      <trkpt lat="46.45206" lon="5.96303">
        <ele>1061</ele>
        <time>2022-06-14T09:01:21Z</time>
      </trkpt>
      <trkpt lat="46.45201" lon="5.96303">
        <ele>1061.1</ele>
        <time>2022-06-14T09:01:27Z</time>
      </trkpt>
      <trkpt lat="46.45195" lon="5.96303">
        <ele>1061.3</ele>
        <time>2022-06-14T09:01:32Z</time>
      </trkpt>
      <trkpt lat="46.4519" lon="5.96305">
        <ele>1061.7</ele>
        <time>2022-06-14T09:01:37Z</time>
      </trkpt>
      <trkpt lat="46.45185" lon="5.96309">
        <ele>1062.1</ele>
        <time>2022-06-14T09:01:42Z</time>
      </trkpt>
      <trkpt lat="46.45182" lon="5.96313">
        <ele>1062.6</ele>
        <time>2022-06-14T09:01:46Z</time>
      </trkpt>
      <trkpt lat="46.45177" lon="5.96317">
        <ele>1063.6</ele>
        <time>2022-06-14T09:01:52Z</time>
      </trkpt>
      <trkpt lat="46.45173" lon="5.9632">
        <ele>1064.4</ele>
        <time>2022-06-14T09:01:58Z</time>
      </trkpt>
      <trkpt lat="46.45168" lon="5.96321">
        <ele>1064.8</ele>
        <time>2022-06-14T09:02:04Z</time>
      </trkpt>
      <trkpt lat="46.45163" lon="5.96324">
        <ele>1064.9</ele>
        <time>2022-06-14T09:02:09Z</time>
      </trkpt>
      <trkpt lat="46.45159" lon="5.96329">
        <ele>1065.1</ele>
        <time>2022-06-14T09:02:14Z</time>
      </trkpt>
      <trkpt lat="46.45154" lon="5.96335">
        <ele>1065.7</ele>
        <time>2022-06-14T09:02:18Z</time>
      </trkpt>
      <trkpt lat="46.4515" lon="5.9634">
        <ele>1067.3</ele>
        <time>2022-06-14T09:02:26Z</time>
      </trkpt>
      <trkpt lat="46.45148" lon="5.96346">
        <ele>1067.8</ele>
        <time>2022-06-14T09:02:32Z</time>
      </trkpt>
      <trkpt lat="46.45147" lon="5.96353">
        <ele>1068.1</ele>
        <time>2022-06-14T09:02:36Z</time>
      </trkpt>
      <trkpt lat="46.45144" lon="5.96359">
        <ele>1069.1</ele>
        <time>2022-06-14T09:02:41Z</time>
      </trkpt>
      <trkpt lat="46.45141" lon="5.96365">
        <ele>1070.6</ele>
        <time>2022-06-14T09:02:46Z</time>
      </trkpt>
      <trkpt lat="46.4514" lon="5.96371">
        <ele>1074.8</ele>
        <time>2022-06-14T09:02:59Z</time>
      </trkpt>
      <trkpt lat="46.4514" lon="5.96378">
        <ele>1076.3</ele>
        <time>2022-06-14T09:03:03Z</time>
      </trkpt>
      <trkpt lat="46.45142" lon="5.96386">
        <ele>1078.4</ele>
        <time>2022-06-14T09:03:08Z</time>
      </trkpt>
      <trkpt lat="46.45142" lon="5.96393">
        <ele>1079.7</ele>
        <time>2022-06-14T09:03:12Z</time>
      </trkpt>
      <trkpt lat="46.45143" lon="5.964">
        <ele>1080.7</ele>
        <time>2022-06-14T09:03:18Z</time>
      </trkpt>
      <trkpt lat="46.45145" lon="5.96406">
        <ele>1081.9</ele>
        <time>2022-06-14T09:03:28Z</time>
      </trkpt>
      <trkpt lat="46.45145" lon="5.96412">
        <ele>1080.6</ele>
        <time>2022-06-14T09:03:36Z</time>
      </trkpt>
      <trkpt lat="46.45149" lon="5.96417">
        <ele>1079.3</ele>
        <time>2022-06-14T09:03:41Z</time>
      </trkpt>
      <trkpt lat="46.45151" lon="5.96424">
        <ele>1077.6</ele>
        <time>2022-06-14T09:03:47Z</time>
      </trkpt>
      <trkpt lat="46.45153" lon="5.9643">
        <ele>1076</ele>
        <time>2022-06-14T09:03:55Z</time>
      </trkpt>
      <trkpt lat="46.45156" lon="5.96435">
        <ele>1075.3</ele>
        <time>2022-06-14T09:04:00Z</time>
      </trkpt>
      <trkpt lat="46.4516" lon="5.9644">
        <ele>1074.8</ele>
        <time>2022-06-14T09:04:05Z</time>
      </trkpt>
      <trkpt lat="46.45163" lon="5.96445">
        <ele>1074.2</ele>
        <time>2022-06-14T09:04:11Z</time>
      </trkpt>
      <trkpt lat="46.45165" lon="5.9645">
        <ele>1074.1</ele>
        <time>2022-06-14T09:04:15Z</time>
      </trkpt>
      <trkpt lat="46.45167" lon="5.96457">
        <ele>1074.2</ele>
        <time>2022-06-14T09:04:20Z</time>
      </trkpt>
      <trkpt lat="46.45167" lon="5.96464">
        <ele>1074.5</ele>
        <time>2022-06-14T09:04:27Z</time>
      </trkpt>
      <trkpt lat="46.45167" lon="5.96472">
        <ele>1074.5</ele>
        <time>2022-06-14T09:04:33Z</time>
      </trkpt>
      <trkpt lat="46.45166" lon="5.96479">
        <ele>1074.9</ele>
        <time>2022-06-14T09:04:38Z</time>
      </trkpt>
      <trkpt lat="46.45166" lon="5.96487">
        <ele>1076.1</ele>
        <time>2022-06-14T09:04:44Z</time>
      </trkpt>
      <trkpt lat="46.45166" lon="5.96494">
        <ele>1078.2</ele>
        <time>2022-06-14T09:04:50Z</time>
      </trkpt>
      <trkpt lat="46.45165" lon="5.96501">
        <ele>1080.2</ele>
        <time>2022-06-14T09:04:55Z</time>
      </trkpt>
      <trkpt lat="46.45163" lon="5.96507">
        <ele>1082.1</ele>
        <time>2022-06-14T09:05:00Z</time>
      </trkpt>
      <trkpt lat="46.4516" lon="5.96512">
        <ele>1083.9</ele>
        <time>2022-06-14T09:05:05Z</time>
      </trkpt>
      <trkpt lat="46.45157" lon="5.96517">
        <ele>1085</ele>
        <time>2022-06-14T09:05:10Z</time>
      </trkpt>
      <trkpt lat="46.45154" lon="5.96523">
        <ele>1085.7</ele>
        <time>2022-06-14T09:05:14Z</time>
      </trkpt>
      <trkpt lat="46.45149" lon="5.96524">
        <ele>1086.3</ele>
        <time>2022-06-14T09:05:20Z</time>
      </trkpt>
      <trkpt lat="46.45143" lon="5.96525">
        <ele>1087</ele>
        <time>2022-06-14T09:05:31Z</time>
      </trkpt>
      <trkpt lat="46.4514" lon="5.96529">
        <ele>1088.1</ele>
        <time>2022-06-14T09:05:37Z</time>
      </trkpt>
      <trkpt lat="46.45138" lon="5.96536">
        <ele>1089</ele>
        <time>2022-06-14T09:05:41Z</time>
      </trkpt>
      <trkpt lat="46.45134" lon="5.96541">
        <ele>1090.9</ele>
        <time>2022-06-14T09:05:49Z</time>
      </trkpt>
      <trkpt lat="46.4513" lon="5.96543">
        <ele>1092.3</ele>
        <time>2022-06-14T09:05:55Z</time>
      </trkpt>
      <trkpt lat="46.45125" lon="5.96546">
        <ele>1094.4</ele>
        <time>2022-06-14T09:06:02Z</time>
      </trkpt>
      <trkpt lat="46.45121" lon="5.9655">
        <ele>1096.7</ele>
        <time>2022-06-14T09:06:10Z</time>
      </trkpt>
      <trkpt lat="46.45116" lon="5.96553">
        <ele>1097.2</ele>
        <time>2022-06-14T09:06:14Z</time>
      </trkpt>
      <trkpt lat="46.45111" lon="5.96559">
        <ele>1098.1</ele>
        <time>2022-06-14T09:06:17Z</time>
      </trkpt>
      <trkpt lat="46.45107" lon="5.96564">
        <ele>1099.4</ele>
        <time>2022-06-14T09:06:21Z</time>
      </trkpt>
      <trkpt lat="46.45105" lon="5.9657">
        <ele>1100.7</ele>
        <time>2022-06-14T09:06:25Z</time>
      </trkpt>
      <trkpt lat="46.45102" lon="5.96577">
        <ele>1101.9</ele>
        <time>2022-06-14T09:06:29Z</time>
      </trkpt>
      <trkpt lat="46.45097" lon="5.96576">
        <ele>1102.7</ele>
        <time>2022-06-14T09:06:34Z</time>
      </trkpt>
      <trkpt lat="46.45093" lon="5.96579">
        <ele>1102.5</ele>
        <time>2022-06-14T09:06:40Z</time>
      </trkpt>
      <trkpt lat="46.45091" lon="5.96586">
        <ele>1102.3</ele>
        <time>2022-06-14T09:06:43Z</time>
      </trkpt>
      <trkpt lat="46.45087" lon="5.96592">
        <ele>1101.9</ele>
        <time>2022-06-14T09:06:47Z</time>
      </trkpt>
      <trkpt lat="46.45087" lon="5.96599">
        <ele>1101.4</ele>
        <time>2022-06-14T09:06:51Z</time>
      </trkpt>
      <trkpt lat="46.45089" lon="5.96605">
        <ele>1101.2</ele>
        <time>2022-06-14T09:06:54Z</time>
      </trkpt>
      <trkpt lat="46.45087" lon="5.96611">
        <ele>1100.3</ele>
        <time>2022-06-14T09:07:04Z</time>
      </trkpt>
      <trkpt lat="46.45087" lon="5.96618">
        <ele>1099.2</ele>
        <time>2022-06-14T09:07:09Z</time>
      </trkpt>
      <trkpt lat="46.45087" lon="5.96625">
        <ele>1098</ele>
        <time>2022-06-14T09:07:13Z</time>
      </trkpt>
      <trkpt lat="46.45087" lon="5.96633">
        <ele>1096.3</ele>
        <time>2022-06-14T09:07:20Z</time>
      </trkpt>
      <trkpt lat="46.45089" lon="5.9664">
        <ele>1094.6</ele>
        <time>2022-06-14T09:07:27Z</time>
      </trkpt>
      <trkpt lat="46.4509" lon="5.96646">
        <ele>1093.5</ele>
        <time>2022-06-14T09:07:32Z</time>
      </trkpt>
      <trkpt lat="46.45088" lon="5.96653">
        <ele>1092.6</ele>
        <time>2022-06-14T09:07:38Z</time>
      </trkpt>
      <trkpt lat="46.4509" lon="5.9666">
        <ele>1092.1</ele>
        <time>2022-06-14T09:07:44Z</time>
      </trkpt>
      <trkpt lat="46.45091" lon="5.96666">
        <ele>1092.2</ele>
        <time>2022-06-14T09:07:52Z</time>
      </trkpt>
      <trkpt lat="46.4509" lon="5.96674">
        <ele>1092.4</ele>
        <time>2022-06-14T09:07:57Z</time>
      </trkpt>
      <trkpt lat="46.4509" lon="5.96681">
        <ele>1092.4</ele>
        <time>2022-06-14T09:08:02Z</time>
      </trkpt>
      <trkpt lat="46.4509" lon="5.9669">
        <ele>1092.5</ele>
        <time>2022-06-14T09:08:07Z</time>
      </trkpt>
      <trkpt lat="46.45091" lon="5.96697">
        <ele>1093</ele>
        <time>2022-06-14T09:08:12Z</time>
      </trkpt>
      <trkpt lat="46.45088" lon="5.96703">
        <ele>1093.5</ele>
        <time>2022-06-14T09:08:17Z</time>
      </trkpt>
      <trkpt lat="46.45089" lon="5.9671">
        <ele>1092.2</ele>
        <time>2022-06-14T09:08:46Z</time>
      </trkpt>
      <trkpt lat="46.45084" lon="5.96714">
        <ele>1095.3</ele>
        <time>2022-06-14T09:09:28Z</time>
      </trkpt>
      <trkpt lat="46.45079" lon="5.96716">
        <ele>1098.4</ele>
        <time>2022-06-14T09:09:38Z</time>
      </trkpt>
      <trkpt lat="46.45075" lon="5.96719">
        <ele>1103.6</ele>
        <time>2022-06-14T09:10:54Z</time>
      </trkpt>
      <trkpt lat="46.45073" lon="5.96712">
        <ele>1104.1</ele>
        <time>2022-06-14T09:11:03Z</time>
      </trkpt>
      <trkpt lat="46.45078" lon="5.96712">
        <ele>1104.4</ele>
        <time>2022-06-14T09:11:12Z</time>
      </trkpt>
      <trkpt lat="46.45082" lon="5.96715">
        <ele>1104.7</ele>
        <time>2022-06-14T09:11:27Z</time>
      </trkpt>
      <trkpt lat="46.45086" lon="5.96722">
        <ele>1104.8</ele>
        <time>2022-06-14T09:11:31Z</time>
      </trkpt>
      <trkpt lat="46.45087" lon="5.96729">
        <ele>1106.3</ele>
        <time>2022-06-14T09:11:44Z</time>
      </trkpt>
      <trkpt lat="46.45085" lon="5.96736">
        <ele>1106.2</ele>
        <time>2022-06-14T09:11:48Z</time>
      </trkpt>
      <trkpt lat="46.45085" lon="5.96743">
        <ele>1103.9</ele>
        <time>2022-06-14T09:11:55Z</time>
      </trkpt>
      <trkpt lat="46.45087" lon="5.96749">
        <ele>1100</ele>
        <time>2022-06-14T09:12:03Z</time>
      </trkpt>
      <trkpt lat="46.45086" lon="5.96756">
        <ele>1099.7</ele>
        <time>2022-06-14T09:12:21Z</time>
      </trkpt>
      <trkpt lat="46.45087" lon="5.96763">
        <ele>1099.5</ele>
        <time>2022-06-14T09:12:27Z</time>
      </trkpt>
      <trkpt lat="46.45089" lon="5.96769">
        <ele>1099.5</ele>
        <time>2022-06-14T09:12:31Z</time>
      </trkpt>
      <trkpt lat="46.45086" lon="5.96776">
        <ele>1099.6</ele>
        <time>2022-06-14T09:12:37Z</time>
      </trkpt>
      <trkpt lat="46.45086" lon="5.96783">
        <ele>1099.4</ele>
        <time>2022-06-14T09:12:50Z</time>
      </trkpt>
      <trkpt lat="46.45088" lon="5.9679">
        <ele>1099.1</ele>
        <time>2022-06-14T09:12:55Z</time>
      </trkpt>
      <trkpt lat="46.45088" lon="5.96796">
        <ele>1099.2</ele>
        <time>2022-06-14T09:13:00Z</time>
      </trkpt>
      <trkpt lat="46.45088" lon="5.96803">
        <ele>1099.6</ele>
        <time>2022-06-14T09:13:05Z</time>
      </trkpt>
      <trkpt lat="46.45088" lon="5.9681">
        <ele>1099.5</ele>
        <time>2022-06-14T09:13:10Z</time>
      </trkpt>
      <trkpt lat="46.45086" lon="5.96817">
        <ele>1099.6</ele>
        <time>2022-06-14T09:13:15Z</time>
      </trkpt>
      <trkpt lat="46.45085" lon="5.96824">
        <ele>1099.2</ele>
        <time>2022-06-14T09:13:21Z</time>
      </trkpt>
      <trkpt lat="46.45086" lon="5.96831">
        <ele>1098.6</ele>
        <time>2022-06-14T09:13:27Z</time>
      </trkpt>
      <trkpt lat="46.45085" lon="5.96838">
        <ele>1098.7</ele>
        <time>2022-06-14T09:13:32Z</time>
      </trkpt>
      <trkpt lat="46.45086" lon="5.96846">
        <ele>1099.3</ele>
        <time>2022-06-14T09:13:37Z</time>
      </trkpt>
      <trkpt lat="46.45085" lon="5.96854">
        <ele>1100.2</ele>
        <time>2022-06-14T09:13:44Z</time>
      </trkpt>
      <trkpt lat="46.45084" lon="5.9686">
        <ele>1100.8</ele>
        <time>2022-06-14T09:13:49Z</time>
      </trkpt>
      <trkpt lat="46.45082" lon="5.96866">
        <ele>1101.4</ele>
        <time>2022-06-14T09:13:58Z</time>
      </trkpt>
      <trkpt lat="46.45079" lon="5.96872">
        <ele>1101.6</ele>
        <time>2022-06-14T09:14:02Z</time>
      </trkpt>
      <trkpt lat="46.45075" lon="5.96876">
        <ele>1101.9</ele>
        <time>2022-06-14T09:14:08Z</time>
      </trkpt>
      <trkpt lat="46.45071" lon="5.96881">
        <ele>1102</ele>
        <time>2022-06-14T09:14:13Z</time>
      </trkpt>
      <trkpt lat="46.45068" lon="5.96887">
        <ele>1102.2</ele>
        <time>2022-06-14T09:14:17Z</time>
      </trkpt>
      <trkpt lat="46.45067" lon="5.96893">
        <ele>1102.4</ele>
        <time>2022-06-14T09:14:21Z</time>
      </trkpt>
      <trkpt lat="46.45064" lon="5.96901">
        <ele>1102.6</ele>
        <time>2022-06-14T09:14:25Z</time>
      </trkpt>
      <trkpt lat="46.4506" lon="5.96906">
        <ele>1103</ele>
        <time>2022-06-14T09:14:30Z</time>
      </trkpt>
      <trkpt lat="46.45056" lon="5.96914">
        <ele>1103.2</ele>
        <time>2022-06-14T09:14:34Z</time>
      </trkpt>
      <trkpt lat="46.45053" lon="5.9692">
        <ele>1103.3</ele>
        <time>2022-06-14T09:14:39Z</time>
      </trkpt>
      <trkpt lat="46.4505" lon="5.96925">
        <ele>1102.4</ele>
        <time>2022-06-14T09:14:46Z</time>
      </trkpt>
      <trkpt lat="46.45045" lon="5.96928">
        <ele>1102</ele>
        <time>2022-06-14T09:14:52Z</time>
      </trkpt>
      <trkpt lat="46.45042" lon="5.96932">
        <ele>1101.7</ele>
        <time>2022-06-14T09:14:58Z</time>
      </trkpt>
      <trkpt lat="46.45038" lon="5.96937">
        <ele>1101.2</ele>
        <time>2022-06-14T09:15:05Z</time>
      </trkpt>
      <trkpt lat="46.45035" lon="5.96943">
        <ele>1100.9</ele>
        <time>2022-06-14T09:15:11Z</time>
      </trkpt>
      <trkpt lat="46.45032" lon="5.96951">
        <ele>1101</ele>
        <time>2022-06-14T09:15:15Z</time>
      </trkpt>
      <trkpt lat="46.4503" lon="5.96957">
        <ele>1101.3</ele>
        <time>2022-06-14T09:15:18Z</time>
      </trkpt>
      <trkpt lat="46.45028" lon="5.96963">
        <ele>1102</ele>
        <time>2022-06-14T09:15:22Z</time>
      </trkpt>
      <trkpt lat="46.45025" lon="5.96969">
        <ele>1102.9</ele>
        <time>2022-06-14T09:15:27Z</time>
      </trkpt>
      <trkpt lat="46.4502" lon="5.96975">
        <ele>1103</ele>
        <time>2022-06-14T09:15:32Z</time>
      </trkpt>
      <trkpt lat="46.45017" lon="5.9698">
        <ele>1103.1</ele>
        <time>2022-06-14T09:15:36Z</time>
      </trkpt>
      <trkpt lat="46.45014" lon="5.96986">
        <ele>1103.5</ele>
        <time>2022-06-14T09:15:41Z</time>
      </trkpt>
      <trkpt lat="46.45011" lon="5.96993">
        <ele>1104.5</ele>
        <time>2022-06-14T09:15:45Z</time>
      </trkpt>
      <trkpt lat="46.45007" lon="5.96994">
        <ele>1105.6</ele>
        <time>2022-06-14T09:15:49Z</time>
      </trkpt>
      <trkpt lat="46.45005" lon="5.97">
        <ele>1106.1</ele>
        <time>2022-06-14T09:15:58Z</time>
      </trkpt>
      <trkpt lat="46.45001" lon="5.97004">
        <ele>1106.1</ele>
        <time>2022-06-14T09:16:04Z</time>
      </trkpt>
      <trkpt lat="46.44997" lon="5.97008">
        <ele>1106.1</ele>
        <time>2022-06-14T09:16:09Z</time>
      </trkpt>
      <trkpt lat="46.44993" lon="5.97011">
        <ele>1105.5</ele>
        <time>2022-06-14T09:16:15Z</time>
      </trkpt>
      <trkpt lat="46.44989" lon="5.97015">
        <ele>1105.1</ele>
        <time>2022-06-14T09:16:24Z</time>
      </trkpt>
      <trkpt lat="46.44985" lon="5.97019">
        <ele>1105.3</ele>
        <time>2022-06-14T09:16:40Z</time>
      </trkpt>
      <trkpt lat="46.44982" lon="5.97024">
        <ele>1104.9</ele>
        <time>2022-06-14T09:16:45Z</time>
      </trkpt>
      <trkpt lat="46.44979" lon="5.97029">
        <ele>1104.4</ele>
        <time>2022-06-14T09:16:50Z</time>
      </trkpt>
      <trkpt lat="46.44976" lon="5.97034">
        <ele>1103.8</ele>
        <time>2022-06-14T09:16:55Z</time>
      </trkpt>
      <trkpt lat="46.44973" lon="5.9704">
        <ele>1103.3</ele>
        <time>2022-06-14T09:17:01Z</time>
      </trkpt>
      <trkpt lat="46.4497" lon="5.97046">
        <ele>1103.3</ele>
        <time>2022-06-14T09:17:06Z</time>
      </trkpt>
      <trkpt lat="46.44967" lon="5.97051">
        <ele>1103.1</ele>
        <time>2022-06-14T09:17:12Z</time>
      </trkpt>
      <trkpt lat="46.44963" lon="5.97056">
        <ele>1102.8</ele>
        <time>2022-06-14T09:17:19Z</time>
      </trkpt>
      <trkpt lat="46.44961" lon="5.97062">
        <ele>1102.8</ele>
        <time>2022-06-14T09:17:25Z</time>
      </trkpt>
      <trkpt lat="46.44959" lon="5.97069">
        <ele>1103</ele>
        <time>2022-06-14T09:17:29Z</time>
      </trkpt>
      <trkpt lat="46.44957" lon="5.97076">
        <ele>1103.2</ele>
        <time>2022-06-14T09:17:33Z</time>
      </trkpt>
      <trkpt lat="46.44955" lon="5.97084">
        <ele>1103.7</ele>
        <time>2022-06-14T09:17:38Z</time>
      </trkpt>
      <trkpt lat="46.44952" lon="5.9709">
        <ele>1104.2</ele>
        <time>2022-06-14T09:17:43Z</time>
      </trkpt>
      <trkpt lat="46.44948" lon="5.97094">
        <ele>1104.2</ele>
        <time>2022-06-14T09:17:49Z</time>
      </trkpt>
      <trkpt lat="46.44946" lon="5.971">
        <ele>1104.7</ele>
        <time>2022-06-14T09:17:53Z</time>
      </trkpt>
      <trkpt lat="46.44943" lon="5.97105">
        <ele>1104.3</ele>
        <time>2022-06-14T09:18:01Z</time>
      </trkpt>
      <trkpt lat="46.44941" lon="5.97111">
        <ele>1104.2</ele>
        <time>2022-06-14T09:18:07Z</time>
      </trkpt>
      <trkpt lat="46.4494" lon="5.97117">
        <ele>1104.8</ele>
        <time>2022-06-14T09:18:12Z</time>
      </trkpt>
      <trkpt lat="46.44938" lon="5.97124">
        <ele>1105.5</ele>
        <time>2022-06-14T09:18:17Z</time>
      </trkpt>
      <trkpt lat="46.44936" lon="5.9713">
        <ele>1106.5</ele>
        <time>2022-06-14T09:18:25Z</time>
      </trkpt>
      <trkpt lat="46.44932" lon="5.97134">
        <ele>1107.2</ele>
        <time>2022-06-14T09:18:35Z</time>
      </trkpt>
      <trkpt lat="46.4493" lon="5.9714">
        <ele>1107.3</ele>
        <time>2022-06-14T09:18:41Z</time>
      </trkpt>
      <trkpt lat="46.44929" lon="5.97147">
        <ele>1107.7</ele>
        <time>2022-06-14T09:18:46Z</time>
      </trkpt>
      <trkpt lat="46.44927" lon="5.97153">
        <ele>1108.1</ele>
        <time>2022-06-14T09:18:50Z</time>
      </trkpt>
      <trkpt lat="46.44924" lon="5.9716">
        <ele>1108.8</ele>
        <time>2022-06-14T09:18:54Z</time>
      </trkpt>
      <trkpt lat="46.44922" lon="5.97165">
        <ele>1109.4</ele>
        <time>2022-06-14T09:18:58Z</time>
      </trkpt>
      <trkpt lat="46.44919" lon="5.97173">
        <ele>1110</ele>
        <time>2022-06-14T09:19:03Z</time>
      </trkpt>
      <trkpt lat="46.44917" lon="5.97179">
        <ele>1110.5</ele>
        <time>2022-06-14T09:19:07Z</time>
      </trkpt>
      <trkpt lat="46.44915" lon="5.97186">
        <ele>1110.8</ele>
        <time>2022-06-14T09:19:11Z</time>
      </trkpt>
      <trkpt lat="46.44912" lon="5.97192">
        <ele>1111.2</ele>
        <time>2022-06-14T09:19:16Z</time>
      </trkpt>
      <trkpt lat="46.44908" lon="5.97198">
        <ele>1111.6</ele>
        <time>2022-06-14T09:19:21Z</time>
      </trkpt>
      <trkpt lat="46.44905" lon="5.97202">
        <ele>1111.7</ele>
        <time>2022-06-14T09:19:28Z</time>
      </trkpt>
      <trkpt lat="46.44901" lon="5.97208">
        <ele>1111.6</ele>
        <time>2022-06-14T09:19:34Z</time>
      </trkpt>
      <trkpt lat="46.44898" lon="5.97214">
        <ele>1111.5</ele>
        <time>2022-06-14T09:19:38Z</time>
      </trkpt>
      <trkpt lat="46.44895" lon="5.97219">
        <ele>1111</ele>
        <time>2022-06-14T09:19:43Z</time>
      </trkpt>
      <trkpt lat="46.4489" lon="5.97222">
        <ele>1110.8</ele>
        <time>2022-06-14T09:19:49Z</time>
      </trkpt>
      <trkpt lat="46.44887" lon="5.97228">
        <ele>1111</ele>
        <time>2022-06-14T09:19:53Z</time>
      </trkpt>
      <trkpt lat="46.44884" lon="5.97234">
        <ele>1111.5</ele>
        <time>2022-06-14T09:19:57Z</time>
      </trkpt>
      <trkpt lat="46.4488" lon="5.9724">
        <ele>1112.3</ele>
        <time>2022-06-14T09:20:02Z</time>
      </trkpt>
      <trkpt lat="46.44877" lon="5.97244">
        <ele>1113.1</ele>
        <time>2022-06-14T09:20:07Z</time>
      </trkpt>
      <trkpt lat="46.44872" lon="5.97245">
        <ele>1114.2</ele>
        <time>2022-06-14T09:20:15Z</time>
      </trkpt>
      <trkpt lat="46.44868" lon="5.97249">
        <ele>1114.7</ele>
        <time>2022-06-14T09:20:21Z</time>
      </trkpt>
      <trkpt lat="46.44864" lon="5.97254">
        <ele>1115.1</ele>
        <time>2022-06-14T09:20:25Z</time>
      </trkpt>
      <trkpt lat="46.44859" lon="5.97258">
        <ele>1115.7</ele>
        <time>2022-06-14T09:20:29Z</time>
      </trkpt>
      <trkpt lat="46.44856" lon="5.97262">
        <ele>1116.4</ele>
        <time>2022-06-14T09:20:33Z</time>
      </trkpt>
      <trkpt lat="46.44851" lon="5.97266">
        <ele>1117.1</ele>
        <time>2022-06-14T09:20:37Z</time>
      </trkpt>
      <trkpt lat="46.44847" lon="5.97269">
        <ele>1117.9</ele>
        <time>2022-06-14T09:20:42Z</time>
      </trkpt>
      <trkpt lat="46.44842" lon="5.97273">
        <ele>1118.8</ele>
        <time>2022-06-14T09:20:49Z</time>
      </trkpt>
      <trkpt lat="46.4484" lon="5.9728">
        <ele>1119.1</ele>
        <time>2022-06-14T09:20:52Z</time>
      </trkpt>
      <trkpt lat="46.44836" lon="5.97285">
        <ele>1119.6</ele>
        <time>2022-06-14T09:20:56Z</time>
      </trkpt>
      <trkpt lat="46.44831" lon="5.97288">
        <ele>1120.6</ele>
        <time>2022-06-14T09:21:02Z</time>
      </trkpt>
      <trkpt lat="46.44827" lon="5.97291">
        <ele>1121.5</ele>
        <time>2022-06-14T09:21:07Z</time>
      </trkpt>
      <trkpt lat="46.44822" lon="5.97295">
        <ele>1122.5</ele>
        <time>2022-06-14T09:21:12Z</time>
      </trkpt>
      <trkpt lat="46.44819" lon="5.973">
        <ele>1123.8</ele>
        <time>2022-06-14T09:21:17Z</time>
      </trkpt>
      <trkpt lat="46.44816" lon="5.97305">
        <ele>1125.2</ele>
        <time>2022-06-14T09:21:23Z</time>
      </trkpt>
      <trkpt lat="46.44813" lon="5.97311">
        <ele>1126.4</ele>
        <time>2022-06-14T09:21:30Z</time>
      </trkpt>
      <trkpt lat="46.4481" lon="5.97316">
        <ele>1127.1</ele>
        <time>2022-06-14T09:21:35Z</time>
      </trkpt>
      <trkpt lat="46.44808" lon="5.97324">
        <ele>1127.6</ele>
        <time>2022-06-14T09:21:40Z</time>
      </trkpt>
      <trkpt lat="46.44805" lon="5.9733">
        <ele>1127.9</ele>
        <time>2022-06-14T09:21:43Z</time>
      </trkpt>
      <trkpt lat="46.44803" lon="5.97337">
        <ele>1128.3</ele>
        <time>2022-06-14T09:21:46Z</time>
      </trkpt>
      <trkpt lat="46.448" lon="5.97342">
        <ele>1128.8</ele>
        <time>2022-06-14T09:21:49Z</time>
      </trkpt>
      <trkpt lat="46.44796" lon="5.97347">
        <ele>1129.5</ele>
        <time>2022-06-14T09:21:53Z</time>
      </trkpt>
      <trkpt lat="46.44791" lon="5.9735">
        <ele>1130.7</ele>
        <time>2022-06-14T09:22:00Z</time>
      </trkpt>
      <trkpt lat="46.44788" lon="5.97355">
        <ele>1131.5</ele>
        <time>2022-06-14T09:22:07Z</time>
      </trkpt>
      <trkpt lat="46.44785" lon="5.97362">
        <ele>1132.2</ele>
        <time>2022-06-14T09:22:12Z</time>
      </trkpt>
      <trkpt lat="46.44782" lon="5.97368">
        <ele>1132.8</ele>
        <time>2022-06-14T09:22:17Z</time>
      </trkpt>
      <trkpt lat="46.44779" lon="5.97374">
        <ele>1133.1</ele>
        <time>2022-06-14T09:22:22Z</time>
      </trkpt>
      <trkpt lat="46.44775" lon="5.97377">
        <ele>1132.9</ele>
        <time>2022-06-14T09:22:25Z</time>
      </trkpt>
      <trkpt lat="46.44772" lon="5.97382">
        <ele>1132.4</ele>
        <time>2022-06-14T09:22:28Z</time>
      </trkpt>
      <trkpt lat="46.44769" lon="5.97389">
        <ele>1131.8</ele>
        <time>2022-06-14T09:22:33Z</time>
      </trkpt>
      <trkpt lat="46.44766" lon="5.97394">
        <ele>1131.9</ele>
        <time>2022-06-14T09:22:41Z</time>
      </trkpt>
      <trkpt lat="46.44763" lon="5.974">
        <ele>1132.4</ele>
        <time>2022-06-14T09:22:47Z</time>
      </trkpt>
      <trkpt lat="46.4476" lon="5.97405">
        <ele>1133</ele>
        <time>2022-06-14T09:22:53Z</time>
      </trkpt>
      <trkpt lat="46.44757" lon="5.9741">
        <ele>1133.1</ele>
        <time>2022-06-14T09:22:57Z</time>
      </trkpt>
      <trkpt lat="46.44754" lon="5.97416">
        <ele>1133.2</ele>
        <time>2022-06-14T09:23:01Z</time>
      </trkpt>
      <trkpt lat="46.44751" lon="5.97421">
        <ele>1133.4</ele>
        <time>2022-06-14T09:23:06Z</time>
      </trkpt>
      <trkpt lat="46.44747" lon="5.97426">
        <ele>1133.2</ele>
        <time>2022-06-14T09:23:12Z</time>
      </trkpt>
      <trkpt lat="46.44746" lon="5.97432">
        <ele>1132.8</ele>
        <time>2022-06-14T09:23:18Z</time>
      </trkpt>
      <trkpt lat="46.44745" lon="5.97439">
        <ele>1132.5</ele>
        <time>2022-06-14T09:23:23Z</time>
      </trkpt>
      <trkpt lat="46.44743" lon="5.97445">
        <ele>1132.2</ele>
        <time>2022-06-14T09:23:30Z</time>
      </trkpt>
      <trkpt lat="46.44742" lon="5.97452">
        <ele>1132.3</ele>
        <time>2022-06-14T09:23:36Z</time>
      </trkpt>
      <trkpt lat="46.4474" lon="5.97458">
        <ele>1132.4</ele>
        <time>2022-06-14T09:23:45Z</time>
      </trkpt>
      <trkpt lat="46.44743" lon="5.97463">
        <ele>1133</ele>
        <time>2022-06-14T09:24:12Z</time>
      </trkpt>
      <trkpt lat="46.44748" lon="5.97466">
        <ele>1133.7</ele>
        <time>2022-06-14T09:24:23Z</time>
      </trkpt>
      <trkpt lat="46.44753" lon="5.97464">
        <ele>1134</ele>
        <time>2022-06-14T09:24:27Z</time>
      </trkpt>
      <trkpt lat="46.44748" lon="5.97462">
        <ele>1134.7</ele>
        <time>2022-06-14T09:24:46Z</time>
      </trkpt>
      <trkpt lat="46.44744" lon="5.97464">
        <ele>1134</ele>
        <time>2022-06-14T09:24:51Z</time>
      </trkpt>
      <trkpt lat="46.4474" lon="5.97467">
        <ele>1133.4</ele>
        <time>2022-06-14T09:24:58Z</time>
      </trkpt>
      <trkpt lat="46.44744" lon="5.97466">
        <ele>1134.4</ele>
        <time>2022-06-14T09:25:08Z</time>
      </trkpt>
      <trkpt lat="46.44742" lon="5.97474">
        <ele>1135.7</ele>
        <time>2022-06-14T09:27:15Z</time>
      </trkpt>
      <trkpt lat="46.44744" lon="5.9748">
        <ele>1135.2</ele>
        <time>2022-06-14T09:27:19Z</time>
      </trkpt>
      <trkpt lat="46.44748" lon="5.97484">
        <ele>1134.9</ele>
        <time>2022-06-14T09:27:23Z</time>
      </trkpt>
      <trkpt lat="46.44753" lon="5.97486">
        <ele>1135</ele>
        <time>2022-06-14T09:27:27Z</time>
      </trkpt>
      <trkpt lat="46.44757" lon="5.97489">
        <ele>1135.6</ele>
        <time>2022-06-14T09:27:32Z</time>
      </trkpt>
      <trkpt lat="46.44759" lon="5.97495">
        <ele>1135.1</ele>
        <time>2022-06-14T09:27:40Z</time>
      </trkpt>
      <trkpt lat="46.44762" lon="5.975">
        <ele>1134.2</ele>
        <time>2022-06-14T09:27:46Z</time>
      </trkpt>
      <trkpt lat="46.44766" lon="5.97505">
        <ele>1133.5</ele>
        <time>2022-06-14T09:27:52Z</time>
      </trkpt>
      <trkpt lat="46.44768" lon="5.97511">
        <ele>1133.2</ele>
        <time>2022-06-14T09:27:56Z</time>
      </trkpt>
      <trkpt lat="46.4477" lon="5.97518">
        <ele>1132.7</ele>
        <time>2022-06-14T09:28:02Z</time>
      </trkpt>
      <trkpt lat="46.44772" lon="5.97525">
        <ele>1133.9</ele>
        <time>2022-06-14T09:28:13Z</time>
      </trkpt>
      <trkpt lat="46.44774" lon="5.97532">
        <ele>1134.6</ele>
        <time>2022-06-14T09:28:18Z</time>
      </trkpt>
      <trkpt lat="46.44776" lon="5.97538">
        <ele>1135.4</ele>
        <time>2022-06-14T09:28:24Z</time>
      </trkpt>
      <trkpt lat="46.44777" lon="5.97546">
        <ele>1135.7</ele>
        <time>2022-06-14T09:28:33Z</time>
      </trkpt>
      <trkpt lat="46.44776" lon="5.97553">
        <ele>1135.6</ele>
        <time>2022-06-14T09:28:37Z</time>
      </trkpt>
      <trkpt lat="46.44775" lon="5.97561">
        <ele>1136.2</ele>
        <time>2022-06-14T09:28:42Z</time>
      </trkpt>
      <trkpt lat="46.44774" lon="5.97568">
        <ele>1135.7</ele>
        <time>2022-06-14T09:28:50Z</time>
      </trkpt>
      <trkpt lat="46.44769" lon="5.97573">
        <ele>1135.9</ele>
        <time>2022-06-14T09:28:55Z</time>
      </trkpt>
      <trkpt lat="46.44765" lon="5.97576">
        <ele>1135.6</ele>
        <time>2022-06-14T09:29:00Z</time>
      </trkpt>
      <trkpt lat="46.4476" lon="5.97576">
        <ele>1135.2</ele>
        <time>2022-06-14T09:29:05Z</time>
      </trkpt>
      <trkpt lat="46.44755" lon="5.97576">
        <ele>1134.7</ele>
        <time>2022-06-14T09:29:11Z</time>
      </trkpt>
      <trkpt lat="46.4475" lon="5.97578">
        <ele>1134.6</ele>
        <time>2022-06-14T09:29:17Z</time>
      </trkpt>
      <trkpt lat="46.44745" lon="5.97581">
        <ele>1134.9</ele>
        <time>2022-06-14T09:29:22Z</time>
      </trkpt>
      <trkpt lat="46.4474" lon="5.97583">
        <ele>1135.2</ele>
        <time>2022-06-14T09:29:29Z</time>
      </trkpt>
      <trkpt lat="46.44735" lon="5.97582">
        <ele>1135.9</ele>
        <time>2022-06-14T09:29:33Z</time>
      </trkpt>
      <trkpt lat="46.4473" lon="5.97582">
        <ele>1136.7</ele>
        <time>2022-06-14T09:29:37Z</time>
      </trkpt>
      <trkpt lat="46.44726" lon="5.97582">
        <ele>1137.5</ele>
        <time>2022-06-14T09:29:43Z</time>
      </trkpt>
      <trkpt lat="46.4473" lon="5.9758">
        <ele>1137</ele>
        <time>2022-06-14T09:29:53Z</time>
      </trkpt>
      <trkpt lat="46.44735" lon="5.97583">
        <ele>1136.2</ele>
        <time>2022-06-14T09:29:58Z</time>
      </trkpt>
      <trkpt lat="46.44739" lon="5.97588">
        <ele>1134.6</ele>
        <time>2022-06-14T09:30:03Z</time>
      </trkpt>
      <trkpt lat="46.44743" lon="5.9759">
        <ele>1133.4</ele>
        <time>2022-06-14T09:30:07Z</time>
      </trkpt>
      <trkpt lat="46.44748" lon="5.97592">
        <ele>1132.6</ele>
        <time>2022-06-14T09:30:12Z</time>
      </trkpt>
      <trkpt lat="46.44752" lon="5.97598">
        <ele>1133.7</ele>
        <time>2022-06-14T09:30:17Z</time>
      </trkpt>
      <trkpt lat="46.44755" lon="5.97603">
        <ele>1134</ele>
        <time>2022-06-14T09:30:23Z</time>
      </trkpt>
      <trkpt lat="46.4476" lon="5.97606">
        <ele>1133.6</ele>
        <time>2022-06-14T09:30:27Z</time>
      </trkpt>
      <trkpt lat="46.44764" lon="5.97611">
        <ele>1132.9</ele>
        <time>2022-06-14T09:30:32Z</time>
      </trkpt>
      <trkpt lat="46.44767" lon="5.97616">
        <ele>1132.4</ele>
        <time>2022-06-14T09:30:36Z</time>
      </trkpt>
      <trkpt lat="46.44771" lon="5.97621">
        <ele>1132.9</ele>
        <time>2022-06-14T09:30:41Z</time>
      </trkpt>
      <trkpt lat="46.44774" lon="5.97626">
        <ele>1133.8</ele>
        <time>2022-06-14T09:30:45Z</time>
      </trkpt>
      <trkpt lat="46.44775" lon="5.97633">
        <ele>1135.3</ele>
        <time>2022-06-14T09:30:49Z</time>
      </trkpt>
      <trkpt lat="46.44777" lon="5.9764">
        <ele>1137</ele>
        <time>2022-06-14T09:30:53Z</time>
      </trkpt>
      <trkpt lat="46.44778" lon="5.97646">
        <ele>1137.9</ele>
        <time>2022-06-14T09:30:57Z</time>
      </trkpt>
      <trkpt lat="46.44781" lon="5.97653">
        <ele>1138.1</ele>
        <time>2022-06-14T09:31:03Z</time>
      </trkpt>
      <trkpt lat="46.44782" lon="5.97659">
        <ele>1138.1</ele>
        <time>2022-06-14T09:31:09Z</time>
      </trkpt>
      <trkpt lat="46.44786" lon="5.97664">
        <ele>1139.4</ele>
        <time>2022-06-14T09:31:16Z</time>
      </trkpt>
      <trkpt lat="46.4479" lon="5.97669">
        <ele>1140.9</ele>
        <time>2022-06-14T09:31:22Z</time>
      </trkpt>
      <trkpt lat="46.44793" lon="5.97674">
        <ele>1141.5</ele>
        <time>2022-06-14T09:31:27Z</time>
      </trkpt>
      <trkpt lat="46.44797" lon="5.97679">
        <ele>1142.2</ele>
        <time>2022-06-14T09:31:33Z</time>
      </trkpt>
      <trkpt lat="46.44802" lon="5.97683">
        <ele>1142.5</ele>
        <time>2022-06-14T09:31:38Z</time>
      </trkpt>
      <trkpt lat="46.44805" lon="5.97689">
        <ele>1142.1</ele>
        <time>2022-06-14T09:31:42Z</time>
      </trkpt>
      <trkpt lat="46.44808" lon="5.97694">
        <ele>1142</ele>
        <time>2022-06-14T09:31:51Z</time>
      </trkpt>
      <trkpt lat="46.44807" lon="5.977">
        <ele>1142.3</ele>
        <time>2022-06-14T09:31:57Z</time>
      </trkpt>
      <trkpt lat="46.44809" lon="5.97707">
        <ele>1142.4</ele>
        <time>2022-06-14T09:32:03Z</time>
      </trkpt>
      <trkpt lat="46.44812" lon="5.97716">
        <ele>1141.3</ele>
        <time>2022-06-14T09:32:25Z</time>
      </trkpt>
      <trkpt lat="46.44814" lon="5.97722">
        <ele>1140.5</ele>
        <time>2022-06-14T09:32:30Z</time>
      </trkpt>
      <trkpt lat="46.44817" lon="5.97716">
        <ele>1140.3</ele>
        <time>2022-06-14T09:33:54Z</time>
      </trkpt>
      <trkpt lat="46.44812" lon="5.97716">
        <ele>1144</ele>
        <time>2022-06-14T09:34:34Z</time>
      </trkpt>
      <trkpt lat="46.44815" lon="5.97721">
        <ele>1141.4</ele>
        <time>2022-06-14T09:35:04Z</time>
      </trkpt>
      <trkpt lat="46.44814" lon="5.97714">
        <ele>1141.1</ele>
        <time>2022-06-14T09:36:00Z</time>
      </trkpt>
      <trkpt lat="46.44818" lon="5.97718">
        <ele>1139.3</ele>
        <time>2022-06-14T09:38:08Z</time>
      </trkpt>
      <trkpt lat="46.44816" lon="5.97724">
        <ele>1138.4</ele>
        <time>2022-06-14T09:38:16Z</time>
      </trkpt>
      <trkpt lat="46.44815" lon="5.97731">
        <ele>1138.3</ele>
        <time>2022-06-14T09:38:23Z</time>
      </trkpt>
      <trkpt lat="46.44816" lon="5.97738">
        <ele>1138.9</ele>
        <time>2022-06-14T09:38:30Z</time>
      </trkpt>
      <trkpt lat="46.44815" lon="5.97745">
        <ele>1138.9</ele>
        <time>2022-06-14T09:38:34Z</time>
      </trkpt>
      <trkpt lat="46.44814" lon="5.97751">
        <ele>1138.6</ele>
        <time>2022-06-14T09:38:40Z</time>
      </trkpt>
      <trkpt lat="46.44815" lon="5.97758">
        <ele>1137.9</ele>
        <time>2022-06-14T09:38:52Z</time>
      </trkpt>
      <trkpt lat="46.44815" lon="5.97765">
        <ele>1140</ele>
        <time>2022-06-14T09:39:17Z</time>
      </trkpt>
      <trkpt lat="46.44813" lon="5.97772">
        <ele>1140</ele>
        <time>2022-06-14T09:39:21Z</time>
      </trkpt>
      <trkpt lat="46.44811" lon="5.97779">
        <ele>1139.5</ele>
        <time>2022-06-14T09:39:25Z</time>
      </trkpt>
      <trkpt lat="46.4481" lon="5.97787">
        <ele>1138.8</ele>
        <time>2022-06-14T09:39:29Z</time>
      </trkpt>
      <trkpt lat="46.44812" lon="5.97794">
        <ele>1138.3</ele>
        <time>2022-06-14T09:39:33Z</time>
      </trkpt>
      <trkpt lat="46.44812" lon="5.97802">
        <ele>1138.3</ele>
        <time>2022-06-14T09:39:39Z</time>
      </trkpt>
      <trkpt lat="46.44812" lon="5.9781">
        <ele>1138.8</ele>
        <time>2022-06-14T09:39:43Z</time>
      </trkpt>
      <trkpt lat="46.44813" lon="5.97817">
        <ele>1140</ele>
        <time>2022-06-14T09:39:47Z</time>
      </trkpt>
      <trkpt lat="46.44815" lon="5.97823">
        <ele>1141.4</ele>
        <time>2022-06-14T09:39:52Z</time>
      </trkpt>
      <trkpt lat="46.44816" lon="5.97829">
        <ele>1141.9</ele>
        <time>2022-06-14T09:39:57Z</time>
      </trkpt>
      <trkpt lat="46.44818" lon="5.97837">
        <ele>1142</ele>
        <time>2022-06-14T09:40:02Z</time>
      </trkpt>
      <trkpt lat="46.4482" lon="5.97844">
        <ele>1142.4</ele>
        <time>2022-06-14T09:40:07Z</time>
      </trkpt>
      <trkpt lat="46.4482" lon="5.97852">
        <ele>1141.9</ele>
        <time>2022-06-14T09:40:12Z</time>
      </trkpt>
      <trkpt lat="46.44822" lon="5.97859">
        <ele>1141.4</ele>
        <time>2022-06-14T09:40:16Z</time>
      </trkpt>
      <trkpt lat="46.44824" lon="5.97866">
        <ele>1140.9</ele>
        <time>2022-06-14T09:40:22Z</time>
      </trkpt>
      <trkpt lat="46.44828" lon="5.9787">
        <ele>1140.2</ele>
        <time>2022-06-14T09:40:31Z</time>
      </trkpt>
      <trkpt lat="46.44831" lon="5.97877">
        <ele>1139.9</ele>
        <time>2022-06-14T09:40:36Z</time>
      </trkpt>
      <trkpt lat="46.44834" lon="5.97883">
        <ele>1140.5</ele>
        <time>2022-06-14T09:40:41Z</time>
      </trkpt>
      <trkpt lat="46.44836" lon="5.9789">
        <ele>1141.1</ele>
        <time>2022-06-14T09:40:45Z</time>
      </trkpt>
      <trkpt lat="46.44836" lon="5.97896">
        <ele>1141.6</ele>
        <time>2022-06-14T09:40:49Z</time>
      </trkpt>
      <trkpt lat="46.44835" lon="5.97903">
        <ele>1141.8</ele>
        <time>2022-06-14T09:40:53Z</time>
      </trkpt>
      <trkpt lat="46.44832" lon="5.97909">
        <ele>1142.6</ele>
        <time>2022-06-14T09:40:59Z</time>
      </trkpt>
      <trkpt lat="46.44828" lon="5.97913">
        <ele>1143</ele>
        <time>2022-06-14T09:41:05Z</time>
      </trkpt>
      <trkpt lat="46.44825" lon="5.97918">
        <ele>1143.2</ele>
        <time>2022-06-14T09:41:10Z</time>
      </trkpt>
      <trkpt lat="46.44823" lon="5.97925">
        <ele>1143.2</ele>
        <time>2022-06-14T09:41:15Z</time>
      </trkpt>
      <trkpt lat="46.44821" lon="5.97932">
        <ele>1143</ele>
        <time>2022-06-14T09:41:20Z</time>
      </trkpt>
      <trkpt lat="46.44819" lon="5.97938">
        <ele>1142.4</ele>
        <time>2022-06-14T09:41:26Z</time>
      </trkpt>
      <trkpt lat="46.44819" lon="5.97945">
        <ele>1142.3</ele>
        <time>2022-06-14T09:41:31Z</time>
      </trkpt>
      <trkpt lat="46.44818" lon="5.97953">
        <ele>1142.3</ele>
        <time>2022-06-14T09:41:36Z</time>
      </trkpt>
      <trkpt lat="46.44817" lon="5.9796">
        <ele>1142</ele>
        <time>2022-06-14T09:41:40Z</time>
      </trkpt>
      <trkpt lat="46.44818" lon="5.97966">
        <ele>1141.7</ele>
        <time>2022-06-14T09:41:45Z</time>
      </trkpt>
      <trkpt lat="46.44817" lon="5.97974">
        <ele>1141.4</ele>
        <time>2022-06-14T09:41:53Z</time>
      </trkpt>
      <trkpt lat="46.44818" lon="5.9798">
        <ele>1141.2</ele>
        <time>2022-06-14T09:42:01Z</time>
      </trkpt>
      <trkpt lat="46.44822" lon="5.97985">
        <ele>1141.3</ele>
        <time>2022-06-14T09:42:07Z</time>
      </trkpt>
      <trkpt lat="46.44824" lon="5.97993">
        <ele>1141.6</ele>
        <time>2022-06-14T09:42:13Z</time>
      </trkpt>
      <trkpt lat="46.44825" lon="5.98001">
        <ele>1141.7</ele>
        <time>2022-06-14T09:42:17Z</time>
      </trkpt>
      <trkpt lat="46.44827" lon="5.98008">
        <ele>1142.2</ele>
        <time>2022-06-14T09:42:22Z</time>
      </trkpt>
      <trkpt lat="46.4483" lon="5.98014">
        <ele>1142.4</ele>
        <time>2022-06-14T09:42:27Z</time>
      </trkpt>
      <trkpt lat="46.44832" lon="5.9802">
        <ele>1142.9</ele>
        <time>2022-06-14T09:42:32Z</time>
      </trkpt>
      <trkpt lat="46.44833" lon="5.98027">
        <ele>1143.3</ele>
        <time>2022-06-14T09:42:36Z</time>
      </trkpt>
      <trkpt lat="46.44834" lon="5.98034">
        <ele>1145.3</ele>
        <time>2022-06-14T09:42:44Z</time>
      </trkpt>
      <trkpt lat="46.44834" lon="5.98042">
        <ele>1146.8</ele>
        <time>2022-06-14T09:42:51Z</time>
      </trkpt>
      <trkpt lat="46.44836" lon="5.98047">
        <ele>1147.6</ele>
        <time>2022-06-14T09:42:56Z</time>
      </trkpt>
      <trkpt lat="46.44839" lon="5.98052">
        <ele>1148.5</ele>
        <time>2022-06-14T09:43:01Z</time>
      </trkpt>
      <trkpt lat="46.44842" lon="5.98058">
        <ele>1148.8</ele>
        <time>2022-06-14T09:43:06Z</time>
      </trkpt>
      <trkpt lat="46.44843" lon="5.98065">
        <ele>1149.2</ele>
        <time>2022-06-14T09:43:12Z</time>
      </trkpt>
      <trkpt lat="46.44845" lon="5.98072">
        <ele>1149.7</ele>
        <time>2022-06-14T09:43:20Z</time>
      </trkpt>
      <trkpt lat="46.44844" lon="5.98079">
        <ele>1149.9</ele>
        <time>2022-06-14T09:43:26Z</time>
      </trkpt>
      <trkpt lat="46.44847" lon="5.98085">
        <ele>1150.3</ele>
        <time>2022-06-14T09:43:37Z</time>
      </trkpt>
      <trkpt lat="46.44851" lon="5.98089">
        <ele>1150.8</ele>
        <time>2022-06-14T09:43:50Z</time>
      </trkpt>
      <trkpt lat="46.44851" lon="5.98096">
        <ele>1151.3</ele>
        <time>2022-06-14T09:43:55Z</time>
      </trkpt>
      <trkpt lat="46.44853" lon="5.98103">
        <ele>1151.6</ele>
        <time>2022-06-14T09:44:01Z</time>
      </trkpt>
      <trkpt lat="46.44854" lon="5.9811">
        <ele>1150.8</ele>
        <time>2022-06-14T09:44:10Z</time>
      </trkpt>
      <trkpt lat="46.44855" lon="5.98116">
        <ele>1150.2</ele>
        <time>2022-06-14T09:44:16Z</time>
      </trkpt>
      <trkpt lat="46.44854" lon="5.98123">
        <ele>1149.8</ele>
        <time>2022-06-14T09:44:21Z</time>
      </trkpt>
      <trkpt lat="46.44853" lon="5.98131">
        <ele>1149.5</ele>
        <time>2022-06-14T09:44:25Z</time>
      </trkpt>
      <trkpt lat="46.44853" lon="5.98137">
        <ele>1149.5</ele>
        <time>2022-06-14T09:44:31Z</time>
      </trkpt>
      <trkpt lat="46.4485" lon="5.98143">
        <ele>1149.2</ele>
        <time>2022-06-14T09:44:37Z</time>
      </trkpt>
      <trkpt lat="46.44845" lon="5.98142">
        <ele>1149.8</ele>
        <time>2022-06-14T09:44:49Z</time>
      </trkpt>
      <trkpt lat="46.4484" lon="5.98144">
        <ele>1149.9</ele>
        <time>2022-06-14T09:44:54Z</time>
      </trkpt>
      <trkpt lat="46.44835" lon="5.98142">
        <ele>1149.7</ele>
        <time>2022-06-14T09:44:59Z</time>
      </trkpt>
      <trkpt lat="46.4483" lon="5.98139">
        <ele>1149.5</ele>
        <time>2022-06-14T09:45:03Z</time>
      </trkpt>
      <trkpt lat="46.44827" lon="5.98134">
        <ele>1149.2</ele>
        <time>2022-06-14T09:45:09Z</time>
      </trkpt>
      <trkpt lat="46.44823" lon="5.98131">
        <ele>1149</ele>
        <time>2022-06-14T09:45:15Z</time>
      </trkpt>
      <trkpt lat="46.44819" lon="5.98129">
        <ele>1149.6</ele>
        <time>2022-06-14T09:45:19Z</time>
      </trkpt>
      <trkpt lat="46.44813" lon="5.98129">
        <ele>1150.2</ele>
        <time>2022-06-14T09:45:22Z</time>
      </trkpt>
      <trkpt lat="46.44808" lon="5.98127">
        <ele>1151</ele>
        <time>2022-06-14T09:45:26Z</time>
      </trkpt>
      <trkpt lat="46.44804" lon="5.98126">
        <ele>1152.4</ele>
        <time>2022-06-14T09:45:32Z</time>
      </trkpt>
      <trkpt lat="46.448" lon="5.98123">
        <ele>1156.8</ele>
        <time>2022-06-14T09:45:51Z</time>
      </trkpt>
      <trkpt lat="46.44795" lon="5.98121">
        <ele>1156.6</ele>
        <time>2022-06-14T09:45:56Z</time>
      </trkpt>
      <trkpt lat="46.44791" lon="5.98119">
        <ele>1155.8</ele>
        <time>2022-06-14T09:46:01Z</time>
      </trkpt>
      <trkpt lat="46.44786" lon="5.98116">
        <ele>1155</ele>
        <time>2022-06-14T09:46:08Z</time>
      </trkpt>
      <trkpt lat="46.44773" lon="5.98113">
        <ele>1159</ele>
        <time>2022-06-14T09:46:15Z</time>
      </trkpt>
      <trkpt lat="46.44763" lon="5.98111">
        <ele>1162.1</ele>
        <time>2022-06-14T09:46:18Z</time>
      </trkpt>
      <trkpt lat="46.44766" lon="5.98116">
        <ele>1167.6</ele>
        <time>2022-06-14T09:46:39Z</time>
      </trkpt>
      <trkpt lat="46.44762" lon="5.98119">
        <ele>1166.4</ele>
        <time>2022-06-14T09:46:45Z</time>
      </trkpt>
      <trkpt lat="46.44757" lon="5.98117">
        <ele>1165.2</ele>
        <time>2022-06-14T09:46:49Z</time>
      </trkpt>
      <trkpt lat="46.44752" lon="5.98118">
        <ele>1163.6</ele>
        <time>2022-06-14T09:46:53Z</time>
      </trkpt>
      <trkpt lat="46.4475" lon="5.98125">
        <ele>1158.3</ele>
        <time>2022-06-14T09:47:06Z</time>
      </trkpt>
      <trkpt lat="46.44745" lon="5.98124">
        <ele>1156.7</ele>
        <time>2022-06-14T09:47:12Z</time>
      </trkpt>
      <trkpt lat="46.44743" lon="5.98132">
        <ele>1154.7</ele>
        <time>2022-06-14T09:47:19Z</time>
      </trkpt>
      <trkpt lat="46.44742" lon="5.9814">
        <ele>1152.9</ele>
        <time>2022-06-14T09:47:24Z</time>
      </trkpt>
      <trkpt lat="46.44739" lon="5.98146">
        <ele>1152.3</ele>
        <time>2022-06-14T09:47:27Z</time>
      </trkpt>
      <trkpt lat="46.44736" lon="5.98152">
        <ele>1152.1</ele>
        <time>2022-06-14T09:47:31Z</time>
      </trkpt>
      <trkpt lat="46.44733" lon="5.98156">
        <ele>1156.3</ele>
        <time>2022-06-14T09:47:45Z</time>
      </trkpt>
      <trkpt lat="46.44731" lon="5.98163">
        <ele>1159.2</ele>
        <time>2022-06-14T09:47:53Z</time>
      </trkpt>
      <trkpt lat="46.44734" lon="5.98168">
        <ele>1160</ele>
        <time>2022-06-14T09:47:58Z</time>
      </trkpt>
      <trkpt lat="46.44736" lon="5.98174">
        <ele>1161.2</ele>
        <time>2022-06-14T09:48:07Z</time>
      </trkpt>
      <trkpt lat="46.44735" lon="5.98167">
        <ele>1162.4</ele>
        <time>2022-06-14T09:48:23Z</time>
      </trkpt>
      <trkpt lat="46.4473" lon="5.98164">
        <ele>1163</ele>
        <time>2022-06-14T09:48:26Z</time>
      </trkpt>
      <trkpt lat="46.44734" lon="5.98161">
        <ele>1160.7</ele>
        <time>2022-06-14T09:48:44Z</time>
      </trkpt>
      <trkpt lat="46.44731" lon="5.98166">
        <ele>1160.6</ele>
        <time>2022-06-14T09:48:51Z</time>
      </trkpt>
      <trkpt lat="46.44733" lon="5.98173">
        <ele>1162</ele>
        <time>2022-06-14T09:49:02Z</time>
      </trkpt>
      <trkpt lat="46.44729" lon="5.98178">
        <ele>1162.4</ele>
        <time>2022-06-14T09:49:06Z</time>
      </trkpt>
      <trkpt lat="46.44733" lon="5.98178">
        <ele>1161.8</ele>
        <time>2022-06-14T09:49:20Z</time>
      </trkpt>
      <trkpt lat="46.4474" lon="5.98191">
        <ele>1160.1</ele>
        <time>2022-06-14T09:49:42Z</time>
      </trkpt>
      <trkpt lat="46.44733" lon="5.98189">
        <ele>1160.7</ele>
        <time>2022-06-14T09:49:46Z</time>
      </trkpt>
      <trkpt lat="46.44731" lon="5.98195">
        <ele>1162.1</ele>
        <time>2022-06-14T09:49:55Z</time>
      </trkpt>
      <trkpt lat="46.44729" lon="5.98201">
        <ele>1163.1</ele>
        <time>2022-06-14T09:50:00Z</time>
      </trkpt>
      <trkpt lat="46.44725" lon="5.98204">
        <ele>1163.6</ele>
        <time>2022-06-14T09:50:03Z</time>
      </trkpt>
      <trkpt lat="46.4472" lon="5.98204">
        <ele>1164.6</ele>
        <time>2022-06-14T09:50:07Z</time>
      </trkpt>
      <trkpt lat="46.44715" lon="5.982">
        <ele>1168</ele>
        <time>2022-06-14T09:50:23Z</time>
      </trkpt>
      <trkpt lat="46.4471" lon="5.98197">
        <ele>1168</ele>
        <time>2022-06-14T09:50:26Z</time>
      </trkpt>
      <trkpt lat="46.44702" lon="5.98196">
        <ele>1167.6</ele>
        <time>2022-06-14T09:50:29Z</time>
      </trkpt>
      <trkpt lat="46.44696" lon="5.98196">
        <ele>1167.5</ele>
        <time>2022-06-14T09:50:32Z</time>
      </trkpt>
      <trkpt lat="46.44691" lon="5.98197">
        <ele>1167</ele>
        <time>2022-06-14T09:50:35Z</time>
      </trkpt>
      <trkpt lat="46.44685" lon="5.98198">
        <ele>1165.9</ele>
        <time>2022-06-14T09:50:40Z</time>
      </trkpt>
      <trkpt lat="46.4468" lon="5.98194">
        <ele>1165.3</ele>
        <time>2022-06-14T09:50:47Z</time>
      </trkpt>
      <trkpt lat="46.44676" lon="5.98198">
        <ele>1165.1</ele>
        <time>2022-06-14T09:50:58Z</time>
      </trkpt>
      <trkpt lat="46.44676" lon="5.98206">
        <ele>1162.9</ele>
        <time>2022-06-14T09:51:07Z</time>
      </trkpt>
      <trkpt lat="46.44672" lon="5.98208">
        <ele>1161.7</ele>
        <time>2022-06-14T09:51:13Z</time>
      </trkpt>
      <trkpt lat="46.44667" lon="5.98209">
        <ele>1161.1</ele>
        <time>2022-06-14T09:51:19Z</time>
      </trkpt>
      <trkpt lat="46.44665" lon="5.98217">
        <ele>1161.1</ele>
        <time>2022-06-14T09:51:23Z</time>
      </trkpt>
      <trkpt lat="46.44665" lon="5.98223">
        <ele>1160.8</ele>
        <time>2022-06-14T09:51:28Z</time>
      </trkpt>
      <trkpt lat="46.44665" lon="5.98231">
        <ele>1160.2</ele>
        <time>2022-06-14T09:51:44Z</time>
      </trkpt>
      <trkpt lat="46.44666" lon="5.98239">
        <ele>1160.2</ele>
        <time>2022-06-14T09:51:50Z</time>
      </trkpt>
      <trkpt lat="46.44664" lon="5.98246">
        <ele>1160.4</ele>
        <time>2022-06-14T09:51:55Z</time>
      </trkpt>
      <trkpt lat="46.44663" lon="5.98253">
        <ele>1161.1</ele>
        <time>2022-06-14T09:52:02Z</time>
      </trkpt>
      <trkpt lat="46.44664" lon="5.9826">
        <ele>1161.7</ele>
        <time>2022-06-14T09:52:08Z</time>
      </trkpt>
      <trkpt lat="46.44664" lon="5.98268">
        <ele>1163.3</ele>
        <time>2022-06-14T09:52:14Z</time>
      </trkpt>
      <trkpt lat="46.44664" lon="5.98275">
        <ele>1164.8</ele>
        <time>2022-06-14T09:52:17Z</time>
      </trkpt>
      <trkpt lat="46.44663" lon="5.98282">
        <ele>1167.2</ele>
        <time>2022-06-14T09:52:22Z</time>
      </trkpt>
      <trkpt lat="46.44659" lon="5.98282">
        <ele>1167.8</ele>
        <time>2022-06-14T09:52:25Z</time>
      </trkpt>
      <trkpt lat="46.44654" lon="5.98284">
        <ele>1168</ele>
        <time>2022-06-14T09:52:29Z</time>
      </trkpt>
      <trkpt lat="46.44658" lon="5.98288">
        <ele>1168.8</ele>
        <time>2022-06-14T09:52:36Z</time>
      </trkpt>
      <trkpt lat="46.44661" lon="5.98293">
        <ele>1170.2</ele>
        <time>2022-06-14T09:52:43Z</time>
      </trkpt>
      <trkpt lat="46.44665" lon="5.98296">
        <ele>1170.9</ele>
        <time>2022-06-14T09:52:48Z</time>
      </trkpt>
      <trkpt lat="46.44666" lon="5.98303">
        <ele>1172.8</ele>
        <time>2022-06-14T09:52:55Z</time>
      </trkpt>
      <trkpt lat="46.4467" lon="5.98309">
        <ele>1174</ele>
        <time>2022-06-14T09:53:01Z</time>
      </trkpt>
      <trkpt lat="46.44675" lon="5.98311">
        <ele>1174.3</ele>
        <time>2022-06-14T09:53:05Z</time>
      </trkpt>
      <trkpt lat="46.4468" lon="5.98313">
        <ele>1174.6</ele>
        <time>2022-06-14T09:53:08Z</time>
      </trkpt>
      <trkpt lat="46.44684" lon="5.98318">
        <ele>1175.4</ele>
        <time>2022-06-14T09:53:12Z</time>
      </trkpt>
      <trkpt lat="46.44688" lon="5.98323">
        <ele>1176.7</ele>
        <time>2022-06-14T09:53:16Z</time>
      </trkpt>
      <trkpt lat="46.44693" lon="5.98328">
        <ele>1178.4</ele>
        <time>2022-06-14T09:53:20Z</time>
      </trkpt>
      <trkpt lat="46.44694" lon="5.98335">
        <ele>1180.1</ele>
        <time>2022-06-14T09:53:26Z</time>
      </trkpt>
      <trkpt lat="46.44696" lon="5.98341">
        <ele>1180.4</ele>
        <time>2022-06-14T09:53:31Z</time>
      </trkpt>
      <trkpt lat="46.44692" lon="5.98345">
        <ele>1179.8</ele>
        <time>2022-06-14T09:53:36Z</time>
      </trkpt>
      <trkpt lat="46.44694" lon="5.98353">
        <ele>1178.4</ele>
        <time>2022-06-14T09:53:43Z</time>
      </trkpt>
      <trkpt lat="46.44696" lon="5.9836">
        <ele>1178.4</ele>
        <time>2022-06-14T09:53:46Z</time>
      </trkpt>
      <trkpt lat="46.44698" lon="5.98367">
        <ele>1179.3</ele>
        <time>2022-06-14T09:53:50Z</time>
      </trkpt>
      <trkpt lat="46.44699" lon="5.98375">
        <ele>1180.9</ele>
        <time>2022-06-14T09:53:54Z</time>
      </trkpt>
      <trkpt lat="46.44702" lon="5.9838">
        <ele>1182.6</ele>
        <time>2022-06-14T09:53:58Z</time>
      </trkpt>
      <trkpt lat="46.44706" lon="5.98384">
        <ele>1185.7</ele>
        <time>2022-06-14T09:54:05Z</time>
      </trkpt>
      <trkpt lat="46.44709" lon="5.98389">
        <ele>1187.8</ele>
        <time>2022-06-14T09:54:10Z</time>
      </trkpt>
      <trkpt lat="46.44713" lon="5.98393">
        <ele>1189.7</ele>
        <time>2022-06-14T09:54:15Z</time>
      </trkpt>
      <trkpt lat="46.44718" lon="5.98396">
        <ele>1191.4</ele>
        <time>2022-06-14T09:54:19Z</time>
      </trkpt>
      <trkpt lat="46.44722" lon="5.984">
        <ele>1192.6</ele>
        <time>2022-06-14T09:54:22Z</time>
      </trkpt>
      <trkpt lat="46.44727" lon="5.98405">
        <ele>1193.9</ele>
        <time>2022-06-14T09:54:26Z</time>
      </trkpt>
      <trkpt lat="46.44731" lon="5.9841">
        <ele>1195</ele>
        <time>2022-06-14T09:54:30Z</time>
      </trkpt>
      <trkpt lat="46.44735" lon="5.98414">
        <ele>1196.4</ele>
        <time>2022-06-14T09:54:33Z</time>
      </trkpt>
      <trkpt lat="46.4474" lon="5.98418">
        <ele>1198.8</ele>
        <time>2022-06-14T09:54:37Z</time>
      </trkpt>
      <trkpt lat="46.44739" lon="5.98426">
        <ele>1201.5</ele>
        <time>2022-06-14T09:54:43Z</time>
      </trkpt>
      <trkpt lat="46.44743" lon="5.98431">
        <ele>1203.1</ele>
        <time>2022-06-14T09:54:48Z</time>
      </trkpt>
      <trkpt lat="46.4474" lon="5.98436">
        <ele>1203.5</ele>
        <time>2022-06-14T09:54:52Z</time>
      </trkpt>
      <trkpt lat="46.44736" lon="5.98441">
        <ele>1203.3</ele>
        <time>2022-06-14T09:54:56Z</time>
      </trkpt>
      <trkpt lat="46.44731" lon="5.98445">
        <ele>1202.9</ele>
        <time>2022-06-14T09:54:59Z</time>
      </trkpt>
      <trkpt lat="46.44728" lon="5.98451">
        <ele>1202.3</ele>
        <time>2022-06-14T09:55:04Z</time>
      </trkpt>
      <trkpt lat="46.44733" lon="5.98455">
        <ele>1201.4</ele>
        <time>2022-06-14T09:55:09Z</time>
      </trkpt>
      <trkpt lat="46.44738" lon="5.98458">
        <ele>1200.6</ele>
        <time>2022-06-14T09:55:13Z</time>
      </trkpt>
      <trkpt lat="46.44742" lon="5.98461">
        <ele>1199.8</ele>
        <time>2022-06-14T09:55:18Z</time>
      </trkpt>
      <trkpt lat="46.44746" lon="5.98464">
        <ele>1199</ele>
        <time>2022-06-14T09:55:23Z</time>
      </trkpt>
      <trkpt lat="46.44747" lon="5.98472">
        <ele>1199.3</ele>
        <time>2022-06-14T09:55:28Z</time>
      </trkpt>
      <trkpt lat="46.44745" lon="5.98479">
        <ele>1199.8</ele>
        <time>2022-06-14T09:55:31Z</time>
      </trkpt>
      <trkpt lat="46.44746" lon="5.98485">
        <ele>1200.6</ele>
        <time>2022-06-14T09:55:35Z</time>
      </trkpt>
      <trkpt lat="46.44746" lon="5.98492">
        <ele>1200.3</ele>
        <time>2022-06-14T09:55:41Z</time>
      </trkpt>
      <trkpt lat="46.44749" lon="5.98497">
        <ele>1199.9</ele>
        <time>2022-06-14T09:55:45Z</time>
      </trkpt>
      <trkpt lat="46.44753" lon="5.98502">
        <ele>1199.3</ele>
        <time>2022-06-14T09:55:50Z</time>
      </trkpt>
      <trkpt lat="46.44756" lon="5.98509">
        <ele>1198.9</ele>
        <time>2022-06-14T09:55:55Z</time>
      </trkpt>
      <trkpt lat="46.44757" lon="5.98516">
        <ele>1198.4</ele>
        <time>2022-06-14T09:56:00Z</time>
      </trkpt>
      <trkpt lat="46.44758" lon="5.98523">
        <ele>1198.2</ele>
        <time>2022-06-14T09:56:04Z</time>
      </trkpt>
      <trkpt lat="46.44759" lon="5.9853">
        <ele>1197.9</ele>
        <time>2022-06-14T09:56:08Z</time>
      </trkpt>
      <trkpt lat="46.44759" lon="5.98537">
        <ele>1197.7</ele>
        <time>2022-06-14T09:56:12Z</time>
      </trkpt>
      <trkpt lat="46.44756" lon="5.98544">
        <ele>1197.8</ele>
        <time>2022-06-14T09:56:16Z</time>
      </trkpt>
      <trkpt lat="46.44753" lon="5.9855">
        <ele>1197</ele>
        <time>2022-06-14T09:56:21Z</time>
      </trkpt>
      <trkpt lat="46.44753" lon="5.98557">
        <ele>1195.7</ele>
        <time>2022-06-14T09:56:26Z</time>
      </trkpt>
      <trkpt lat="46.44753" lon="5.98564">
        <ele>1194</ele>
        <time>2022-06-14T09:56:31Z</time>
      </trkpt>
      <trkpt lat="46.44758" lon="5.98568">
        <ele>1192.7</ele>
        <time>2022-06-14T09:56:36Z</time>
      </trkpt>
      <trkpt lat="46.44763" lon="5.98571">
        <ele>1191.3</ele>
        <time>2022-06-14T09:56:40Z</time>
      </trkpt>
      <trkpt lat="46.44767" lon="5.98574">
        <ele>1190.2</ele>
        <time>2022-06-14T09:56:44Z</time>
      </trkpt>
      <trkpt lat="46.44768" lon="5.98582">
        <ele>1187.7</ele>
        <time>2022-06-14T09:56:51Z</time>
      </trkpt>
      <trkpt lat="46.44769" lon="5.98588">
        <ele>1186.1</ele>
        <time>2022-06-14T09:56:56Z</time>
      </trkpt>
      <trkpt lat="46.44771" lon="5.98595">
        <ele>1184.9</ele>
        <time>2022-06-14T09:57:02Z</time>
      </trkpt>
      <trkpt lat="46.44775" lon="5.98601">
        <ele>1183.8</ele>
        <time>2022-06-14T09:57:08Z</time>
      </trkpt>
      <trkpt lat="46.44779" lon="5.98606">
        <ele>1183</ele>
        <time>2022-06-14T09:57:12Z</time>
      </trkpt>
      <trkpt lat="46.4478" lon="5.98612">
        <ele>1182</ele>
        <time>2022-06-14T09:57:17Z</time>
      </trkpt>
      <trkpt lat="46.44779" lon="5.98621">
        <ele>1180.9</ele>
        <time>2022-06-14T09:57:23Z</time>
      </trkpt>
      <trkpt lat="46.44782" lon="5.98627">
        <ele>1180.1</ele>
        <time>2022-06-14T09:57:27Z</time>
      </trkpt>
      <trkpt lat="46.44783" lon="5.98635">
        <ele>1179.7</ele>
        <time>2022-06-14T09:57:32Z</time>
      </trkpt>
      <trkpt lat="46.44786" lon="5.98641">
        <ele>1180.5</ele>
        <time>2022-06-14T09:57:38Z</time>
      </trkpt>
      <trkpt lat="46.44787" lon="5.98648">
        <ele>1182.2</ele>
        <time>2022-06-14T09:57:42Z</time>
      </trkpt>
      <trkpt lat="46.44787" lon="5.98655">
        <ele>1184.5</ele>
        <time>2022-06-14T09:57:47Z</time>
      </trkpt>
      <trkpt lat="46.44787" lon="5.98662">
        <ele>1188.2</ele>
        <time>2022-06-14T09:57:55Z</time>
      </trkpt>
      <trkpt lat="46.4479" lon="5.98668">
        <ele>1189.9</ele>
        <time>2022-06-14T09:58:00Z</time>
      </trkpt>
      <trkpt lat="46.44793" lon="5.98674">
        <ele>1191</ele>
        <time>2022-06-14T09:58:03Z</time>
      </trkpt>
      <trkpt lat="46.44795" lon="5.9868">
        <ele>1192.2</ele>
        <time>2022-06-14T09:58:06Z</time>
      </trkpt>
      <trkpt lat="46.44797" lon="5.98686">
        <ele>1193.5</ele>
        <time>2022-06-14T09:58:09Z</time>
      </trkpt>
      <trkpt lat="46.448" lon="5.98691">
        <ele>1195.2</ele>
        <time>2022-06-14T09:58:13Z</time>
      </trkpt>
      <trkpt lat="46.44803" lon="5.98697">
        <ele>1197.2</ele>
        <time>2022-06-14T09:58:17Z</time>
      </trkpt>
      <trkpt lat="46.44803" lon="5.98704">
        <ele>1198.5</ele>
        <time>2022-06-14T09:58:20Z</time>
      </trkpt>
      <trkpt lat="46.44804" lon="5.98712">
        <ele>1200.8</ele>
        <time>2022-06-14T09:58:27Z</time>
      </trkpt>
      <trkpt lat="46.44807" lon="5.98717">
        <ele>1201.7</ele>
        <time>2022-06-14T09:58:33Z</time>
      </trkpt>
      <trkpt lat="46.44812" lon="5.98719">
        <ele>1202.3</ele>
        <time>2022-06-14T09:58:39Z</time>
      </trkpt>
      <trkpt lat="46.44817" lon="5.9872">
        <ele>1202.7</ele>
        <time>2022-06-14T09:58:42Z</time>
      </trkpt>
      <trkpt lat="46.44823" lon="5.9872">
        <ele>1203.1</ele>
        <time>2022-06-14T09:58:45Z</time>
      </trkpt>
      <trkpt lat="46.44828" lon="5.98722">
        <ele>1203.9</ele>
        <time>2022-06-14T09:58:49Z</time>
      </trkpt>
      <trkpt lat="46.44831" lon="5.98728">
        <ele>1204.3</ele>
        <time>2022-06-14T09:58:56Z</time>
      </trkpt>
      <trkpt lat="46.44831" lon="5.98736">
        <ele>1203.9</ele>
        <time>2022-06-14T09:59:00Z</time>
      </trkpt>
      <trkpt lat="46.44832" lon="5.98743">
        <ele>1202.8</ele>
        <time>2022-06-14T09:59:05Z</time>
      </trkpt>
      <trkpt lat="46.44834" lon="5.98751">
        <ele>1201</ele>
        <time>2022-06-14T09:59:11Z</time>
      </trkpt>
      <trkpt lat="46.44835" lon="5.98758">
        <ele>1199.9</ele>
        <time>2022-06-14T09:59:16Z</time>
      </trkpt>
      <trkpt lat="46.44837" lon="5.98764">
        <ele>1199.4</ele>
        <time>2022-06-14T09:59:20Z</time>
      </trkpt>
      <trkpt lat="46.4484" lon="5.98771">
        <ele>1199</ele>
        <time>2022-06-14T09:59:26Z</time>
      </trkpt>
      <trkpt lat="46.44841" lon="5.98778">
        <ele>1198.8</ele>
        <time>2022-06-14T09:59:30Z</time>
      </trkpt>
      <trkpt lat="46.44843" lon="5.98784">
        <ele>1199</ele>
        <time>2022-06-14T09:59:34Z</time>
      </trkpt>
      <trkpt lat="46.44848" lon="5.98786">
        <ele>1199.5</ele>
        <time>2022-06-14T09:59:38Z</time>
      </trkpt>
      <trkpt lat="46.44853" lon="5.98789">
        <ele>1199.7</ele>
        <time>2022-06-14T09:59:42Z</time>
      </trkpt>
      <trkpt lat="46.44855" lon="5.98796">
        <ele>1199.5</ele>
        <time>2022-06-14T09:59:50Z</time>
      </trkpt>
      <trkpt lat="46.4486" lon="5.98797">
        <ele>1199.9</ele>
        <time>2022-06-14T09:59:53Z</time>
      </trkpt>
      <trkpt lat="46.44866" lon="5.98799">
        <ele>1200.4</ele>
        <time>2022-06-14T09:59:56Z</time>
      </trkpt>
      <trkpt lat="46.44871" lon="5.98803">
        <ele>1201.4</ele>
        <time>2022-06-14T10:00:02Z</time>
      </trkpt>
      <trkpt lat="46.44874" lon="5.98807">
        <ele>1202.5</ele>
        <time>2022-06-14T10:00:07Z</time>
      </trkpt>
      <trkpt lat="46.44878" lon="5.98803">
        <ele>1203.2</ele>
        <time>2022-06-14T10:00:26Z</time>
      </trkpt>
      <trkpt lat="46.44884" lon="5.988">
        <ele>1202.7</ele>
        <time>2022-06-14T10:00:31Z</time>
      </trkpt>
      <trkpt lat="46.44889" lon="5.98799">
        <ele>1202.1</ele>
        <time>2022-06-14T10:00:35Z</time>
      </trkpt>
      <trkpt lat="46.44894" lon="5.98799">
        <ele>1201.3</ele>
        <time>2022-06-14T10:00:42Z</time>
      </trkpt>
      <trkpt lat="46.44899" lon="5.988">
        <ele>1200.6</ele>
        <time>2022-06-14T10:00:47Z</time>
      </trkpt>
      <trkpt lat="46.44904" lon="5.98803">
        <ele>1200.2</ele>
        <time>2022-06-14T10:00:50Z</time>
      </trkpt>
      <trkpt lat="46.44908" lon="5.98808">
        <ele>1199.8</ele>
        <time>2022-06-14T10:00:54Z</time>
      </trkpt>
      <trkpt lat="46.44912" lon="5.9881">
        <ele>1199.2</ele>
        <time>2022-06-14T10:00:58Z</time>
      </trkpt>
      <trkpt lat="46.44917" lon="5.98811">
        <ele>1198.8</ele>
        <time>2022-06-14T10:01:02Z</time>
      </trkpt>
      <trkpt lat="46.44922" lon="5.98814">
        <ele>1198.3</ele>
        <time>2022-06-14T10:01:07Z</time>
      </trkpt>
      <trkpt lat="46.44927" lon="5.98814">
        <ele>1197.7</ele>
        <time>2022-06-14T10:01:14Z</time>
      </trkpt>
      <trkpt lat="46.44932" lon="5.98814">
        <ele>1197</ele>
        <time>2022-06-14T10:01:21Z</time>
      </trkpt>
      <trkpt lat="46.44937" lon="5.98815">
        <ele>1196.2</ele>
        <time>2022-06-14T10:01:27Z</time>
      </trkpt>
      <trkpt lat="46.44942" lon="5.98817">
        <ele>1195.7</ele>
        <time>2022-06-14T10:01:32Z</time>
      </trkpt>
      <trkpt lat="46.44947" lon="5.9882">
        <ele>1195.5</ele>
        <time>2022-06-14T10:01:35Z</time>
      </trkpt>
      <trkpt lat="46.44952" lon="5.98823">
        <ele>1195.5</ele>
        <time>2022-06-14T10:01:38Z</time>
      </trkpt>
      <trkpt lat="46.44957" lon="5.98825">
        <ele>1195.4</ele>
        <time>2022-06-14T10:01:41Z</time>
      </trkpt>
      <trkpt lat="46.44962" lon="5.98826">
        <ele>1195.3</ele>
        <time>2022-06-14T10:01:46Z</time>
      </trkpt>
      <trkpt lat="46.44968" lon="5.98826">
        <ele>1195.2</ele>
        <time>2022-06-14T10:01:50Z</time>
      </trkpt>
      <trkpt lat="46.44972" lon="5.98827">
        <ele>1195.1</ele>
        <time>2022-06-14T10:01:54Z</time>
      </trkpt>
      <trkpt lat="46.44977" lon="5.98829">
        <ele>1195.2</ele>
        <time>2022-06-14T10:01:58Z</time>
      </trkpt>
      <trkpt lat="46.44982" lon="5.98831">
        <ele>1195.3</ele>
        <time>2022-06-14T10:02:01Z</time>
      </trkpt>
      <trkpt lat="46.44986" lon="5.98836">
        <ele>1195.3</ele>
        <time>2022-06-14T10:02:07Z</time>
      </trkpt>
      <trkpt lat="46.4499" lon="5.98839">
        <ele>1195</ele>
        <time>2022-06-14T10:02:10Z</time>
      </trkpt>
      <trkpt lat="46.44992" lon="5.98846">
        <ele>1194.6</ele>
        <time>2022-06-14T10:02:13Z</time>
      </trkpt>
      <trkpt lat="46.44996" lon="5.98852">
        <ele>1194.2</ele>
        <time>2022-06-14T10:02:17Z</time>
      </trkpt>
      <trkpt lat="46.44998" lon="5.98859">
        <ele>1193.9</ele>
        <time>2022-06-14T10:02:21Z</time>
      </trkpt>
      <trkpt lat="46.44999" lon="5.98865">
        <ele>1193.4</ele>
        <time>2022-06-14T10:02:25Z</time>
      </trkpt>
      <trkpt lat="46.45002" lon="5.98872">
        <ele>1192.9</ele>
        <time>2022-06-14T10:02:30Z</time>
      </trkpt>
      <trkpt lat="46.45006" lon="5.98876">
        <ele>1192.7</ele>
        <time>2022-06-14T10:02:35Z</time>
      </trkpt>
      <trkpt lat="46.45011" lon="5.98879">
        <ele>1193.1</ele>
        <time>2022-06-14T10:02:39Z</time>
      </trkpt>
      <trkpt lat="46.45013" lon="5.98885">
        <ele>1192.9</ele>
        <time>2022-06-14T10:02:45Z</time>
      </trkpt>
      <trkpt lat="46.45013" lon="5.98892">
        <ele>1191.7</ele>
        <time>2022-06-14T10:02:51Z</time>
      </trkpt>
      <trkpt lat="46.45012" lon="5.98898">
        <ele>1190.4</ele>
        <time>2022-06-14T10:02:57Z</time>
      </trkpt>
      <trkpt lat="46.45015" lon="5.98903">
        <ele>1189.4</ele>
        <time>2022-06-14T10:03:03Z</time>
      </trkpt>
      <trkpt lat="46.45019" lon="5.98909">
        <ele>1188</ele>
        <time>2022-06-14T10:03:09Z</time>
      </trkpt>
      <trkpt lat="46.45019" lon="5.98916">
        <ele>1186.5</ele>
        <time>2022-06-14T10:03:15Z</time>
      </trkpt>
      <trkpt lat="46.45018" lon="5.98923">
        <ele>1185.8</ele>
        <time>2022-06-14T10:03:20Z</time>
      </trkpt>
      <trkpt lat="46.45021" lon="5.98929">
        <ele>1186.2</ele>
        <time>2022-06-14T10:03:24Z</time>
      </trkpt>
      <trkpt lat="46.45017" lon="5.98932">
        <ele>1188.7</ele>
        <time>2022-06-14T10:03:34Z</time>
      </trkpt>
      <trkpt lat="46.45012" lon="5.98928">
        <ele>1190.8</ele>
        <time>2022-06-14T10:03:40Z</time>
      </trkpt>
      <trkpt lat="46.45009" lon="5.98924">
        <ele>1192.4</ele>
        <time>2022-06-14T10:03:47Z</time>
      </trkpt>
      <trkpt lat="46.45004" lon="5.98921">
        <ele>1193.7</ele>
        <time>2022-06-14T10:04:02Z</time>
      </trkpt>
      <trkpt lat="46.45009" lon="5.98923">
        <ele>1195.8</ele>
        <time>2022-06-14T10:04:21Z</time>
      </trkpt>
      <trkpt lat="46.45017" lon="5.98926">
        <ele>1195.7</ele>
        <time>2022-06-14T10:04:31Z</time>
      </trkpt>
      <trkpt lat="46.45022" lon="5.98924">
        <ele>1195</ele>
        <time>2022-06-14T10:04:34Z</time>
      </trkpt>
      <trkpt lat="46.45025" lon="5.98931">
        <ele>1199</ele>
        <time>2022-06-14T10:05:07Z</time>
      </trkpt>
      <trkpt lat="46.45029" lon="5.98935">
        <ele>1206.9</ele>
        <time>2022-06-14T10:05:24Z</time>
      </trkpt>
      <trkpt lat="46.45032" lon="5.9894">
        <ele>1207.9</ele>
        <time>2022-06-14T10:05:53Z</time>
      </trkpt>
      <trkpt lat="46.4503" lon="5.98933">
        <ele>1209.2</ele>
        <time>2022-06-14T10:06:08Z</time>
      </trkpt>
      <trkpt lat="46.45033" lon="5.98929">
        <ele>1210.1</ele>
        <time>2022-06-14T10:06:17Z</time>
      </trkpt>
      <trkpt lat="46.45034" lon="5.98922">
        <ele>1211.1</ele>
        <time>2022-06-14T10:06:22Z</time>
      </trkpt>
      <trkpt lat="46.45029" lon="5.98926">
        <ele>1209.4</ele>
        <time>2022-06-14T10:07:05Z</time>
      </trkpt>
      <trkpt lat="46.45024" lon="5.98928">
        <ele>1206</ele>
        <time>2022-06-14T10:07:08Z</time>
      </trkpt>
      <trkpt lat="46.45024" lon="5.98936">
        <ele>1199.9</ele>
        <time>2022-06-14T10:07:18Z</time>
      </trkpt>
      <trkpt lat="46.45026" lon="5.98943">
        <ele>1199.4</ele>
        <time>2022-06-14T10:07:24Z</time>
      </trkpt>
      <trkpt lat="46.45026" lon="5.9895">
        <ele>1199.2</ele>
        <time>2022-06-14T10:07:28Z</time>
      </trkpt>
      <trkpt lat="46.45026" lon="5.98958">
        <ele>1198.9</ele>
        <time>2022-06-14T10:07:33Z</time>
      </trkpt>
      <trkpt lat="46.45027" lon="5.98965">
        <ele>1198.3</ele>
        <time>2022-06-14T10:07:38Z</time>
      </trkpt>
      <trkpt lat="46.45029" lon="5.98972">
        <ele>1196.8</ele>
        <time>2022-06-14T10:07:44Z</time>
      </trkpt>
      <trkpt lat="46.4503" lon="5.98979">
        <ele>1195</ele>
        <time>2022-06-14T10:07:49Z</time>
      </trkpt>
      <trkpt lat="46.45029" lon="5.98987">
        <ele>1193.1</ele>
        <time>2022-06-14T10:07:55Z</time>
      </trkpt>
      <trkpt lat="46.45028" lon="5.98994">
        <ele>1191.5</ele>
        <time>2022-06-14T10:08:01Z</time>
      </trkpt>
      <trkpt lat="46.45026" lon="5.99">
        <ele>1190.7</ele>
        <time>2022-06-14T10:08:06Z</time>
      </trkpt>
      <trkpt lat="46.45028" lon="5.99006">
        <ele>1189.7</ele>
        <time>2022-06-14T10:08:11Z</time>
      </trkpt>
      <trkpt lat="46.45028" lon="5.99014">
        <ele>1189</ele>
        <time>2022-06-14T10:08:16Z</time>
      </trkpt>
      <trkpt lat="46.45027" lon="5.99021">
        <ele>1189.1</ele>
        <time>2022-06-14T10:08:20Z</time>
      </trkpt>
      <trkpt lat="46.45025" lon="5.99028">
        <ele>1189.5</ele>
        <time>2022-06-14T10:08:23Z</time>
      </trkpt>
      <trkpt lat="46.45024" lon="5.99035">
        <ele>1190.1</ele>
        <time>2022-06-14T10:08:27Z</time>
      </trkpt>
      <trkpt lat="46.45023" lon="5.99043">
        <ele>1190.6</ele>
        <time>2022-06-14T10:08:32Z</time>
      </trkpt>
      <trkpt lat="46.45023" lon="5.99049">
        <ele>1191.1</ele>
        <time>2022-06-14T10:08:37Z</time>
      </trkpt>
      <trkpt lat="46.45027" lon="5.99052">
        <ele>1191.9</ele>
        <time>2022-06-14T10:08:41Z</time>
      </trkpt>
      <trkpt lat="46.45026" lon="5.99058">
        <ele>1193.8</ele>
        <time>2022-06-14T10:08:49Z</time>
      </trkpt>
      <trkpt lat="46.45025" lon="5.99065">
        <ele>1194.2</ele>
        <time>2022-06-14T10:08:53Z</time>
      </trkpt>
      <trkpt lat="46.45025" lon="5.99073">
        <ele>1194.3</ele>
        <time>2022-06-14T10:08:58Z</time>
      </trkpt>
      <trkpt lat="46.45022" lon="5.99079">
        <ele>1195.6</ele>
        <time>2022-06-14T10:09:04Z</time>
      </trkpt>
      <trkpt lat="46.45022" lon="5.99086">
        <ele>1196.3</ele>
        <time>2022-06-14T10:09:11Z</time>
      </trkpt>
      <trkpt lat="46.45025" lon="5.99092">
        <ele>1196.6</ele>
        <time>2022-06-14T10:09:16Z</time>
      </trkpt>
      <trkpt lat="46.45031" lon="5.99094">
        <ele>1196.3</ele>
        <time>2022-06-14T10:09:20Z</time>
      </trkpt>
      <trkpt lat="46.45036" lon="5.99095">
        <ele>1195.7</ele>
        <time>2022-06-14T10:09:24Z</time>
      </trkpt>
      <trkpt lat="46.45038" lon="5.99101">
        <ele>1195.2</ele>
        <time>2022-06-14T10:09:29Z</time>
      </trkpt>
      <trkpt lat="46.4504" lon="5.99107">
        <ele>1194.4</ele>
        <time>2022-06-14T10:09:35Z</time>
      </trkpt>
      <trkpt lat="46.45046" lon="5.99108">
        <ele>1194.6</ele>
        <time>2022-06-14T10:09:39Z</time>
      </trkpt>
      <trkpt lat="46.45052" lon="5.9911">
        <ele>1195.1</ele>
        <time>2022-06-14T10:09:43Z</time>
      </trkpt>
      <trkpt lat="46.45056" lon="5.99112">
        <ele>1195.5</ele>
        <time>2022-06-14T10:09:47Z</time>
      </trkpt>
      <trkpt lat="46.45061" lon="5.99115">
        <ele>1196</ele>
        <time>2022-06-14T10:09:51Z</time>
      </trkpt>
      <trkpt lat="46.45064" lon="5.9912">
        <ele>1196.2</ele>
        <time>2022-06-14T10:09:57Z</time>
      </trkpt>
      <trkpt lat="46.45069" lon="5.99122">
        <ele>1196.2</ele>
        <time>2022-06-14T10:10:03Z</time>
      </trkpt>
      <trkpt lat="46.45074" lon="5.99125">
        <ele>1196</ele>
        <time>2022-06-14T10:10:08Z</time>
      </trkpt>
      <trkpt lat="46.45078" lon="5.99128">
        <ele>1196.3</ele>
        <time>2022-06-14T10:10:13Z</time>
      </trkpt>
      <trkpt lat="46.45082" lon="5.99134">
        <ele>1196.8</ele>
        <time>2022-06-14T10:10:18Z</time>
      </trkpt>
      <trkpt lat="46.45082" lon="5.9914">
        <ele>1197.2</ele>
        <time>2022-06-14T10:10:22Z</time>
      </trkpt>
      <trkpt lat="46.45086" lon="5.99147">
        <ele>1197.4</ele>
        <time>2022-06-14T10:10:28Z</time>
      </trkpt>
      <trkpt lat="46.45091" lon="5.9915">
        <ele>1198</ele>
        <time>2022-06-14T10:10:31Z</time>
      </trkpt>
      <trkpt lat="46.45094" lon="5.99156">
        <ele>1199</ele>
        <time>2022-06-14T10:10:37Z</time>
      </trkpt>
      <trkpt lat="46.45098" lon="5.99162">
        <ele>1199.3</ele>
        <time>2022-06-14T10:10:42Z</time>
      </trkpt>
      <trkpt lat="46.45103" lon="5.99166">
        <ele>1199.7</ele>
        <time>2022-06-14T10:10:46Z</time>
      </trkpt>
      <trkpt lat="46.45105" lon="5.99172">
        <ele>1200</ele>
        <time>2022-06-14T10:10:50Z</time>
      </trkpt>
      <trkpt lat="46.45109" lon="5.99177">
        <ele>1200.3</ele>
        <time>2022-06-14T10:10:54Z</time>
      </trkpt>
      <trkpt lat="46.45112" lon="5.99182">
        <ele>1200.6</ele>
        <time>2022-06-14T10:10:59Z</time>
      </trkpt>
      <trkpt lat="46.45116" lon="5.99188">
        <ele>1201.4</ele>
        <time>2022-06-14T10:11:03Z</time>
      </trkpt>
      <trkpt lat="46.45118" lon="5.99194">
        <ele>1202.4</ele>
        <time>2022-06-14T10:11:07Z</time>
      </trkpt>
      <trkpt lat="46.45119" lon="5.992">
        <ele>1203.3</ele>
        <time>2022-06-14T10:11:13Z</time>
      </trkpt>
      <trkpt lat="46.45121" lon="5.99207">
        <ele>1204</ele>
        <time>2022-06-14T10:11:19Z</time>
      </trkpt>
      <trkpt lat="46.45121" lon="5.99214">
        <ele>1204.8</ele>
        <time>2022-06-14T10:11:27Z</time>
      </trkpt>
      <trkpt lat="46.45119" lon="5.9922">
        <ele>1205.3</ele>
        <time>2022-06-14T10:11:33Z</time>
      </trkpt>
      <trkpt lat="46.45123" lon="5.99224">
        <ele>1206.5</ele>
        <time>2022-06-14T10:11:41Z</time>
      </trkpt>
      <trkpt lat="46.45125" lon="5.9923">
        <ele>1206.8</ele>
        <time>2022-06-14T10:11:49Z</time>
      </trkpt>
      <trkpt lat="46.45128" lon="5.99236">
        <ele>1206.4</ele>
        <time>2022-06-14T10:11:56Z</time>
      </trkpt>
      <trkpt lat="46.45131" lon="5.99243">
        <ele>1206.7</ele>
        <time>2022-06-14T10:12:05Z</time>
      </trkpt>
      <trkpt lat="46.4513" lon="5.99249">
        <ele>1207.7</ele>
        <time>2022-06-14T10:12:12Z</time>
      </trkpt>
      <trkpt lat="46.45134" lon="5.99255">
        <ele>1207.9</ele>
        <time>2022-06-14T10:12:17Z</time>
      </trkpt>
      <trkpt lat="46.45136" lon="5.99263">
        <ele>1207.4</ele>
        <time>2022-06-14T10:12:21Z</time>
      </trkpt>
      <trkpt lat="46.45135" lon="5.99269">
        <ele>1206.9</ele>
        <time>2022-06-14T10:12:24Z</time>
      </trkpt>
      <trkpt lat="46.45137" lon="5.99276">
        <ele>1206.7</ele>
        <time>2022-06-14T10:12:29Z</time>
      </trkpt>
      <trkpt lat="46.45138" lon="5.99283">
        <ele>1207.2</ele>
        <time>2022-06-14T10:12:33Z</time>
      </trkpt>
      <trkpt lat="46.45139" lon="5.9929">
        <ele>1207.6</ele>
        <time>2022-06-14T10:12:39Z</time>
      </trkpt>
      <trkpt lat="46.45143" lon="5.99293">
        <ele>1210.8</ele>
        <time>2022-06-14T10:12:52Z</time>
      </trkpt>
      <trkpt lat="46.45144" lon="5.99301">
        <ele>1210.8</ele>
        <time>2022-06-14T10:13:07Z</time>
      </trkpt>
      <trkpt lat="46.45145" lon="5.99308">
        <ele>1210.9</ele>
        <time>2022-06-14T10:13:13Z</time>
      </trkpt>
      <trkpt lat="46.45149" lon="5.99312">
        <ele>1210.8</ele>
        <time>2022-06-14T10:13:17Z</time>
      </trkpt>
      <trkpt lat="46.45154" lon="5.99315">
        <ele>1210.7</ele>
        <time>2022-06-14T10:13:20Z</time>
      </trkpt>
      <trkpt lat="46.45159" lon="5.99318">
        <ele>1211.1</ele>
        <time>2022-06-14T10:13:23Z</time>
      </trkpt>
      <trkpt lat="46.45162" lon="5.99324">
        <ele>1211.9</ele>
        <time>2022-06-14T10:13:31Z</time>
      </trkpt>
      <trkpt lat="46.45165" lon="5.99329">
        <ele>1213.6</ele>
        <time>2022-06-14T10:13:40Z</time>
      </trkpt>
      <trkpt lat="46.45166" lon="5.99336">
        <ele>1213</ele>
        <time>2022-06-14T10:13:48Z</time>
      </trkpt>
      <trkpt lat="46.45169" lon="5.99341">
        <ele>1212.6</ele>
        <time>2022-06-14T10:13:56Z</time>
      </trkpt>
      <trkpt lat="46.4517" lon="5.99348">
        <ele>1212.4</ele>
        <time>2022-06-14T10:14:01Z</time>
      </trkpt>
      <trkpt lat="46.4517" lon="5.99354">
        <ele>1212.6</ele>
        <time>2022-06-14T10:14:05Z</time>
      </trkpt>
      <trkpt lat="46.45167" lon="5.9936">
        <ele>1212.9</ele>
        <time>2022-06-14T10:14:09Z</time>
      </trkpt>
      <trkpt lat="46.45169" lon="5.99367">
        <ele>1213.7</ele>
        <time>2022-06-14T10:14:16Z</time>
      </trkpt>
      <trkpt lat="46.45173" lon="5.99369">
        <ele>1214.3</ele>
        <time>2022-06-14T10:14:22Z</time>
      </trkpt>
      <trkpt lat="46.45175" lon="5.99376">
        <ele>1215.9</ele>
        <time>2022-06-14T10:14:29Z</time>
      </trkpt>
      <trkpt lat="46.45178" lon="5.99382">
        <ele>1218</ele>
        <time>2022-06-14T10:14:36Z</time>
      </trkpt>
      <trkpt lat="46.45182" lon="5.99385">
        <ele>1219.3</ele>
        <time>2022-06-14T10:14:42Z</time>
      </trkpt>
      <trkpt lat="46.45187" lon="5.99387">
        <ele>1220.5</ele>
        <time>2022-06-14T10:14:48Z</time>
      </trkpt>
      <trkpt lat="46.45192" lon="5.9939">
        <ele>1221.8</ele>
        <time>2022-06-14T10:14:55Z</time>
      </trkpt>
      <trkpt lat="46.45195" lon="5.99395">
        <ele>1222.4</ele>
        <time>2022-06-14T10:15:01Z</time>
      </trkpt>
      <trkpt lat="46.452" lon="5.99399">
        <ele>1223.8</ele>
        <time>2022-06-14T10:15:16Z</time>
      </trkpt>
      <trkpt lat="46.45204" lon="5.99401">
        <ele>1224.3</ele>
        <time>2022-06-14T10:15:21Z</time>
      </trkpt>
      <trkpt lat="46.45205" lon="5.99408">
        <ele>1225.4</ele>
        <time>2022-06-14T10:15:32Z</time>
      </trkpt>
      <trkpt lat="46.45204" lon="5.99416">
        <ele>1223.8</ele>
        <time>2022-06-14T10:15:57Z</time>
      </trkpt>
      <trkpt lat="46.45205" lon="5.99422">
        <ele>1223.9</ele>
        <time>2022-06-14T10:16:02Z</time>
      </trkpt>
      <trkpt lat="46.45209" lon="5.99419">
        <ele>1223.1</ele>
        <time>2022-06-14T10:16:19Z</time>
      </trkpt>
      <trkpt lat="46.45214" lon="5.9942">
        <ele>1223.1</ele>
        <time>2022-06-14T10:16:25Z</time>
      </trkpt>
      <trkpt lat="46.45219" lon="5.9942">
        <ele>1223.4</ele>
        <time>2022-06-14T10:16:31Z</time>
      </trkpt>
      <trkpt lat="46.45224" lon="5.99421">
        <ele>1223.7</ele>
        <time>2022-06-14T10:16:36Z</time>
      </trkpt>
      <trkpt lat="46.45229" lon="5.99417">
        <ele>1223.3</ele>
        <time>2022-06-14T10:16:39Z</time>
      </trkpt>
      <trkpt lat="46.45232" lon="5.99421">
        <ele>1221.8</ele>
        <time>2022-06-14T10:16:47Z</time>
      </trkpt>
      <trkpt lat="46.45231" lon="5.99428">
        <ele>1221</ele>
        <time>2022-06-14T10:16:52Z</time>
      </trkpt>
      <trkpt lat="46.45234" lon="5.99434">
        <ele>1220.5</ele>
        <time>2022-06-14T10:16:57Z</time>
      </trkpt>
      <trkpt lat="46.45237" lon="5.99439">
        <ele>1220.2</ele>
        <time>2022-06-14T10:17:02Z</time>
      </trkpt>
      <trkpt lat="46.4524" lon="5.99445">
        <ele>1219.9</ele>
        <time>2022-06-14T10:17:08Z</time>
      </trkpt>
      <trkpt lat="46.45245" lon="5.99448">
        <ele>1219.7</ele>
        <time>2022-06-14T10:17:13Z</time>
      </trkpt>
      <trkpt lat="46.45249" lon="5.99451">
        <ele>1220.8</ele>
        <time>2022-06-14T10:17:21Z</time>
      </trkpt>
      <trkpt lat="46.45252" lon="5.99457">
        <ele>1222.1</ele>
        <time>2022-06-14T10:17:28Z</time>
      </trkpt>
      <trkpt lat="46.45253" lon="5.99465">
        <ele>1223.1</ele>
        <time>2022-06-14T10:17:35Z</time>
      </trkpt>
      <trkpt lat="46.45255" lon="5.99471">
        <ele>1223.5</ele>
        <time>2022-06-14T10:17:41Z</time>
      </trkpt>
      <trkpt lat="46.4526" lon="5.99475">
        <ele>1224</ele>
        <time>2022-06-14T10:17:46Z</time>
      </trkpt>
      <trkpt lat="46.45264" lon="5.99479">
        <ele>1225.6</ele>
        <time>2022-06-14T10:17:52Z</time>
      </trkpt>
      <trkpt lat="46.45268" lon="5.99485">
        <ele>1228.4</ele>
        <time>2022-06-14T10:18:05Z</time>
      </trkpt>
      <trkpt lat="46.45271" lon="5.9949">
        <ele>1229.4</ele>
        <time>2022-06-14T10:18:08Z</time>
      </trkpt>
      <trkpt lat="46.45275" lon="5.99494">
        <ele>1230.2</ele>
        <time>2022-06-14T10:18:12Z</time>
      </trkpt>
      <trkpt lat="46.45281" lon="5.99492">
        <ele>1231.9</ele>
        <time>2022-06-14T10:18:25Z</time>
      </trkpt>
      <trkpt lat="46.45286" lon="5.99494">
        <ele>1232.9</ele>
        <time>2022-06-14T10:18:29Z</time>
      </trkpt>
      <trkpt lat="46.4529" lon="5.99498">
        <ele>1234.8</ele>
        <time>2022-06-14T10:18:35Z</time>
      </trkpt>
      <trkpt lat="46.45294" lon="5.99502">
        <ele>1236.8</ele>
        <time>2022-06-14T10:18:43Z</time>
      </trkpt>
      <trkpt lat="46.45298" lon="5.99506">
        <ele>1237.6</ele>
        <time>2022-06-14T10:18:49Z</time>
      </trkpt>
      <trkpt lat="46.45301" lon="5.9951">
        <ele>1239.2</ele>
        <time>2022-06-14T10:18:55Z</time>
      </trkpt>
      <trkpt lat="46.45305" lon="5.99517">
        <ele>1243.2</ele>
        <time>2022-06-14T10:19:13Z</time>
      </trkpt>
      <trkpt lat="46.45312" lon="5.99522">
        <ele>1245.3</ele>
        <time>2022-06-14T10:19:16Z</time>
      </trkpt>
      <trkpt lat="46.45316" lon="5.99526">
        <ele>1247.2</ele>
        <time>2022-06-14T10:19:19Z</time>
      </trkpt>
      <trkpt lat="46.45318" lon="5.99532">
        <ele>1249.1</ele>
        <time>2022-06-14T10:19:23Z</time>
      </trkpt>
      <trkpt lat="46.45323" lon="5.99533">
        <ele>1251.3</ele>
        <time>2022-06-14T10:19:29Z</time>
      </trkpt>
      <trkpt lat="46.45329" lon="5.99533">
        <ele>1252.1</ele>
        <time>2022-06-14T10:19:35Z</time>
      </trkpt>
      <trkpt lat="46.45333" lon="5.99535">
        <ele>1253.1</ele>
        <time>2022-06-14T10:19:39Z</time>
      </trkpt>
      <trkpt lat="46.45337" lon="5.9954">
        <ele>1254.8</ele>
        <time>2022-06-14T10:19:49Z</time>
      </trkpt>
      <trkpt lat="46.45332" lon="5.99537">
        <ele>1255.8</ele>
        <time>2022-06-14T10:19:54Z</time>
      </trkpt>
      <trkpt lat="46.45328" lon="5.99533">
        <ele>1257</ele>
        <time>2022-06-14T10:20:00Z</time>
      </trkpt>
      <trkpt lat="46.45324" lon="5.99534">
        <ele>1257</ele>
        <time>2022-06-14T10:20:13Z</time>
      </trkpt>
      <trkpt lat="46.45321" lon="5.99528">
        <ele>1257.2</ele>
        <time>2022-06-14T10:20:23Z</time>
      </trkpt>
      <trkpt lat="46.45326" lon="5.99527">
        <ele>1252.8</ele>
        <time>2022-06-14T10:20:49Z</time>
      </trkpt>
      <trkpt lat="46.45324" lon="5.9952">
        <ele>1251.3</ele>
        <time>2022-06-14T10:20:59Z</time>
      </trkpt>
      <trkpt lat="46.45322" lon="5.99526">
        <ele>1250.1</ele>
        <time>2022-06-14T10:21:19Z</time>
      </trkpt>
      <trkpt lat="46.45328" lon="5.99531">
        <ele>1249.6</ele>
        <time>2022-06-14T10:21:28Z</time>
      </trkpt>
      <trkpt lat="46.45332" lon="5.99536">
        <ele>1249.5</ele>
        <time>2022-06-14T10:21:31Z</time>
      </trkpt>
      <trkpt lat="46.45335" lon="5.99542">
        <ele>1249</ele>
        <time>2022-06-14T10:21:35Z</time>
      </trkpt>
      <trkpt lat="46.45337" lon="5.99549">
        <ele>1248.6</ele>
        <time>2022-06-14T10:21:38Z</time>
      </trkpt>
      <trkpt lat="46.45339" lon="5.99555">
        <ele>1248</ele>
        <time>2022-06-14T10:21:42Z</time>
      </trkpt>
      <trkpt lat="46.45344" lon="5.99557">
        <ele>1245.9</ele>
        <time>2022-06-14T10:21:54Z</time>
      </trkpt>
      <trkpt lat="46.45349" lon="5.99559">
        <ele>1245.3</ele>
        <time>2022-06-14T10:21:58Z</time>
      </trkpt>
      <trkpt lat="46.45354" lon="5.99562">
        <ele>1244.8</ele>
        <time>2022-06-14T10:22:02Z</time>
      </trkpt>
      <trkpt lat="46.45359" lon="5.99563">
        <ele>1244.1</ele>
        <time>2022-06-14T10:22:06Z</time>
      </trkpt>
      <trkpt lat="46.45364" lon="5.99564">
        <ele>1243.2</ele>
        <time>2022-06-14T10:22:11Z</time>
      </trkpt>
      <trkpt lat="46.45369" lon="5.99562">
        <ele>1242.3</ele>
        <time>2022-06-14T10:22:24Z</time>
      </trkpt>
      <trkpt lat="46.45374" lon="5.9956">
        <ele>1242.2</ele>
        <time>2022-06-14T10:22:30Z</time>
      </trkpt>
      <trkpt lat="46.45379" lon="5.9956">
        <ele>1242.9</ele>
        <time>2022-06-14T10:22:34Z</time>
      </trkpt>
      <trkpt lat="46.45385" lon="5.99562">
        <ele>1243.6</ele>
        <time>2022-06-14T10:22:37Z</time>
      </trkpt>
      <trkpt lat="46.4539" lon="5.99566">
        <ele>1244.3</ele>
        <time>2022-06-14T10:22:41Z</time>
      </trkpt>
      <trkpt lat="46.45394" lon="5.99569">
        <ele>1244.9</ele>
        <time>2022-06-14T10:22:46Z</time>
      </trkpt>
      <trkpt lat="46.45399" lon="5.9957">
        <ele>1245.8</ele>
        <time>2022-06-14T10:22:54Z</time>
      </trkpt>
      <trkpt lat="46.45403" lon="5.99569">
        <ele>1246.1</ele>
        <time>2022-06-14T10:22:59Z</time>
      </trkpt>
      <trkpt lat="46.45409" lon="5.99568">
        <ele>1247.3</ele>
        <time>2022-06-14T10:23:05Z</time>
      </trkpt>
      <trkpt lat="46.45413" lon="5.99563">
        <ele>1247.9</ele>
        <time>2022-06-14T10:23:08Z</time>
      </trkpt>
      <trkpt lat="46.45415" lon="5.9957">
        <ele>1250.2</ele>
        <time>2022-06-14T10:23:15Z</time>
      </trkpt>
      <trkpt lat="46.45413" lon="5.99578">
        <ele>1251.2</ele>
        <time>2022-06-14T10:23:18Z</time>
      </trkpt>
      <trkpt lat="46.45413" lon="5.99585">
        <ele>1252.5</ele>
        <time>2022-06-14T10:23:22Z</time>
      </trkpt>
      <trkpt lat="46.45419" lon="5.99582">
        <ele>1252.8</ele>
        <time>2022-06-14T10:23:30Z</time>
      </trkpt>
      <trkpt lat="46.45423" lon="5.9958">
        <ele>1252.7</ele>
        <time>2022-06-14T10:23:34Z</time>
      </trkpt>
      <trkpt lat="46.45429" lon="5.9958">
        <ele>1252.4</ele>
        <time>2022-06-14T10:23:38Z</time>
      </trkpt>
      <trkpt lat="46.45435" lon="5.99578">
        <ele>1252.3</ele>
        <time>2022-06-14T10:23:41Z</time>
      </trkpt>
      <trkpt lat="46.4544" lon="5.99578">
        <ele>1252.2</ele>
        <time>2022-06-14T10:23:44Z</time>
      </trkpt>
      <trkpt lat="46.45446" lon="5.99578">
        <ele>1252.2</ele>
        <time>2022-06-14T10:23:48Z</time>
      </trkpt>
      <trkpt lat="46.4545" lon="5.99581">
        <ele>1251.7</ele>
        <time>2022-06-14T10:23:52Z</time>
      </trkpt>
      <trkpt lat="46.45453" lon="5.99587">
        <ele>1250.9</ele>
        <time>2022-06-14T10:23:57Z</time>
      </trkpt>
      <trkpt lat="46.45457" lon="5.99591">
        <ele>1250.3</ele>
        <time>2022-06-14T10:24:00Z</time>
      </trkpt>
      <trkpt lat="46.45458" lon="5.99598">
        <ele>1249.4</ele>
        <time>2022-06-14T10:24:04Z</time>
      </trkpt>
      <trkpt lat="46.45459" lon="5.99605">
        <ele>1248.4</ele>
        <time>2022-06-14T10:24:08Z</time>
      </trkpt>
      <trkpt lat="46.45462" lon="5.9961">
        <ele>1247.7</ele>
        <time>2022-06-14T10:24:13Z</time>
      </trkpt>
      <trkpt lat="46.45467" lon="5.99611">
        <ele>1247.3</ele>
        <time>2022-06-14T10:24:17Z</time>
      </trkpt>
      <trkpt lat="46.45473" lon="5.99612">
        <ele>1247</ele>
        <time>2022-06-14T10:24:21Z</time>
      </trkpt>
      <trkpt lat="46.45478" lon="5.99612">
        <ele>1246.7</ele>
        <time>2022-06-14T10:24:25Z</time>
      </trkpt>
      <trkpt lat="46.45483" lon="5.99612">
        <ele>1246.3</ele>
        <time>2022-06-14T10:24:29Z</time>
      </trkpt>
      <trkpt lat="46.45488" lon="5.99615">
        <ele>1246</ele>
        <time>2022-06-14T10:24:37Z</time>
      </trkpt>
      <trkpt lat="46.45492" lon="5.99618">
        <ele>1245.7</ele>
        <time>2022-06-14T10:24:43Z</time>
      </trkpt>
      <trkpt lat="46.45497" lon="5.9962">
        <ele>1246.1</ele>
        <time>2022-06-14T10:24:48Z</time>
      </trkpt>
      <trkpt lat="46.45501" lon="5.99624">
        <ele>1246.9</ele>
        <time>2022-06-14T10:24:52Z</time>
      </trkpt>
      <trkpt lat="46.45506" lon="5.99626">
        <ele>1247.8</ele>
        <time>2022-06-14T10:24:56Z</time>
      </trkpt>
      <trkpt lat="46.4551" lon="5.99631">
        <ele>1249.3</ele>
        <time>2022-06-14T10:25:01Z</time>
      </trkpt>
      <trkpt lat="46.45509" lon="5.99638">
        <ele>1249.8</ele>
        <time>2022-06-14T10:25:06Z</time>
      </trkpt>
      <trkpt lat="46.45512" lon="5.99644">
        <ele>1249.3</ele>
        <time>2022-06-14T10:25:12Z</time>
      </trkpt>
      <trkpt lat="46.45517" lon="5.99645">
        <ele>1248.6</ele>
        <time>2022-06-14T10:25:17Z</time>
      </trkpt>
      <trkpt lat="46.45522" lon="5.99649">
        <ele>1248.4</ele>
        <time>2022-06-14T10:25:21Z</time>
      </trkpt>
      <trkpt lat="46.45526" lon="5.99653">
        <ele>1246.3</ele>
        <time>2022-06-14T10:25:33Z</time>
      </trkpt>
      <trkpt lat="46.45531" lon="5.9965">
        <ele>1244.4</ele>
        <time>2022-06-14T10:25:54Z</time>
      </trkpt>
      <trkpt lat="46.45534" lon="5.99654">
        <ele>1245.8</ele>
        <time>2022-06-14T10:25:59Z</time>
      </trkpt>
      <trkpt lat="46.45537" lon="5.9966">
        <ele>1246.4</ele>
        <time>2022-06-14T10:26:03Z</time>
      </trkpt>
      <trkpt lat="46.4554" lon="5.99665">
        <ele>1247.3</ele>
        <time>2022-06-14T10:26:08Z</time>
      </trkpt>
      <trkpt lat="46.45541" lon="5.99672">
        <ele>1247.5</ele>
        <time>2022-06-14T10:26:14Z</time>
      </trkpt>
      <trkpt lat="46.45544" lon="5.99677">
        <ele>1247.4</ele>
        <time>2022-06-14T10:26:19Z</time>
      </trkpt>
      <trkpt lat="46.45548" lon="5.9968">
        <ele>1247.4</ele>
        <time>2022-06-14T10:26:23Z</time>
      </trkpt>
      <trkpt lat="46.45552" lon="5.99684">
        <ele>1247.2</ele>
        <time>2022-06-14T10:26:28Z</time>
      </trkpt>
      <trkpt lat="46.45555" lon="5.9969">
        <ele>1248</ele>
        <time>2022-06-14T10:26:37Z</time>
      </trkpt>
      <trkpt lat="46.45557" lon="5.99697">
        <ele>1247.3</ele>
        <time>2022-06-14T10:26:47Z</time>
      </trkpt>
      <trkpt lat="46.45562" lon="5.99696">
        <ele>1247</ele>
        <time>2022-06-14T10:26:51Z</time>
      </trkpt>
      <trkpt lat="46.45568" lon="5.99697">
        <ele>1247</ele>
        <time>2022-06-14T10:26:55Z</time>
      </trkpt>
      <trkpt lat="46.45572" lon="5.99702">
        <ele>1247.1</ele>
        <time>2022-06-14T10:27:00Z</time>
      </trkpt>
      <trkpt lat="46.45577" lon="5.99704">
        <ele>1247.6</ele>
        <time>2022-06-14T10:27:04Z</time>
      </trkpt>
      <trkpt lat="46.45581" lon="5.99708">
        <ele>1248.2</ele>
        <time>2022-06-14T10:27:08Z</time>
      </trkpt>
      <trkpt lat="46.45585" lon="5.99712">
        <ele>1248.9</ele>
        <time>2022-06-14T10:27:13Z</time>
      </trkpt>
      <trkpt lat="46.45583" lon="5.99718">
        <ele>1249.7</ele>
        <time>2022-06-14T10:27:18Z</time>
      </trkpt>
      <trkpt lat="46.45582" lon="5.99725">
        <ele>1249.4</ele>
        <time>2022-06-14T10:27:21Z</time>
      </trkpt>
      <trkpt lat="46.4558" lon="5.99731">
        <ele>1249.1</ele>
        <time>2022-06-14T10:27:25Z</time>
      </trkpt>
      <trkpt lat="46.45581" lon="5.99737">
        <ele>1248.3</ele>
        <time>2022-06-14T10:27:32Z</time>
      </trkpt>
      <trkpt lat="46.45582" lon="5.99744">
        <ele>1247.4</ele>
        <time>2022-06-14T10:27:37Z</time>
      </trkpt>
      <trkpt lat="46.45582" lon="5.99751">
        <ele>1246</ele>
        <time>2022-06-14T10:27:42Z</time>
      </trkpt>
      <trkpt lat="46.45581" lon="5.99758">
        <ele>1243.8</ele>
        <time>2022-06-14T10:27:48Z</time>
      </trkpt>
      <trkpt lat="46.45582" lon="5.99766">
        <ele>1243.4</ele>
        <time>2022-06-14T10:27:53Z</time>
      </trkpt>
      <trkpt lat="46.45583" lon="5.99772">
        <ele>1243.2</ele>
        <time>2022-06-14T10:27:58Z</time>
      </trkpt>
      <trkpt lat="46.45585" lon="5.99778">
        <ele>1242.8</ele>
        <time>2022-06-14T10:28:03Z</time>
      </trkpt>
      <trkpt lat="46.45588" lon="5.99785">
        <ele>1242.1</ele>
        <time>2022-06-14T10:28:08Z</time>
      </trkpt>
      <trkpt lat="46.45589" lon="5.99791">
        <ele>1240.9</ele>
        <time>2022-06-14T10:28:14Z</time>
      </trkpt>
      <trkpt lat="46.45591" lon="5.99799">
        <ele>1240.2</ele>
        <time>2022-06-14T10:28:20Z</time>
      </trkpt>
      <trkpt lat="46.45593" lon="5.99806">
        <ele>1239.7</ele>
        <time>2022-06-14T10:28:25Z</time>
      </trkpt>
      <trkpt lat="46.45594" lon="5.99813">
        <ele>1239.8</ele>
        <time>2022-06-14T10:28:30Z</time>
      </trkpt>
      <trkpt lat="46.45598" lon="5.99818">
        <ele>1239.7</ele>
        <time>2022-06-14T10:28:36Z</time>
      </trkpt>
      <trkpt lat="46.45603" lon="5.99819">
        <ele>1238.7</ele>
        <time>2022-06-14T10:28:42Z</time>
      </trkpt>
      <trkpt lat="46.45605" lon="5.99825">
        <ele>1238.9</ele>
        <time>2022-06-14T10:28:52Z</time>
      </trkpt>
      <trkpt lat="46.4561" lon="5.99823">
        <ele>1239.5</ele>
        <time>2022-06-14T10:28:57Z</time>
      </trkpt>
      <trkpt lat="46.45616" lon="5.99823">
        <ele>1240.5</ele>
        <time>2022-06-14T10:29:02Z</time>
      </trkpt>
      <trkpt lat="46.45621" lon="5.99822">
        <ele>1241.1</ele>
        <time>2022-06-14T10:29:05Z</time>
      </trkpt>
      <trkpt lat="46.45626" lon="5.99822">
        <ele>1241.8</ele>
        <time>2022-06-14T10:29:08Z</time>
      </trkpt>
      <trkpt lat="46.4563" lon="5.99825">
        <ele>1242.5</ele>
        <time>2022-06-14T10:29:13Z</time>
      </trkpt>
      <trkpt lat="46.45634" lon="5.99828">
        <ele>1243.2</ele>
        <time>2022-06-14T10:29:20Z</time>
      </trkpt>
      <trkpt lat="46.45638" lon="5.99833">
        <ele>1243.4</ele>
        <time>2022-06-14T10:29:28Z</time>
      </trkpt>
      <trkpt lat="46.45642" lon="5.99837">
        <ele>1243.7</ele>
        <time>2022-06-14T10:29:34Z</time>
      </trkpt>
      <trkpt lat="46.45646" lon="5.9984">
        <ele>1243.3</ele>
        <time>2022-06-14T10:29:40Z</time>
      </trkpt>
      <trkpt lat="46.45651" lon="5.99842">
        <ele>1240.9</ele>
        <time>2022-06-14T10:29:53Z</time>
      </trkpt>
      <trkpt lat="46.45656" lon="5.99842">
        <ele>1240.2</ele>
        <time>2022-06-14T10:29:58Z</time>
      </trkpt>
      <trkpt lat="46.45661" lon="5.99841">
        <ele>1239.8</ele>
        <time>2022-06-14T10:30:01Z</time>
      </trkpt>
      <trkpt lat="46.45667" lon="5.99841">
        <ele>1239.5</ele>
        <time>2022-06-14T10:30:05Z</time>
      </trkpt>
      <trkpt lat="46.45671" lon="5.99839">
        <ele>1239.2</ele>
        <time>2022-06-14T10:30:08Z</time>
      </trkpt>
      <trkpt lat="46.45676" lon="5.99838">
        <ele>1238.9</ele>
        <time>2022-06-14T10:30:12Z</time>
      </trkpt>
      <trkpt lat="46.45682" lon="5.99838">
        <ele>1238.8</ele>
        <time>2022-06-14T10:30:17Z</time>
      </trkpt>
      <trkpt lat="46.45687" lon="5.99839">
        <ele>1239</ele>
        <time>2022-06-14T10:30:20Z</time>
      </trkpt>
      <trkpt lat="46.45692" lon="5.9984">
        <ele>1239</ele>
        <time>2022-06-14T10:30:24Z</time>
      </trkpt>
      <trkpt lat="46.45697" lon="5.99843">
        <ele>1239</ele>
        <time>2022-06-14T10:30:29Z</time>
      </trkpt>
      <trkpt lat="46.45701" lon="5.99842">
        <ele>1238.6</ele>
        <time>2022-06-14T10:30:41Z</time>
      </trkpt>
      <trkpt lat="46.45707" lon="5.99841">
        <ele>1240.9</ele>
        <time>2022-06-14T10:30:52Z</time>
      </trkpt>
      <trkpt lat="46.45712" lon="5.99842">
        <ele>1242.4</ele>
        <time>2022-06-14T10:30:55Z</time>
      </trkpt>
      <trkpt lat="46.45717" lon="5.99843">
        <ele>1244</ele>
        <time>2022-06-14T10:30:58Z</time>
      </trkpt>
      <trkpt lat="46.45723" lon="5.99845">
        <ele>1245.4</ele>
        <time>2022-06-14T10:31:02Z</time>
      </trkpt>
      <trkpt lat="46.45727" lon="5.99849">
        <ele>1245.8</ele>
        <time>2022-06-14T10:31:07Z</time>
      </trkpt>
      <trkpt lat="46.45733" lon="5.99849">
        <ele>1245.7</ele>
        <time>2022-06-14T10:31:12Z</time>
      </trkpt>
      <trkpt lat="46.45738" lon="5.99849">
        <ele>1246</ele>
        <time>2022-06-14T10:31:17Z</time>
      </trkpt>
      <trkpt lat="46.45743" lon="5.99849">
        <ele>1246.8</ele>
        <time>2022-06-14T10:31:21Z</time>
      </trkpt>
      <trkpt lat="46.45747" lon="5.99852">
        <ele>1247.6</ele>
        <time>2022-06-14T10:31:26Z</time>
      </trkpt>
      <trkpt lat="46.4575" lon="5.99857">
        <ele>1248.2</ele>
        <time>2022-06-14T10:31:30Z</time>
      </trkpt>
      <trkpt lat="46.45752" lon="5.99864">
        <ele>1248.6</ele>
        <time>2022-06-14T10:31:34Z</time>
      </trkpt>
      <trkpt lat="46.45753" lon="5.99871">
        <ele>1248.7</ele>
        <time>2022-06-14T10:31:39Z</time>
      </trkpt>
      <trkpt lat="46.45751" lon="5.99878">
        <ele>1248.8</ele>
        <time>2022-06-14T10:31:45Z</time>
      </trkpt>
      <trkpt lat="46.45748" lon="5.99884">
        <ele>1248.7</ele>
        <time>2022-06-14T10:31:50Z</time>
      </trkpt>
      <trkpt lat="46.45744" lon="5.99888">
        <ele>1249.1</ele>
        <time>2022-06-14T10:31:58Z</time>
      </trkpt>
      <trkpt lat="46.45749" lon="5.99893">
        <ele>1250.1</ele>
        <time>2022-06-14T10:32:07Z</time>
      </trkpt>
      <trkpt lat="46.45751" lon="5.99899">
        <ele>1250.3</ele>
        <time>2022-06-14T10:32:15Z</time>
      </trkpt>
      <trkpt lat="46.45754" lon="5.99904">
        <ele>1251.5</ele>
        <time>2022-06-14T10:32:23Z</time>
      </trkpt>
      <trkpt lat="46.45759" lon="5.99907">
        <ele>1252.4</ele>
        <time>2022-06-14T10:32:29Z</time>
      </trkpt>
      <trkpt lat="46.45763" lon="5.99906">
        <ele>1253.1</ele>
        <time>2022-06-14T10:32:35Z</time>
      </trkpt>
      <trkpt lat="46.45767" lon="5.999">
        <ele>1253.4</ele>
        <time>2022-06-14T10:32:46Z</time>
      </trkpt>
      <trkpt lat="46.45772" lon="5.99898">
        <ele>1253.2</ele>
        <time>2022-06-14T10:32:50Z</time>
      </trkpt>
      <trkpt lat="46.45777" lon="5.99896">
        <ele>1253.7</ele>
        <time>2022-06-14T10:32:55Z</time>
      </trkpt>
      <trkpt lat="46.45781" lon="5.999">
        <ele>1255</ele>
        <time>2022-06-14T10:33:01Z</time>
      </trkpt>
      <trkpt lat="46.45786" lon="5.99902">
        <ele>1254.9</ele>
        <time>2022-06-14T10:33:09Z</time>
      </trkpt>
      <trkpt lat="46.45791" lon="5.99902">
        <ele>1252.1</ele>
        <time>2022-06-14T10:33:18Z</time>
      </trkpt>
      <trkpt lat="46.45795" lon="5.99897">
        <ele>1251</ele>
        <time>2022-06-14T10:33:22Z</time>
      </trkpt>
      <trkpt lat="46.45794" lon="5.99904">
        <ele>1250.3</ele>
        <time>2022-06-14T10:33:32Z</time>
      </trkpt>
      <trkpt lat="46.45792" lon="5.9991">
        <ele>1251</ele>
        <time>2022-06-14T10:33:36Z</time>
      </trkpt>
      <trkpt lat="46.45787" lon="5.99916">
        <ele>1253</ele>
        <time>2022-06-14T10:33:51Z</time>
      </trkpt>
      <trkpt lat="46.45792" lon="5.99911">
        <ele>1256.3</ele>
        <time>2022-06-14T10:34:04Z</time>
      </trkpt>
      <trkpt lat="46.45796" lon="5.99912">
        <ele>1257.2</ele>
        <time>2022-06-14T10:34:12Z</time>
      </trkpt>
      <trkpt lat="46.45799" lon="5.99907">
        <ele>1258.1</ele>
        <time>2022-06-14T10:34:16Z</time>
      </trkpt>
      <trkpt lat="46.45802" lon="5.99901">
        <ele>1259.3</ele>
        <time>2022-06-14T10:34:20Z</time>
      </trkpt>
      <trkpt lat="46.45807" lon="5.99899">
        <ele>1260.4</ele>
        <time>2022-06-14T10:34:24Z</time>
      </trkpt>
      <trkpt lat="46.45811" lon="5.99898">
        <ele>1261.1</ele>
        <time>2022-06-14T10:34:30Z</time>
      </trkpt>
      <trkpt lat="46.45816" lon="5.99898">
        <ele>1260.1</ele>
        <time>2022-06-14T10:34:35Z</time>
      </trkpt>
      <trkpt lat="46.45821" lon="5.99896">
        <ele>1259.5</ele>
        <time>2022-06-14T10:34:39Z</time>
      </trkpt>
      <trkpt lat="46.45826" lon="5.99899">
        <ele>1258.7</ele>
        <time>2022-06-14T10:34:43Z</time>
      </trkpt>
      <trkpt lat="46.45823" lon="5.99905">
        <ele>1259.6</ele>
        <time>2022-06-14T10:35:34Z</time>
      </trkpt>
      <trkpt lat="46.45828" lon="5.99903">
        <ele>1254.7</ele>
        <time>2022-06-14T10:37:20Z</time>
      </trkpt>
      <trkpt lat="46.45832" lon="5.999">
        <ele>1255.2</ele>
        <time>2022-06-14T10:37:28Z</time>
      </trkpt>
      <trkpt lat="46.45834" lon="5.99907">
        <ele>1256.9</ele>
        <time>2022-06-14T10:37:34Z</time>
      </trkpt>
      <trkpt lat="46.45836" lon="5.99914">
        <ele>1258</ele>
        <time>2022-06-14T10:37:38Z</time>
      </trkpt>
      <trkpt lat="46.45839" lon="5.99919">
        <ele>1258</ele>
        <time>2022-06-14T10:37:43Z</time>
      </trkpt>
      <trkpt lat="46.45841" lon="5.99925">
        <ele>1258.3</ele>
        <time>2022-06-14T10:37:48Z</time>
      </trkpt>
      <trkpt lat="46.45844" lon="5.9993">
        <ele>1258.5</ele>
        <time>2022-06-14T10:37:54Z</time>
      </trkpt>
      <trkpt lat="46.45847" lon="5.99936">
        <ele>1258</ele>
        <time>2022-06-14T10:37:59Z</time>
      </trkpt>
      <trkpt lat="46.4585" lon="5.9994">
        <ele>1257.1</ele>
        <time>2022-06-14T10:38:05Z</time>
      </trkpt>
      <trkpt lat="46.45855" lon="5.99943">
        <ele>1256.1</ele>
        <time>2022-06-14T10:38:15Z</time>
      </trkpt>
      <trkpt lat="46.45859" lon="5.99943">
        <ele>1255.8</ele>
        <time>2022-06-14T10:38:22Z</time>
      </trkpt>
      <trkpt lat="46.45864" lon="5.99946">
        <ele>1256.7</ele>
        <time>2022-06-14T10:38:29Z</time>
      </trkpt>
      <trkpt lat="46.45868" lon="5.9995">
        <ele>1257.7</ele>
        <time>2022-06-14T10:38:39Z</time>
      </trkpt>
      <trkpt lat="46.45873" lon="5.99952">
        <ele>1258.2</ele>
        <time>2022-06-14T10:38:45Z</time>
      </trkpt>
      <trkpt lat="46.45879" lon="5.99954">
        <ele>1258.8</ele>
        <time>2022-06-14T10:39:05Z</time>
      </trkpt>
      <trkpt lat="46.45884" lon="5.99959">
        <ele>1259.4</ele>
        <time>2022-06-14T10:39:09Z</time>
      </trkpt>
      <trkpt lat="46.45887" lon="5.99964">
        <ele>1260.4</ele>
        <time>2022-06-14T10:39:16Z</time>
      </trkpt>
      <trkpt lat="46.45891" lon="5.99967">
        <ele>1260.7</ele>
        <time>2022-06-14T10:39:20Z</time>
      </trkpt>
      <trkpt lat="46.45894" lon="5.99973">
        <ele>1260.2</ele>
        <time>2022-06-14T10:39:25Z</time>
      </trkpt>
      <trkpt lat="46.45897" lon="5.99979">
        <ele>1259.5</ele>
        <time>2022-06-14T10:39:32Z</time>
      </trkpt>
      <trkpt lat="46.45902" lon="5.99982">
        <ele>1259.4</ele>
        <time>2022-06-14T10:39:39Z</time>
      </trkpt>
      <trkpt lat="46.45906" lon="5.99984">
        <ele>1259.1</ele>
        <time>2022-06-14T10:39:46Z</time>
      </trkpt>
      <trkpt lat="46.4591" lon="5.99988">
        <ele>1258.7</ele>
        <time>2022-06-14T10:39:54Z</time>
      </trkpt>
      <trkpt lat="46.45915" lon="5.99985">
        <ele>1259.7</ele>
        <time>2022-06-14T10:40:02Z</time>
      </trkpt>
      <trkpt lat="46.45918" lon="5.9999">
        <ele>1260.8</ele>
        <time>2022-06-14T10:40:08Z</time>
      </trkpt>
      <trkpt lat="46.45922" lon="5.99995">
        <ele>1260.8</ele>
        <time>2022-06-14T10:40:12Z</time>
      </trkpt>
      <trkpt lat="46.45924" lon="6.00001">
        <ele>1260.2</ele>
        <time>2022-06-14T10:40:19Z</time>
      </trkpt>
      <trkpt lat="46.45929" lon="6">
        <ele>1259.2</ele>
        <time>2022-06-14T10:40:26Z</time>
      </trkpt>
      <trkpt lat="46.45934" lon="6.00002">
        <ele>1258.6</ele>
        <time>2022-06-14T10:40:31Z</time>
      </trkpt>
      <trkpt lat="46.45938" lon="6.00005">
        <ele>1257.6</ele>
        <time>2022-06-14T10:40:41Z</time>
      </trkpt>
      <trkpt lat="46.45944" lon="6.00004">
        <ele>1256.6</ele>
        <time>2022-06-14T10:40:47Z</time>
      </trkpt>
      <trkpt lat="46.45949" lon="6.00003">
        <ele>1255.9</ele>
        <time>2022-06-14T10:40:51Z</time>
      </trkpt>
      <trkpt lat="46.45952" lon="6.00008">
        <ele>1251.5</ele>
        <time>2022-06-14T10:41:03Z</time>
      </trkpt>
      <trkpt lat="46.45957" lon="6.0001">
        <ele>1250.9</ele>
        <time>2022-06-14T10:41:07Z</time>
      </trkpt>
      <trkpt lat="46.45962" lon="6.00011">
        <ele>1251</ele>
        <time>2022-06-14T10:41:14Z</time>
      </trkpt>
      <trkpt lat="46.45967" lon="6.0001">
        <ele>1251.7</ele>
        <time>2022-06-14T10:41:19Z</time>
      </trkpt>
      <trkpt lat="46.45971" lon="6.00013">
        <ele>1252.7</ele>
        <time>2022-06-14T10:41:24Z</time>
      </trkpt>
      <trkpt lat="46.45975" lon="6.00018">
        <ele>1254.1</ele>
        <time>2022-06-14T10:41:30Z</time>
      </trkpt>
      <trkpt lat="46.45978" lon="6.00023">
        <ele>1254.9</ele>
        <time>2022-06-14T10:41:34Z</time>
      </trkpt>
      <trkpt lat="46.45982" lon="6.00027">
        <ele>1255.6</ele>
        <time>2022-06-14T10:41:39Z</time>
      </trkpt>
      <trkpt lat="46.45986" lon="6.00029">
        <ele>1255.9</ele>
        <time>2022-06-14T10:41:47Z</time>
      </trkpt>
      <trkpt lat="46.45991" lon="6.00032">
        <ele>1256.5</ele>
        <time>2022-06-14T10:41:54Z</time>
      </trkpt>
      <trkpt lat="46.45994" lon="6.00037">
        <ele>1256.8</ele>
        <time>2022-06-14T10:41:58Z</time>
      </trkpt>
      <trkpt lat="46.45993" lon="6.00045">
        <ele>1257</ele>
        <time>2022-06-14T10:42:02Z</time>
      </trkpt>
      <trkpt lat="46.45993" lon="6.00052">
        <ele>1257</ele>
        <time>2022-06-14T10:42:07Z</time>
      </trkpt>
      <trkpt lat="46.45993" lon="6.00059">
        <ele>1256.7</ele>
        <time>2022-06-14T10:42:13Z</time>
      </trkpt>
      <trkpt lat="46.45992" lon="6.00067">
        <ele>1257.8</ele>
        <time>2022-06-14T10:42:18Z</time>
      </trkpt>
      <trkpt lat="46.45994" lon="6.00074">
        <ele>1259.6</ele>
        <time>2022-06-14T10:42:23Z</time>
      </trkpt>
      <trkpt lat="46.45998" lon="6.00079">
        <ele>1261.4</ele>
        <time>2022-06-14T10:42:29Z</time>
      </trkpt>
      <trkpt lat="46.46004" lon="6.00077">
        <ele>1262.9</ele>
        <time>2022-06-14T10:42:41Z</time>
      </trkpt>
      <trkpt lat="46.46009" lon="6.00074">
        <ele>1263.2</ele>
        <time>2022-06-14T10:42:45Z</time>
      </trkpt>
      <trkpt lat="46.46014" lon="6.00073">
        <ele>1263.9</ele>
        <time>2022-06-14T10:42:51Z</time>
      </trkpt>
      <trkpt lat="46.46018" lon="6.00072">
        <ele>1264.6</ele>
        <time>2022-06-14T10:42:57Z</time>
      </trkpt>
      <trkpt lat="46.46019" lon="6.00078">
        <ele>1264.6</ele>
        <time>2022-06-14T10:43:07Z</time>
      </trkpt>
      <trkpt lat="46.46025" lon="6.00079">
        <ele>1263.6</ele>
        <time>2022-06-14T10:43:15Z</time>
      </trkpt>
      <trkpt lat="46.4603" lon="6.00077">
        <ele>1262.3</ele>
        <time>2022-06-14T10:43:19Z</time>
      </trkpt>
      <trkpt lat="46.46035" lon="6.00077">
        <ele>1260.5</ele>
        <time>2022-06-14T10:43:24Z</time>
      </trkpt>
      <trkpt lat="46.4604" lon="6.00075">
        <ele>1258.8</ele>
        <time>2022-06-14T10:43:30Z</time>
      </trkpt>
      <trkpt lat="46.46044" lon="6.00074">
        <ele>1258</ele>
        <time>2022-06-14T10:43:36Z</time>
      </trkpt>
      <trkpt lat="46.46047" lon="6.0008">
        <ele>1260.6</ele>
        <time>2022-06-14T10:43:46Z</time>
      </trkpt>
      <trkpt lat="46.4605" lon="6.00085">
        <ele>1262.1</ele>
        <time>2022-06-14T10:43:52Z</time>
      </trkpt>
      <trkpt lat="46.46053" lon="6.00091">
        <ele>1263.9</ele>
        <time>2022-06-14T10:44:01Z</time>
      </trkpt>
      <trkpt lat="46.46053" lon="6.00098">
        <ele>1267.9</ele>
        <time>2022-06-14T10:44:14Z</time>
      </trkpt>
      <trkpt lat="46.46058" lon="6.00098">
        <ele>1269.6</ele>
        <time>2022-06-14T10:44:21Z</time>
      </trkpt>
      <trkpt lat="46.46063" lon="6.00098">
        <ele>1271</ele>
        <time>2022-06-14T10:44:26Z</time>
      </trkpt>
      <trkpt lat="46.46068" lon="6.00098">
        <ele>1272.7</ele>
        <time>2022-06-14T10:44:31Z</time>
      </trkpt>
      <trkpt lat="46.46073" lon="6.00096">
        <ele>1273.9</ele>
        <time>2022-06-14T10:44:34Z</time>
      </trkpt>
      <trkpt lat="46.46078" lon="6.00097">
        <ele>1274.7</ele>
        <time>2022-06-14T10:44:38Z</time>
      </trkpt>
      <trkpt lat="46.46082" lon="6.001">
        <ele>1274.8</ele>
        <time>2022-06-14T10:44:44Z</time>
      </trkpt>
      <trkpt lat="46.46084" lon="6.00107">
        <ele>1274.7</ele>
        <time>2022-06-14T10:44:51Z</time>
      </trkpt>
      <trkpt lat="46.46089" lon="6.0011">
        <ele>1274.6</ele>
        <time>2022-06-14T10:44:56Z</time>
      </trkpt>
      <trkpt lat="46.46092" lon="6.00114">
        <ele>1274.8</ele>
        <time>2022-06-14T10:45:03Z</time>
      </trkpt>
      <trkpt lat="46.46097" lon="6.00116">
        <ele>1276.5</ele>
        <time>2022-06-14T10:45:10Z</time>
      </trkpt>
      <trkpt lat="46.46101" lon="6.0012">
        <ele>1279.8</ele>
        <time>2022-06-14T10:45:17Z</time>
      </trkpt>
      <trkpt lat="46.46103" lon="6.00125">
        <ele>1282.6</ele>
        <time>2022-06-14T10:45:24Z</time>
      </trkpt>
      <trkpt lat="46.46108" lon="6.00128">
        <ele>1283.2</ele>
        <time>2022-06-14T10:45:32Z</time>
      </trkpt>
      <trkpt lat="46.46113" lon="6.00132">
        <ele>1282.9</ele>
        <time>2022-06-14T10:45:38Z</time>
      </trkpt>
      <trkpt lat="46.46118" lon="6.00132">
        <ele>1282.6</ele>
        <time>2022-06-14T10:45:44Z</time>
      </trkpt>
      <trkpt lat="46.46122" lon="6.00134">
        <ele>1283.1</ele>
        <time>2022-06-14T10:45:49Z</time>
      </trkpt>
      <trkpt lat="46.46127" lon="6.00136">
        <ele>1284.1</ele>
        <time>2022-06-14T10:45:54Z</time>
      </trkpt>
      <trkpt lat="46.4613" lon="6.0014">
        <ele>1285</ele>
        <time>2022-06-14T10:46:00Z</time>
      </trkpt>
      <trkpt lat="46.46134" lon="6.00146">
        <ele>1285.8</ele>
        <time>2022-06-14T10:46:09Z</time>
      </trkpt>
      <trkpt lat="46.46138" lon="6.00148">
        <ele>1285.4</ele>
        <time>2022-06-14T10:46:14Z</time>
      </trkpt>
      <trkpt lat="46.46141" lon="6.00155">
        <ele>1284.7</ele>
        <time>2022-06-14T10:46:19Z</time>
      </trkpt>
      <trkpt lat="46.4614" lon="6.00163">
        <ele>1284.3</ele>
        <time>2022-06-14T10:46:23Z</time>
      </trkpt>
      <trkpt lat="46.46138" lon="6.0017">
        <ele>1284</ele>
        <time>2022-06-14T10:46:28Z</time>
      </trkpt>
      <trkpt lat="46.46137" lon="6.00177">
        <ele>1284.1</ele>
        <time>2022-06-14T10:46:33Z</time>
      </trkpt>
      <trkpt lat="46.46139" lon="6.00183">
        <ele>1283.4</ele>
        <time>2022-06-14T10:46:41Z</time>
      </trkpt>
      <trkpt lat="46.46138" lon="6.00189">
        <ele>1283.3</ele>
        <time>2022-06-14T10:46:48Z</time>
      </trkpt>
      <trkpt lat="46.46138" lon="6.00197">
        <ele>1283.4</ele>
        <time>2022-06-14T10:46:53Z</time>
      </trkpt>
      <trkpt lat="46.46138" lon="6.00205">
        <ele>1283.6</ele>
        <time>2022-06-14T10:46:57Z</time>
      </trkpt>
      <trkpt lat="46.46138" lon="6.00212">
        <ele>1283.1</ele>
        <time>2022-06-14T10:47:01Z</time>
      </trkpt>
      <trkpt lat="46.46139" lon="6.00219">
        <ele>1280.6</ele>
        <time>2022-06-14T10:47:13Z</time>
      </trkpt>
      <trkpt lat="46.46141" lon="6.00226">
        <ele>1281.6</ele>
        <time>2022-06-14T10:47:18Z</time>
      </trkpt>
      <trkpt lat="46.46143" lon="6.00232">
        <ele>1282.2</ele>
        <time>2022-06-14T10:47:24Z</time>
      </trkpt>
      <trkpt lat="46.46146" lon="6.00237">
        <ele>1281.6</ele>
        <time>2022-06-14T10:47:31Z</time>
      </trkpt>
      <trkpt lat="46.46151" lon="6.00239">
        <ele>1281.2</ele>
        <time>2022-06-14T10:47:40Z</time>
      </trkpt>
      <trkpt lat="46.46154" lon="6.00244">
        <ele>1280.7</ele>
        <time>2022-06-14T10:47:45Z</time>
      </trkpt>
      <trkpt lat="46.46158" lon="6.00241">
        <ele>1280.1</ele>
        <time>2022-06-14T10:47:50Z</time>
      </trkpt>
      <trkpt lat="46.46162" lon="6.00238">
        <ele>1279.8</ele>
        <time>2022-06-14T10:47:56Z</time>
      </trkpt>
      <trkpt lat="46.46167" lon="6.00238">
        <ele>1279.3</ele>
        <time>2022-06-14T10:48:02Z</time>
      </trkpt>
      <trkpt lat="46.46171" lon="6.00234">
        <ele>1279.2</ele>
        <time>2022-06-14T10:48:07Z</time>
      </trkpt>
      <trkpt lat="46.46176" lon="6.00224">
        <ele>1278.6</ele>
        <time>2022-06-14T10:48:31Z</time>
      </trkpt>
      <trkpt lat="46.46178" lon="6.00218">
        <ele>1278</ele>
        <time>2022-06-14T10:48:35Z</time>
      </trkpt>
      <trkpt lat="46.46179" lon="6.00208">
        <ele>1274.4</ele>
        <time>2022-06-14T10:48:51Z</time>
      </trkpt>
      <trkpt lat="46.46182" lon="6.00203">
        <ele>1273.3</ele>
        <time>2022-06-14T10:48:54Z</time>
      </trkpt>
      <trkpt lat="46.46186" lon="6.00199">
        <ele>1272.2</ele>
        <time>2022-06-14T10:48:57Z</time>
      </trkpt>
      <trkpt lat="46.4619" lon="6.00194">
        <ele>1271.3</ele>
        <time>2022-06-14T10:49:00Z</time>
      </trkpt>
      <trkpt lat="46.46195" lon="6.00191">
        <ele>1270.6</ele>
        <time>2022-06-14T10:49:03Z</time>
      </trkpt>
      <trkpt lat="46.46199" lon="6.00189">
        <ele>1270</ele>
        <time>2022-06-14T10:49:06Z</time>
      </trkpt>
      <trkpt lat="46.46205" lon="6.00188">
        <ele>1269.4</ele>
        <time>2022-06-14T10:49:10Z</time>
      </trkpt>
      <trkpt lat="46.4621" lon="6.00186">
        <ele>1268.9</ele>
        <time>2022-06-14T10:49:14Z</time>
      </trkpt>
      <trkpt lat="46.46212" lon="6.00193">
        <ele>1269.7</ele>
        <time>2022-06-14T10:49:24Z</time>
      </trkpt>
      <trkpt lat="46.46217" lon="6.00194">
        <ele>1270.7</ele>
        <time>2022-06-14T10:49:30Z</time>
      </trkpt>
      <trkpt lat="46.46222" lon="6.00197">
        <ele>1271.2</ele>
        <time>2022-06-14T10:49:36Z</time>
      </trkpt>
      <trkpt lat="46.46227" lon="6.00195">
        <ele>1272.4</ele>
        <time>2022-06-14T10:49:49Z</time>
      </trkpt>
      <trkpt lat="46.4623" lon="6.0019">
        <ele>1273.2</ele>
        <time>2022-06-14T10:50:00Z</time>
      </trkpt>
      <trkpt lat="46.46235" lon="6.00187">
        <ele>1272.7</ele>
        <time>2022-06-14T10:50:06Z</time>
      </trkpt>
      <trkpt lat="46.4624" lon="6.00185">
        <ele>1271.9</ele>
        <time>2022-06-14T10:50:13Z</time>
      </trkpt>
      <trkpt lat="46.46246" lon="6.00188">
        <ele>1272.7</ele>
        <time>2022-06-14T10:50:37Z</time>
      </trkpt>
      <trkpt lat="46.46251" lon="6.00185">
        <ele>1272.3</ele>
        <time>2022-06-14T10:51:24Z</time>
      </trkpt>
      <trkpt lat="46.46255" lon="6.00181">
        <ele>1271.7</ele>
        <time>2022-06-14T10:51:29Z</time>
      </trkpt>
      <trkpt lat="46.46254" lon="6.00173">
        <ele>1273.5</ele>
        <time>2022-06-14T10:54:00Z</time>
      </trkpt>
      <trkpt lat="46.46251" lon="6.00167">
        <ele>1276.2</ele>
        <time>2022-06-14T10:54:04Z</time>
      </trkpt>
      <trkpt lat="46.46252" lon="6.00173">
        <ele>1279.9</ele>
        <time>2022-06-14T10:54:17Z</time>
      </trkpt>
      <trkpt lat="46.46254" lon="6.00181">
        <ele>1280.9</ele>
        <time>2022-06-14T10:54:59Z</time>
      </trkpt>
      <trkpt lat="46.46254" lon="6.00174">
        <ele>1279.8</ele>
        <time>2022-06-14T10:55:41Z</time>
      </trkpt>
      <trkpt lat="46.46252" lon="6.00167">
        <ele>1279</ele>
        <time>2022-06-14T10:55:49Z</time>
      </trkpt>
      <trkpt lat="46.46252" lon="6.0016">
        <ele>1279.2</ele>
        <time>2022-06-14T10:56:09Z</time>
      </trkpt>
      <trkpt lat="46.46254" lon="6.00167">
        <ele>1281.3</ele>
        <time>2022-06-14T10:57:02Z</time>
      </trkpt>
      <trkpt lat="46.46258" lon="6.00163">
        <ele>1283.9</ele>
        <time>2022-06-14T10:59:01Z</time>
      </trkpt>
      <trkpt lat="46.46257" lon="6.00157">
        <ele>1293.6</ele>
        <time>2022-06-14T11:36:02Z</time>
      </trkpt>
      <trkpt lat="46.46261" lon="6.0016">
        <ele>1293.5</ele>
        <time>2022-06-14T11:36:08Z</time>
      </trkpt>
      <trkpt lat="46.46266" lon="6.00161">
        <ele>1293.4</ele>
        <time>2022-06-14T11:36:12Z</time>
      </trkpt>
      <trkpt lat="46.46261" lon="6.0016">
        <ele>1293.2</ele>
        <time>2022-06-14T11:36:21Z</time>
      </trkpt>
      <trkpt lat="46.46262" lon="6.00167">
        <ele>1291.3</ele>
        <time>2022-06-14T11:36:32Z</time>
      </trkpt>
      <trkpt lat="46.46257" lon="6.00163">
        <ele>1290.6</ele>
        <time>2022-06-14T11:36:50Z</time>
      </trkpt>
      <trkpt lat="46.46255" lon="6.00169">
        <ele>1283.8</ele>
        <time>2022-06-14T11:39:50Z</time>
      </trkpt>
      <trkpt lat="46.46255" lon="6.00176">
        <ele>1282.4</ele>
        <time>2022-06-14T11:39:56Z</time>
      </trkpt>
      <trkpt lat="46.46253" lon="6.0017">
        <ele>1282</ele>
        <time>2022-06-14T11:40:18Z</time>
      </trkpt>
      <trkpt lat="46.46254" lon="6.00162">
        <ele>1283.4</ele>
        <time>2022-06-14T11:41:05Z</time>
      </trkpt>
      <trkpt lat="46.46257" lon="6.00158">
        <ele>1285.7</ele>
        <time>2022-06-14T11:41:26Z</time>
      </trkpt>
      <trkpt lat="46.46255" lon="6.00165">
        <ele>1286.5</ele>
        <time>2022-06-14T11:56:57Z</time>
      </trkpt>
      <trkpt lat="46.46255" lon="6.00172">
        <ele>1286.3</ele>
        <time>2022-06-14T11:57:00Z</time>
      </trkpt>
      <trkpt lat="46.46256" lon="6.00178">
        <ele>1284.2</ele>
        <time>2022-06-14T11:57:12Z</time>
      </trkpt>
      <trkpt lat="46.46254" lon="6.00185">
        <ele>1283.3</ele>
        <time>2022-06-14T11:57:45Z</time>
      </trkpt>
      <trkpt lat="46.46249" lon="6.00186">
        <ele>1283.8</ele>
        <time>2022-06-14T11:57:51Z</time>
      </trkpt>
      <trkpt lat="46.46245" lon="6.00188">
        <ele>1283.3</ele>
        <time>2022-06-14T11:58:03Z</time>
      </trkpt>
      <trkpt lat="46.46242" lon="6.00193">
        <ele>1282</ele>
        <time>2022-06-14T11:58:29Z</time>
      </trkpt>
      <trkpt lat="46.46238" lon="6.00197">
        <ele>1280.6</ele>
        <time>2022-06-14T11:58:33Z</time>
      </trkpt>
      <trkpt lat="46.46233" lon="6.00199">
        <ele>1278.7</ele>
        <time>2022-06-14T11:58:42Z</time>
      </trkpt>
      <trkpt lat="46.46228" lon="6.00196">
        <ele>1277.6</ele>
        <time>2022-06-14T11:58:53Z</time>
      </trkpt>
      <trkpt lat="46.46224" lon="6.00197">
        <ele>1276.6</ele>
        <time>2022-06-14T11:59:01Z</time>
      </trkpt>
      <trkpt lat="46.46219" lon="6.00197">
        <ele>1276.1</ele>
        <time>2022-06-14T11:59:13Z</time>
      </trkpt>
      <trkpt lat="46.46215" lon="6.00194">
        <ele>1275.4</ele>
        <time>2022-06-14T11:59:19Z</time>
      </trkpt>
      <trkpt lat="46.46211" lon="6.00192">
        <ele>1273.6</ele>
        <time>2022-06-14T11:59:26Z</time>
      </trkpt>
      <trkpt lat="46.46206" lon="6.00194">
        <ele>1271.9</ele>
        <time>2022-06-14T11:59:32Z</time>
      </trkpt>
      <trkpt lat="46.46201" lon="6.00195">
        <ele>1270.3</ele>
        <time>2022-06-14T11:59:39Z</time>
      </trkpt>
      <trkpt lat="46.462" lon="6.00188">
        <ele>1267.5</ele>
        <time>2022-06-14T12:00:30Z</time>
      </trkpt>
      <trkpt lat="46.46205" lon="6.00188">
        <ele>1267</ele>
        <time>2022-06-14T12:01:10Z</time>
      </trkpt>
      <trkpt lat="46.46209" lon="6.0019">
        <ele>1267.3</ele>
        <time>2022-06-14T12:01:16Z</time>
      </trkpt>
      <trkpt lat="46.46206" lon="6.00196">
        <ele>1268</ele>
        <time>2022-06-14T12:02:02Z</time>
      </trkpt>
      <trkpt lat="46.46202" lon="6.00199">
        <ele>1268.8</ele>
        <time>2022-06-14T12:02:07Z</time>
      </trkpt>
      <trkpt lat="46.46198" lon="6.00204">
        <ele>1270.2</ele>
        <time>2022-06-14T12:02:13Z</time>
      </trkpt>
      <trkpt lat="46.46194" lon="6.00209">
        <ele>1271.7</ele>
        <time>2022-06-14T12:02:20Z</time>
      </trkpt>
      <trkpt lat="46.4619" lon="6.00214">
        <ele>1272.5</ele>
        <time>2022-06-14T12:02:26Z</time>
      </trkpt>
      <trkpt lat="46.46187" lon="6.00219">
        <ele>1274.1</ele>
        <time>2022-06-14T12:02:35Z</time>
      </trkpt>
      <trkpt lat="46.46184" lon="6.00225">
        <ele>1274</ele>
        <time>2022-06-14T12:02:58Z</time>
      </trkpt>
      <trkpt lat="46.4618" lon="6.00229">
        <ele>1273.5</ele>
        <time>2022-06-14T12:03:03Z</time>
      </trkpt>
      <trkpt lat="46.46176" lon="6.00233">
        <ele>1272.9</ele>
        <time>2022-06-14T12:03:09Z</time>
      </trkpt>
      <trkpt lat="46.46171" lon="6.00235">
        <ele>1272.4</ele>
        <time>2022-06-14T12:03:17Z</time>
      </trkpt>
      <trkpt lat="46.46166" lon="6.00237">
        <ele>1272.4</ele>
        <time>2022-06-14T12:03:24Z</time>
      </trkpt>
      <trkpt lat="46.46162" lon="6.00236">
        <ele>1271.9</ele>
        <time>2022-06-14T12:03:31Z</time>
      </trkpt>
      <trkpt lat="46.46157" lon="6.00235">
        <ele>1271.7</ele>
        <time>2022-06-14T12:03:39Z</time>
      </trkpt>
      <trkpt lat="46.46152" lon="6.00233">
        <ele>1272</ele>
        <time>2022-06-14T12:03:44Z</time>
      </trkpt>
      <trkpt lat="46.46148" lon="6.00228">
        <ele>1272.7</ele>
        <time>2022-06-14T12:03:50Z</time>
      </trkpt>
      <trkpt lat="46.46145" lon="6.00222">
        <ele>1273.4</ele>
        <time>2022-06-14T12:03:55Z</time>
      </trkpt>
      <trkpt lat="46.46142" lon="6.00216">
        <ele>1274.3</ele>
        <time>2022-06-14T12:04:01Z</time>
      </trkpt>
      <trkpt lat="46.4614" lon="6.00209">
        <ele>1275.1</ele>
        <time>2022-06-14T12:04:07Z</time>
      </trkpt>
      <trkpt lat="46.46139" lon="6.00201">
        <ele>1274.9</ele>
        <time>2022-06-14T12:04:13Z</time>
      </trkpt>
      <trkpt lat="46.46139" lon="6.00194">
        <ele>1274.8</ele>
        <time>2022-06-14T12:04:19Z</time>
      </trkpt>
      <trkpt lat="46.4614" lon="6.00187">
        <ele>1275.3</ele>
        <time>2022-06-14T12:04:25Z</time>
      </trkpt>
      <trkpt lat="46.46139" lon="6.0018">
        <ele>1276.2</ele>
        <time>2022-06-14T12:04:32Z</time>
      </trkpt>
      <trkpt lat="46.46138" lon="6.00173">
        <ele>1276.4</ele>
        <time>2022-06-14T12:04:38Z</time>
      </trkpt>
      <trkpt lat="46.46137" lon="6.00167">
        <ele>1276.7</ele>
        <time>2022-06-14T12:04:44Z</time>
      </trkpt>
      <trkpt lat="46.46134" lon="6.00161">
        <ele>1277.1</ele>
        <time>2022-06-14T12:04:52Z</time>
      </trkpt>
      <trkpt lat="46.46134" lon="6.00153">
        <ele>1277.3</ele>
        <time>2022-06-14T12:05:01Z</time>
      </trkpt>
      <trkpt lat="46.46133" lon="6.00146">
        <ele>1277.3</ele>
        <time>2022-06-14T12:05:07Z</time>
      </trkpt>
      <trkpt lat="46.46131" lon="6.0014">
        <ele>1277.2</ele>
        <time>2022-06-14T12:05:13Z</time>
      </trkpt>
      <trkpt lat="46.46127" lon="6.00138">
        <ele>1276.9</ele>
        <time>2022-06-14T12:05:19Z</time>
      </trkpt>
      <trkpt lat="46.46123" lon="6.00133">
        <ele>1276.5</ele>
        <time>2022-06-14T12:05:25Z</time>
      </trkpt>
      <trkpt lat="46.46119" lon="6.00131">
        <ele>1275.7</ele>
        <time>2022-06-14T12:05:32Z</time>
      </trkpt>
      <trkpt lat="46.46114" lon="6.00129">
        <ele>1274.7</ele>
        <time>2022-06-14T12:05:38Z</time>
      </trkpt>
      <trkpt lat="46.46109" lon="6.00129">
        <ele>1274.6</ele>
        <time>2022-06-14T12:05:44Z</time>
      </trkpt>
      <trkpt lat="46.46103" lon="6.0013">
        <ele>1275</ele>
        <time>2022-06-14T12:05:49Z</time>
      </trkpt>
      <trkpt lat="46.46099" lon="6.00129">
        <ele>1275.1</ele>
        <time>2022-06-14T12:05:54Z</time>
      </trkpt>
      <trkpt lat="46.46095" lon="6.00124">
        <ele>1275.6</ele>
        <time>2022-06-14T12:05:59Z</time>
      </trkpt>
      <trkpt lat="46.46091" lon="6.00119">
        <ele>1277.1</ele>
        <time>2022-06-14T12:06:05Z</time>
      </trkpt>
      <trkpt lat="46.46087" lon="6.00114">
        <ele>1277.4</ele>
        <time>2022-06-14T12:06:14Z</time>
      </trkpt>
      <trkpt lat="46.46084" lon="6.00108">
        <ele>1277.4</ele>
        <time>2022-06-14T12:06:20Z</time>
      </trkpt>
      <trkpt lat="46.4608" lon="6.00103">
        <ele>1277</ele>
        <time>2022-06-14T12:06:26Z</time>
      </trkpt>
      <trkpt lat="46.46077" lon="6.00098">
        <ele>1276.4</ele>
        <time>2022-06-14T12:06:31Z</time>
      </trkpt>
      <trkpt lat="46.46073" lon="6.00094">
        <ele>1275.3</ele>
        <time>2022-06-14T12:06:36Z</time>
      </trkpt>
      <trkpt lat="46.46069" lon="6.00093">
        <ele>1273.9</ele>
        <time>2022-06-14T12:06:42Z</time>
      </trkpt>
      <trkpt lat="46.46064" lon="6.00092">
        <ele>1273.3</ele>
        <time>2022-06-14T12:06:50Z</time>
      </trkpt>
      <trkpt lat="46.46059" lon="6.0009">
        <ele>1273.3</ele>
        <time>2022-06-14T12:06:57Z</time>
      </trkpt>
      <trkpt lat="46.46054" lon="6.0009">
        <ele>1272.6</ele>
        <time>2022-06-14T12:07:02Z</time>
      </trkpt>
      <trkpt lat="46.4605" lon="6.00088">
        <ele>1271.3</ele>
        <time>2022-06-14T12:07:08Z</time>
      </trkpt>
      <trkpt lat="46.46047" lon="6.00082">
        <ele>1269.7</ele>
        <time>2022-06-14T12:07:17Z</time>
      </trkpt>
      <trkpt lat="46.46045" lon="6.00076">
        <ele>1268.5</ele>
        <time>2022-06-14T12:07:24Z</time>
      </trkpt>
      <trkpt lat="46.46042" lon="6.0007">
        <ele>1267.9</ele>
        <time>2022-06-14T12:07:33Z</time>
      </trkpt>
      <trkpt lat="46.46038" lon="6.00067">
        <ele>1267.5</ele>
        <time>2022-06-14T12:07:43Z</time>
      </trkpt>
      <trkpt lat="46.46033" lon="6.00068">
        <ele>1267.1</ele>
        <time>2022-06-14T12:07:48Z</time>
      </trkpt>
      <trkpt lat="46.46028" lon="6.00068">
        <ele>1267.2</ele>
        <time>2022-06-14T12:07:52Z</time>
      </trkpt>
      <trkpt lat="46.46024" lon="6.00069">
        <ele>1267.2</ele>
        <time>2022-06-14T12:07:56Z</time>
      </trkpt>
      <trkpt lat="46.46019" lon="6.00072">
        <ele>1266.5</ele>
        <time>2022-06-14T12:08:01Z</time>
      </trkpt>
      <trkpt lat="46.46015" lon="6.00078">
        <ele>1266.1</ele>
        <time>2022-06-14T12:08:07Z</time>
      </trkpt>
      <trkpt lat="46.46011" lon="6.00081">
        <ele>1266</ele>
        <time>2022-06-14T12:08:13Z</time>
      </trkpt>
      <trkpt lat="46.46007" lon="6.0008">
        <ele>1267</ele>
        <time>2022-06-14T12:08:19Z</time>
      </trkpt>
      <trkpt lat="46.46003" lon="6.00076">
        <ele>1267.9</ele>
        <time>2022-06-14T12:08:25Z</time>
      </trkpt>
      <trkpt lat="46.45999" lon="6.00073">
        <ele>1268</ele>
        <time>2022-06-14T12:08:31Z</time>
      </trkpt>
      <trkpt lat="46.45996" lon="6.00067">
        <ele>1267.6</ele>
        <time>2022-06-14T12:08:38Z</time>
      </trkpt>
      <trkpt lat="46.45994" lon="6.00061">
        <ele>1266.9</ele>
        <time>2022-06-14T12:08:44Z</time>
      </trkpt>
      <trkpt lat="46.45993" lon="6.00054">
        <ele>1266.3</ele>
        <time>2022-06-14T12:08:49Z</time>
      </trkpt>
      <trkpt lat="46.45991" lon="6.00046">
        <ele>1266</ele>
        <time>2022-06-14T12:08:54Z</time>
      </trkpt>
      <trkpt lat="46.45989" lon="6.00039">
        <ele>1266.2</ele>
        <time>2022-06-14T12:08:59Z</time>
      </trkpt>
      <trkpt lat="46.45988" lon="6.00032">
        <ele>1266.8</ele>
        <time>2022-06-14T12:09:04Z</time>
      </trkpt>
      <trkpt lat="46.45985" lon="6.00026">
        <ele>1266.9</ele>
        <time>2022-06-14T12:09:10Z</time>
      </trkpt>
      <trkpt lat="46.45981" lon="6.00023">
        <ele>1267</ele>
        <time>2022-06-14T12:09:18Z</time>
      </trkpt>
      <trkpt lat="46.45978" lon="6.00018">
        <ele>1266.2</ele>
        <time>2022-06-14T12:09:26Z</time>
      </trkpt>
      <trkpt lat="46.45973" lon="6.00013">
        <ele>1266.3</ele>
        <time>2022-06-14T12:09:31Z</time>
      </trkpt>
      <trkpt lat="46.45969" lon="6.00009">
        <ele>1266.7</ele>
        <time>2022-06-14T12:09:35Z</time>
      </trkpt>
      <trkpt lat="46.45965" lon="6.00005">
        <ele>1267.4</ele>
        <time>2022-06-14T12:09:39Z</time>
      </trkpt>
      <trkpt lat="46.45961" lon="6.00002">
        <ele>1268.6</ele>
        <time>2022-06-14T12:09:44Z</time>
      </trkpt>
      <trkpt lat="46.45956" lon="6.00004">
        <ele>1270.5</ele>
        <time>2022-06-14T12:09:52Z</time>
      </trkpt>
      <trkpt lat="46.45952" lon="6.00006">
        <ele>1271.5</ele>
        <time>2022-06-14T12:10:00Z</time>
      </trkpt>
      <trkpt lat="46.45947" lon="6.00008">
        <ele>1271.8</ele>
        <time>2022-06-14T12:10:05Z</time>
      </trkpt>
      <trkpt lat="46.45942" lon="6.0001">
        <ele>1272.2</ele>
        <time>2022-06-14T12:10:09Z</time>
      </trkpt>
      <trkpt lat="46.45937" lon="6.0001">
        <ele>1272.5</ele>
        <time>2022-06-14T12:10:13Z</time>
      </trkpt>
      <trkpt lat="46.45933" lon="6.0001">
        <ele>1272.6</ele>
        <time>2022-06-14T12:10:18Z</time>
      </trkpt>
      <trkpt lat="46.45928" lon="6.00009">
        <ele>1272.6</ele>
        <time>2022-06-14T12:10:24Z</time>
      </trkpt>
      <trkpt lat="46.45924" lon="6.00006">
        <ele>1272.2</ele>
        <time>2022-06-14T12:10:29Z</time>
      </trkpt>
      <trkpt lat="46.45919" lon="6.00001">
        <ele>1271</ele>
        <time>2022-06-14T12:10:34Z</time>
      </trkpt>
      <trkpt lat="46.45915" lon="5.99997">
        <ele>1270</ele>
        <time>2022-06-14T12:10:39Z</time>
      </trkpt>
      <trkpt lat="46.45911" lon="5.99994">
        <ele>1269</ele>
        <time>2022-06-14T12:10:44Z</time>
      </trkpt>
      <trkpt lat="46.45907" lon="5.9999">
        <ele>1268.6</ele>
        <time>2022-06-14T12:10:49Z</time>
      </trkpt>
      <trkpt lat="46.45902" lon="5.99987">
        <ele>1268.5</ele>
        <time>2022-06-14T12:10:54Z</time>
      </trkpt>
      <trkpt lat="46.45898" lon="5.99985">
        <ele>1268.6</ele>
        <time>2022-06-14T12:10:58Z</time>
      </trkpt>
      <trkpt lat="46.45894" lon="5.99981">
        <ele>1268.7</ele>
        <time>2022-06-14T12:11:03Z</time>
      </trkpt>
      <trkpt lat="46.45891" lon="5.99975">
        <ele>1268.7</ele>
        <time>2022-06-14T12:11:08Z</time>
      </trkpt>
      <trkpt lat="46.45888" lon="5.9997">
        <ele>1268.7</ele>
        <time>2022-06-14T12:11:15Z</time>
      </trkpt>
      <trkpt lat="46.45883" lon="5.99966">
        <ele>1268</ele>
        <time>2022-06-14T12:11:22Z</time>
      </trkpt>
      <trkpt lat="46.45879" lon="5.99963">
        <ele>1267.8</ele>
        <time>2022-06-14T12:11:27Z</time>
      </trkpt>
      <trkpt lat="46.45876" lon="5.99958">
        <ele>1267.6</ele>
        <time>2022-06-14T12:11:32Z</time>
      </trkpt>
      <trkpt lat="46.45871" lon="5.99954">
        <ele>1267.3</ele>
        <time>2022-06-14T12:11:37Z</time>
      </trkpt>
      <trkpt lat="46.45867" lon="5.99952">
        <ele>1267</ele>
        <time>2022-06-14T12:11:41Z</time>
      </trkpt>
      <trkpt lat="46.45863" lon="5.99948">
        <ele>1266.6</ele>
        <time>2022-06-14T12:11:46Z</time>
      </trkpt>
      <trkpt lat="46.45858" lon="5.99945">
        <ele>1266.2</ele>
        <time>2022-06-14T12:11:51Z</time>
      </trkpt>
      <trkpt lat="46.45853" lon="5.99942">
        <ele>1264.8</ele>
        <time>2022-06-14T12:11:57Z</time>
      </trkpt>
      <trkpt lat="46.45849" lon="5.99938">
        <ele>1263.5</ele>
        <time>2022-06-14T12:12:03Z</time>
      </trkpt>
      <trkpt lat="46.45846" lon="5.99934">
        <ele>1262.3</ele>
        <time>2022-06-14T12:12:09Z</time>
      </trkpt>
      <trkpt lat="46.45842" lon="5.99928">
        <ele>1261.9</ele>
        <time>2022-06-14T12:12:14Z</time>
      </trkpt>
      <trkpt lat="46.45837" lon="5.99923">
        <ele>1261.6</ele>
        <time>2022-06-14T12:12:19Z</time>
      </trkpt>
      <trkpt lat="46.45833" lon="5.99918">
        <ele>1260.9</ele>
        <time>2022-06-14T12:12:24Z</time>
      </trkpt>
      <trkpt lat="46.4583" lon="5.99912">
        <ele>1259.7</ele>
        <time>2022-06-14T12:12:30Z</time>
      </trkpt>
      <trkpt lat="46.45826" lon="5.99907">
        <ele>1259.6</ele>
        <time>2022-06-14T12:12:35Z</time>
      </trkpt>
      <trkpt lat="46.45822" lon="5.99901">
        <ele>1259.5</ele>
        <time>2022-06-14T12:12:41Z</time>
      </trkpt>
      <trkpt lat="46.45818" lon="5.99897">
        <ele>1259.4</ele>
        <time>2022-06-14T12:12:47Z</time>
      </trkpt>
      <trkpt lat="46.45813" lon="5.99895">
        <ele>1259.3</ele>
        <time>2022-06-14T12:12:53Z</time>
      </trkpt>
      <trkpt lat="46.45808" lon="5.99896">
        <ele>1259.5</ele>
        <time>2022-06-14T12:12:59Z</time>
      </trkpt>
      <trkpt lat="46.45803" lon="5.999">
        <ele>1259.6</ele>
        <time>2022-06-14T12:13:05Z</time>
      </trkpt>
      <trkpt lat="46.45799" lon="5.99903">
        <ele>1259.4</ele>
        <time>2022-06-14T12:13:10Z</time>
      </trkpt>
      <trkpt lat="46.45794" lon="5.99902">
        <ele>1258.6</ele>
        <time>2022-06-14T12:13:15Z</time>
      </trkpt>
      <trkpt lat="46.45789" lon="5.99903">
        <ele>1257.5</ele>
        <time>2022-06-14T12:13:20Z</time>
      </trkpt>
      <trkpt lat="46.45785" lon="5.99905">
        <ele>1256</ele>
        <time>2022-06-14T12:13:26Z</time>
      </trkpt>
      <trkpt lat="46.4578" lon="5.99905">
        <ele>1254.9</ele>
        <time>2022-06-14T12:13:33Z</time>
      </trkpt>
      <trkpt lat="46.45775" lon="5.99903">
        <ele>1254.5</ele>
        <time>2022-06-14T12:13:39Z</time>
      </trkpt>
      <trkpt lat="46.4577" lon="5.99902">
        <ele>1253.8</ele>
        <time>2022-06-14T12:13:45Z</time>
      </trkpt>
      <trkpt lat="46.45766" lon="5.99903">
        <ele>1252.1</ele>
        <time>2022-06-14T12:13:52Z</time>
      </trkpt>
      <trkpt lat="46.45761" lon="5.99906">
        <ele>1250.1</ele>
        <time>2022-06-14T12:13:59Z</time>
      </trkpt>
      <trkpt lat="46.45756" lon="5.99907">
        <ele>1248.6</ele>
        <time>2022-06-14T12:14:06Z</time>
      </trkpt>
      <trkpt lat="46.45752" lon="5.99903">
        <ele>1247.3</ele>
        <time>2022-06-14T12:14:13Z</time>
      </trkpt>
      <trkpt lat="46.4575" lon="5.99898">
        <ele>1245.5</ele>
        <time>2022-06-14T12:14:20Z</time>
      </trkpt>
      <trkpt lat="46.45748" lon="5.99891">
        <ele>1243.9</ele>
        <time>2022-06-14T12:14:28Z</time>
      </trkpt>
      <trkpt lat="46.45747" lon="5.99884">
        <ele>1242.2</ele>
        <time>2022-06-14T12:14:36Z</time>
      </trkpt>
      <trkpt lat="46.45746" lon="5.99878">
        <ele>1241.1</ele>
        <time>2022-06-14T12:14:44Z</time>
      </trkpt>
      <trkpt lat="46.45745" lon="5.99871">
        <ele>1240.4</ele>
        <time>2022-06-14T12:14:51Z</time>
      </trkpt>
      <trkpt lat="46.45744" lon="5.99864">
        <ele>1239.8</ele>
        <time>2022-06-14T12:14:58Z</time>
      </trkpt>
      <trkpt lat="46.45744" lon="5.99857">
        <ele>1240</ele>
        <time>2022-06-14T12:15:04Z</time>
      </trkpt>
      <trkpt lat="46.45742" lon="5.9985">
        <ele>1240.7</ele>
        <time>2022-06-14T12:15:10Z</time>
      </trkpt>
      <trkpt lat="46.45739" lon="5.99844">
        <ele>1241.3</ele>
        <time>2022-06-14T12:15:16Z</time>
      </trkpt>
      <trkpt lat="46.45734" lon="5.99843">
        <ele>1241.6</ele>
        <time>2022-06-14T12:15:22Z</time>
      </trkpt>
      <trkpt lat="46.45729" lon="5.99845">
        <ele>1241.7</ele>
        <time>2022-06-14T12:15:26Z</time>
      </trkpt>
      <trkpt lat="46.45724" lon="5.99848">
        <ele>1241.4</ele>
        <time>2022-06-14T12:15:30Z</time>
      </trkpt>
      <trkpt lat="46.45719" lon="5.99849">
        <ele>1241</ele>
        <time>2022-06-14T12:15:34Z</time>
      </trkpt>
      <trkpt lat="46.45715" lon="5.99847">
        <ele>1240.5</ele>
        <time>2022-06-14T12:15:41Z</time>
      </trkpt>
      <trkpt lat="46.4571" lon="5.99847">
        <ele>1240.9</ele>
        <time>2022-06-14T12:15:47Z</time>
      </trkpt>
      <trkpt lat="46.45705" lon="5.99846">
        <ele>1241.6</ele>
        <time>2022-06-14T12:15:52Z</time>
      </trkpt>
      <trkpt lat="46.457" lon="5.99846">
        <ele>1242.5</ele>
        <time>2022-06-14T12:15:57Z</time>
      </trkpt>
      <trkpt lat="46.45695" lon="5.99846">
        <ele>1244.2</ele>
        <time>2022-06-14T12:16:03Z</time>
      </trkpt>
      <trkpt lat="46.4569" lon="5.99845">
        <ele>1245.3</ele>
        <time>2022-06-14T12:16:08Z</time>
      </trkpt>
      <trkpt lat="46.45685" lon="5.99842">
        <ele>1246.2</ele>
        <time>2022-06-14T12:16:13Z</time>
      </trkpt>
      <trkpt lat="46.4568" lon="5.9984">
        <ele>1246.7</ele>
        <time>2022-06-14T12:16:18Z</time>
      </trkpt>
      <trkpt lat="46.45675" lon="5.99838">
        <ele>1247.1</ele>
        <time>2022-06-14T12:16:24Z</time>
      </trkpt>
      <trkpt lat="46.4567" lon="5.9984">
        <ele>1246.2</ele>
        <time>2022-06-14T12:16:30Z</time>
      </trkpt>
      <trkpt lat="46.45665" lon="5.9984">
        <ele>1245.3</ele>
        <time>2022-06-14T12:16:36Z</time>
      </trkpt>
      <trkpt lat="46.4566" lon="5.99841">
        <ele>1245</ele>
        <time>2022-06-14T12:16:42Z</time>
      </trkpt>
      <trkpt lat="46.45657" lon="5.99845">
        <ele>1245.4</ele>
        <time>2022-06-14T12:16:47Z</time>
      </trkpt>
      <trkpt lat="46.45652" lon="5.99847">
        <ele>1245.8</ele>
        <time>2022-06-14T12:16:52Z</time>
      </trkpt>
      <trkpt lat="46.45647" lon="5.99847">
        <ele>1245.9</ele>
        <time>2022-06-14T12:16:59Z</time>
      </trkpt>
      <trkpt lat="46.45643" lon="5.99845">
        <ele>1246.2</ele>
        <time>2022-06-14T12:17:03Z</time>
      </trkpt>
      <trkpt lat="46.45638" lon="5.9984">
        <ele>1246.6</ele>
        <time>2022-06-14T12:17:08Z</time>
      </trkpt>
      <trkpt lat="46.45634" lon="5.99836">
        <ele>1247</ele>
        <time>2022-06-14T12:17:13Z</time>
      </trkpt>
      <trkpt lat="46.45629" lon="5.99834">
        <ele>1247.1</ele>
        <time>2022-06-14T12:17:19Z</time>
      </trkpt>
      <trkpt lat="46.45625" lon="5.99831">
        <ele>1247</ele>
        <time>2022-06-14T12:17:25Z</time>
      </trkpt>
      <trkpt lat="46.4562" lon="5.99829">
        <ele>1247</ele>
        <time>2022-06-14T12:17:30Z</time>
      </trkpt>
      <trkpt lat="46.45616" lon="5.99827">
        <ele>1247</ele>
        <time>2022-06-14T12:17:36Z</time>
      </trkpt>
      <trkpt lat="46.45611" lon="5.99826">
        <ele>1247.4</ele>
        <time>2022-06-14T12:17:41Z</time>
      </trkpt>
      <trkpt lat="46.45606" lon="5.99827">
        <ele>1248</ele>
        <time>2022-06-14T12:17:48Z</time>
      </trkpt>
      <trkpt lat="46.45602" lon="5.99827">
        <ele>1248</ele>
        <time>2022-06-14T12:18:00Z</time>
      </trkpt>
      <trkpt lat="46.45597" lon="5.99824">
        <ele>1247.7</ele>
        <time>2022-06-14T12:18:05Z</time>
      </trkpt>
      <trkpt lat="46.45593" lon="5.99819">
        <ele>1247.7</ele>
        <time>2022-06-14T12:18:11Z</time>
      </trkpt>
      <trkpt lat="46.45592" lon="5.99812">
        <ele>1247.8</ele>
        <time>2022-06-14T12:18:16Z</time>
      </trkpt>
      <trkpt lat="46.45592" lon="5.99805">
        <ele>1247.3</ele>
        <time>2022-06-14T12:18:22Z</time>
      </trkpt>
      <trkpt lat="46.4559" lon="5.99799">
        <ele>1247.1</ele>
        <time>2022-06-14T12:18:27Z</time>
      </trkpt>
      <trkpt lat="46.45589" lon="5.99793">
        <ele>1247.4</ele>
        <time>2022-06-14T12:18:31Z</time>
      </trkpt>
      <trkpt lat="46.45587" lon="5.99786">
        <ele>1247.9</ele>
        <time>2022-06-14T12:18:35Z</time>
      </trkpt>
      <trkpt lat="46.45585" lon="5.99779">
        <ele>1248.8</ele>
        <time>2022-06-14T12:18:39Z</time>
      </trkpt>
      <trkpt lat="46.45582" lon="5.99773">
        <ele>1249.9</ele>
        <time>2022-06-14T12:18:43Z</time>
      </trkpt>
      <trkpt lat="46.4558" lon="5.99767">
        <ele>1251.2</ele>
        <time>2022-06-14T12:18:47Z</time>
      </trkpt>
      <trkpt lat="46.45579" lon="5.9976">
        <ele>1251.1</ele>
        <time>2022-06-14T12:18:54Z</time>
      </trkpt>
      <trkpt lat="46.45581" lon="5.99753">
        <ele>1248.9</ele>
        <time>2022-06-14T12:19:01Z</time>
      </trkpt>
      <trkpt lat="46.45581" lon="5.99745">
        <ele>1247.7</ele>
        <time>2022-06-14T12:19:06Z</time>
      </trkpt>
      <trkpt lat="46.4558" lon="5.99739">
        <ele>1247.6</ele>
        <time>2022-06-14T12:19:10Z</time>
      </trkpt>
      <trkpt lat="46.45579" lon="5.99731">
        <ele>1248.4</ele>
        <time>2022-06-14T12:19:14Z</time>
      </trkpt>
      <trkpt lat="46.45579" lon="5.99724">
        <ele>1249.4</ele>
        <time>2022-06-14T12:19:19Z</time>
      </trkpt>
      <trkpt lat="46.45578" lon="5.99717">
        <ele>1250.3</ele>
        <time>2022-06-14T12:19:24Z</time>
      </trkpt>
      <trkpt lat="46.45576" lon="5.99711">
        <ele>1251.1</ele>
        <time>2022-06-14T12:19:28Z</time>
      </trkpt>
      <trkpt lat="46.45574" lon="5.99705">
        <ele>1251.6</ele>
        <time>2022-06-14T12:19:32Z</time>
      </trkpt>
      <trkpt lat="46.45571" lon="5.997">
        <ele>1252.4</ele>
        <time>2022-06-14T12:19:37Z</time>
      </trkpt>
      <trkpt lat="46.45567" lon="5.99697">
        <ele>1253.3</ele>
        <time>2022-06-14T12:19:42Z</time>
      </trkpt>
      <trkpt lat="46.45563" lon="5.99693">
        <ele>1253.6</ele>
        <time>2022-06-14T12:19:47Z</time>
      </trkpt>
      <trkpt lat="46.45558" lon="5.99689">
        <ele>1254.1</ele>
        <time>2022-06-14T12:19:52Z</time>
      </trkpt>
      <trkpt lat="46.45554" lon="5.99686">
        <ele>1254.4</ele>
        <time>2022-06-14T12:19:57Z</time>
      </trkpt>
      <trkpt lat="46.4555" lon="5.99683">
        <ele>1254.6</ele>
        <time>2022-06-14T12:20:04Z</time>
      </trkpt>
      <trkpt lat="46.45545" lon="5.99681">
        <ele>1254.6</ele>
        <time>2022-06-14T12:20:09Z</time>
      </trkpt>
      <trkpt lat="46.4554" lon="5.99677">
        <ele>1254.8</ele>
        <time>2022-06-14T12:20:15Z</time>
      </trkpt>
      <trkpt lat="46.45536" lon="5.99672">
        <ele>1254.6</ele>
        <time>2022-06-14T12:20:21Z</time>
      </trkpt>
      <trkpt lat="46.45533" lon="5.99668">
        <ele>1253.7</ele>
        <time>2022-06-14T12:20:27Z</time>
      </trkpt>
      <trkpt lat="46.45529" lon="5.99663">
        <ele>1253.3</ele>
        <time>2022-06-14T12:20:31Z</time>
      </trkpt>
      <trkpt lat="46.45526" lon="5.99658">
        <ele>1252.7</ele>
        <time>2022-06-14T12:20:35Z</time>
      </trkpt>
      <trkpt lat="46.45523" lon="5.99651">
        <ele>1251.8</ele>
        <time>2022-06-14T12:20:41Z</time>
      </trkpt>
      <trkpt lat="46.45519" lon="5.99646">
        <ele>1250.6</ele>
        <time>2022-06-14T12:20:46Z</time>
      </trkpt>
      <trkpt lat="46.45516" lon="5.99642">
        <ele>1249.4</ele>
        <time>2022-06-14T12:20:51Z</time>
      </trkpt>
      <trkpt lat="46.45511" lon="5.99638">
        <ele>1248.7</ele>
        <time>2022-06-14T12:20:56Z</time>
      </trkpt>
      <trkpt lat="46.45507" lon="5.99634">
        <ele>1248.9</ele>
        <time>2022-06-14T12:21:00Z</time>
      </trkpt>
      <trkpt lat="46.45502" lon="5.9963">
        <ele>1249.2</ele>
        <time>2022-06-14T12:21:05Z</time>
      </trkpt>
      <trkpt lat="46.45498" lon="5.99626">
        <ele>1249.2</ele>
        <time>2022-06-14T12:21:11Z</time>
      </trkpt>
      <trkpt lat="46.45495" lon="5.99621">
        <ele>1249.3</ele>
        <time>2022-06-14T12:21:17Z</time>
      </trkpt>
      <trkpt lat="46.4549" lon="5.99619">
        <ele>1249.7</ele>
        <time>2022-06-14T12:21:21Z</time>
      </trkpt>
      <trkpt lat="46.45486" lon="5.99618">
        <ele>1250.3</ele>
        <time>2022-06-14T12:21:25Z</time>
      </trkpt>
      <trkpt lat="46.45482" lon="5.99614">
        <ele>1251</ele>
        <time>2022-06-14T12:21:30Z</time>
      </trkpt>
      <trkpt lat="46.45478" lon="5.9961">
        <ele>1251.7</ele>
        <time>2022-06-14T12:21:34Z</time>
      </trkpt>
      <trkpt lat="46.45474" lon="5.99606">
        <ele>1252.2</ele>
        <time>2022-06-14T12:21:38Z</time>
      </trkpt>
      <trkpt lat="46.4547" lon="5.99603">
        <ele>1252.6</ele>
        <time>2022-06-14T12:21:43Z</time>
      </trkpt>
      <trkpt lat="46.45465" lon="5.99599">
        <ele>1253.1</ele>
        <time>2022-06-14T12:21:49Z</time>
      </trkpt>
      <trkpt lat="46.45461" lon="5.99596">
        <ele>1253.4</ele>
        <time>2022-06-14T12:21:54Z</time>
      </trkpt>
      <trkpt lat="46.45456" lon="5.99594">
        <ele>1252.5</ele>
        <time>2022-06-14T12:22:01Z</time>
      </trkpt>
      <trkpt lat="46.4545" lon="5.99592">
        <ele>1251.5</ele>
        <time>2022-06-14T12:22:06Z</time>
      </trkpt>
      <trkpt lat="46.45446" lon="5.99589">
        <ele>1250.5</ele>
        <time>2022-06-14T12:22:12Z</time>
      </trkpt>
      <trkpt lat="46.45442" lon="5.99585">
        <ele>1249.6</ele>
        <time>2022-06-14T12:22:17Z</time>
      </trkpt>
      <trkpt lat="46.45437" lon="5.99581">
        <ele>1248.6</ele>
        <time>2022-06-14T12:22:22Z</time>
      </trkpt>
      <trkpt lat="46.45432" lon="5.9958">
        <ele>1247.9</ele>
        <time>2022-06-14T12:22:27Z</time>
      </trkpt>
      <trkpt lat="46.45427" lon="5.9958">
        <ele>1247.6</ele>
        <time>2022-06-14T12:22:33Z</time>
      </trkpt>
      <trkpt lat="46.45422" lon="5.99579">
        <ele>1247.4</ele>
        <time>2022-06-14T12:22:39Z</time>
      </trkpt>
      <trkpt lat="46.45417" lon="5.99576">
        <ele>1247.1</ele>
        <time>2022-06-14T12:22:43Z</time>
      </trkpt>
      <trkpt lat="46.45413" lon="5.99574">
        <ele>1246.5</ele>
        <time>2022-06-14T12:22:47Z</time>
      </trkpt>
      <trkpt lat="46.45408" lon="5.99572">
        <ele>1246</ele>
        <time>2022-06-14T12:22:53Z</time>
      </trkpt>
      <trkpt lat="46.45403" lon="5.99573">
        <ele>1246.4</ele>
        <time>2022-06-14T12:23:00Z</time>
      </trkpt>
      <trkpt lat="46.45398" lon="5.99572">
        <ele>1246.8</ele>
        <time>2022-06-14T12:23:05Z</time>
      </trkpt>
      <trkpt lat="46.45394" lon="5.99573">
        <ele>1247.6</ele>
        <time>2022-06-14T12:23:10Z</time>
      </trkpt>
      <trkpt lat="46.45389" lon="5.99573">
        <ele>1249</ele>
        <time>2022-06-14T12:23:16Z</time>
      </trkpt>
      <trkpt lat="46.45385" lon="5.99569">
        <ele>1249.8</ele>
        <time>2022-06-14T12:23:21Z</time>
      </trkpt>
      <trkpt lat="46.45382" lon="5.99564">
        <ele>1249.9</ele>
        <time>2022-06-14T12:23:28Z</time>
      </trkpt>
      <trkpt lat="46.45381" lon="5.99555">
        <ele>1248.2</ele>
        <time>2022-06-14T12:23:41Z</time>
      </trkpt>
      <trkpt lat="46.4538" lon="5.99548">
        <ele>1248.1</ele>
        <time>2022-06-14T12:24:30Z</time>
      </trkpt>
      <trkpt lat="46.45382" lon="5.99554">
        <ele>1249.5</ele>
        <time>2022-06-14T12:24:38Z</time>
      </trkpt>
      <trkpt lat="46.45384" lon="5.99562">
        <ele>1249.8</ele>
        <time>2022-06-14T12:24:44Z</time>
      </trkpt>
      <trkpt lat="46.45383" lon="5.99569">
        <ele>1250.3</ele>
        <time>2022-06-14T12:24:49Z</time>
      </trkpt>
      <trkpt lat="46.45378" lon="5.9957">
        <ele>1251.3</ele>
        <time>2022-06-14T12:25:09Z</time>
      </trkpt>
      <trkpt lat="46.45373" lon="5.99566">
        <ele>1251.7</ele>
        <time>2022-06-14T12:25:13Z</time>
      </trkpt>
      <trkpt lat="46.45369" lon="5.99563">
        <ele>1251.7</ele>
        <time>2022-06-14T12:25:18Z</time>
      </trkpt>
      <trkpt lat="46.45365" lon="5.99561">
        <ele>1250.2</ele>
        <time>2022-06-14T12:25:27Z</time>
      </trkpt>
      <trkpt lat="46.4536" lon="5.99561">
        <ele>1248.1</ele>
        <time>2022-06-14T12:25:34Z</time>
      </trkpt>
      <trkpt lat="46.45355" lon="5.99561">
        <ele>1247</ele>
        <time>2022-06-14T12:25:39Z</time>
      </trkpt>
      <trkpt lat="46.4535" lon="5.99559">
        <ele>1246.8</ele>
        <time>2022-06-14T12:25:44Z</time>
      </trkpt>
      <trkpt lat="46.45346" lon="5.99557">
        <ele>1247.7</ele>
        <time>2022-06-14T12:25:48Z</time>
      </trkpt>
      <trkpt lat="46.45341" lon="5.99553">
        <ele>1248.7</ele>
        <time>2022-06-14T12:25:53Z</time>
      </trkpt>
      <trkpt lat="46.45337" lon="5.99549">
        <ele>1249.7</ele>
        <time>2022-06-14T12:25:57Z</time>
      </trkpt>
      <trkpt lat="46.45332" lon="5.99546">
        <ele>1250.7</ele>
        <time>2022-06-14T12:26:02Z</time>
      </trkpt>
      <trkpt lat="46.45328" lon="5.99543">
        <ele>1251.2</ele>
        <time>2022-06-14T12:26:07Z</time>
      </trkpt>
      <trkpt lat="46.45323" lon="5.99539">
        <ele>1251.5</ele>
        <time>2022-06-14T12:26:13Z</time>
      </trkpt>
      <trkpt lat="46.45319" lon="5.99536">
        <ele>1251.1</ele>
        <time>2022-06-14T12:26:18Z</time>
      </trkpt>
      <trkpt lat="46.45315" lon="5.99532">
        <ele>1249.8</ele>
        <time>2022-06-14T12:26:24Z</time>
      </trkpt>
      <trkpt lat="46.45311" lon="5.99526">
        <ele>1247.5</ele>
        <time>2022-06-14T12:26:31Z</time>
      </trkpt>
      <trkpt lat="46.45307" lon="5.99522">
        <ele>1245.6</ele>
        <time>2022-06-14T12:26:37Z</time>
      </trkpt>
      <trkpt lat="46.45304" lon="5.99517">
        <ele>1243.5</ele>
        <time>2022-06-14T12:26:43Z</time>
      </trkpt>
      <trkpt lat="46.45301" lon="5.99513">
        <ele>1242.2</ele>
        <time>2022-06-14T12:26:48Z</time>
      </trkpt>
      <trkpt lat="46.45296" lon="5.9951">
        <ele>1241.4</ele>
        <time>2022-06-14T12:26:54Z</time>
      </trkpt>
      <trkpt lat="46.45292" lon="5.99506">
        <ele>1241.2</ele>
        <time>2022-06-14T12:27:00Z</time>
      </trkpt>
      <trkpt lat="46.45288" lon="5.99503">
        <ele>1240.9</ele>
        <time>2022-06-14T12:27:06Z</time>
      </trkpt>
      <trkpt lat="46.45284" lon="5.99499">
        <ele>1239.4</ele>
        <time>2022-06-14T12:27:13Z</time>
      </trkpt>
      <trkpt lat="46.45279" lon="5.99496">
        <ele>1237.4</ele>
        <time>2022-06-14T12:27:20Z</time>
      </trkpt>
      <trkpt lat="46.45275" lon="5.99492">
        <ele>1236.1</ele>
        <time>2022-06-14T12:27:26Z</time>
      </trkpt>
      <trkpt lat="46.45271" lon="5.99488">
        <ele>1235.2</ele>
        <time>2022-06-14T12:27:31Z</time>
      </trkpt>
      <trkpt lat="46.45266" lon="5.99483">
        <ele>1234.2</ele>
        <time>2022-06-14T12:27:36Z</time>
      </trkpt>
      <trkpt lat="46.45262" lon="5.9948">
        <ele>1233.1</ele>
        <time>2022-06-14T12:27:42Z</time>
      </trkpt>
      <trkpt lat="46.45258" lon="5.99477">
        <ele>1232.2</ele>
        <time>2022-06-14T12:27:48Z</time>
      </trkpt>
      <trkpt lat="46.45255" lon="5.99472">
        <ele>1231.6</ele>
        <time>2022-06-14T12:27:54Z</time>
      </trkpt>
      <trkpt lat="46.45252" lon="5.99466">
        <ele>1231.6</ele>
        <time>2022-06-14T12:27:59Z</time>
      </trkpt>
      <trkpt lat="46.45251" lon="5.99459">
        <ele>1231.6</ele>
        <time>2022-06-14T12:28:04Z</time>
      </trkpt>
      <trkpt lat="46.45249" lon="5.99453">
        <ele>1231.2</ele>
        <time>2022-06-14T12:28:10Z</time>
      </trkpt>
      <trkpt lat="46.45246" lon="5.99448">
        <ele>1230.3</ele>
        <time>2022-06-14T12:28:16Z</time>
      </trkpt>
      <trkpt lat="46.45242" lon="5.99444">
        <ele>1228.3</ele>
        <time>2022-06-14T12:28:24Z</time>
      </trkpt>
      <trkpt lat="46.45239" lon="5.9944">
        <ele>1226.7</ele>
        <time>2022-06-14T12:28:31Z</time>
      </trkpt>
      <trkpt lat="46.45235" lon="5.99436">
        <ele>1226</ele>
        <time>2022-06-14T12:28:37Z</time>
      </trkpt>
      <trkpt lat="46.45231" lon="5.99432">
        <ele>1226</ele>
        <time>2022-06-14T12:28:42Z</time>
      </trkpt>
      <trkpt lat="46.45227" lon="5.99427">
        <ele>1226.6</ele>
        <time>2022-06-14T12:28:48Z</time>
      </trkpt>
      <trkpt lat="46.45223" lon="5.99423">
        <ele>1227.5</ele>
        <time>2022-06-14T12:28:53Z</time>
      </trkpt>
      <trkpt lat="46.45219" lon="5.99418">
        <ele>1228.1</ele>
        <time>2022-06-14T12:28:58Z</time>
      </trkpt>
      <trkpt lat="46.45215" lon="5.99415">
        <ele>1227.9</ele>
        <time>2022-06-14T12:29:03Z</time>
      </trkpt>
      <trkpt lat="46.4521" lon="5.99413">
        <ele>1227.7</ele>
        <time>2022-06-14T12:29:07Z</time>
      </trkpt>
      <trkpt lat="46.45205" lon="5.99411">
        <ele>1227.9</ele>
        <time>2022-06-14T12:29:12Z</time>
      </trkpt>
      <trkpt lat="46.452" lon="5.99409">
        <ele>1228.1</ele>
        <time>2022-06-14T12:29:18Z</time>
      </trkpt>
      <trkpt lat="46.45196" lon="5.99405">
        <ele>1228.7</ele>
        <time>2022-06-14T12:29:25Z</time>
      </trkpt>
      <trkpt lat="46.45192" lon="5.99402">
        <ele>1228.5</ele>
        <time>2022-06-14T12:29:31Z</time>
      </trkpt>
      <trkpt lat="46.45188" lon="5.99398">
        <ele>1228</ele>
        <time>2022-06-14T12:29:37Z</time>
      </trkpt>
      <trkpt lat="46.45184" lon="5.99393">
        <ele>1227.2</ele>
        <time>2022-06-14T12:29:43Z</time>
      </trkpt>
      <trkpt lat="46.4518" lon="5.9939">
        <ele>1226.2</ele>
        <time>2022-06-14T12:29:50Z</time>
      </trkpt>
      <trkpt lat="46.45177" lon="5.99386">
        <ele>1225.7</ele>
        <time>2022-06-14T12:29:56Z</time>
      </trkpt>
      <trkpt lat="46.45173" lon="5.99381">
        <ele>1224.7</ele>
        <time>2022-06-14T12:30:02Z</time>
      </trkpt>
      <trkpt lat="46.4517" lon="5.99376">
        <ele>1223.4</ele>
        <time>2022-06-14T12:30:08Z</time>
      </trkpt>
      <trkpt lat="46.45168" lon="5.9937">
        <ele>1222.2</ele>
        <time>2022-06-14T12:30:13Z</time>
      </trkpt>
      <trkpt lat="46.45167" lon="5.99363">
        <ele>1221.6</ele>
        <time>2022-06-14T12:30:19Z</time>
      </trkpt>
      <trkpt lat="46.45168" lon="5.99356">
        <ele>1222</ele>
        <time>2022-06-14T12:30:24Z</time>
      </trkpt>
      <trkpt lat="46.45167" lon="5.99349">
        <ele>1222.5</ele>
        <time>2022-06-14T12:30:31Z</time>
      </trkpt>
      <trkpt lat="46.45166" lon="5.99342">
        <ele>1222.8</ele>
        <time>2022-06-14T12:30:36Z</time>
      </trkpt>
      <trkpt lat="46.45165" lon="5.99335">
        <ele>1223.2</ele>
        <time>2022-06-14T12:30:42Z</time>
      </trkpt>
      <trkpt lat="46.45164" lon="5.99328">
        <ele>1223.4</ele>
        <time>2022-06-14T12:30:48Z</time>
      </trkpt>
      <trkpt lat="46.4516" lon="5.99323">
        <ele>1223.1</ele>
        <time>2022-06-14T12:30:53Z</time>
      </trkpt>
      <trkpt lat="46.45156" lon="5.99318">
        <ele>1222.9</ele>
        <time>2022-06-14T12:30:58Z</time>
      </trkpt>
      <trkpt lat="46.45152" lon="5.99314">
        <ele>1222.6</ele>
        <time>2022-06-14T12:31:06Z</time>
      </trkpt>
      <trkpt lat="46.45149" lon="5.99308">
        <ele>1221.3</ele>
        <time>2022-06-14T12:31:13Z</time>
      </trkpt>
      <trkpt lat="46.45146" lon="5.99304">
        <ele>1219.5</ele>
        <time>2022-06-14T12:31:19Z</time>
      </trkpt>
      <trkpt lat="46.45141" lon="5.993">
        <ele>1218.3</ele>
        <time>2022-06-14T12:31:24Z</time>
      </trkpt>
      <trkpt lat="46.45138" lon="5.99295">
        <ele>1217.5</ele>
        <time>2022-06-14T12:31:29Z</time>
      </trkpt>
      <trkpt lat="46.45134" lon="5.9929">
        <ele>1217.9</ele>
        <time>2022-06-14T12:31:34Z</time>
      </trkpt>
      <trkpt lat="46.45131" lon="5.99284">
        <ele>1218.6</ele>
        <time>2022-06-14T12:31:39Z</time>
      </trkpt>
      <trkpt lat="46.45128" lon="5.99278">
        <ele>1219</ele>
        <time>2022-06-14T12:31:43Z</time>
      </trkpt>
      <trkpt lat="46.45128" lon="5.99271">
        <ele>1218.9</ele>
        <time>2022-06-14T12:31:48Z</time>
      </trkpt>
      <trkpt lat="46.45128" lon="5.99265">
        <ele>1218.8</ele>
        <time>2022-06-14T12:31:52Z</time>
      </trkpt>
      <trkpt lat="46.45128" lon="5.99258">
        <ele>1218.5</ele>
        <time>2022-06-14T12:31:57Z</time>
      </trkpt>
      <trkpt lat="46.45129" lon="5.99252">
        <ele>1218.3</ele>
        <time>2022-06-14T12:32:02Z</time>
      </trkpt>
      <trkpt lat="46.45126" lon="5.99245">
        <ele>1218.5</ele>
        <time>2022-06-14T12:32:07Z</time>
      </trkpt>
      <trkpt lat="46.45124" lon="5.99238">
        <ele>1218.2</ele>
        <time>2022-06-14T12:32:14Z</time>
      </trkpt>
      <trkpt lat="46.45123" lon="5.99231">
        <ele>1217.8</ele>
        <time>2022-06-14T12:32:19Z</time>
      </trkpt>
      <trkpt lat="46.45121" lon="5.99225">
        <ele>1217.2</ele>
        <time>2022-06-14T12:32:25Z</time>
      </trkpt>
      <trkpt lat="46.4512" lon="5.99218">
        <ele>1216.1</ele>
        <time>2022-06-14T12:32:33Z</time>
      </trkpt>
      <trkpt lat="46.4512" lon="5.99212">
        <ele>1215.7</ele>
        <time>2022-06-14T12:32:37Z</time>
      </trkpt>
      <trkpt lat="46.45118" lon="5.99205">
        <ele>1215</ele>
        <time>2022-06-14T12:32:42Z</time>
      </trkpt>
      <trkpt lat="46.45116" lon="5.99198">
        <ele>1214.4</ele>
        <time>2022-06-14T12:32:46Z</time>
      </trkpt>
      <trkpt lat="46.45114" lon="5.99192">
        <ele>1214.4</ele>
        <time>2022-06-14T12:32:49Z</time>
      </trkpt>
      <trkpt lat="46.45111" lon="5.99186">
        <ele>1214.3</ele>
        <time>2022-06-14T12:32:53Z</time>
      </trkpt>
      <trkpt lat="46.4511" lon="5.99179">
        <ele>1214</ele>
        <time>2022-06-14T12:32:58Z</time>
      </trkpt>
      <trkpt lat="46.4511" lon="5.99171">
        <ele>1213.4</ele>
        <time>2022-06-14T12:33:18Z</time>
      </trkpt>
      <trkpt lat="46.45105" lon="5.99167">
        <ele>1213.2</ele>
        <time>2022-06-14T12:33:23Z</time>
      </trkpt>
      <trkpt lat="46.45103" lon="5.99161">
        <ele>1212.2</ele>
        <time>2022-06-14T12:33:33Z</time>
      </trkpt>
      <trkpt lat="46.45107" lon="5.99164">
        <ele>1210.4</ele>
        <time>2022-06-14T12:33:55Z</time>
      </trkpt>
      <trkpt lat="46.45107" lon="5.99157">
        <ele>1208.6</ele>
        <time>2022-06-14T12:34:23Z</time>
      </trkpt>
      <trkpt lat="46.45104" lon="5.99151">
        <ele>1208.3</ele>
        <time>2022-06-14T12:34:27Z</time>
      </trkpt>
      <trkpt lat="46.451" lon="5.99148">
        <ele>1207.3</ele>
        <time>2022-06-14T12:34:32Z</time>
      </trkpt>
      <trkpt lat="46.45095" lon="5.99144">
        <ele>1205.6</ele>
        <time>2022-06-14T12:34:37Z</time>
      </trkpt>
      <trkpt lat="46.4509" lon="5.99142">
        <ele>1203.3</ele>
        <time>2022-06-14T12:34:42Z</time>
      </trkpt>
      <trkpt lat="46.45086" lon="5.99138">
        <ele>1200.6</ele>
        <time>2022-06-14T12:34:48Z</time>
      </trkpt>
      <trkpt lat="46.45081" lon="5.99137">
        <ele>1198.6</ele>
        <time>2022-06-14T12:34:54Z</time>
      </trkpt>
      <trkpt lat="46.45076" lon="5.99135">
        <ele>1197.5</ele>
        <time>2022-06-14T12:34:59Z</time>
      </trkpt>
      <trkpt lat="46.45072" lon="5.99133">
        <ele>1196.6</ele>
        <time>2022-06-14T12:35:04Z</time>
      </trkpt>
      <trkpt lat="46.45067" lon="5.9913">
        <ele>1195.5</ele>
        <time>2022-06-14T12:35:09Z</time>
      </trkpt>
      <trkpt lat="46.45063" lon="5.99127">
        <ele>1194.7</ele>
        <time>2022-06-14T12:35:13Z</time>
      </trkpt>
      <trkpt lat="46.45059" lon="5.99124">
        <ele>1194.2</ele>
        <time>2022-06-14T12:35:16Z</time>
      </trkpt>
      <trkpt lat="46.45055" lon="5.9912">
        <ele>1193.9</ele>
        <time>2022-06-14T12:35:19Z</time>
      </trkpt>
      <trkpt lat="46.4505" lon="5.99117">
        <ele>1193.9</ele>
        <time>2022-06-14T12:35:23Z</time>
      </trkpt>
      <trkpt lat="46.45045" lon="5.99114">
        <ele>1194</ele>
        <time>2022-06-14T12:35:28Z</time>
      </trkpt>
      <trkpt lat="46.45042" lon="5.99109">
        <ele>1194.5</ele>
        <time>2022-06-14T12:35:32Z</time>
      </trkpt>
      <trkpt lat="46.45038" lon="5.99104">
        <ele>1195</ele>
        <time>2022-06-14T12:35:36Z</time>
      </trkpt>
      <trkpt lat="46.45034" lon="5.99099">
        <ele>1195.8</ele>
        <time>2022-06-14T12:35:41Z</time>
      </trkpt>
      <trkpt lat="46.45031" lon="5.99094">
        <ele>1196.5</ele>
        <time>2022-06-14T12:35:46Z</time>
      </trkpt>
      <trkpt lat="46.45028" lon="5.99089">
        <ele>1196.6</ele>
        <time>2022-06-14T12:35:51Z</time>
      </trkpt>
      <trkpt lat="46.45025" lon="5.99082">
        <ele>1196.4</ele>
        <time>2022-06-14T12:35:56Z</time>
      </trkpt>
      <trkpt lat="46.45023" lon="5.99075">
        <ele>1196.7</ele>
        <time>2022-06-14T12:36:01Z</time>
      </trkpt>
      <trkpt lat="46.45021" lon="5.99068">
        <ele>1198</ele>
        <time>2022-06-14T12:36:05Z</time>
      </trkpt>
      <trkpt lat="46.4502" lon="5.99061">
        <ele>1199.9</ele>
        <time>2022-06-14T12:36:10Z</time>
      </trkpt>
      <trkpt lat="46.45019" lon="5.99054">
        <ele>1201.1</ele>
        <time>2022-06-14T12:36:15Z</time>
      </trkpt>
      <trkpt lat="46.45019" lon="5.99047">
        <ele>1201.9</ele>
        <time>2022-06-14T12:36:19Z</time>
      </trkpt>
      <trkpt lat="46.45018" lon="5.99038">
        <ele>1202.7</ele>
        <time>2022-06-14T12:36:23Z</time>
      </trkpt>
      <trkpt lat="46.45017" lon="5.99032">
        <ele>1203.2</ele>
        <time>2022-06-14T12:36:27Z</time>
      </trkpt>
      <trkpt lat="46.45017" lon="5.99024">
        <ele>1203.3</ele>
        <time>2022-06-14T12:36:32Z</time>
      </trkpt>
      <trkpt lat="46.45018" lon="5.99017">
        <ele>1203.5</ele>
        <time>2022-06-14T12:36:37Z</time>
      </trkpt>
      <trkpt lat="46.45018" lon="5.9901">
        <ele>1203.3</ele>
        <time>2022-06-14T12:36:42Z</time>
      </trkpt>
      <trkpt lat="46.45019" lon="5.99003">
        <ele>1202.9</ele>
        <time>2022-06-14T12:36:47Z</time>
      </trkpt>
      <trkpt lat="46.4502" lon="5.98996">
        <ele>1203.1</ele>
        <time>2022-06-14T12:36:52Z</time>
      </trkpt>
      <trkpt lat="46.45021" lon="5.98989">
        <ele>1203.9</ele>
        <time>2022-06-14T12:36:56Z</time>
      </trkpt>
      <trkpt lat="46.45022" lon="5.98982">
        <ele>1204.8</ele>
        <time>2022-06-14T12:37:00Z</time>
      </trkpt>
      <trkpt lat="46.45022" lon="5.98974">
        <ele>1205.6</ele>
        <time>2022-06-14T12:37:04Z</time>
      </trkpt>
      <trkpt lat="46.45022" lon="5.98967">
        <ele>1206.2</ele>
        <time>2022-06-14T12:37:08Z</time>
      </trkpt>
      <trkpt lat="46.45023" lon="5.98961">
        <ele>1206.7</ele>
        <time>2022-06-14T12:37:12Z</time>
      </trkpt>
      <trkpt lat="46.45021" lon="5.98954">
        <ele>1207.1</ele>
        <time>2022-06-14T12:37:18Z</time>
      </trkpt>
      <trkpt lat="46.4502" lon="5.98947">
        <ele>1207.1</ele>
        <time>2022-06-14T12:37:24Z</time>
      </trkpt>
      <trkpt lat="46.45021" lon="5.9894">
        <ele>1206.4</ele>
        <time>2022-06-14T12:37:29Z</time>
      </trkpt>
      <trkpt lat="46.45022" lon="5.98933">
        <ele>1205.9</ele>
        <time>2022-06-14T12:37:33Z</time>
      </trkpt>
      <trkpt lat="46.45022" lon="5.98925">
        <ele>1205.3</ele>
        <time>2022-06-14T12:37:37Z</time>
      </trkpt>
      <trkpt lat="46.45021" lon="5.98918">
        <ele>1204.5</ele>
        <time>2022-06-14T12:37:42Z</time>
      </trkpt>
      <trkpt lat="46.4502" lon="5.9891">
        <ele>1203.4</ele>
        <time>2022-06-14T12:37:47Z</time>
      </trkpt>
      <trkpt lat="46.45018" lon="5.98904">
        <ele>1202.1</ele>
        <time>2022-06-14T12:37:52Z</time>
      </trkpt>
      <trkpt lat="46.45015" lon="5.98898">
        <ele>1200.9</ele>
        <time>2022-06-14T12:37:57Z</time>
      </trkpt>
      <trkpt lat="46.45011" lon="5.98893">
        <ele>1199.9</ele>
        <time>2022-06-14T12:38:01Z</time>
      </trkpt>
      <trkpt lat="46.45008" lon="5.98888">
        <ele>1198.5</ele>
        <time>2022-06-14T12:38:06Z</time>
      </trkpt>
      <trkpt lat="46.45005" lon="5.98882">
        <ele>1197.5</ele>
        <time>2022-06-14T12:38:11Z</time>
      </trkpt>
      <trkpt lat="46.45003" lon="5.98875">
        <ele>1196.2</ele>
        <time>2022-06-14T12:38:17Z</time>
      </trkpt>
      <trkpt lat="46.45001" lon="5.98868">
        <ele>1195.4</ele>
        <time>2022-06-14T12:38:22Z</time>
      </trkpt>
      <trkpt lat="46.44998" lon="5.98862">
        <ele>1195</ele>
        <time>2022-06-14T12:38:27Z</time>
      </trkpt>
      <trkpt lat="46.44995" lon="5.98857">
        <ele>1195</ele>
        <time>2022-06-14T12:38:31Z</time>
      </trkpt>
      <trkpt lat="46.44992" lon="5.98852">
        <ele>1195</ele>
        <time>2022-06-14T12:38:35Z</time>
      </trkpt>
      <trkpt lat="46.44988" lon="5.98847">
        <ele>1195.1</ele>
        <time>2022-06-14T12:38:39Z</time>
      </trkpt>
      <trkpt lat="46.44984" lon="5.98843">
        <ele>1195.3</ele>
        <time>2022-06-14T12:38:44Z</time>
      </trkpt>
      <trkpt lat="46.4498" lon="5.98841">
        <ele>1196.1</ele>
        <time>2022-06-14T12:38:49Z</time>
      </trkpt>
      <trkpt lat="46.44976" lon="5.98839">
        <ele>1196.7</ele>
        <time>2022-06-14T12:38:54Z</time>
      </trkpt>
      <trkpt lat="46.44971" lon="5.98837">
        <ele>1197.2</ele>
        <time>2022-06-14T12:38:59Z</time>
      </trkpt>
      <trkpt lat="46.44966" lon="5.98835">
        <ele>1197.2</ele>
        <time>2022-06-14T12:39:03Z</time>
      </trkpt>
      <trkpt lat="46.44962" lon="5.98833">
        <ele>1197.1</ele>
        <time>2022-06-14T12:39:07Z</time>
      </trkpt>
      <trkpt lat="46.44957" lon="5.98832">
        <ele>1197.1</ele>
        <time>2022-06-14T12:39:11Z</time>
      </trkpt>
      <trkpt lat="46.44952" lon="5.9883">
        <ele>1197.3</ele>
        <time>2022-06-14T12:39:15Z</time>
      </trkpt>
      <trkpt lat="46.44947" lon="5.98828">
        <ele>1197.7</ele>
        <time>2022-06-14T12:39:20Z</time>
      </trkpt>
      <trkpt lat="46.44943" lon="5.98824">
        <ele>1198.3</ele>
        <time>2022-06-14T12:39:25Z</time>
      </trkpt>
      <trkpt lat="46.44939" lon="5.9882">
        <ele>1197.8</ele>
        <time>2022-06-14T12:39:30Z</time>
      </trkpt>
      <trkpt lat="46.44935" lon="5.98816">
        <ele>1197.1</ele>
        <time>2022-06-14T12:39:35Z</time>
      </trkpt>
      <trkpt lat="46.4493" lon="5.98814">
        <ele>1196.7</ele>
        <time>2022-06-14T12:39:40Z</time>
      </trkpt>
      <trkpt lat="46.44925" lon="5.98812">
        <ele>1196.2</ele>
        <time>2022-06-14T12:39:45Z</time>
      </trkpt>
      <trkpt lat="46.4492" lon="5.98811">
        <ele>1195.5</ele>
        <time>2022-06-14T12:39:50Z</time>
      </trkpt>
      <trkpt lat="46.44915" lon="5.98809">
        <ele>1195.4</ele>
        <time>2022-06-14T12:39:54Z</time>
      </trkpt>
      <trkpt lat="46.44909" lon="5.98807">
        <ele>1195.6</ele>
        <time>2022-06-14T12:39:58Z</time>
      </trkpt>
      <trkpt lat="46.44904" lon="5.98805">
        <ele>1196</ele>
        <time>2022-06-14T12:40:02Z</time>
      </trkpt>
      <trkpt lat="46.44899" lon="5.98802">
        <ele>1196.7</ele>
        <time>2022-06-14T12:40:07Z</time>
      </trkpt>
      <trkpt lat="46.44895" lon="5.988">
        <ele>1196.9</ele>
        <time>2022-06-14T12:40:12Z</time>
      </trkpt>
      <trkpt lat="46.4489" lon="5.98798">
        <ele>1197.2</ele>
        <time>2022-06-14T12:40:17Z</time>
      </trkpt>
      <trkpt lat="46.44886" lon="5.98794">
        <ele>1197.4</ele>
        <time>2022-06-14T12:40:22Z</time>
      </trkpt>
      <trkpt lat="46.44881" lon="5.98792">
        <ele>1197.7</ele>
        <time>2022-06-14T12:40:27Z</time>
      </trkpt>
      <trkpt lat="46.44876" lon="5.9879">
        <ele>1198.1</ele>
        <time>2022-06-14T12:40:32Z</time>
      </trkpt>
      <trkpt lat="46.44871" lon="5.98789">
        <ele>1198.3</ele>
        <time>2022-06-14T12:40:37Z</time>
      </trkpt>
      <trkpt lat="46.44866" lon="5.98788">
        <ele>1198.2</ele>
        <time>2022-06-14T12:40:41Z</time>
      </trkpt>
      <trkpt lat="46.44861" lon="5.98787">
        <ele>1198.1</ele>
        <time>2022-06-14T12:40:45Z</time>
      </trkpt>
      <trkpt lat="46.44856" lon="5.98784">
        <ele>1198.3</ele>
        <time>2022-06-14T12:40:50Z</time>
      </trkpt>
      <trkpt lat="46.44852" lon="5.98781">
        <ele>1198.7</ele>
        <time>2022-06-14T12:40:54Z</time>
      </trkpt>
      <trkpt lat="46.44848" lon="5.98776">
        <ele>1198.9</ele>
        <time>2022-06-14T12:40:58Z</time>
      </trkpt>
      <trkpt lat="46.44845" lon="5.9877">
        <ele>1199.1</ele>
        <time>2022-06-14T12:41:02Z</time>
      </trkpt>
      <trkpt lat="46.44843" lon="5.98765">
        <ele>1199.9</ele>
        <time>2022-06-14T12:41:06Z</time>
      </trkpt>
      <trkpt lat="46.4484" lon="5.98759">
        <ele>1201.3</ele>
        <time>2022-06-14T12:41:11Z</time>
      </trkpt>
      <trkpt lat="46.44838" lon="5.98753">
        <ele>1202.5</ele>
        <time>2022-06-14T12:41:17Z</time>
      </trkpt>
      <trkpt lat="46.44836" lon="5.98746">
        <ele>1203.2</ele>
        <time>2022-06-14T12:41:22Z</time>
      </trkpt>
      <trkpt lat="46.44833" lon="5.98739">
        <ele>1203.4</ele>
        <time>2022-06-14T12:41:26Z</time>
      </trkpt>
      <trkpt lat="46.4483" lon="5.98734">
        <ele>1203.2</ele>
        <time>2022-06-14T12:41:32Z</time>
      </trkpt>
      <trkpt lat="46.44826" lon="5.9873">
        <ele>1202.3</ele>
        <time>2022-06-14T12:41:38Z</time>
      </trkpt>
      <trkpt lat="46.44822" lon="5.98724">
        <ele>1201.5</ele>
        <time>2022-06-14T12:41:44Z</time>
      </trkpt>
      <trkpt lat="46.44819" lon="5.98718">
        <ele>1200.9</ele>
        <time>2022-06-14T12:41:49Z</time>
      </trkpt>
      <trkpt lat="46.44815" lon="5.98714">
        <ele>1200.6</ele>
        <time>2022-06-14T12:41:53Z</time>
      </trkpt>
      <trkpt lat="46.44811" lon="5.98711">
        <ele>1200.5</ele>
        <time>2022-06-14T12:41:57Z</time>
      </trkpt>
      <trkpt lat="46.44807" lon="5.98705">
        <ele>1200.5</ele>
        <time>2022-06-14T12:42:03Z</time>
      </trkpt>
      <trkpt lat="46.44804" lon="5.987">
        <ele>1200.4</ele>
        <time>2022-06-14T12:42:09Z</time>
      </trkpt>
      <trkpt lat="46.44802" lon="5.98694">
        <ele>1200</ele>
        <time>2022-06-14T12:42:14Z</time>
      </trkpt>
      <trkpt lat="46.44799" lon="5.98688">
        <ele>1199.4</ele>
        <time>2022-06-14T12:42:19Z</time>
      </trkpt>
      <trkpt lat="46.44797" lon="5.98682">
        <ele>1199.2</ele>
        <time>2022-06-14T12:42:23Z</time>
      </trkpt>
      <trkpt lat="46.44794" lon="5.98677">
        <ele>1198.7</ele>
        <time>2022-06-14T12:42:28Z</time>
      </trkpt>
      <trkpt lat="46.44791" lon="5.98671">
        <ele>1198.2</ele>
        <time>2022-06-14T12:42:33Z</time>
      </trkpt>
      <trkpt lat="46.44788" lon="5.98665">
        <ele>1198.2</ele>
        <time>2022-06-14T12:42:37Z</time>
      </trkpt>
      <trkpt lat="46.44786" lon="5.98659">
        <ele>1197.8</ele>
        <time>2022-06-14T12:42:41Z</time>
      </trkpt>
      <trkpt lat="46.44783" lon="5.98653">
        <ele>1198</ele>
        <time>2022-06-14T12:42:45Z</time>
      </trkpt>
      <trkpt lat="46.4478" lon="5.98646">
        <ele>1198.8</ele>
        <time>2022-06-14T12:42:49Z</time>
      </trkpt>
      <trkpt lat="46.44778" lon="5.9864">
        <ele>1199.5</ele>
        <time>2022-06-14T12:42:53Z</time>
      </trkpt>
      <trkpt lat="46.44775" lon="5.98634">
        <ele>1200.6</ele>
        <time>2022-06-14T12:42:58Z</time>
      </trkpt>
      <trkpt lat="46.44774" lon="5.98627">
        <ele>1201.6</ele>
        <time>2022-06-14T12:43:03Z</time>
      </trkpt>
      <trkpt lat="46.44773" lon="5.98621">
        <ele>1202.4</ele>
        <time>2022-06-14T12:43:07Z</time>
      </trkpt>
      <trkpt lat="46.44771" lon="5.98615">
        <ele>1203.3</ele>
        <time>2022-06-14T12:43:10Z</time>
      </trkpt>
      <trkpt lat="46.4477" lon="5.98608">
        <ele>1204.3</ele>
        <time>2022-06-14T12:43:14Z</time>
      </trkpt>
      <trkpt lat="46.44768" lon="5.98601">
        <ele>1204.7</ele>
        <time>2022-06-14T12:43:20Z</time>
      </trkpt>
      <trkpt lat="46.44767" lon="5.98594">
        <ele>1203.9</ele>
        <time>2022-06-14T12:43:25Z</time>
      </trkpt>
      <trkpt lat="46.44766" lon="5.98587">
        <ele>1202.6</ele>
        <time>2022-06-14T12:43:30Z</time>
      </trkpt>
      <trkpt lat="46.44765" lon="5.9858">
        <ele>1201.3</ele>
        <time>2022-06-14T12:43:34Z</time>
      </trkpt>
      <trkpt lat="46.44763" lon="5.98572">
        <ele>1200.3</ele>
        <time>2022-06-14T12:43:38Z</time>
      </trkpt>
      <trkpt lat="46.44762" lon="5.98565">
        <ele>1200.2</ele>
        <time>2022-06-14T12:43:42Z</time>
      </trkpt>
      <trkpt lat="46.44762" lon="5.98557">
        <ele>1200.7</ele>
        <time>2022-06-14T12:43:46Z</time>
      </trkpt>
      <trkpt lat="46.4476" lon="5.9855">
        <ele>1200.8</ele>
        <time>2022-06-14T12:43:51Z</time>
      </trkpt>
      <trkpt lat="46.44759" lon="5.98543">
        <ele>1200.4</ele>
        <time>2022-06-14T12:43:57Z</time>
      </trkpt>
      <trkpt lat="46.44757" lon="5.98537">
        <ele>1201.2</ele>
        <time>2022-06-14T12:44:02Z</time>
      </trkpt>
      <trkpt lat="46.44754" lon="5.98531">
        <ele>1202.4</ele>
        <time>2022-06-14T12:44:07Z</time>
      </trkpt>
      <trkpt lat="46.44751" lon="5.98525">
        <ele>1203.9</ele>
        <time>2022-06-14T12:44:10Z</time>
      </trkpt>
      <trkpt lat="46.44749" lon="5.98518">
        <ele>1205.6</ele>
        <time>2022-06-14T12:44:13Z</time>
      </trkpt>
      <trkpt lat="46.44746" lon="5.98513">
        <ele>1207.4</ele>
        <time>2022-06-14T12:44:16Z</time>
      </trkpt>
      <trkpt lat="46.44743" lon="5.98507">
        <ele>1209</ele>
        <time>2022-06-14T12:44:20Z</time>
      </trkpt>
      <trkpt lat="46.44742" lon="5.985">
        <ele>1209.3</ele>
        <time>2022-06-14T12:44:25Z</time>
      </trkpt>
      <trkpt lat="46.44741" lon="5.98494">
        <ele>1208.7</ele>
        <time>2022-06-14T12:44:29Z</time>
      </trkpt>
      <trkpt lat="46.44741" lon="5.98486">
        <ele>1207.5</ele>
        <time>2022-06-14T12:44:34Z</time>
      </trkpt>
      <trkpt lat="46.4474" lon="5.98479">
        <ele>1206</ele>
        <time>2022-06-14T12:44:39Z</time>
      </trkpt>
      <trkpt lat="46.44738" lon="5.98472">
        <ele>1204</ele>
        <time>2022-06-14T12:44:45Z</time>
      </trkpt>
      <trkpt lat="46.44736" lon="5.98466">
        <ele>1202.6</ele>
        <time>2022-06-14T12:44:50Z</time>
      </trkpt>
      <trkpt lat="46.44733" lon="5.98459">
        <ele>1200.9</ele>
        <time>2022-06-14T12:44:57Z</time>
      </trkpt>
      <trkpt lat="46.44731" lon="5.98452">
        <ele>1200.1</ele>
        <time>2022-06-14T12:45:03Z</time>
      </trkpt>
      <trkpt lat="46.44729" lon="5.98446">
        <ele>1199.4</ele>
        <time>2022-06-14T12:45:08Z</time>
      </trkpt>
      <trkpt lat="46.44726" lon="5.98441">
        <ele>1199</ele>
        <time>2022-06-14T12:45:12Z</time>
      </trkpt>
      <trkpt lat="46.44723" lon="5.98434">
        <ele>1198</ele>
        <time>2022-06-14T12:45:18Z</time>
      </trkpt>
      <trkpt lat="46.4472" lon="5.98428">
        <ele>1197.6</ele>
        <time>2022-06-14T12:45:22Z</time>
      </trkpt>
      <trkpt lat="46.44717" lon="5.98422">
        <ele>1197.5</ele>
        <time>2022-06-14T12:45:26Z</time>
      </trkpt>
      <trkpt lat="46.44713" lon="5.98415">
        <ele>1197.8</ele>
        <time>2022-06-14T12:45:31Z</time>
      </trkpt>
      <trkpt lat="46.4471" lon="5.9841">
        <ele>1197.9</ele>
        <time>2022-06-14T12:45:35Z</time>
      </trkpt>
      <trkpt lat="46.44709" lon="5.98403">
        <ele>1197.3</ele>
        <time>2022-06-14T12:45:39Z</time>
      </trkpt>
      <trkpt lat="46.44707" lon="5.98396">
        <ele>1196.4</ele>
        <time>2022-06-14T12:45:43Z</time>
      </trkpt>
      <trkpt lat="46.44705" lon="5.9839">
        <ele>1195.1</ele>
        <time>2022-06-14T12:45:48Z</time>
      </trkpt>
      <trkpt lat="46.44703" lon="5.98383">
        <ele>1194.6</ele>
        <time>2022-06-14T12:45:53Z</time>
      </trkpt>
      <trkpt lat="46.447" lon="5.98377">
        <ele>1194.1</ele>
        <time>2022-06-14T12:45:58Z</time>
      </trkpt>
      <trkpt lat="46.44697" lon="5.98372">
        <ele>1193.2</ele>
        <time>2022-06-14T12:46:03Z</time>
      </trkpt>
      <trkpt lat="46.44695" lon="5.98365">
        <ele>1193</ele>
        <time>2022-06-14T12:46:09Z</time>
      </trkpt>
      <trkpt lat="46.44693" lon="5.98358">
        <ele>1191.9</ele>
        <time>2022-06-14T12:46:16Z</time>
      </trkpt>
      <trkpt lat="46.44692" lon="5.98351">
        <ele>1190.5</ele>
        <time>2022-06-14T12:46:21Z</time>
      </trkpt>
      <trkpt lat="46.44691" lon="5.98345">
        <ele>1189.7</ele>
        <time>2022-06-14T12:46:25Z</time>
      </trkpt>
      <trkpt lat="46.44691" lon="5.98337">
        <ele>1189.9</ele>
        <time>2022-06-14T12:46:31Z</time>
      </trkpt>
      <trkpt lat="46.44691" lon="5.9833">
        <ele>1186.9</ele>
        <time>2022-06-14T12:46:42Z</time>
      </trkpt>
      <trkpt lat="46.44689" lon="5.98324">
        <ele>1184.2</ele>
        <time>2022-06-14T12:46:51Z</time>
      </trkpt>
      <trkpt lat="46.44684" lon="5.9832">
        <ele>1184.2</ele>
        <time>2022-06-14T12:47:02Z</time>
      </trkpt>
      <trkpt lat="46.44683" lon="5.98313">
        <ele>1185</ele>
        <time>2022-06-14T12:47:10Z</time>
      </trkpt>
      <trkpt lat="46.4468" lon="5.98307">
        <ele>1186</ele>
        <time>2022-06-14T12:47:21Z</time>
      </trkpt>
      <trkpt lat="46.44676" lon="5.98303">
        <ele>1186.2</ele>
        <time>2022-06-14T12:47:26Z</time>
      </trkpt>
      <trkpt lat="46.44673" lon="5.98297">
        <ele>1186.4</ele>
        <time>2022-06-14T12:47:33Z</time>
      </trkpt>
      <trkpt lat="46.44669" lon="5.98293">
        <ele>1186.2</ele>
        <time>2022-06-14T12:47:38Z</time>
      </trkpt>
      <trkpt lat="46.44666" lon="5.98287">
        <ele>1185.7</ele>
        <time>2022-06-14T12:47:42Z</time>
      </trkpt>
      <trkpt lat="46.44663" lon="5.98281">
        <ele>1185.1</ele>
        <time>2022-06-14T12:47:46Z</time>
      </trkpt>
      <trkpt lat="46.4466" lon="5.98276">
        <ele>1184.8</ele>
        <time>2022-06-14T12:47:49Z</time>
      </trkpt>
      <trkpt lat="46.44657" lon="5.9827">
        <ele>1184.7</ele>
        <time>2022-06-14T12:47:52Z</time>
      </trkpt>
      <trkpt lat="46.44655" lon="5.98264">
        <ele>1184.6</ele>
        <time>2022-06-14T12:47:57Z</time>
      </trkpt>
      <trkpt lat="46.44651" lon="5.98258">
        <ele>1185.3</ele>
        <time>2022-06-14T12:48:03Z</time>
      </trkpt>
      <trkpt lat="46.4465" lon="5.98252">
        <ele>1185.8</ele>
        <time>2022-06-14T12:48:08Z</time>
      </trkpt>
      <trkpt lat="46.44649" lon="5.98245">
        <ele>1184.5</ele>
        <time>2022-06-14T12:48:13Z</time>
      </trkpt>
      <trkpt lat="46.44651" lon="5.98239">
        <ele>1182.5</ele>
        <time>2022-06-14T12:48:19Z</time>
      </trkpt>
      <trkpt lat="46.44652" lon="5.98232">
        <ele>1182.1</ele>
        <time>2022-06-14T12:48:23Z</time>
      </trkpt>
      <trkpt lat="46.44654" lon="5.98226">
        <ele>1182.5</ele>
        <time>2022-06-14T12:48:26Z</time>
      </trkpt>
      <trkpt lat="46.44657" lon="5.9822">
        <ele>1183.3</ele>
        <time>2022-06-14T12:48:29Z</time>
      </trkpt>
      <trkpt lat="46.44659" lon="5.98214">
        <ele>1184.4</ele>
        <time>2022-06-14T12:48:33Z</time>
      </trkpt>
      <trkpt lat="46.44663" lon="5.9821">
        <ele>1185.5</ele>
        <time>2022-06-14T12:48:39Z</time>
      </trkpt>
      <trkpt lat="46.44667" lon="5.98206">
        <ele>1186.3</ele>
        <time>2022-06-14T12:48:45Z</time>
      </trkpt>
      <trkpt lat="46.44671" lon="5.98204">
        <ele>1185.8</ele>
        <time>2022-06-14T12:48:51Z</time>
      </trkpt>
      <trkpt lat="46.44676" lon="5.982">
        <ele>1183.7</ele>
        <time>2022-06-14T12:48:58Z</time>
      </trkpt>
      <trkpt lat="46.4468" lon="5.98196">
        <ele>1181.8</ele>
        <time>2022-06-14T12:49:03Z</time>
      </trkpt>
      <trkpt lat="46.44685" lon="5.98195">
        <ele>1180</ele>
        <time>2022-06-14T12:49:08Z</time>
      </trkpt>
      <trkpt lat="46.4469" lon="5.98194">
        <ele>1177.7</ele>
        <time>2022-06-14T12:49:14Z</time>
      </trkpt>
      <trkpt lat="46.44696" lon="5.98193">
        <ele>1176.1</ele>
        <time>2022-06-14T12:49:20Z</time>
      </trkpt>
      <trkpt lat="46.44701" lon="5.98194">
        <ele>1174.7</ele>
        <time>2022-06-14T12:49:24Z</time>
      </trkpt>
      <trkpt lat="46.44706" lon="5.98196">
        <ele>1173.1</ele>
        <time>2022-06-14T12:49:29Z</time>
      </trkpt>
      <trkpt lat="46.4471" lon="5.98196">
        <ele>1172</ele>
        <time>2022-06-14T12:49:34Z</time>
      </trkpt>
      <trkpt lat="46.44715" lon="5.98196">
        <ele>1171.8</ele>
        <time>2022-06-14T12:49:38Z</time>
      </trkpt>
      <trkpt lat="46.4472" lon="5.98196">
        <ele>1172.9</ele>
        <time>2022-06-14T12:49:43Z</time>
      </trkpt>
      <trkpt lat="46.44725" lon="5.98194">
        <ele>1173.8</ele>
        <time>2022-06-14T12:49:50Z</time>
      </trkpt>
      <trkpt lat="46.44727" lon="5.98189">
        <ele>1173.2</ele>
        <time>2022-06-14T12:49:56Z</time>
      </trkpt>
      <trkpt lat="46.44729" lon="5.98182">
        <ele>1172.4</ele>
        <time>2022-06-14T12:50:03Z</time>
      </trkpt>
      <trkpt lat="46.4473" lon="5.98175">
        <ele>1171.7</ele>
        <time>2022-06-14T12:50:08Z</time>
      </trkpt>
      <trkpt lat="46.44731" lon="5.98168">
        <ele>1171.6</ele>
        <time>2022-06-14T12:50:15Z</time>
      </trkpt>
      <trkpt lat="46.44734" lon="5.98161">
        <ele>1170.9</ele>
        <time>2022-06-14T12:50:34Z</time>
      </trkpt>
      <trkpt lat="46.44734" lon="5.98154">
        <ele>1170.2</ele>
        <time>2022-06-14T12:50:38Z</time>
      </trkpt>
      <trkpt lat="46.44734" lon="5.98147">
        <ele>1168.6</ele>
        <time>2022-06-14T12:50:44Z</time>
      </trkpt>
      <trkpt lat="46.44735" lon="5.9814">
        <ele>1168</ele>
        <time>2022-06-14T12:50:49Z</time>
      </trkpt>
      <trkpt lat="46.44738" lon="5.98133">
        <ele>1168.2</ele>
        <time>2022-06-14T12:50:53Z</time>
      </trkpt>
      <trkpt lat="46.44741" lon="5.98127">
        <ele>1168.2</ele>
        <time>2022-06-14T12:50:57Z</time>
      </trkpt>
      <trkpt lat="46.44742" lon="5.98121">
        <ele>1168</ele>
        <time>2022-06-14T12:51:01Z</time>
      </trkpt>
      <trkpt lat="46.44745" lon="5.98116">
        <ele>1167.7</ele>
        <time>2022-06-14T12:51:06Z</time>
      </trkpt>
      <trkpt lat="46.44749" lon="5.98111">
        <ele>1167.8</ele>
        <time>2022-06-14T12:51:11Z</time>
      </trkpt>
      <trkpt lat="46.44753" lon="5.98108">
        <ele>1167.5</ele>
        <time>2022-06-14T12:51:16Z</time>
      </trkpt>
      <trkpt lat="46.44757" lon="5.98106">
        <ele>1166.9</ele>
        <time>2022-06-14T12:51:21Z</time>
      </trkpt>
      <trkpt lat="46.44762" lon="5.98103">
        <ele>1165.6</ele>
        <time>2022-06-14T12:51:26Z</time>
      </trkpt>
      <trkpt lat="46.44766" lon="5.98103">
        <ele>1162.2</ele>
        <time>2022-06-14T12:51:33Z</time>
      </trkpt>
      <trkpt lat="46.44772" lon="5.98104">
        <ele>1159.3</ele>
        <time>2022-06-14T12:51:39Z</time>
      </trkpt>
      <trkpt lat="46.44776" lon="5.98106">
        <ele>1156.8</ele>
        <time>2022-06-14T12:51:44Z</time>
      </trkpt>
      <trkpt lat="46.4478" lon="5.9811">
        <ele>1154.9</ele>
        <time>2022-06-14T12:51:52Z</time>
      </trkpt>
      <trkpt lat="46.44785" lon="5.9811">
        <ele>1154.6</ele>
        <time>2022-06-14T12:51:57Z</time>
      </trkpt>
      <trkpt lat="46.4479" lon="5.98112">
        <ele>1154.1</ele>
        <time>2022-06-14T12:52:01Z</time>
      </trkpt>
      <trkpt lat="46.44795" lon="5.98113">
        <ele>1152.9</ele>
        <time>2022-06-14T12:52:06Z</time>
      </trkpt>
      <trkpt lat="46.448" lon="5.98114">
        <ele>1152</ele>
        <time>2022-06-14T12:52:10Z</time>
      </trkpt>
      <trkpt lat="46.44805" lon="5.98114">
        <ele>1151.4</ele>
        <time>2022-06-14T12:52:14Z</time>
      </trkpt>
      <trkpt lat="46.44809" lon="5.98117">
        <ele>1151.6</ele>
        <time>2022-06-14T12:52:20Z</time>
      </trkpt>
      <trkpt lat="46.44813" lon="5.98121">
        <ele>1151.8</ele>
        <time>2022-06-14T12:52:25Z</time>
      </trkpt>
      <trkpt lat="46.44818" lon="5.98123">
        <ele>1151.7</ele>
        <time>2022-06-14T12:52:30Z</time>
      </trkpt>
      <trkpt lat="46.44822" lon="5.98126">
        <ele>1151.5</ele>
        <time>2022-06-14T12:52:36Z</time>
      </trkpt>
      <trkpt lat="46.44827" lon="5.98128">
        <ele>1151.7</ele>
        <time>2022-06-14T12:52:42Z</time>
      </trkpt>
      <trkpt lat="46.44831" lon="5.98131">
        <ele>1151.9</ele>
        <time>2022-06-14T12:52:52Z</time>
      </trkpt>
      <trkpt lat="46.44836" lon="5.98135">
        <ele>1151.5</ele>
        <time>2022-06-14T12:52:58Z</time>
      </trkpt>
      <trkpt lat="46.44841" lon="5.98138">
        <ele>1150.3</ele>
        <time>2022-06-14T12:53:02Z</time>
      </trkpt>
      <trkpt lat="46.44846" lon="5.9814">
        <ele>1147.5</ele>
        <time>2022-06-14T12:53:10Z</time>
      </trkpt>
      <trkpt lat="46.4485" lon="5.98136">
        <ele>1146.3</ele>
        <time>2022-06-14T12:53:14Z</time>
      </trkpt>
      <trkpt lat="46.44853" lon="5.9813">
        <ele>1144.8</ele>
        <time>2022-06-14T12:53:19Z</time>
      </trkpt>
      <trkpt lat="46.44854" lon="5.98123">
        <ele>1143.7</ele>
        <time>2022-06-14T12:53:24Z</time>
      </trkpt>
      <trkpt lat="46.44852" lon="5.98116">
        <ele>1143.5</ele>
        <time>2022-06-14T12:53:31Z</time>
      </trkpt>
      <trkpt lat="46.4485" lon="5.9811">
        <ele>1143.4</ele>
        <time>2022-06-14T12:53:38Z</time>
      </trkpt>
      <trkpt lat="46.44847" lon="5.98104">
        <ele>1142.9</ele>
        <time>2022-06-14T12:53:45Z</time>
      </trkpt>
      <trkpt lat="46.44847" lon="5.98098">
        <ele>1142.7</ele>
        <time>2022-06-14T12:53:51Z</time>
      </trkpt>
      <trkpt lat="46.44846" lon="5.9809">
        <ele>1142.9</ele>
        <time>2022-06-14T12:53:58Z</time>
      </trkpt>
      <trkpt lat="46.44843" lon="5.98083">
        <ele>1143.4</ele>
        <time>2022-06-14T12:54:03Z</time>
      </trkpt>
      <trkpt lat="46.44841" lon="5.98076">
        <ele>1144.1</ele>
        <time>2022-06-14T12:54:09Z</time>
      </trkpt>
      <trkpt lat="46.4484" lon="5.98068">
        <ele>1144</ele>
        <time>2022-06-14T12:54:14Z</time>
      </trkpt>
      <trkpt lat="46.44839" lon="5.98061">
        <ele>1143.7</ele>
        <time>2022-06-14T12:54:19Z</time>
      </trkpt>
      <trkpt lat="46.44836" lon="5.98053">
        <ele>1144.3</ele>
        <time>2022-06-14T12:54:23Z</time>
      </trkpt>
      <trkpt lat="46.44834" lon="5.98047">
        <ele>1145.3</ele>
        <time>2022-06-14T12:54:27Z</time>
      </trkpt>
      <trkpt lat="46.44832" lon="5.98041">
        <ele>1146.8</ele>
        <time>2022-06-14T12:54:32Z</time>
      </trkpt>
      <trkpt lat="46.44831" lon="5.98034">
        <ele>1147.2</ele>
        <time>2022-06-14T12:54:38Z</time>
      </trkpt>
      <trkpt lat="46.4483" lon="5.98028">
        <ele>1145.9</ele>
        <time>2022-06-14T12:54:45Z</time>
      </trkpt>
      <trkpt lat="46.44828" lon="5.9802">
        <ele>1142.5</ele>
        <time>2022-06-14T12:54:53Z</time>
      </trkpt>
      <trkpt lat="46.44825" lon="5.98014">
        <ele>1140.3</ele>
        <time>2022-06-14T12:54:59Z</time>
      </trkpt>
      <trkpt lat="46.44823" lon="5.98007">
        <ele>1139.1</ele>
        <time>2022-06-14T12:55:04Z</time>
      </trkpt>
      <trkpt lat="46.44822" lon="5.97999">
        <ele>1138.4</ele>
        <time>2022-06-14T12:55:08Z</time>
      </trkpt>
      <trkpt lat="46.44821" lon="5.97992">
        <ele>1138.4</ele>
        <time>2022-06-14T12:55:12Z</time>
      </trkpt>
      <trkpt lat="46.44819" lon="5.97986">
        <ele>1138.4</ele>
        <time>2022-06-14T12:55:17Z</time>
      </trkpt>
      <trkpt lat="46.44818" lon="5.97979">
        <ele>1137.4</ele>
        <time>2022-06-14T12:55:25Z</time>
      </trkpt>
      <trkpt lat="46.44815" lon="5.97972">
        <ele>1136.9</ele>
        <time>2022-06-14T12:55:30Z</time>
      </trkpt>
      <trkpt lat="46.44814" lon="5.97965">
        <ele>1136.8</ele>
        <time>2022-06-14T12:55:34Z</time>
      </trkpt>
      <trkpt lat="46.44814" lon="5.97957">
        <ele>1137.2</ele>
        <time>2022-06-14T12:55:38Z</time>
      </trkpt>
      <trkpt lat="46.44813" lon="5.9795">
        <ele>1137.8</ele>
        <time>2022-06-14T12:55:42Z</time>
      </trkpt>
      <trkpt lat="46.44812" lon="5.97944">
        <ele>1138.4</ele>
        <time>2022-06-14T12:55:46Z</time>
      </trkpt>
      <trkpt lat="46.44813" lon="5.97937">
        <ele>1139</ele>
        <time>2022-06-14T12:55:50Z</time>
      </trkpt>
      <trkpt lat="46.44815" lon="5.9793">
        <ele>1139.6</ele>
        <time>2022-06-14T12:55:54Z</time>
      </trkpt>
      <trkpt lat="46.44816" lon="5.97924">
        <ele>1140</ele>
        <time>2022-06-14T12:55:58Z</time>
      </trkpt>
      <trkpt lat="46.44819" lon="5.97918">
        <ele>1140.4</ele>
        <time>2022-06-14T12:56:02Z</time>
      </trkpt>
      <trkpt lat="46.44823" lon="5.97913">
        <ele>1140.9</ele>
        <time>2022-06-14T12:56:06Z</time>
      </trkpt>
      <trkpt lat="46.44827" lon="5.97908">
        <ele>1140.7</ele>
        <time>2022-06-14T12:56:11Z</time>
      </trkpt>
      <trkpt lat="46.44829" lon="5.97901">
        <ele>1140.1</ele>
        <time>2022-06-14T12:56:17Z</time>
      </trkpt>
      <trkpt lat="46.4483" lon="5.97894">
        <ele>1139.4</ele>
        <time>2022-06-14T12:56:23Z</time>
      </trkpt>
      <trkpt lat="46.44831" lon="5.97888">
        <ele>1139.1</ele>
        <time>2022-06-14T12:56:27Z</time>
      </trkpt>
      <trkpt lat="46.44831" lon="5.97881">
        <ele>1139.6</ele>
        <time>2022-06-14T12:56:30Z</time>
      </trkpt>
      <trkpt lat="46.44829" lon="5.97873">
        <ele>1140.4</ele>
        <time>2022-06-14T12:56:34Z</time>
      </trkpt>
      <trkpt lat="46.44827" lon="5.97866">
        <ele>1141.2</ele>
        <time>2022-06-14T12:56:38Z</time>
      </trkpt>
      <trkpt lat="46.44825" lon="5.97861">
        <ele>1140.8</ele>
        <time>2022-06-14T12:56:43Z</time>
      </trkpt>
      <trkpt lat="46.44822" lon="5.97855">
        <ele>1139.7</ele>
        <time>2022-06-14T12:56:48Z</time>
      </trkpt>
      <trkpt lat="46.4482" lon="5.97849">
        <ele>1138.6</ele>
        <time>2022-06-14T12:56:54Z</time>
      </trkpt>
      <trkpt lat="46.44818" lon="5.97843">
        <ele>1138.3</ele>
        <time>2022-06-14T12:57:00Z</time>
      </trkpt>
      <trkpt lat="46.44815" lon="5.97835">
        <ele>1138.4</ele>
        <time>2022-06-14T12:57:06Z</time>
      </trkpt>
      <trkpt lat="46.44813" lon="5.97828">
        <ele>1138.4</ele>
        <time>2022-06-14T12:57:11Z</time>
      </trkpt>
      <trkpt lat="46.4481" lon="5.97823">
        <ele>1138.7</ele>
        <time>2022-06-14T12:57:17Z</time>
      </trkpt>
      <trkpt lat="46.44809" lon="5.97816">
        <ele>1138.6</ele>
        <time>2022-06-14T12:57:23Z</time>
      </trkpt>
      <trkpt lat="46.44808" lon="5.97808">
        <ele>1138.1</ele>
        <time>2022-06-14T12:57:27Z</time>
      </trkpt>
      <trkpt lat="46.44808" lon="5.97802">
        <ele>1137.4</ele>
        <time>2022-06-14T12:57:31Z</time>
      </trkpt>
      <trkpt lat="46.44808" lon="5.97795">
        <ele>1136.8</ele>
        <time>2022-06-14T12:57:36Z</time>
      </trkpt>
      <trkpt lat="46.44807" lon="5.97787">
        <ele>1137.2</ele>
        <time>2022-06-14T12:57:42Z</time>
      </trkpt>
      <trkpt lat="46.44808" lon="5.9778">
        <ele>1137.3</ele>
        <time>2022-06-14T12:57:47Z</time>
      </trkpt>
      <trkpt lat="46.44809" lon="5.97773">
        <ele>1137.4</ele>
        <time>2022-06-14T12:57:52Z</time>
      </trkpt>
      <trkpt lat="46.44811" lon="5.97766">
        <ele>1137</ele>
        <time>2022-06-14T12:57:57Z</time>
      </trkpt>
      <trkpt lat="46.44812" lon="5.97759">
        <ele>1136.3</ele>
        <time>2022-06-14T12:58:02Z</time>
      </trkpt>
      <trkpt lat="46.44813" lon="5.97751">
        <ele>1135.7</ele>
        <time>2022-06-14T12:58:07Z</time>
      </trkpt>
      <trkpt lat="46.44814" lon="5.97743">
        <ele>1132.9</ele>
        <time>2022-06-14T12:58:23Z</time>
      </trkpt>
      <trkpt lat="46.44815" lon="5.97736">
        <ele>1132.7</ele>
        <time>2022-06-14T12:58:28Z</time>
      </trkpt>
      <trkpt lat="46.44815" lon="5.97729">
        <ele>1132.7</ele>
        <time>2022-06-14T12:58:33Z</time>
      </trkpt>
      <trkpt lat="46.44813" lon="5.97722">
        <ele>1132.4</ele>
        <time>2022-06-14T12:58:38Z</time>
      </trkpt>
      <trkpt lat="46.4481" lon="5.97717">
        <ele>1131.9</ele>
        <time>2022-06-14T12:58:43Z</time>
      </trkpt>
      <trkpt lat="46.44808" lon="5.9771">
        <ele>1131.2</ele>
        <time>2022-06-14T12:58:48Z</time>
      </trkpt>
      <trkpt lat="46.44808" lon="5.97702">
        <ele>1130.9</ele>
        <time>2022-06-14T12:58:54Z</time>
      </trkpt>
      <trkpt lat="46.44805" lon="5.97697">
        <ele>1130.5</ele>
        <time>2022-06-14T12:59:00Z</time>
      </trkpt>
      <trkpt lat="46.44801" lon="5.9769">
        <ele>1129.9</ele>
        <time>2022-06-14T12:59:06Z</time>
      </trkpt>
      <trkpt lat="46.44798" lon="5.97685">
        <ele>1129.9</ele>
        <time>2022-06-14T12:59:10Z</time>
      </trkpt>
      <trkpt lat="46.44795" lon="5.97679">
        <ele>1130.2</ele>
        <time>2022-06-14T12:59:15Z</time>
      </trkpt>
      <trkpt lat="46.44792" lon="5.97674">
        <ele>1130.3</ele>
        <time>2022-06-14T12:59:19Z</time>
      </trkpt>
      <trkpt lat="46.44789" lon="5.97668">
        <ele>1130.6</ele>
        <time>2022-06-14T12:59:23Z</time>
      </trkpt>
      <trkpt lat="46.44786" lon="5.97663">
        <ele>1130.4</ele>
        <time>2022-06-14T12:59:28Z</time>
      </trkpt>
      <trkpt lat="46.44784" lon="5.97657">
        <ele>1130.7</ele>
        <time>2022-06-14T12:59:33Z</time>
      </trkpt>
      <trkpt lat="46.44783" lon="5.9765">
        <ele>1130.6</ele>
        <time>2022-06-14T12:59:38Z</time>
      </trkpt>
      <trkpt lat="46.4478" lon="5.97645">
        <ele>1129.8</ele>
        <time>2022-06-14T12:59:42Z</time>
      </trkpt>
      <trkpt lat="46.44777" lon="5.97639">
        <ele>1129.8</ele>
        <time>2022-06-14T12:59:46Z</time>
      </trkpt>
      <trkpt lat="46.44777" lon="5.97632">
        <ele>1131.5</ele>
        <time>2022-06-14T12:59:50Z</time>
      </trkpt>
      <trkpt lat="46.44777" lon="5.97625">
        <ele>1133.2</ele>
        <time>2022-06-14T12:59:55Z</time>
      </trkpt>
      <trkpt lat="46.44778" lon="5.97618">
        <ele>1133.3</ele>
        <time>2022-06-14T13:00:00Z</time>
      </trkpt>
      <trkpt lat="46.44778" lon="5.9761">
        <ele>1133.3</ele>
        <time>2022-06-14T13:00:05Z</time>
      </trkpt>
      <trkpt lat="46.44779" lon="5.97603">
        <ele>1133.3</ele>
        <time>2022-06-14T13:00:10Z</time>
      </trkpt>
      <trkpt lat="46.44779" lon="5.97595">
        <ele>1134</ele>
        <time>2022-06-14T13:00:16Z</time>
      </trkpt>
      <trkpt lat="46.44778" lon="5.97588">
        <ele>1134.9</ele>
        <time>2022-06-14T13:00:22Z</time>
      </trkpt>
      <trkpt lat="46.44777" lon="5.97581">
        <ele>1135.5</ele>
        <time>2022-06-14T13:00:26Z</time>
      </trkpt>
      <trkpt lat="46.44776" lon="5.97573">
        <ele>1136</ele>
        <time>2022-06-14T13:00:30Z</time>
      </trkpt>
      <trkpt lat="46.44776" lon="5.97566">
        <ele>1136.4</ele>
        <time>2022-06-14T13:00:34Z</time>
      </trkpt>
      <trkpt lat="46.44776" lon="5.9756">
        <ele>1136.7</ele>
        <time>2022-06-14T13:00:38Z</time>
      </trkpt>
      <trkpt lat="46.44778" lon="5.97552">
        <ele>1136</ele>
        <time>2022-06-14T13:00:43Z</time>
      </trkpt>
      <trkpt lat="46.44781" lon="5.97557">
        <ele>1132.8</ele>
        <time>2022-06-14T13:00:55Z</time>
      </trkpt>
      <trkpt lat="46.4478" lon="5.97564">
        <ele>1131.2</ele>
        <time>2022-06-14T13:01:00Z</time>
      </trkpt>
      <trkpt lat="46.44779" lon="5.97571">
        <ele>1129.3</ele>
        <time>2022-06-14T13:01:06Z</time>
      </trkpt>
      <trkpt lat="46.44778" lon="5.97578">
        <ele>1128.4</ele>
        <time>2022-06-14T13:01:11Z</time>
      </trkpt>
      <trkpt lat="46.44778" lon="5.97584">
        <ele>1127.8</ele>
        <time>2022-06-14T13:01:16Z</time>
      </trkpt>
      <trkpt lat="46.44778" lon="5.97591">
        <ele>1127.3</ele>
        <time>2022-06-14T13:01:21Z</time>
      </trkpt>
      <trkpt lat="46.44779" lon="5.97598">
        <ele>1127.2</ele>
        <time>2022-06-14T13:01:26Z</time>
      </trkpt>
      <trkpt lat="46.44779" lon="5.97605">
        <ele>1128</ele>
        <time>2022-06-14T13:01:31Z</time>
      </trkpt>
      <trkpt lat="46.4478" lon="5.97612">
        <ele>1128.7</ele>
        <time>2022-06-14T13:01:36Z</time>
      </trkpt>
      <trkpt lat="46.44778" lon="5.97619">
        <ele>1129.5</ele>
        <time>2022-06-14T13:01:41Z</time>
      </trkpt>
      <trkpt lat="46.44781" lon="5.97625">
        <ele>1130.6</ele>
        <time>2022-06-14T13:01:49Z</time>
      </trkpt>
      <trkpt lat="46.44784" lon="5.97631">
        <ele>1130.7</ele>
        <time>2022-06-14T13:01:53Z</time>
      </trkpt>
      <trkpt lat="46.44787" lon="5.97638">
        <ele>1130.4</ele>
        <time>2022-06-14T13:01:58Z</time>
      </trkpt>
      <trkpt lat="46.44789" lon="5.97643">
        <ele>1131.6</ele>
        <time>2022-06-14T13:02:10Z</time>
      </trkpt>
      <trkpt lat="46.44787" lon="5.9765">
        <ele>1131.4</ele>
        <time>2022-06-14T13:02:22Z</time>
      </trkpt>
      <trkpt lat="46.44789" lon="5.97656">
        <ele>1133.6</ele>
        <time>2022-06-14T13:02:30Z</time>
      </trkpt>
      <trkpt lat="46.4479" lon="5.97663">
        <ele>1134.3</ele>
        <time>2022-06-14T13:02:36Z</time>
      </trkpt>
      <trkpt lat="46.44793" lon="5.9767">
        <ele>1133.8</ele>
        <time>2022-06-14T13:02:41Z</time>
      </trkpt>
      <trkpt lat="46.44795" lon="5.97676">
        <ele>1133.3</ele>
        <time>2022-06-14T13:02:46Z</time>
      </trkpt>
      <trkpt lat="46.44798" lon="5.97683">
        <ele>1133.4</ele>
        <time>2022-06-14T13:02:51Z</time>
      </trkpt>
      <trkpt lat="46.44801" lon="5.97689">
        <ele>1133.7</ele>
        <time>2022-06-14T13:02:56Z</time>
      </trkpt>
      <trkpt lat="46.44805" lon="5.97694">
        <ele>1134</ele>
        <time>2022-06-14T13:03:00Z</time>
      </trkpt>
      <trkpt lat="46.44808" lon="5.977">
        <ele>1134.2</ele>
        <time>2022-06-14T13:03:05Z</time>
      </trkpt>
      <trkpt lat="46.44809" lon="5.97707">
        <ele>1134</ele>
        <time>2022-06-14T13:03:10Z</time>
      </trkpt>
      <trkpt lat="46.44811" lon="5.97714">
        <ele>1134.3</ele>
        <time>2022-06-14T13:03:15Z</time>
      </trkpt>
      <trkpt lat="46.44812" lon="5.97722">
        <ele>1134.1</ele>
        <time>2022-06-14T13:03:20Z</time>
      </trkpt>
      <trkpt lat="46.44815" lon="5.97728">
        <ele>1133.5</ele>
        <time>2022-06-14T13:03:24Z</time>
      </trkpt>
      <trkpt lat="46.44816" lon="5.97736">
        <ele>1133</ele>
        <time>2022-06-14T13:03:28Z</time>
      </trkpt>
      <trkpt lat="46.44818" lon="5.97743">
        <ele>1132.7</ele>
        <time>2022-06-14T13:03:32Z</time>
      </trkpt>
      <trkpt lat="46.44822" lon="5.97748">
        <ele>1132</ele>
        <time>2022-06-14T13:03:37Z</time>
      </trkpt>
      <trkpt lat="46.44823" lon="5.97755">
        <ele>1130.5</ele>
        <time>2022-06-14T13:03:45Z</time>
      </trkpt>
      <trkpt lat="46.44824" lon="5.97762">
        <ele>1129.7</ele>
        <time>2022-06-14T13:03:50Z</time>
      </trkpt>
      <trkpt lat="46.44828" lon="5.97766">
        <ele>1129.2</ele>
        <time>2022-06-14T13:03:55Z</time>
      </trkpt>
      <trkpt lat="46.44832" lon="5.97769">
        <ele>1129.3</ele>
        <time>2022-06-14T13:03:59Z</time>
      </trkpt>
      <trkpt lat="46.44838" lon="5.97771">
        <ele>1130.4</ele>
        <time>2022-06-14T13:04:04Z</time>
      </trkpt>
      <trkpt lat="46.44842" lon="5.97771">
        <ele>1131.9</ele>
        <time>2022-06-14T13:04:08Z</time>
      </trkpt>
      <trkpt lat="46.44847" lon="5.97769">
        <ele>1134.3</ele>
        <time>2022-06-14T13:04:13Z</time>
      </trkpt>
      <trkpt lat="46.44852" lon="5.97768">
        <ele>1136.7</ele>
        <time>2022-06-14T13:04:18Z</time>
      </trkpt>
      <trkpt lat="46.44856" lon="5.97767">
        <ele>1138.3</ele>
        <time>2022-06-14T13:04:22Z</time>
      </trkpt>
      <trkpt lat="46.44861" lon="5.97766">
        <ele>1139.7</ele>
        <time>2022-06-14T13:04:27Z</time>
      </trkpt>
      <trkpt lat="46.44866" lon="5.97766">
        <ele>1141.1</ele>
        <time>2022-06-14T13:04:35Z</time>
      </trkpt>
      <trkpt lat="46.44871" lon="5.97765">
        <ele>1142.2</ele>
        <time>2022-06-14T13:04:45Z</time>
      </trkpt>
      <trkpt lat="46.44875" lon="5.97769">
        <ele>1142.6</ele>
        <time>2022-06-14T13:04:51Z</time>
      </trkpt>
      <trkpt lat="46.44879" lon="5.9777">
        <ele>1143.9</ele>
        <time>2022-06-14T13:04:57Z</time>
      </trkpt>
      <trkpt lat="46.44875" lon="5.97767">
        <ele>1145.3</ele>
        <time>2022-06-14T13:05:11Z</time>
      </trkpt>
      <trkpt lat="46.44869" lon="5.97766">
        <ele>1144.3</ele>
        <time>2022-06-14T13:05:16Z</time>
      </trkpt>
      <trkpt lat="46.44866" lon="5.97761">
        <ele>1142.8</ele>
        <time>2022-06-14T13:05:29Z</time>
      </trkpt>
      <trkpt lat="46.4487" lon="5.97766">
        <ele>1140.7</ele>
        <time>2022-06-14T13:05:54Z</time>
      </trkpt>
      <trkpt lat="46.44874" lon="5.9777">
        <ele>1140.4</ele>
        <time>2022-06-14T13:05:59Z</time>
      </trkpt>
      <trkpt lat="46.44878" lon="5.97775">
        <ele>1140.5</ele>
        <time>2022-06-14T13:06:03Z</time>
      </trkpt>
      <trkpt lat="46.44883" lon="5.9778">
        <ele>1140.8</ele>
        <time>2022-06-14T13:06:08Z</time>
      </trkpt>
      <trkpt lat="46.44888" lon="5.97781">
        <ele>1141</ele>
        <time>2022-06-14T13:06:12Z</time>
      </trkpt>
      <trkpt lat="46.44893" lon="5.97784">
        <ele>1141.5</ele>
        <time>2022-06-14T13:06:16Z</time>
      </trkpt>
      <trkpt lat="46.44896" lon="5.97788">
        <ele>1142.7</ele>
        <time>2022-06-14T13:06:21Z</time>
      </trkpt>
      <trkpt lat="46.449" lon="5.97792">
        <ele>1144.2</ele>
        <time>2022-06-14T13:06:25Z</time>
      </trkpt>
      <trkpt lat="46.44904" lon="5.97797">
        <ele>1146.2</ele>
        <time>2022-06-14T13:06:31Z</time>
      </trkpt>
      <trkpt lat="46.44907" lon="5.97803">
        <ele>1147.3</ele>
        <time>2022-06-14T13:06:40Z</time>
      </trkpt>
      <trkpt lat="46.44911" lon="5.97807">
        <ele>1147.3</ele>
        <time>2022-06-14T13:06:44Z</time>
      </trkpt>
      <trkpt lat="46.44914" lon="5.97813">
        <ele>1146.8</ele>
        <time>2022-06-14T13:06:50Z</time>
      </trkpt>
      <trkpt lat="46.44918" lon="5.97819">
        <ele>1147.1</ele>
        <time>2022-06-14T13:06:55Z</time>
      </trkpt>
      <trkpt lat="46.44915" lon="5.97814">
        <ele>1151</ele>
        <time>2022-06-14T13:07:26Z</time>
      </trkpt>
      <trkpt lat="46.44911" lon="5.97809">
        <ele>1151.4</ele>
        <time>2022-06-14T13:07:30Z</time>
      </trkpt>
      <trkpt lat="46.44907" lon="5.97806">
        <ele>1151.7</ele>
        <time>2022-06-14T13:07:34Z</time>
      </trkpt>
      <trkpt lat="46.44902" lon="5.97804">
        <ele>1153.4</ele>
        <time>2022-06-14T13:07:39Z</time>
      </trkpt>
      <trkpt lat="46.44897" lon="5.978">
        <ele>1155</ele>
        <time>2022-06-14T13:07:45Z</time>
      </trkpt>
      <trkpt lat="46.44893" lon="5.97796">
        <ele>1154.7</ele>
        <time>2022-06-14T13:07:51Z</time>
      </trkpt>
      <trkpt lat="46.4489" lon="5.9779">
        <ele>1154.2</ele>
        <time>2022-06-14T13:07:55Z</time>
      </trkpt>
      <trkpt lat="46.44887" lon="5.97784">
        <ele>1153.1</ele>
        <time>2022-06-14T13:08:00Z</time>
      </trkpt>
      <trkpt lat="46.44883" lon="5.97779">
        <ele>1152.2</ele>
        <time>2022-06-14T13:08:05Z</time>
      </trkpt>
      <trkpt lat="46.44879" lon="5.97774">
        <ele>1151.4</ele>
        <time>2022-06-14T13:08:10Z</time>
      </trkpt>
      <trkpt lat="46.44876" lon="5.9777">
        <ele>1150.4</ele>
        <time>2022-06-14T13:08:15Z</time>
      </trkpt>
      <trkpt lat="46.44872" lon="5.97766">
        <ele>1149.1</ele>
        <time>2022-06-14T13:08:21Z</time>
      </trkpt>
      <trkpt lat="46.44867" lon="5.97763">
        <ele>1147.9</ele>
        <time>2022-06-14T13:08:25Z</time>
      </trkpt>
      <trkpt lat="46.44862" lon="5.97761">
        <ele>1146.1</ele>
        <time>2022-06-14T13:08:30Z</time>
      </trkpt>
      <trkpt lat="46.44857" lon="5.97762">
        <ele>1143.8</ele>
        <time>2022-06-14T13:08:36Z</time>
      </trkpt>
      <trkpt lat="46.44853" lon="5.97764">
        <ele>1141.5</ele>
        <time>2022-06-14T13:08:42Z</time>
      </trkpt>
      <trkpt lat="46.44849" lon="5.97764">
        <ele>1138.2</ele>
        <time>2022-06-14T13:08:50Z</time>
      </trkpt>
      <trkpt lat="46.44844" lon="5.97765">
        <ele>1137</ele>
        <time>2022-06-14T13:08:55Z</time>
      </trkpt>
      <trkpt lat="46.44839" lon="5.97767">
        <ele>1137.2</ele>
        <time>2022-06-14T13:09:00Z</time>
      </trkpt>
      <trkpt lat="46.44839" lon="5.9776">
        <ele>1138.8</ele>
        <time>2022-06-14T13:09:12Z</time>
      </trkpt>
      <trkpt lat="46.4484" lon="5.97753">
        <ele>1139.7</ele>
        <time>2022-06-14T13:09:16Z</time>
      </trkpt>
      <trkpt lat="46.44838" lon="5.97745">
        <ele>1140.5</ele>
        <time>2022-06-14T13:09:21Z</time>
      </trkpt>
      <trkpt lat="46.44837" lon="5.97738">
        <ele>1140.8</ele>
        <time>2022-06-14T13:09:26Z</time>
      </trkpt>
      <trkpt lat="46.44834" lon="5.97732">
        <ele>1141.3</ele>
        <time>2022-06-14T13:09:31Z</time>
      </trkpt>
      <trkpt lat="46.44831" lon="5.97727">
        <ele>1141.5</ele>
        <time>2022-06-14T13:09:36Z</time>
      </trkpt>
      <trkpt lat="46.44829" lon="5.97721">
        <ele>1141.8</ele>
        <time>2022-06-14T13:09:42Z</time>
      </trkpt>
      <trkpt lat="46.44831" lon="5.97715">
        <ele>1138.4</ele>
        <time>2022-06-14T13:10:10Z</time>
      </trkpt>
      <trkpt lat="46.44834" lon="5.97708">
        <ele>1136.9</ele>
        <time>2022-06-14T13:10:15Z</time>
      </trkpt>
      <trkpt lat="46.44838" lon="5.97706">
        <ele>1136.3</ele>
        <time>2022-06-14T13:10:18Z</time>
      </trkpt>
      <trkpt lat="46.44842" lon="5.977">
        <ele>1136.7</ele>
        <time>2022-06-14T13:10:22Z</time>
      </trkpt>
      <trkpt lat="46.44843" lon="5.97693">
        <ele>1138.5</ele>
        <time>2022-06-14T13:10:28Z</time>
      </trkpt>
      <trkpt lat="46.44846" lon="5.97687">
        <ele>1140</ele>
        <time>2022-06-14T13:10:37Z</time>
      </trkpt>
      <trkpt lat="46.44849" lon="5.97682">
        <ele>1141.1</ele>
        <time>2022-06-14T13:10:43Z</time>
      </trkpt>
      <trkpt lat="46.4485" lon="5.97675">
        <ele>1143.7</ele>
        <time>2022-06-14T13:11:11Z</time>
      </trkpt>
      <trkpt lat="46.44853" lon="5.97669">
        <ele>1143.4</ele>
        <time>2022-06-14T13:11:18Z</time>
      </trkpt>
      <trkpt lat="46.44856" lon="5.97663">
        <ele>1143.5</ele>
        <time>2022-06-14T13:11:23Z</time>
      </trkpt>
      <trkpt lat="46.44859" lon="5.97656">
        <ele>1144.4</ele>
        <time>2022-06-14T13:11:28Z</time>
      </trkpt>
      <trkpt lat="46.44862" lon="5.97651">
        <ele>1145.9</ele>
        <time>2022-06-14T13:11:33Z</time>
      </trkpt>
      <trkpt lat="46.44865" lon="5.97644">
        <ele>1147.7</ele>
        <time>2022-06-14T13:11:38Z</time>
      </trkpt>
      <trkpt lat="46.44868" lon="5.97639">
        <ele>1150.2</ele>
        <time>2022-06-14T13:11:44Z</time>
      </trkpt>
      <trkpt lat="46.44871" lon="5.97632">
        <ele>1152.2</ele>
        <time>2022-06-14T13:11:50Z</time>
      </trkpt>
      <trkpt lat="46.44872" lon="5.97625">
        <ele>1153.9</ele>
        <time>2022-06-14T13:11:57Z</time>
      </trkpt>
      <trkpt lat="46.44873" lon="5.97618">
        <ele>1154.2</ele>
        <time>2022-06-14T13:12:01Z</time>
      </trkpt>
      <trkpt lat="46.44875" lon="5.97612">
        <ele>1154.8</ele>
        <time>2022-06-14T13:12:07Z</time>
      </trkpt>
      <trkpt lat="46.44876" lon="5.97605">
        <ele>1156.1</ele>
        <time>2022-06-14T13:12:13Z</time>
      </trkpt>
      <trkpt lat="46.44877" lon="5.97599">
        <ele>1156.5</ele>
        <time>2022-06-14T13:12:18Z</time>
      </trkpt>
      <trkpt lat="46.4488" lon="5.97593">
        <ele>1156</ele>
        <time>2022-06-14T13:12:24Z</time>
      </trkpt>
      <trkpt lat="46.44878" lon="5.97587">
        <ele>1153</ele>
        <time>2022-06-14T13:12:46Z</time>
      </trkpt>
      <trkpt lat="46.44879" lon="5.9758">
        <ele>1151.6</ele>
        <time>2022-06-14T13:12:58Z</time>
      </trkpt>
      <trkpt lat="46.44879" lon="5.97573">
        <ele>1151.8</ele>
        <time>2022-06-14T13:13:03Z</time>
      </trkpt>
      <trkpt lat="46.4488" lon="5.97566">
        <ele>1152.5</ele>
        <time>2022-06-14T13:13:08Z</time>
      </trkpt>
      <trkpt lat="46.44882" lon="5.9756">
        <ele>1153</ele>
        <time>2022-06-14T13:13:13Z</time>
      </trkpt>
      <trkpt lat="46.44886" lon="5.97555">
        <ele>1152.6</ele>
        <time>2022-06-14T13:13:22Z</time>
      </trkpt>
      <trkpt lat="46.44886" lon="5.97547">
        <ele>1151.9</ele>
        <time>2022-06-14T13:13:29Z</time>
      </trkpt>
      <trkpt lat="46.44888" lon="5.97541">
        <ele>1152.2</ele>
        <time>2022-06-14T13:13:37Z</time>
      </trkpt>
      <trkpt lat="46.4489" lon="5.97535">
        <ele>1151.5</ele>
        <time>2022-06-14T13:13:50Z</time>
      </trkpt>
      <trkpt lat="46.44894" lon="5.97532">
        <ele>1151.5</ele>
        <time>2022-06-14T13:13:57Z</time>
      </trkpt>
      <trkpt lat="46.44897" lon="5.97526">
        <ele>1152.3</ele>
        <time>2022-06-14T13:14:02Z</time>
      </trkpt>
      <trkpt lat="46.449" lon="5.97521">
        <ele>1152.9</ele>
        <time>2022-06-14T13:14:08Z</time>
      </trkpt>
      <trkpt lat="46.44902" lon="5.97514">
        <ele>1152.6</ele>
        <time>2022-06-14T13:14:13Z</time>
      </trkpt>
      <trkpt lat="46.44903" lon="5.97507">
        <ele>1152.5</ele>
        <time>2022-06-14T13:14:17Z</time>
      </trkpt>
      <trkpt lat="46.44904" lon="5.975">
        <ele>1152.8</ele>
        <time>2022-06-14T13:14:21Z</time>
      </trkpt>
      <trkpt lat="46.44904" lon="5.97493">
        <ele>1153.5</ele>
        <time>2022-06-14T13:14:26Z</time>
      </trkpt>
      <trkpt lat="46.44908" lon="5.97489">
        <ele>1154.5</ele>
        <time>2022-06-14T13:14:31Z</time>
      </trkpt>
      <trkpt lat="46.44912" lon="5.97487">
        <ele>1155.1</ele>
        <time>2022-06-14T13:14:37Z</time>
      </trkpt>
      <trkpt lat="46.44917" lon="5.97485">
        <ele>1155.4</ele>
        <time>2022-06-14T13:14:42Z</time>
      </trkpt>
      <trkpt lat="46.44922" lon="5.97485">
        <ele>1155.5</ele>
        <time>2022-06-14T13:14:46Z</time>
      </trkpt>
      <trkpt lat="46.44928" lon="5.97484">
        <ele>1155</ele>
        <time>2022-06-14T13:14:54Z</time>
      </trkpt>
      <trkpt lat="46.44932" lon="5.97484">
        <ele>1154.6</ele>
        <time>2022-06-14T13:14:57Z</time>
      </trkpt>
      <trkpt lat="46.44937" lon="5.97485">
        <ele>1154.5</ele>
        <time>2022-06-14T13:15:00Z</time>
      </trkpt>
      <trkpt lat="46.44942" lon="5.97485">
        <ele>1155</ele>
        <time>2022-06-14T13:15:04Z</time>
      </trkpt>
      <trkpt lat="46.44947" lon="5.97485">
        <ele>1156.1</ele>
        <time>2022-06-14T13:15:11Z</time>
      </trkpt>
      <trkpt lat="46.44951" lon="5.97481">
        <ele>1157.9</ele>
        <time>2022-06-14T13:15:18Z</time>
      </trkpt>
      <trkpt lat="46.44956" lon="5.97477">
        <ele>1158.7</ele>
        <time>2022-06-14T13:15:25Z</time>
      </trkpt>
      <trkpt lat="46.44961" lon="5.97475">
        <ele>1158.3</ele>
        <time>2022-06-14T13:15:31Z</time>
      </trkpt>
      <trkpt lat="46.44966" lon="5.97474">
        <ele>1157.8</ele>
        <time>2022-06-14T13:15:36Z</time>
      </trkpt>
      <trkpt lat="46.44971" lon="5.97475">
        <ele>1157</ele>
        <time>2022-06-14T13:15:41Z</time>
      </trkpt>
      <trkpt lat="46.44976" lon="5.97476">
        <ele>1156.5</ele>
        <time>2022-06-14T13:15:45Z</time>
      </trkpt>
      <trkpt lat="46.44981" lon="5.97478">
        <ele>1155.7</ele>
        <time>2022-06-14T13:15:50Z</time>
      </trkpt>
      <trkpt lat="46.44985" lon="5.97475">
        <ele>1154.8</ele>
        <time>2022-06-14T13:15:56Z</time>
      </trkpt>
      <trkpt lat="46.44988" lon="5.9747">
        <ele>1154.7</ele>
        <time>2022-06-14T13:16:01Z</time>
      </trkpt>
      <trkpt lat="46.44991" lon="5.97464">
        <ele>1155.2</ele>
        <time>2022-06-14T13:16:07Z</time>
      </trkpt>
      <trkpt lat="46.44993" lon="5.97458">
        <ele>1155.7</ele>
        <time>2022-06-14T13:16:13Z</time>
      </trkpt>
      <trkpt lat="46.44997" lon="5.97454">
        <ele>1155.7</ele>
        <time>2022-06-14T13:16:21Z</time>
      </trkpt>
      <trkpt lat="46.44999" lon="5.97448">
        <ele>1155.7</ele>
        <time>2022-06-14T13:16:27Z</time>
      </trkpt>
      <trkpt lat="46.45003" lon="5.97443">
        <ele>1156.1</ele>
        <time>2022-06-14T13:16:48Z</time>
      </trkpt>
      <trkpt lat="46.45008" lon="5.97443">
        <ele>1155.9</ele>
        <time>2022-06-14T13:16:59Z</time>
      </trkpt>
      <trkpt lat="46.45014" lon="5.97444">
        <ele>1155.6</ele>
        <time>2022-06-14T13:17:10Z</time>
      </trkpt>
      <trkpt lat="46.4502" lon="5.97445">
        <ele>1155.3</ele>
        <time>2022-06-14T13:17:13Z</time>
      </trkpt>
      <trkpt lat="46.45025" lon="5.97446">
        <ele>1155</ele>
        <time>2022-06-14T13:17:18Z</time>
      </trkpt>
      <trkpt lat="46.4503" lon="5.97448">
        <ele>1154.3</ele>
        <time>2022-06-14T13:17:22Z</time>
      </trkpt>
      <trkpt lat="46.45034" lon="5.9745">
        <ele>1153.4</ele>
        <time>2022-06-14T13:17:26Z</time>
      </trkpt>
      <trkpt lat="46.45039" lon="5.97452">
        <ele>1152.4</ele>
        <time>2022-06-14T13:17:30Z</time>
      </trkpt>
      <trkpt lat="46.45045" lon="5.97455">
        <ele>1151.3</ele>
        <time>2022-06-14T13:17:34Z</time>
      </trkpt>
      <trkpt lat="46.45048" lon="5.97459">
        <ele>1150.6</ele>
        <time>2022-06-14T13:17:38Z</time>
      </trkpt>
      <trkpt lat="46.45053" lon="5.97463">
        <ele>1149.4</ele>
        <time>2022-06-14T13:17:46Z</time>
      </trkpt>
      <trkpt lat="46.45058" lon="5.97466">
        <ele>1148.7</ele>
        <time>2022-06-14T13:17:50Z</time>
      </trkpt>
      <trkpt lat="46.45062" lon="5.97468">
        <ele>1148.2</ele>
        <time>2022-06-14T13:17:55Z</time>
      </trkpt>
      <trkpt lat="46.45067" lon="5.97471">
        <ele>1148</ele>
        <time>2022-06-14T13:18:02Z</time>
      </trkpt>
      <trkpt lat="46.45072" lon="5.97473">
        <ele>1147.9</ele>
        <time>2022-06-14T13:18:05Z</time>
      </trkpt>
      <trkpt lat="46.45076" lon="5.97475">
        <ele>1147.9</ele>
        <time>2022-06-14T13:18:08Z</time>
      </trkpt>
      <trkpt lat="46.45081" lon="5.97476">
        <ele>1148</ele>
        <time>2022-06-14T13:18:11Z</time>
      </trkpt>
      <trkpt lat="46.45086" lon="5.97477">
        <ele>1147.9</ele>
        <time>2022-06-14T13:18:15Z</time>
      </trkpt>
      <trkpt lat="46.4509" lon="5.97478">
        <ele>1147.7</ele>
        <time>2022-06-14T13:18:19Z</time>
      </trkpt>
      <trkpt lat="46.45095" lon="5.9748">
        <ele>1147.2</ele>
        <time>2022-06-14T13:18:26Z</time>
      </trkpt>
      <trkpt lat="46.451" lon="5.97483">
        <ele>1147.1</ele>
        <time>2022-06-14T13:18:32Z</time>
      </trkpt>
      <trkpt lat="46.45104" lon="5.97487">
        <ele>1146.9</ele>
        <time>2022-06-14T13:18:37Z</time>
      </trkpt>
      <trkpt lat="46.45109" lon="5.97489">
        <ele>1146.8</ele>
        <time>2022-06-14T13:18:41Z</time>
      </trkpt>
      <trkpt lat="46.45113" lon="5.97491">
        <ele>1147</ele>
        <time>2022-06-14T13:18:45Z</time>
      </trkpt>
      <trkpt lat="46.45118" lon="5.97493">
        <ele>1147.1</ele>
        <time>2022-06-14T13:18:49Z</time>
      </trkpt>
      <trkpt lat="46.45121" lon="5.97497">
        <ele>1146.4</ele>
        <time>2022-06-14T13:18:55Z</time>
      </trkpt>
      <trkpt lat="46.45127" lon="5.97502">
        <ele>1145.3</ele>
        <time>2022-06-14T13:19:05Z</time>
      </trkpt>
      <trkpt lat="46.45131" lon="5.97508">
        <ele>1144.8</ele>
        <time>2022-06-14T13:19:08Z</time>
      </trkpt>
      <trkpt lat="46.45136" lon="5.97513">
        <ele>1144.3</ele>
        <time>2022-06-14T13:19:12Z</time>
      </trkpt>
      <trkpt lat="46.45137" lon="5.9752">
        <ele>1144.2</ele>
        <time>2022-06-14T13:19:17Z</time>
      </trkpt>
      <trkpt lat="46.45138" lon="5.97526">
        <ele>1144.2</ele>
        <time>2022-06-14T13:19:22Z</time>
      </trkpt>
      <trkpt lat="46.4514" lon="5.97532">
        <ele>1144.1</ele>
        <time>2022-06-14T13:19:28Z</time>
      </trkpt>
      <trkpt lat="46.45144" lon="5.97537">
        <ele>1143.7</ele>
        <time>2022-06-14T13:19:36Z</time>
      </trkpt>
      <trkpt lat="46.45147" lon="5.97543">
        <ele>1142.9</ele>
        <time>2022-06-14T13:19:40Z</time>
      </trkpt>
      <trkpt lat="46.45148" lon="5.97551">
        <ele>1141.8</ele>
        <time>2022-06-14T13:19:45Z</time>
      </trkpt>
      <trkpt lat="46.45149" lon="5.97559">
        <ele>1140.9</ele>
        <time>2022-06-14T13:19:49Z</time>
      </trkpt>
      <trkpt lat="46.45152" lon="5.97564">
        <ele>1141</ele>
        <time>2022-06-14T13:19:57Z</time>
      </trkpt>
      <trkpt lat="46.45155" lon="5.9757">
        <ele>1141.6</ele>
        <time>2022-06-14T13:20:05Z</time>
      </trkpt>
      <trkpt lat="46.45158" lon="5.97575">
        <ele>1140</ele>
        <time>2022-06-14T13:20:16Z</time>
      </trkpt>
      <trkpt lat="46.45162" lon="5.9758">
        <ele>1138.9</ele>
        <time>2022-06-14T13:20:22Z</time>
      </trkpt>
      <trkpt lat="46.45166" lon="5.97583">
        <ele>1138.8</ele>
        <time>2022-06-14T13:20:27Z</time>
      </trkpt>
      <trkpt lat="46.45171" lon="5.97584">
        <ele>1139.6</ele>
        <time>2022-06-14T13:20:31Z</time>
      </trkpt>
      <trkpt lat="46.45178" lon="5.97587">
        <ele>1142.2</ele>
        <time>2022-06-14T13:20:42Z</time>
      </trkpt>
      <trkpt lat="46.45183" lon="5.97588">
        <ele>1143.5</ele>
        <time>2022-06-14T13:20:45Z</time>
      </trkpt>
      <trkpt lat="46.45188" lon="5.97586">
        <ele>1145.5</ele>
        <time>2022-06-14T13:20:50Z</time>
      </trkpt>
      <trkpt lat="46.45194" lon="5.97583">
        <ele>1147.1</ele>
        <time>2022-06-14T13:20:55Z</time>
      </trkpt>
      <trkpt lat="46.45199" lon="5.97582">
        <ele>1147.7</ele>
        <time>2022-06-14T13:21:00Z</time>
      </trkpt>
      <trkpt lat="46.45203" lon="5.97579">
        <ele>1150.4</ele>
        <time>2022-06-14T13:21:10Z</time>
      </trkpt>
      <trkpt lat="46.45207" lon="5.97579">
        <ele>1151.9</ele>
        <time>2022-06-14T13:21:15Z</time>
      </trkpt>
      <trkpt lat="46.45212" lon="5.97577">
        <ele>1152.8</ele>
        <time>2022-06-14T13:21:19Z</time>
      </trkpt>
      <trkpt lat="46.45216" lon="5.97573">
        <ele>1154.3</ele>
        <time>2022-06-14T13:21:24Z</time>
      </trkpt>
      <trkpt lat="46.45217" lon="5.97565">
        <ele>1156.4</ele>
        <time>2022-06-14T13:21:31Z</time>
      </trkpt>
      <trkpt lat="46.45217" lon="5.97558">
        <ele>1159.5</ele>
        <time>2022-06-14T13:21:38Z</time>
      </trkpt>
      <trkpt lat="46.45213" lon="5.97558">
        <ele>1167.2</ele>
        <time>2022-06-14T13:22:35Z</time>
      </trkpt>
      <trkpt lat="46.45208" lon="5.97555">
        <ele>1164.1</ele>
        <time>2022-06-14T13:22:50Z</time>
      </trkpt>
      <trkpt lat="46.45205" lon="5.97559">
        <ele>1164.6</ele>
        <time>2022-06-14T13:23:52Z</time>
      </trkpt>
      <trkpt lat="46.45209" lon="5.97556">
        <ele>1165.8</ele>
        <time>2022-06-14T13:24:13Z</time>
      </trkpt>
      <trkpt lat="46.45209" lon="5.97548">
        <ele>1165.6</ele>
        <time>2022-06-14T13:24:20Z</time>
      </trkpt>
      <trkpt lat="46.4521" lon="5.97541">
        <ele>1164.8</ele>
        <time>2022-06-14T13:24:26Z</time>
      </trkpt>
      <trkpt lat="46.45214" lon="5.97535">
        <ele>1164.3</ele>
        <time>2022-06-14T13:24:32Z</time>
      </trkpt>
      <trkpt lat="46.45219" lon="5.97532">
        <ele>1164.2</ele>
        <time>2022-06-14T13:24:37Z</time>
      </trkpt>
      <trkpt lat="46.45221" lon="5.97527">
        <ele>1165.1</ele>
        <time>2022-06-14T13:24:43Z</time>
      </trkpt>
      <trkpt lat="46.45225" lon="5.97522">
        <ele>1166.5</ele>
        <time>2022-06-14T13:24:50Z</time>
      </trkpt>
      <trkpt lat="46.4523" lon="5.97519">
        <ele>1166.7</ele>
        <time>2022-06-14T13:24:55Z</time>
      </trkpt>
      <trkpt lat="46.45234" lon="5.97518">
        <ele>1165.3</ele>
        <time>2022-06-14T13:25:03Z</time>
      </trkpt>
      <trkpt lat="46.45238" lon="5.97513">
        <ele>1163.2</ele>
        <time>2022-06-14T13:25:12Z</time>
      </trkpt>
      <trkpt lat="46.45242" lon="5.97509">
        <ele>1162.2</ele>
        <time>2022-06-14T13:25:20Z</time>
      </trkpt>
      <trkpt lat="46.45245" lon="5.97503">
        <ele>1161.1</ele>
        <time>2022-06-14T13:25:26Z</time>
      </trkpt>
      <trkpt lat="46.45248" lon="5.97496">
        <ele>1160.1</ele>
        <time>2022-06-14T13:25:31Z</time>
      </trkpt>
      <trkpt lat="46.45252" lon="5.97493">
        <ele>1159.5</ele>
        <time>2022-06-14T13:25:34Z</time>
      </trkpt>
      <trkpt lat="46.45256" lon="5.9749">
        <ele>1158.9</ele>
        <time>2022-06-14T13:25:38Z</time>
      </trkpt>
      <trkpt lat="46.45261" lon="5.97488">
        <ele>1158.5</ele>
        <time>2022-06-14T13:25:42Z</time>
      </trkpt>
      <trkpt lat="46.45266" lon="5.97487">
        <ele>1158.6</ele>
        <time>2022-06-14T13:25:46Z</time>
      </trkpt>
      <trkpt lat="46.45271" lon="5.97485">
        <ele>1158.7</ele>
        <time>2022-06-14T13:25:50Z</time>
      </trkpt>
      <trkpt lat="46.45275" lon="5.97484">
        <ele>1159.1</ele>
        <time>2022-06-14T13:25:53Z</time>
      </trkpt>
      <trkpt lat="46.4528" lon="5.97484">
        <ele>1160.1</ele>
        <time>2022-06-14T13:25:57Z</time>
      </trkpt>
      <trkpt lat="46.45285" lon="5.97482">
        <ele>1160.9</ele>
        <time>2022-06-14T13:26:03Z</time>
      </trkpt>
      <trkpt lat="46.45282" lon="5.97476">
        <ele>1159.7</ele>
        <time>2022-06-14T13:26:13Z</time>
      </trkpt>
      <trkpt lat="46.45282" lon="5.9747">
        <ele>1156.3</ele>
        <time>2022-06-14T13:26:23Z</time>
      </trkpt>
      <trkpt lat="46.45279" lon="5.97465">
        <ele>1154.1</ele>
        <time>2022-06-14T13:26:30Z</time>
      </trkpt>
      <trkpt lat="46.45276" lon="5.9746">
        <ele>1152.8</ele>
        <time>2022-06-14T13:26:35Z</time>
      </trkpt>
      <trkpt lat="46.45273" lon="5.97454">
        <ele>1150.4</ele>
        <time>2022-06-14T13:26:42Z</time>
      </trkpt>
      <trkpt lat="46.45269" lon="5.9745">
        <ele>1146.8</ele>
        <time>2022-06-14T13:26:54Z</time>
      </trkpt>
      <trkpt lat="46.45268" lon="5.97443">
        <ele>1143.5</ele>
        <time>2022-06-14T13:27:03Z</time>
      </trkpt>
      <trkpt lat="46.45271" lon="5.97437">
        <ele>1141</ele>
        <time>2022-06-14T13:27:11Z</time>
      </trkpt>
      <trkpt lat="46.45271" lon="5.9743">
        <ele>1138.6</ele>
        <time>2022-06-14T13:27:17Z</time>
      </trkpt>
      <trkpt lat="46.45269" lon="5.97424">
        <ele>1136.5</ele>
        <time>2022-06-14T13:27:23Z</time>
      </trkpt>
      <trkpt lat="46.45268" lon="5.97417">
        <ele>1134.8</ele>
        <time>2022-06-14T13:27:30Z</time>
      </trkpt>
      <trkpt lat="46.4527" lon="5.97409">
        <ele>1134.9</ele>
        <time>2022-06-14T13:27:35Z</time>
      </trkpt>
      <trkpt lat="46.45272" lon="5.97402">
        <ele>1134.9</ele>
        <time>2022-06-14T13:27:42Z</time>
      </trkpt>
      <trkpt lat="46.45271" lon="5.97395">
        <ele>1134</ele>
        <time>2022-06-14T13:27:49Z</time>
      </trkpt>
      <trkpt lat="46.45272" lon="5.97388">
        <ele>1134.2</ele>
        <time>2022-06-14T13:27:55Z</time>
      </trkpt>
      <trkpt lat="46.45272" lon="5.97381">
        <ele>1135.1</ele>
        <time>2022-06-14T13:28:02Z</time>
      </trkpt>
      <trkpt lat="46.45272" lon="5.97373">
        <ele>1136.2</ele>
        <time>2022-06-14T13:28:08Z</time>
      </trkpt>
      <trkpt lat="46.45273" lon="5.97365">
        <ele>1136.4</ele>
        <time>2022-06-14T13:28:12Z</time>
      </trkpt>
      <trkpt lat="46.45273" lon="5.97358">
        <ele>1136.1</ele>
        <time>2022-06-14T13:28:16Z</time>
      </trkpt>
      <trkpt lat="46.45276" lon="5.97353">
        <ele>1134.7</ele>
        <time>2022-06-14T13:28:23Z</time>
      </trkpt>
      <trkpt lat="46.4528" lon="5.97349">
        <ele>1133.5</ele>
        <time>2022-06-14T13:28:28Z</time>
      </trkpt>
      <trkpt lat="46.45284" lon="5.97346">
        <ele>1132.2</ele>
        <time>2022-06-14T13:28:33Z</time>
      </trkpt>
      <trkpt lat="46.45288" lon="5.97339">
        <ele>1131.2</ele>
        <time>2022-06-14T13:28:38Z</time>
      </trkpt>
      <trkpt lat="46.45289" lon="5.97333">
        <ele>1130.6</ele>
        <time>2022-06-14T13:28:42Z</time>
      </trkpt>
      <trkpt lat="46.4529" lon="5.97325">
        <ele>1130.9</ele>
        <time>2022-06-14T13:28:50Z</time>
      </trkpt>
      <trkpt lat="46.45292" lon="5.97319">
        <ele>1131.6</ele>
        <time>2022-06-14T13:28:55Z</time>
      </trkpt>
      <trkpt lat="46.45297" lon="5.97314">
        <ele>1131.4</ele>
        <time>2022-06-14T13:29:01Z</time>
      </trkpt>
      <trkpt lat="46.453" lon="5.97308">
        <ele>1130.1</ele>
        <time>2022-06-14T13:29:08Z</time>
      </trkpt>
      <trkpt lat="46.45302" lon="5.97302">
        <ele>1129</ele>
        <time>2022-06-14T13:29:14Z</time>
      </trkpt>
      <trkpt lat="46.45305" lon="5.97296">
        <ele>1128.4</ele>
        <time>2022-06-14T13:29:18Z</time>
      </trkpt>
      <trkpt lat="46.45308" lon="5.97291">
        <ele>1127</ele>
        <time>2022-06-14T13:29:24Z</time>
      </trkpt>
      <trkpt lat="46.45312" lon="5.97285">
        <ele>1125.5</ele>
        <time>2022-06-14T13:29:30Z</time>
      </trkpt>
      <trkpt lat="46.45315" lon="5.97281">
        <ele>1124.2</ele>
        <time>2022-06-14T13:29:35Z</time>
      </trkpt>
      <trkpt lat="46.45317" lon="5.97274">
        <ele>1122.5</ele>
        <time>2022-06-14T13:29:43Z</time>
      </trkpt>
      <trkpt lat="46.45318" lon="5.97267">
        <ele>1121.8</ele>
        <time>2022-06-14T13:29:48Z</time>
      </trkpt>
      <trkpt lat="46.45322" lon="5.97262">
        <ele>1120.7</ele>
        <time>2022-06-14T13:29:54Z</time>
      </trkpt>
      <trkpt lat="46.45326" lon="5.97258">
        <ele>1119.8</ele>
        <time>2022-06-14T13:29:59Z</time>
      </trkpt>
      <trkpt lat="46.4533" lon="5.97254">
        <ele>1119.6</ele>
        <time>2022-06-14T13:30:02Z</time>
      </trkpt>
      <trkpt lat="46.45334" lon="5.9725">
        <ele>1119.3</ele>
        <time>2022-06-14T13:30:05Z</time>
      </trkpt>
      <trkpt lat="46.45337" lon="5.97245">
        <ele>1119.2</ele>
        <time>2022-06-14T13:30:08Z</time>
      </trkpt>
      <trkpt lat="46.4534" lon="5.97239">
        <ele>1119.2</ele>
        <time>2022-06-14T13:30:12Z</time>
      </trkpt>
      <trkpt lat="46.45345" lon="5.97234">
        <ele>1119</ele>
        <time>2022-06-14T13:30:19Z</time>
      </trkpt>
      <trkpt lat="46.45348" lon="5.97229">
        <ele>1118.7</ele>
        <time>2022-06-14T13:30:23Z</time>
      </trkpt>
      <trkpt lat="46.45351" lon="5.97223">
        <ele>1118.5</ele>
        <time>2022-06-14T13:30:27Z</time>
      </trkpt>
      <trkpt lat="46.45355" lon="5.97218">
        <ele>1118.1</ele>
        <time>2022-06-14T13:30:32Z</time>
      </trkpt>
      <trkpt lat="46.45357" lon="5.97212">
        <ele>1117.9</ele>
        <time>2022-06-14T13:30:38Z</time>
      </trkpt>
      <trkpt lat="46.45357" lon="5.97205">
        <ele>1117.8</ele>
        <time>2022-06-14T13:30:43Z</time>
      </trkpt>
      <trkpt lat="46.45361" lon="5.97199">
        <ele>1117.8</ele>
        <time>2022-06-14T13:30:48Z</time>
      </trkpt>
      <trkpt lat="46.45365" lon="5.97194">
        <ele>1118</ele>
        <time>2022-06-14T13:30:54Z</time>
      </trkpt>
      <trkpt lat="46.45365" lon="5.97187">
        <ele>1117.6</ele>
        <time>2022-06-14T13:31:02Z</time>
      </trkpt>
      <trkpt lat="46.45364" lon="5.9718">
        <ele>1116.6</ele>
        <time>2022-06-14T13:31:08Z</time>
      </trkpt>
      <trkpt lat="46.45364" lon="5.97173">
        <ele>1115.4</ele>
        <time>2022-06-14T13:31:14Z</time>
      </trkpt>
      <trkpt lat="46.45364" lon="5.97166">
        <ele>1114.4</ele>
        <time>2022-06-14T13:31:19Z</time>
      </trkpt>
      <trkpt lat="46.45364" lon="5.97159">
        <ele>1113.2</ele>
        <time>2022-06-14T13:31:25Z</time>
      </trkpt>
      <trkpt lat="46.45365" lon="5.97151">
        <ele>1112.2</ele>
        <time>2022-06-14T13:31:34Z</time>
      </trkpt>
      <trkpt lat="46.45366" lon="5.97142">
        <ele>1111.7</ele>
        <time>2022-06-14T13:31:37Z</time>
      </trkpt>
      <trkpt lat="46.45366" lon="5.97135">
        <ele>1110.9</ele>
        <time>2022-06-14T13:31:41Z</time>
      </trkpt>
      <trkpt lat="46.45367" lon="5.97128">
        <ele>1110.1</ele>
        <time>2022-06-14T13:31:46Z</time>
      </trkpt>
      <trkpt lat="46.45367" lon="5.97121">
        <ele>1109.5</ele>
        <time>2022-06-14T13:31:51Z</time>
      </trkpt>
      <trkpt lat="46.45368" lon="5.97113">
        <ele>1108.7</ele>
        <time>2022-06-14T13:31:56Z</time>
      </trkpt>
      <trkpt lat="46.45368" lon="5.97106">
        <ele>1107.7</ele>
        <time>2022-06-14T13:32:01Z</time>
      </trkpt>
      <trkpt lat="46.45367" lon="5.97099">
        <ele>1106.3</ele>
        <time>2022-06-14T13:32:09Z</time>
      </trkpt>
      <trkpt lat="46.45364" lon="5.97094">
        <ele>1105.5</ele>
        <time>2022-06-14T13:32:13Z</time>
      </trkpt>
      <trkpt lat="46.4536" lon="5.97088">
        <ele>1104.7</ele>
        <time>2022-06-14T13:32:17Z</time>
      </trkpt>
      <trkpt lat="46.45357" lon="5.97083">
        <ele>1104.5</ele>
        <time>2022-06-14T13:32:23Z</time>
      </trkpt>
      <trkpt lat="46.45362" lon="5.97082">
        <ele>1110.7</ele>
        <time>2022-06-14T13:32:41Z</time>
      </trkpt>
      <trkpt lat="46.45366" lon="5.97079">
        <ele>1108.9</ele>
        <time>2022-06-14T13:33:17Z</time>
      </trkpt>
      <trkpt lat="46.45371" lon="5.97077">
        <ele>1106.8</ele>
        <time>2022-06-14T13:33:25Z</time>
      </trkpt>
      <trkpt lat="46.45375" lon="5.97072">
        <ele>1106.6</ele>
        <time>2022-06-14T13:33:31Z</time>
      </trkpt>
      <trkpt lat="46.45379" lon="5.97074">
        <ele>1108.2</ele>
        <time>2022-06-14T13:33:42Z</time>
      </trkpt>
      <trkpt lat="46.45385" lon="5.97076">
        <ele>1107.7</ele>
        <time>2022-06-14T13:33:46Z</time>
      </trkpt>
      <trkpt lat="46.45389" lon="5.97077">
        <ele>1107.2</ele>
        <time>2022-06-14T13:33:50Z</time>
      </trkpt>
      <trkpt lat="46.45394" lon="5.97078">
        <ele>1107.1</ele>
        <time>2022-06-14T13:33:56Z</time>
      </trkpt>
      <trkpt lat="46.45399" lon="5.97079">
        <ele>1107.3</ele>
        <time>2022-06-14T13:34:03Z</time>
      </trkpt>
      <trkpt lat="46.45404" lon="5.97077">
        <ele>1107.1</ele>
        <time>2022-06-14T13:34:09Z</time>
      </trkpt>
      <trkpt lat="46.45409" lon="5.97078">
        <ele>1107.2</ele>
        <time>2022-06-14T13:34:13Z</time>
      </trkpt>
      <trkpt lat="46.45414" lon="5.97079">
        <ele>1107.2</ele>
        <time>2022-06-14T13:34:16Z</time>
      </trkpt>
      <trkpt lat="46.45419" lon="5.9708">
        <ele>1107.1</ele>
        <time>2022-06-14T13:34:20Z</time>
      </trkpt>
      <trkpt lat="46.45424" lon="5.97083">
        <ele>1105.8</ele>
        <time>2022-06-14T13:34:28Z</time>
      </trkpt>
      <trkpt lat="46.4543" lon="5.97083">
        <ele>1106.2</ele>
        <time>2022-06-14T13:34:32Z</time>
      </trkpt>
      <trkpt lat="46.45435" lon="5.97085">
        <ele>1107.1</ele>
        <time>2022-06-14T13:34:36Z</time>
      </trkpt>
      <trkpt lat="46.45437" lon="5.97091">
        <ele>1108.8</ele>
        <time>2022-06-14T13:34:43Z</time>
      </trkpt>
      <trkpt lat="46.45443" lon="5.97091">
        <ele>1109.4</ele>
        <time>2022-06-14T13:34:49Z</time>
      </trkpt>
      <trkpt lat="46.45447" lon="5.97089">
        <ele>1109.1</ele>
        <time>2022-06-14T13:34:55Z</time>
      </trkpt>
      <trkpt lat="46.45452" lon="5.97089">
        <ele>1108.3</ele>
        <time>2022-06-14T13:35:01Z</time>
      </trkpt>
      <trkpt lat="46.45456" lon="5.9709">
        <ele>1107.9</ele>
        <time>2022-06-14T13:35:06Z</time>
      </trkpt>
      <trkpt lat="46.45461" lon="5.97092">
        <ele>1107.6</ele>
        <time>2022-06-14T13:35:13Z</time>
      </trkpt>
      <trkpt lat="46.45465" lon="5.97093">
        <ele>1106.6</ele>
        <time>2022-06-14T13:35:17Z</time>
      </trkpt>
      <trkpt lat="46.45466" lon="5.971">
        <ele>1100.3</ele>
        <time>2022-06-14T13:35:34Z</time>
      </trkpt>
      <trkpt lat="46.45471" lon="5.97105">
        <ele>1096.4</ele>
        <time>2022-06-14T13:36:03Z</time>
      </trkpt>
      <trkpt lat="46.45466" lon="5.97102">
        <ele>1088.6</ele>
        <time>2022-06-14T13:36:43Z</time>
      </trkpt>
      <trkpt lat="46.4547" lon="5.971">
        <ele>1088.8</ele>
        <time>2022-06-14T13:37:04Z</time>
      </trkpt>
      <trkpt lat="46.45475" lon="5.971">
        <ele>1090.1</ele>
        <time>2022-06-14T13:37:34Z</time>
      </trkpt>
      <trkpt lat="46.4547" lon="5.97102">
        <ele>1091</ele>
        <time>2022-06-14T13:37:40Z</time>
      </trkpt>
      <trkpt lat="46.45466" lon="5.97097">
        <ele>1091.7</ele>
        <time>2022-06-14T13:37:53Z</time>
      </trkpt>
      <trkpt lat="46.45464" lon="5.97091">
        <ele>1091.7</ele>
        <time>2022-06-14T13:38:00Z</time>
      </trkpt>
      <trkpt lat="46.45465" lon="5.97099">
        <ele>1091.7</ele>
        <time>2022-06-14T13:38:21Z</time>
      </trkpt>
      <trkpt lat="46.45465" lon="5.97106">
        <ele>1091.5</ele>
        <time>2022-06-14T13:38:28Z</time>
      </trkpt>
      <trkpt lat="46.45469" lon="5.97101">
        <ele>1091.5</ele>
        <time>2022-06-14T13:38:47Z</time>
      </trkpt>
      <trkpt lat="46.45472" lon="5.97097">
        <ele>1091.2</ele>
        <time>2022-06-14T13:38:56Z</time>
      </trkpt>
      <trkpt lat="46.45477" lon="5.97093">
        <ele>1092.8</ele>
        <time>2022-06-14T13:39:14Z</time>
      </trkpt>
      <trkpt lat="46.45482" lon="5.97091">
        <ele>1094.4</ele>
        <time>2022-06-14T13:39:19Z</time>
      </trkpt>
      <trkpt lat="46.45487" lon="5.9709">
        <ele>1096.3</ele>
        <time>2022-06-14T13:39:25Z</time>
      </trkpt>
      <trkpt lat="46.45492" lon="5.97089">
        <ele>1097.2</ele>
        <time>2022-06-14T13:39:29Z</time>
      </trkpt>
      <trkpt lat="46.45497" lon="5.97089">
        <ele>1097.5</ele>
        <time>2022-06-14T13:39:33Z</time>
      </trkpt>
      <trkpt lat="46.45502" lon="5.97087">
        <ele>1097.1</ele>
        <time>2022-06-14T13:39:39Z</time>
      </trkpt>
      <trkpt lat="46.45505" lon="5.97081">
        <ele>1095.6</ele>
        <time>2022-06-14T13:39:47Z</time>
      </trkpt>
      <trkpt lat="46.45509" lon="5.97079">
        <ele>1095.2</ele>
        <time>2022-06-14T13:39:51Z</time>
      </trkpt>
      <trkpt lat="46.45514" lon="5.97078">
        <ele>1095.1</ele>
        <time>2022-06-14T13:39:54Z</time>
      </trkpt>
      <trkpt lat="46.4552" lon="5.97078">
        <ele>1094.9</ele>
        <time>2022-06-14T13:39:58Z</time>
      </trkpt>
      <trkpt lat="46.45525" lon="5.97078">
        <ele>1094.7</ele>
        <time>2022-06-14T13:40:03Z</time>
      </trkpt>
      <trkpt lat="46.45529" lon="5.97076">
        <ele>1091.1</ele>
        <time>2022-06-14T13:40:16Z</time>
      </trkpt>
      <trkpt lat="46.45535" lon="5.97076">
        <ele>1090.4</ele>
        <time>2022-06-14T13:40:23Z</time>
      </trkpt>
      <trkpt lat="46.4554" lon="5.97077">
        <ele>1090.3</ele>
        <time>2022-06-14T13:40:27Z</time>
      </trkpt>
      <trkpt lat="46.45546" lon="5.97078">
        <ele>1090.4</ele>
        <time>2022-06-14T13:40:32Z</time>
      </trkpt>
      <trkpt lat="46.4555" lon="5.9708">
        <ele>1090.4</ele>
        <time>2022-06-14T13:40:36Z</time>
      </trkpt>
      <trkpt lat="46.45555" lon="5.97079">
        <ele>1089.9</ele>
        <time>2022-06-14T13:40:42Z</time>
      </trkpt>
      <trkpt lat="46.4556" lon="5.9708">
        <ele>1088.5</ele>
        <time>2022-06-14T13:40:48Z</time>
      </trkpt>
      <trkpt lat="46.45565" lon="5.97082">
        <ele>1087.2</ele>
        <time>2022-06-14T13:40:53Z</time>
      </trkpt>
      <trkpt lat="46.4557" lon="5.97079">
        <ele>1086.6</ele>
        <time>2022-06-14T13:40:58Z</time>
      </trkpt>
      <trkpt lat="46.45574" lon="5.97077">
        <ele>1086</ele>
        <time>2022-06-14T13:41:03Z</time>
      </trkpt>
      <trkpt lat="46.45581" lon="5.97077">
        <ele>1084.3</ele>
        <time>2022-06-14T13:41:19Z</time>
      </trkpt>
      <trkpt lat="46.45587" lon="5.97079">
        <ele>1083.8</ele>
        <time>2022-06-14T13:41:22Z</time>
      </trkpt>
      <trkpt lat="46.45592" lon="5.9708">
        <ele>1083.5</ele>
        <time>2022-06-14T13:41:25Z</time>
      </trkpt>
      <trkpt lat="46.45597" lon="5.97082">
        <ele>1082.7</ele>
        <time>2022-06-14T13:41:30Z</time>
      </trkpt>
      <trkpt lat="46.45603" lon="5.97082">
        <ele>1080.7</ele>
        <time>2022-06-14T13:41:40Z</time>
      </trkpt>
      <trkpt lat="46.45608" lon="5.97082">
        <ele>1079.3</ele>
        <time>2022-06-14T13:41:45Z</time>
      </trkpt>
      <trkpt lat="46.45612" lon="5.97079">
        <ele>1077.4</ele>
        <time>2022-06-14T13:41:52Z</time>
      </trkpt>
      <trkpt lat="46.45617" lon="5.9708">
        <ele>1077</ele>
        <time>2022-06-14T13:41:56Z</time>
      </trkpt>
      <trkpt lat="46.45621" lon="5.97077">
        <ele>1076</ele>
        <time>2022-06-14T13:42:04Z</time>
      </trkpt>
      <trkpt lat="46.45626" lon="5.97078">
        <ele>1075.5</ele>
        <time>2022-06-14T13:42:13Z</time>
      </trkpt>
      <trkpt lat="46.45631" lon="5.9708">
        <ele>1074.7</ele>
        <time>2022-06-14T13:42:19Z</time>
      </trkpt>
      <trkpt lat="46.45636" lon="5.97081">
        <ele>1074.3</ele>
        <time>2022-06-14T13:42:22Z</time>
      </trkpt>
      <trkpt lat="46.45641" lon="5.97083">
        <ele>1073.3</ele>
        <time>2022-06-14T13:42:26Z</time>
      </trkpt>
      <trkpt lat="46.45646" lon="5.97084">
        <ele>1072.7</ele>
        <time>2022-06-14T13:42:30Z</time>
      </trkpt>
      <trkpt lat="46.45652" lon="5.97083">
        <ele>1071.9</ele>
        <time>2022-06-14T13:42:34Z</time>
      </trkpt>
      <trkpt lat="46.45657" lon="5.97083">
        <ele>1069.7</ele>
        <time>2022-06-14T13:42:43Z</time>
      </trkpt>
      <trkpt lat="46.45662" lon="5.97086">
        <ele>1068</ele>
        <time>2022-06-14T13:42:50Z</time>
      </trkpt>
      <trkpt lat="46.45666" lon="5.97091">
        <ele>1066.7</ele>
        <time>2022-06-14T13:42:56Z</time>
      </trkpt>
      <trkpt lat="46.4567" lon="5.97096">
        <ele>1065.8</ele>
        <time>2022-06-14T13:43:01Z</time>
      </trkpt>
      <trkpt lat="46.45673" lon="5.971">
        <ele>1064.9</ele>
        <time>2022-06-14T13:43:10Z</time>
      </trkpt>
      <trkpt lat="46.45675" lon="5.97106">
        <ele>1063.4</ele>
        <time>2022-06-14T13:43:20Z</time>
      </trkpt>
      <trkpt lat="46.45679" lon="5.9711">
        <ele>1062.4</ele>
        <time>2022-06-14T13:43:25Z</time>
      </trkpt>
      <trkpt lat="46.45684" lon="5.97112">
        <ele>1061.8</ele>
        <time>2022-06-14T13:43:29Z</time>
      </trkpt>
      <trkpt lat="46.45688" lon="5.97113">
        <ele>1061.5</ele>
        <time>2022-06-14T13:43:34Z</time>
      </trkpt>
      <trkpt lat="46.45693" lon="5.97115">
        <ele>1061.4</ele>
        <time>2022-06-14T13:43:40Z</time>
      </trkpt>
      <trkpt lat="46.45698" lon="5.97118">
        <ele>1061.2</ele>
        <time>2022-06-14T13:43:45Z</time>
      </trkpt>
      <trkpt lat="46.45702" lon="5.97122">
        <ele>1060.9</ele>
        <time>2022-06-14T13:43:50Z</time>
      </trkpt>
      <trkpt lat="46.45708" lon="5.97124">
        <ele>1061.1</ele>
        <time>2022-06-14T13:43:59Z</time>
      </trkpt>
      <trkpt lat="46.45712" lon="5.97123">
        <ele>1061.8</ele>
        <time>2022-06-14T13:44:07Z</time>
      </trkpt>
      <trkpt lat="46.45708" lon="5.97128">
        <ele>1063.6</ele>
        <time>2022-06-14T13:44:22Z</time>
      </trkpt>
      <trkpt lat="46.45712" lon="5.97132">
        <ele>1064.8</ele>
        <time>2022-06-14T13:44:31Z</time>
      </trkpt>
      <trkpt lat="46.45717" lon="5.9713">
        <ele>1066.6</ele>
        <time>2022-06-14T13:44:48Z</time>
      </trkpt>
      <trkpt lat="46.45719" lon="5.97123">
        <ele>1067.1</ele>
        <time>2022-06-14T13:44:52Z</time>
      </trkpt>
      <trkpt lat="46.45722" lon="5.97118">
        <ele>1069.2</ele>
        <time>2022-06-14T13:45:01Z</time>
      </trkpt>
      <trkpt lat="46.45725" lon="5.97113">
        <ele>1070.1</ele>
        <time>2022-06-14T13:45:09Z</time>
      </trkpt>
      <trkpt lat="46.45728" lon="5.97107">
        <ele>1070</ele>
        <time>2022-06-14T13:45:16Z</time>
      </trkpt>
      <trkpt lat="46.45732" lon="5.97103">
        <ele>1069.3</ele>
        <time>2022-06-14T13:45:20Z</time>
      </trkpt>
      <trkpt lat="46.45735" lon="5.97099">
        <ele>1069</ele>
        <time>2022-06-14T13:45:23Z</time>
      </trkpt>
      <trkpt lat="46.45739" lon="5.97094">
        <ele>1067</ele>
        <time>2022-06-14T13:45:29Z</time>
      </trkpt>
      <trkpt lat="46.45742" lon="5.97088">
        <ele>1064.5</ele>
        <time>2022-06-14T13:45:36Z</time>
      </trkpt>
      <trkpt lat="46.45745" lon="5.97083">
        <ele>1061.8</ele>
        <time>2022-06-14T13:45:44Z</time>
      </trkpt>
      <trkpt lat="46.4575" lon="5.97081">
        <ele>1059.9</ele>
        <time>2022-06-14T13:45:49Z</time>
      </trkpt>
      <trkpt lat="46.45753" lon="5.97076">
        <ele>1057.8</ele>
        <time>2022-06-14T13:45:54Z</time>
      </trkpt>
      <trkpt lat="46.45757" lon="5.9707">
        <ele>1055.9</ele>
        <time>2022-06-14T13:45:59Z</time>
      </trkpt>
      <trkpt lat="46.45761" lon="5.97067">
        <ele>1054.1</ele>
        <time>2022-06-14T13:46:04Z</time>
      </trkpt>
      <trkpt lat="46.45765" lon="5.97063">
        <ele>1052.1</ele>
        <time>2022-06-14T13:46:13Z</time>
      </trkpt>
      <trkpt lat="46.45769" lon="5.97058">
        <ele>1051.2</ele>
        <time>2022-06-14T13:46:17Z</time>
      </trkpt>
      <trkpt lat="46.45773" lon="5.97054">
        <ele>1050.2</ele>
        <time>2022-06-14T13:46:21Z</time>
      </trkpt>
      <trkpt lat="46.45777" lon="5.97049">
        <ele>1049.3</ele>
        <time>2022-06-14T13:46:25Z</time>
      </trkpt>
      <trkpt lat="46.45779" lon="5.97041">
        <ele>1048.6</ele>
        <time>2022-06-14T13:46:29Z</time>
      </trkpt>
      <trkpt lat="46.4578" lon="5.97035">
        <ele>1047.8</ele>
        <time>2022-06-14T13:46:38Z</time>
      </trkpt>
      <trkpt lat="46.45782" lon="5.97028">
        <ele>1046.9</ele>
        <time>2022-06-14T13:46:46Z</time>
      </trkpt>
      <trkpt lat="46.45786" lon="5.97023">
        <ele>1045.4</ele>
        <time>2022-06-14T13:46:51Z</time>
      </trkpt>
      <trkpt lat="46.45791" lon="5.9702">
        <ele>1043.5</ele>
        <time>2022-06-14T13:47:00Z</time>
      </trkpt>
      <trkpt lat="46.45796" lon="5.97017">
        <ele>1043</ele>
        <time>2022-06-14T13:47:04Z</time>
      </trkpt>
      <trkpt lat="46.458" lon="5.97013">
        <ele>1042.5</ele>
        <time>2022-06-14T13:47:09Z</time>
      </trkpt>
      <trkpt lat="46.45805" lon="5.97011">
        <ele>1041.9</ele>
        <time>2022-06-14T13:47:18Z</time>
      </trkpt>
      <trkpt lat="46.45809" lon="5.97009">
        <ele>1040.9</ele>
        <time>2022-06-14T13:47:22Z</time>
      </trkpt>
      <trkpt lat="46.45813" lon="5.97006">
        <ele>1040.4</ele>
        <time>2022-06-14T13:47:25Z</time>
      </trkpt>
      <trkpt lat="46.45817" lon="5.97002">
        <ele>1039.7</ele>
        <time>2022-06-14T13:47:31Z</time>
      </trkpt>
      <trkpt lat="46.45821" lon="5.96997">
        <ele>1039.2</ele>
        <time>2022-06-14T13:47:36Z</time>
      </trkpt>
      <trkpt lat="46.45826" lon="5.96994">
        <ele>1039</ele>
        <time>2022-06-14T13:47:40Z</time>
      </trkpt>
      <trkpt lat="46.4583" lon="5.9699">
        <ele>1038.3</ele>
        <time>2022-06-14T13:47:45Z</time>
      </trkpt>
      <trkpt lat="46.45833" lon="5.96984">
        <ele>1037.6</ele>
        <time>2022-06-14T13:47:53Z</time>
      </trkpt>
      <trkpt lat="46.45836" lon="5.9698">
        <ele>1037.2</ele>
        <time>2022-06-14T13:48:00Z</time>
      </trkpt>
      <trkpt lat="46.4584" lon="5.96976">
        <ele>1037.3</ele>
        <time>2022-06-14T13:48:05Z</time>
      </trkpt>
      <trkpt lat="46.45844" lon="5.96972">
        <ele>1037.2</ele>
        <time>2022-06-14T13:48:10Z</time>
      </trkpt>
      <trkpt lat="46.45847" lon="5.96967">
        <ele>1036.7</ele>
        <time>2022-06-14T13:48:16Z</time>
      </trkpt>
      <trkpt lat="46.4585" lon="5.96961">
        <ele>1034.7</ele>
        <time>2022-06-14T13:48:29Z</time>
      </trkpt>
      <trkpt lat="46.45847" lon="5.96954">
        <ele>1034.4</ele>
        <time>2022-06-14T13:48:38Z</time>
      </trkpt>
      <trkpt lat="46.45846" lon="5.96948">
        <ele>1034</ele>
        <time>2022-06-14T13:48:42Z</time>
      </trkpt>
      <trkpt lat="46.45845" lon="5.96941">
        <ele>1032.7</ele>
        <time>2022-06-14T13:48:48Z</time>
      </trkpt>
      <trkpt lat="46.45842" lon="5.96936">
        <ele>1031.7</ele>
        <time>2022-06-14T13:48:54Z</time>
      </trkpt>
      <trkpt lat="46.45839" lon="5.9693">
        <ele>1030.7</ele>
        <time>2022-06-14T13:49:00Z</time>
      </trkpt>
      <trkpt lat="46.45836" lon="5.96924">
        <ele>1029.2</ele>
        <time>2022-06-14T13:49:08Z</time>
      </trkpt>
      <trkpt lat="46.45833" lon="5.96918">
        <ele>1028.9</ele>
        <time>2022-06-14T13:49:12Z</time>
      </trkpt>
      <trkpt lat="46.4583" lon="5.96912">
        <ele>1029</ele>
        <time>2022-06-14T13:49:17Z</time>
      </trkpt>
      <trkpt lat="46.45827" lon="5.96906">
        <ele>1029.9</ele>
        <time>2022-06-14T13:49:21Z</time>
      </trkpt>
      <trkpt lat="46.45822" lon="5.96901">
        <ele>1030.8</ele>
        <time>2022-06-14T13:49:25Z</time>
      </trkpt>
      <trkpt lat="46.45819" lon="5.96896">
        <ele>1031.4</ele>
        <time>2022-06-14T13:49:29Z</time>
      </trkpt>
      <trkpt lat="46.45815" lon="5.96892">
        <ele>1032.1</ele>
        <time>2022-06-14T13:49:34Z</time>
      </trkpt>
      <trkpt lat="46.45812" lon="5.96887">
        <ele>1032.2</ele>
        <time>2022-06-14T13:49:39Z</time>
      </trkpt>
      <trkpt lat="46.45808" lon="5.9688">
        <ele>1032.1</ele>
        <time>2022-06-14T13:49:45Z</time>
      </trkpt>
      <trkpt lat="46.45804" lon="5.96876">
        <ele>1031.9</ele>
        <time>2022-06-14T13:49:51Z</time>
      </trkpt>
      <trkpt lat="46.45801" lon="5.96871">
        <ele>1032</ele>
        <time>2022-06-14T13:49:58Z</time>
      </trkpt>
      <trkpt lat="46.45799" lon="5.96864">
        <ele>1031.5</ele>
        <time>2022-06-14T13:50:23Z</time>
      </trkpt>
      <trkpt lat="46.458" lon="5.96857">
        <ele>1030.6</ele>
        <time>2022-06-14T13:50:27Z</time>
      </trkpt>
      <trkpt lat="46.45803" lon="5.96851">
        <ele>1029.9</ele>
        <time>2022-06-14T13:50:31Z</time>
      </trkpt>
      <trkpt lat="46.45806" lon="5.96845">
        <ele>1029.5</ele>
        <time>2022-06-14T13:50:35Z</time>
      </trkpt>
      <trkpt lat="46.45809" lon="5.9684">
        <ele>1028.9</ele>
        <time>2022-06-14T13:50:39Z</time>
      </trkpt>
      <trkpt lat="46.45812" lon="5.96835">
        <ele>1028.7</ele>
        <time>2022-06-14T13:50:42Z</time>
      </trkpt>
      <trkpt lat="46.45815" lon="5.96829">
        <ele>1028.3</ele>
        <time>2022-06-14T13:50:47Z</time>
      </trkpt>
      <trkpt lat="46.45818" lon="5.96824">
        <ele>1028.5</ele>
        <time>2022-06-14T13:50:51Z</time>
      </trkpt>
      <trkpt lat="46.45823" lon="5.96819">
        <ele>1029</ele>
        <time>2022-06-14T13:50:55Z</time>
      </trkpt>
      <trkpt lat="46.45826" lon="5.96814">
        <ele>1029</ele>
        <time>2022-06-14T13:50:59Z</time>
      </trkpt>
      <trkpt lat="46.45829" lon="5.96808">
        <ele>1029</ele>
        <time>2022-06-14T13:51:05Z</time>
      </trkpt>
      <trkpt lat="46.45825" lon="5.96804">
        <ele>1029.1</ele>
        <time>2022-06-14T13:51:32Z</time>
      </trkpt>
      <trkpt lat="46.45827" lon="5.96811">
        <ele>1029</ele>
        <time>2022-06-14T13:52:57Z</time>
      </trkpt>
      <trkpt lat="46.4583" lon="5.96817">
        <ele>1029.6</ele>
        <time>2022-06-14T13:53:04Z</time>
      </trkpt>
      <trkpt lat="46.45834" lon="5.9682">
        <ele>1030.6</ele>
        <time>2022-06-14T13:53:10Z</time>
      </trkpt>
      <trkpt lat="46.45837" lon="5.96824">
        <ele>1031.4</ele>
        <time>2022-06-14T13:53:15Z</time>
      </trkpt>
      <trkpt lat="46.45841" lon="5.96827">
        <ele>1031.8</ele>
        <time>2022-06-14T13:53:22Z</time>
      </trkpt>
      <trkpt lat="46.45846" lon="5.96829">
        <ele>1032.4</ele>
        <time>2022-06-14T13:53:27Z</time>
      </trkpt>
      <trkpt lat="46.45852" lon="5.96831">
        <ele>1032.9</ele>
        <time>2022-06-14T13:53:32Z</time>
      </trkpt>
      <trkpt lat="46.45856" lon="5.96834">
        <ele>1033.4</ele>
        <time>2022-06-14T13:53:36Z</time>
      </trkpt>
      <trkpt lat="46.45859" lon="5.96838">
        <ele>1034.3</ele>
        <time>2022-06-14T13:53:41Z</time>
      </trkpt>
      <trkpt lat="46.45863" lon="5.96843">
        <ele>1035.4</ele>
        <time>2022-06-14T13:53:46Z</time>
      </trkpt>
      <trkpt lat="46.45867" lon="5.96849">
        <ele>1035.6</ele>
        <time>2022-06-14T13:53:53Z</time>
      </trkpt>
      <trkpt lat="46.45871" lon="5.96848">
        <ele>1035.6</ele>
        <time>2022-06-14T13:53:59Z</time>
      </trkpt>
      <trkpt lat="46.45875" lon="5.96844">
        <ele>1036.1</ele>
        <time>2022-06-14T13:54:04Z</time>
      </trkpt>
      <trkpt lat="46.45879" lon="5.96841">
        <ele>1036.3</ele>
        <time>2022-06-14T13:54:07Z</time>
      </trkpt>
      <trkpt lat="46.45883" lon="5.96837">
        <ele>1037</ele>
        <time>2022-06-14T13:54:11Z</time>
      </trkpt>
      <trkpt lat="46.45887" lon="5.96832">
        <ele>1037.7</ele>
        <time>2022-06-14T13:54:16Z</time>
      </trkpt>
      <trkpt lat="46.45889" lon="5.96826">
        <ele>1038.5</ele>
        <time>2022-06-14T13:54:21Z</time>
      </trkpt>
      <trkpt lat="46.45893" lon="5.9682">
        <ele>1038.6</ele>
        <time>2022-06-14T13:54:31Z</time>
      </trkpt>
      <trkpt lat="46.45897" lon="5.96815">
        <ele>1039.1</ele>
        <time>2022-06-14T13:54:36Z</time>
      </trkpt>
      <trkpt lat="46.459" lon="5.96811">
        <ele>1039.5</ele>
        <time>2022-06-14T13:54:41Z</time>
      </trkpt>
      <trkpt lat="46.45905" lon="5.96809">
        <ele>1040.1</ele>
        <time>2022-06-14T13:54:45Z</time>
      </trkpt>
      <trkpt lat="46.4591" lon="5.96808">
        <ele>1040.2</ele>
        <time>2022-06-14T13:54:49Z</time>
      </trkpt>
      <trkpt lat="46.45914" lon="5.96806">
        <ele>1040.3</ele>
        <time>2022-06-14T13:54:53Z</time>
      </trkpt>
      <trkpt lat="46.45919" lon="5.96806">
        <ele>1039.1</ele>
        <time>2022-06-14T13:55:01Z</time>
      </trkpt>
      <trkpt lat="46.45924" lon="5.96803">
        <ele>1036.5</ele>
        <time>2022-06-14T13:55:07Z</time>
      </trkpt>
      <trkpt lat="46.45929" lon="5.968">
        <ele>1034.6</ele>
        <time>2022-06-14T13:55:12Z</time>
      </trkpt>
      <trkpt lat="46.45934" lon="5.968">
        <ele>1033.4</ele>
        <time>2022-06-14T13:55:18Z</time>
      </trkpt>
      <trkpt lat="46.45939" lon="5.968">
        <ele>1033.6</ele>
        <time>2022-06-14T13:55:22Z</time>
      </trkpt>
      <trkpt lat="46.45943" lon="5.96797">
        <ele>1034</ele>
        <time>2022-06-14T13:55:27Z</time>
      </trkpt>
      <trkpt lat="46.45948" lon="5.96794">
        <ele>1034</ele>
        <time>2022-06-14T13:55:33Z</time>
      </trkpt>
      <trkpt lat="46.45953" lon="5.96792">
        <ele>1033.2</ele>
        <time>2022-06-14T13:55:39Z</time>
      </trkpt>
      <trkpt lat="46.45957" lon="5.96791">
        <ele>1033.3</ele>
        <time>2022-06-14T13:55:45Z</time>
      </trkpt>
      <trkpt lat="46.45961" lon="5.96787">
        <ele>1032.5</ele>
        <time>2022-06-14T13:56:01Z</time>
      </trkpt>
      <trkpt lat="46.45966" lon="5.96787">
        <ele>1031.9</ele>
        <time>2022-06-14T13:56:09Z</time>
      </trkpt>
      <trkpt lat="46.45967" lon="5.9678">
        <ele>1027.7</ele>
        <time>2022-06-14T13:56:32Z</time>
      </trkpt>
      <trkpt lat="46.45971" lon="5.96782">
        <ele>1027.2</ele>
        <time>2022-06-14T13:56:41Z</time>
      </trkpt>
      <trkpt lat="46.45976" lon="5.96785">
        <ele>1027.4</ele>
        <time>2022-06-14T13:56:55Z</time>
      </trkpt>
      <trkpt lat="46.45981" lon="5.96783">
        <ele>1028.2</ele>
        <time>2022-06-14T13:57:01Z</time>
      </trkpt>
      <trkpt lat="46.45986" lon="5.96784">
        <ele>1030.2</ele>
        <time>2022-06-14T13:57:09Z</time>
      </trkpt>
      <trkpt lat="46.45992" lon="5.96783">
        <ele>1031.4</ele>
        <time>2022-06-14T13:57:13Z</time>
      </trkpt>
      <trkpt lat="46.45997" lon="5.96782">
        <ele>1032.6</ele>
        <time>2022-06-14T13:57:16Z</time>
      </trkpt>
      <trkpt lat="46.46002" lon="5.96783">
        <ele>1034.5</ele>
        <time>2022-06-14T13:57:20Z</time>
      </trkpt>
      <trkpt lat="46.46007" lon="5.96782">
        <ele>1036.2</ele>
        <time>2022-06-14T13:57:24Z</time>
      </trkpt>
      <trkpt lat="46.46012" lon="5.96783">
        <ele>1038.1</ele>
        <time>2022-06-14T13:57:29Z</time>
      </trkpt>
      <trkpt lat="46.46017" lon="5.96784">
        <ele>1040.1</ele>
        <time>2022-06-14T13:57:35Z</time>
      </trkpt>
      <trkpt lat="46.46022" lon="5.96784">
        <ele>1041.4</ele>
        <time>2022-06-14T13:57:41Z</time>
      </trkpt>
      <trkpt lat="46.46027" lon="5.96783">
        <ele>1042.1</ele>
        <time>2022-06-14T13:57:47Z</time>
      </trkpt>
      <trkpt lat="46.46032" lon="5.96782">
        <ele>1042.4</ele>
        <time>2022-06-14T13:57:53Z</time>
      </trkpt>
      <trkpt lat="46.46037" lon="5.96781">
        <ele>1042.6</ele>
        <time>2022-06-14T13:57:58Z</time>
      </trkpt>
      <trkpt lat="46.46042" lon="5.96778">
        <ele>1042.8</ele>
        <time>2022-06-14T13:58:02Z</time>
      </trkpt>
      <trkpt lat="46.46046" lon="5.96777">
        <ele>1042.9</ele>
        <time>2022-06-14T13:58:06Z</time>
      </trkpt>
      <trkpt lat="46.46051" lon="5.96774">
        <ele>1042.7</ele>
        <time>2022-06-14T13:58:10Z</time>
      </trkpt>
      <trkpt lat="46.46055" lon="5.96771">
        <ele>1042.2</ele>
        <time>2022-06-14T13:58:16Z</time>
      </trkpt>
      <trkpt lat="46.46059" lon="5.96768">
        <ele>1042.3</ele>
        <time>2022-06-14T13:58:22Z</time>
      </trkpt>
      <trkpt lat="46.46063" lon="5.96765">
        <ele>1042</ele>
        <time>2022-06-14T13:58:27Z</time>
      </trkpt>
      <trkpt lat="46.46065" lon="5.96758">
        <ele>1042.5</ele>
        <time>2022-06-14T13:58:38Z</time>
      </trkpt>
      <trkpt lat="46.46069" lon="5.96754">
        <ele>1042.9</ele>
        <time>2022-06-14T13:58:43Z</time>
      </trkpt>
      <trkpt lat="46.46073" lon="5.96749">
        <ele>1043</ele>
        <time>2022-06-14T13:58:48Z</time>
      </trkpt>
      <trkpt lat="46.46077" lon="5.96745">
        <ele>1043.4</ele>
        <time>2022-06-14T13:58:54Z</time>
      </trkpt>
      <trkpt lat="46.46079" lon="5.9674">
        <ele>1043.9</ele>
        <time>2022-06-14T13:59:01Z</time>
      </trkpt>
      <trkpt lat="46.46084" lon="5.96736">
        <ele>1044.3</ele>
        <time>2022-06-14T13:59:07Z</time>
      </trkpt>
      <trkpt lat="46.46089" lon="5.96738">
        <ele>1043.2</ele>
        <time>2022-06-14T13:59:40Z</time>
      </trkpt>
      <trkpt lat="46.46092" lon="5.96743">
        <ele>1041.2</ele>
        <time>2022-06-14T13:59:49Z</time>
      </trkpt>
      <trkpt lat="46.46098" lon="5.96743">
        <ele>1034.3</ele>
        <time>2022-06-14T14:02:26Z</time>
      </trkpt>
      <trkpt lat="46.46103" lon="5.96742">
        <ele>1032.5</ele>
        <time>2022-06-14T14:02:33Z</time>
      </trkpt>
      <trkpt lat="46.46108" lon="5.96739">
        <ele>1032.7</ele>
        <time>2022-06-14T14:02:39Z</time>
      </trkpt>
      <trkpt lat="46.46113" lon="5.96737">
        <ele>1034.2</ele>
        <time>2022-06-14T14:02:44Z</time>
      </trkpt>
      <trkpt lat="46.46117" lon="5.96737">
        <ele>1035.9</ele>
        <time>2022-06-14T14:02:50Z</time>
      </trkpt>
      <trkpt lat="46.46122" lon="5.96737">
        <ele>1036.5</ele>
        <time>2022-06-14T14:02:55Z</time>
      </trkpt>
      <trkpt lat="46.46127" lon="5.96735">
        <ele>1036.7</ele>
        <time>2022-06-14T14:03:00Z</time>
      </trkpt>
      <trkpt lat="46.46131" lon="5.96731">
        <ele>1036.8</ele>
        <time>2022-06-14T14:03:07Z</time>
      </trkpt>
      <trkpt lat="46.46131" lon="5.96724">
        <ele>1035.1</ele>
        <time>2022-06-14T14:03:14Z</time>
      </trkpt>
      <trkpt lat="46.46131" lon="5.96718">
        <ele>1033.4</ele>
        <time>2022-06-14T14:03:20Z</time>
      </trkpt>
      <trkpt lat="46.46132" lon="5.9671">
        <ele>1032.3</ele>
        <time>2022-06-14T14:03:28Z</time>
      </trkpt>
      <trkpt lat="46.46133" lon="5.96703">
        <ele>1032.2</ele>
        <time>2022-06-14T14:03:35Z</time>
      </trkpt>
      <trkpt lat="46.46134" lon="5.96696">
        <ele>1032.4</ele>
        <time>2022-06-14T14:03:42Z</time>
      </trkpt>
      <trkpt lat="46.46133" lon="5.96689">
        <ele>1031.5</ele>
        <time>2022-06-14T14:03:50Z</time>
      </trkpt>
      <trkpt lat="46.46134" lon="5.96682">
        <ele>1029.9</ele>
        <time>2022-06-14T14:03:58Z</time>
      </trkpt>
      <trkpt lat="46.4613" lon="5.96677">
        <ele>1027.8</ele>
        <time>2022-06-14T14:04:04Z</time>
      </trkpt>
      <trkpt lat="46.46127" lon="5.96671">
        <ele>1026</ele>
        <time>2022-06-14T14:04:09Z</time>
      </trkpt>
      <trkpt lat="46.46125" lon="5.96664">
        <ele>1025</ele>
        <time>2022-06-14T14:04:14Z</time>
      </trkpt>
      <trkpt lat="46.46126" lon="5.96656">
        <ele>1025.1</ele>
        <time>2022-06-14T14:04:19Z</time>
      </trkpt>
      <trkpt lat="46.46128" lon="5.9665">
        <ele>1025.1</ele>
        <time>2022-06-14T14:04:24Z</time>
      </trkpt>
      <trkpt lat="46.4613" lon="5.96643">
        <ele>1024.7</ele>
        <time>2022-06-14T14:04:28Z</time>
      </trkpt>
      <trkpt lat="46.46132" lon="5.96637">
        <ele>1024.3</ele>
        <time>2022-06-14T14:04:32Z</time>
      </trkpt>
      <trkpt lat="46.46135" lon="5.96632">
        <ele>1023.7</ele>
        <time>2022-06-14T14:04:37Z</time>
      </trkpt>
      <trkpt lat="46.46137" lon="5.96626">
        <ele>1022.6</ele>
        <time>2022-06-14T14:04:42Z</time>
      </trkpt>
      <trkpt lat="46.46139" lon="5.9662">
        <ele>1022.1</ele>
        <time>2022-06-14T14:04:47Z</time>
      </trkpt>
      <trkpt lat="46.46142" lon="5.96613">
        <ele>1021.9</ele>
        <time>2022-06-14T14:04:53Z</time>
      </trkpt>
      <trkpt lat="46.46143" lon="5.96606">
        <ele>1021.4</ele>
        <time>2022-06-14T14:04:58Z</time>
      </trkpt>
      <trkpt lat="46.46144" lon="5.96599">
        <ele>1019.6</ele>
        <time>2022-06-14T14:05:05Z</time>
      </trkpt>
      <trkpt lat="46.46147" lon="5.96593">
        <ele>1018.7</ele>
        <time>2022-06-14T14:05:09Z</time>
      </trkpt>
      <trkpt lat="46.46149" lon="5.96587">
        <ele>1018.6</ele>
        <time>2022-06-14T14:05:13Z</time>
      </trkpt>
      <trkpt lat="46.46149" lon="5.9658">
        <ele>1018.9</ele>
        <time>2022-06-14T14:05:18Z</time>
      </trkpt>
      <trkpt lat="46.46151" lon="5.96573">
        <ele>1019.3</ele>
        <time>2022-06-14T14:05:23Z</time>
      </trkpt>
      <trkpt lat="46.46154" lon="5.96566">
        <ele>1019.3</ele>
        <time>2022-06-14T14:05:29Z</time>
      </trkpt>
      <trkpt lat="46.46157" lon="5.9656">
        <ele>1018.7</ele>
        <time>2022-06-14T14:05:33Z</time>
      </trkpt>
      <trkpt lat="46.4616" lon="5.96554">
        <ele>1017.8</ele>
        <time>2022-06-14T14:05:38Z</time>
      </trkpt>
      <trkpt lat="46.46163" lon="5.96548">
        <ele>1016.8</ele>
        <time>2022-06-14T14:05:44Z</time>
      </trkpt>
      <trkpt lat="46.46165" lon="5.96542">
        <ele>1016.5</ele>
        <time>2022-06-14T14:05:49Z</time>
      </trkpt>
      <trkpt lat="46.46168" lon="5.96536">
        <ele>1016.3</ele>
        <time>2022-06-14T14:05:53Z</time>
      </trkpt>
      <trkpt lat="46.46171" lon="5.96531">
        <ele>1016.1</ele>
        <time>2022-06-14T14:05:57Z</time>
      </trkpt>
      <trkpt lat="46.46174" lon="5.96525">
        <ele>1016.3</ele>
        <time>2022-06-14T14:06:03Z</time>
      </trkpt>
      <trkpt lat="46.46176" lon="5.96519">
        <ele>1016.9</ele>
        <time>2022-06-14T14:06:11Z</time>
      </trkpt>
      <trkpt lat="46.46179" lon="5.96514">
        <ele>1016.1</ele>
        <time>2022-06-14T14:06:19Z</time>
      </trkpt>
      <trkpt lat="46.46183" lon="5.96509">
        <ele>1015.2</ele>
        <time>2022-06-14T14:06:25Z</time>
      </trkpt>
      <trkpt lat="46.46187" lon="5.96506">
        <ele>1014.5</ele>
        <time>2022-06-14T14:06:30Z</time>
      </trkpt>
      <trkpt lat="46.46191" lon="5.96502">
        <ele>1013.5</ele>
        <time>2022-06-14T14:06:36Z</time>
      </trkpt>
      <trkpt lat="46.46195" lon="5.96497">
        <ele>1012.6</ele>
        <time>2022-06-14T14:06:41Z</time>
      </trkpt>
      <trkpt lat="46.46199" lon="5.96494">
        <ele>1011.9</ele>
        <time>2022-06-14T14:06:45Z</time>
      </trkpt>
      <trkpt lat="46.46203" lon="5.96491">
        <ele>1011.4</ele>
        <time>2022-06-14T14:06:50Z</time>
      </trkpt>
      <trkpt lat="46.46208" lon="5.96489">
        <ele>1011.1</ele>
        <time>2022-06-14T14:06:55Z</time>
      </trkpt>
      <trkpt lat="46.46213" lon="5.96487">
        <ele>1010.8</ele>
        <time>2022-06-14T14:06:59Z</time>
      </trkpt>
      <trkpt lat="46.46217" lon="5.96485">
        <ele>1010.2</ele>
        <time>2022-06-14T14:07:04Z</time>
      </trkpt>
      <trkpt lat="46.46222" lon="5.96482">
        <ele>1009.3</ele>
        <time>2022-06-14T14:07:09Z</time>
      </trkpt>
      <trkpt lat="46.46226" lon="5.96479">
        <ele>1007.3</ele>
        <time>2022-06-14T14:07:16Z</time>
      </trkpt>
      <trkpt lat="46.46231" lon="5.96476">
        <ele>1005.9</ele>
        <time>2022-06-14T14:07:20Z</time>
      </trkpt>
      <trkpt lat="46.46235" lon="5.96472">
        <ele>1004.2</ele>
        <time>2022-06-14T14:07:25Z</time>
      </trkpt>
      <trkpt lat="46.46239" lon="5.96467">
        <ele>1003.4</ele>
        <time>2022-06-14T14:07:30Z</time>
      </trkpt>
      <trkpt lat="46.46241" lon="5.96461">
        <ele>1003.2</ele>
        <time>2022-06-14T14:07:36Z</time>
      </trkpt>
      <trkpt lat="46.46243" lon="5.96455">
        <ele>1003.4</ele>
        <time>2022-06-14T14:07:41Z</time>
      </trkpt>
      <trkpt lat="46.46244" lon="5.96448">
        <ele>1003.5</ele>
        <time>2022-06-14T14:07:47Z</time>
      </trkpt>
      <trkpt lat="46.46242" lon="5.96441">
        <ele>1003.5</ele>
        <time>2022-06-14T14:07:55Z</time>
      </trkpt>
      <trkpt lat="46.46238" lon="5.96436">
        <ele>1003</ele>
        <time>2022-06-14T14:08:00Z</time>
      </trkpt>
      <trkpt lat="46.46235" lon="5.9643">
        <ele>1002.1</ele>
        <time>2022-06-14T14:08:04Z</time>
      </trkpt>
      <trkpt lat="46.46233" lon="5.96424">
        <ele>1001</ele>
        <time>2022-06-14T14:08:09Z</time>
      </trkpt>
      <trkpt lat="46.46231" lon="5.96418">
        <ele>999.6</ele>
        <time>2022-06-14T14:08:14Z</time>
      </trkpt>
      <trkpt lat="46.46229" lon="5.96412">
        <ele>998.5</ele>
        <time>2022-06-14T14:08:20Z</time>
      </trkpt>
      <trkpt lat="46.46226" lon="5.96405">
        <ele>998</ele>
        <time>2022-06-14T14:08:25Z</time>
      </trkpt>
      <trkpt lat="46.46224" lon="5.96399">
        <ele>998.2</ele>
        <time>2022-06-14T14:08:29Z</time>
      </trkpt>
      <trkpt lat="46.46221" lon="5.96392">
        <ele>998.5</ele>
        <time>2022-06-14T14:08:33Z</time>
      </trkpt>
      <trkpt lat="46.46218" lon="5.96385">
        <ele>998.5</ele>
        <time>2022-06-14T14:08:38Z</time>
      </trkpt>
      <trkpt lat="46.46217" lon="5.96378">
        <ele>998.5</ele>
        <time>2022-06-14T14:08:43Z</time>
      </trkpt>
      <trkpt lat="46.46216" lon="5.9637">
        <ele>998.9</ele>
        <time>2022-06-14T14:08:48Z</time>
      </trkpt>
      <trkpt lat="46.46215" lon="5.96363">
        <ele>998.8</ele>
        <time>2022-06-14T14:08:53Z</time>
      </trkpt>
      <trkpt lat="46.46215" lon="5.96356">
        <ele>998.7</ele>
        <time>2022-06-14T14:08:57Z</time>
      </trkpt>
      <trkpt lat="46.46213" lon="5.9635">
        <ele>998.8</ele>
        <time>2022-06-14T14:09:01Z</time>
      </trkpt>
      <trkpt lat="46.46212" lon="5.96343">
        <ele>998.9</ele>
        <time>2022-06-14T14:09:06Z</time>
      </trkpt>
      <trkpt lat="46.46211" lon="5.96336">
        <ele>998.8</ele>
        <time>2022-06-14T14:09:11Z</time>
      </trkpt>
      <trkpt lat="46.4621" lon="5.9633">
        <ele>998.9</ele>
        <time>2022-06-14T14:09:16Z</time>
      </trkpt>
      <trkpt lat="46.46209" lon="5.96323">
        <ele>999.1</ele>
        <time>2022-06-14T14:09:22Z</time>
      </trkpt>
      <trkpt lat="46.46209" lon="5.96316">
        <ele>998.8</ele>
        <time>2022-06-14T14:09:26Z</time>
      </trkpt>
      <trkpt lat="46.46208" lon="5.96309">
        <ele>998.1</ele>
        <time>2022-06-14T14:09:31Z</time>
      </trkpt>
      <trkpt lat="46.46206" lon="5.96301">
        <ele>997.5</ele>
        <time>2022-06-14T14:09:36Z</time>
      </trkpt>
      <trkpt lat="46.46204" lon="5.96294">
        <ele>996.6</ele>
        <time>2022-06-14T14:09:41Z</time>
      </trkpt>
      <trkpt lat="46.46203" lon="5.96287">
        <ele>995.8</ele>
        <time>2022-06-14T14:09:46Z</time>
      </trkpt>
      <trkpt lat="46.462" lon="5.9628">
        <ele>994.8</ele>
        <time>2022-06-14T14:09:55Z</time>
      </trkpt>
      <trkpt lat="46.46198" lon="5.96274">
        <ele>994.1</ele>
        <time>2022-06-14T14:10:00Z</time>
      </trkpt>
      <trkpt lat="46.46195" lon="5.96268">
        <ele>993.5</ele>
        <time>2022-06-14T14:10:05Z</time>
      </trkpt>
      <trkpt lat="46.46191" lon="5.96263">
        <ele>993.2</ele>
        <time>2022-06-14T14:10:10Z</time>
      </trkpt>
      <trkpt lat="46.46188" lon="5.96258">
        <ele>992.9</ele>
        <time>2022-06-14T14:10:15Z</time>
      </trkpt>
      <trkpt lat="46.46185" lon="5.96252">
        <ele>992</ele>
        <time>2022-06-14T14:10:20Z</time>
      </trkpt>
      <trkpt lat="46.4618" lon="5.96247">
        <ele>991.1</ele>
        <time>2022-06-14T14:10:25Z</time>
      </trkpt>
      <trkpt lat="46.46176" lon="5.96242">
        <ele>990.6</ele>
        <time>2022-06-14T14:10:29Z</time>
      </trkpt>
      <trkpt lat="46.46173" lon="5.96237">
        <ele>990.4</ele>
        <time>2022-06-14T14:10:33Z</time>
      </trkpt>
      <trkpt lat="46.4617" lon="5.96231">
        <ele>990.5</ele>
        <time>2022-06-14T14:10:38Z</time>
      </trkpt>
      <trkpt lat="46.46168" lon="5.96223">
        <ele>990.7</ele>
        <time>2022-06-14T14:10:44Z</time>
      </trkpt>
      <trkpt lat="46.46166" lon="5.96218">
        <ele>991.5</ele>
        <time>2022-06-14T14:10:48Z</time>
      </trkpt>
      <trkpt lat="46.46165" lon="5.96211">
        <ele>993.8</ele>
        <time>2022-06-14T14:11:09Z</time>
      </trkpt>
      <trkpt lat="46.46164" lon="5.96204">
        <ele>993.9</ele>
        <time>2022-06-14T14:11:15Z</time>
      </trkpt>
      <trkpt lat="46.46162" lon="5.96198">
        <ele>993.6</ele>
        <time>2022-06-14T14:11:20Z</time>
      </trkpt>
      <trkpt lat="46.46161" lon="5.9619">
        <ele>993.2</ele>
        <time>2022-06-14T14:11:26Z</time>
      </trkpt>
      <trkpt lat="46.4616" lon="5.96183">
        <ele>992.6</ele>
        <time>2022-06-14T14:11:31Z</time>
      </trkpt>
      <trkpt lat="46.46159" lon="5.96177">
        <ele>992.4</ele>
        <time>2022-06-14T14:11:35Z</time>
      </trkpt>
      <trkpt lat="46.46158" lon="5.9617">
        <ele>992.2</ele>
        <time>2022-06-14T14:11:39Z</time>
      </trkpt>
      <trkpt lat="46.46158" lon="5.96163">
        <ele>991.9</ele>
        <time>2022-06-14T14:11:44Z</time>
      </trkpt>
      <trkpt lat="46.46157" lon="5.96155">
        <ele>991.4</ele>
        <time>2022-06-14T14:11:49Z</time>
      </trkpt>
      <trkpt lat="46.46155" lon="5.96148">
        <ele>991.2</ele>
        <time>2022-06-14T14:11:54Z</time>
      </trkpt>
      <trkpt lat="46.46154" lon="5.96141">
        <ele>990.8</ele>
        <time>2022-06-14T14:11:59Z</time>
      </trkpt>
      <trkpt lat="46.46154" lon="5.96134">
        <ele>990.1</ele>
        <time>2022-06-14T14:12:04Z</time>
      </trkpt>
      <trkpt lat="46.46152" lon="5.96127">
        <ele>989.7</ele>
        <time>2022-06-14T14:12:09Z</time>
      </trkpt>
      <trkpt lat="46.46149" lon="5.9612">
        <ele>989.4</ele>
        <time>2022-06-14T14:12:14Z</time>
      </trkpt>
      <trkpt lat="46.46147" lon="5.96112">
        <ele>989.1</ele>
        <time>2022-06-14T14:12:19Z</time>
      </trkpt>
      <trkpt lat="46.46146" lon="5.96105">
        <ele>989.4</ele>
        <time>2022-06-14T14:12:24Z</time>
      </trkpt>
      <trkpt lat="46.46144" lon="5.96098">
        <ele>989.7</ele>
        <time>2022-06-14T14:12:28Z</time>
      </trkpt>
      <trkpt lat="46.46143" lon="5.96092">
        <ele>989.9</ele>
        <time>2022-06-14T14:12:32Z</time>
      </trkpt>
      <trkpt lat="46.46143" lon="5.96084">
        <ele>989.8</ele>
        <time>2022-06-14T14:12:37Z</time>
      </trkpt>
      <trkpt lat="46.46143" lon="5.96077">
        <ele>989.3</ele>
        <time>2022-06-14T14:12:42Z</time>
      </trkpt>
      <trkpt lat="46.46145" lon="5.96071">
        <ele>988.6</ele>
        <time>2022-06-14T14:12:46Z</time>
      </trkpt>
      <trkpt lat="46.46147" lon="5.96065">
        <ele>988.1</ele>
        <time>2022-06-14T14:12:50Z</time>
      </trkpt>
      <trkpt lat="46.4615" lon="5.96059">
        <ele>987</ele>
        <time>2022-06-14T14:12:55Z</time>
      </trkpt>
      <trkpt lat="46.46153" lon="5.96053">
        <ele>986.2</ele>
        <time>2022-06-14T14:13:00Z</time>
      </trkpt>
      <trkpt lat="46.46156" lon="5.96047">
        <ele>985.3</ele>
        <time>2022-06-14T14:13:06Z</time>
      </trkpt>
      <trkpt lat="46.4616" lon="5.96042">
        <ele>984.6</ele>
        <time>2022-06-14T14:13:11Z</time>
      </trkpt>
      <trkpt lat="46.46163" lon="5.96035">
        <ele>984</ele>
        <time>2022-06-14T14:13:16Z</time>
      </trkpt>
      <trkpt lat="46.46166" lon="5.9603">
        <ele>984</ele>
        <time>2022-06-14T14:13:20Z</time>
      </trkpt>
      <trkpt lat="46.46169" lon="5.96024">
        <ele>984.2</ele>
        <time>2022-06-14T14:13:25Z</time>
      </trkpt>
      <trkpt lat="46.46172" lon="5.96018">
        <ele>984.1</ele>
        <time>2022-06-14T14:13:30Z</time>
      </trkpt>
      <trkpt lat="46.46175" lon="5.96011">
        <ele>983.5</ele>
        <time>2022-06-14T14:13:35Z</time>
      </trkpt>
      <trkpt lat="46.46178" lon="5.96005">
        <ele>983</ele>
        <time>2022-06-14T14:13:40Z</time>
      </trkpt>
      <trkpt lat="46.46182" lon="5.96">
        <ele>982.3</ele>
        <time>2022-06-14T14:13:45Z</time>
      </trkpt>
      <trkpt lat="46.46186" lon="5.95995">
        <ele>981.8</ele>
        <time>2022-06-14T14:13:50Z</time>
      </trkpt>
      <trkpt lat="46.46189" lon="5.95989">
        <ele>981.6</ele>
        <time>2022-06-14T14:13:55Z</time>
      </trkpt>
      <trkpt lat="46.46193" lon="5.95984">
        <ele>981.1</ele>
        <time>2022-06-14T14:14:00Z</time>
      </trkpt>
      <trkpt lat="46.46195" lon="5.95978">
        <ele>980.6</ele>
        <time>2022-06-14T14:14:04Z</time>
      </trkpt>
      <trkpt lat="46.46199" lon="5.95972">
        <ele>980.4</ele>
        <time>2022-06-14T14:14:08Z</time>
      </trkpt>
      <trkpt lat="46.46203" lon="5.95967">
        <ele>980.2</ele>
        <time>2022-06-14T14:14:14Z</time>
      </trkpt>
      <trkpt lat="46.46207" lon="5.95961">
        <ele>979.6</ele>
        <time>2022-06-14T14:14:20Z</time>
      </trkpt>
      <trkpt lat="46.4621" lon="5.95956">
        <ele>979.4</ele>
        <time>2022-06-14T14:14:24Z</time>
      </trkpt>
      <trkpt lat="46.46213" lon="5.9595">
        <ele>978.8</ele>
        <time>2022-06-14T14:14:29Z</time>
      </trkpt>
      <trkpt lat="46.46216" lon="5.95943">
        <ele>978.5</ele>
        <time>2022-06-14T14:14:34Z</time>
      </trkpt>
      <trkpt lat="46.46219" lon="5.95938">
        <ele>978.6</ele>
        <time>2022-06-14T14:14:38Z</time>
      </trkpt>
      <trkpt lat="46.46222" lon="5.95933">
        <ele>978.9</ele>
        <time>2022-06-14T14:14:42Z</time>
      </trkpt>
      <trkpt lat="46.46225" lon="5.95927">
        <ele>979.2</ele>
        <time>2022-06-14T14:14:47Z</time>
      </trkpt>
      <trkpt lat="46.46228" lon="5.95922">
        <ele>979.4</ele>
        <time>2022-06-14T14:14:51Z</time>
      </trkpt>
      <trkpt lat="46.46232" lon="5.95917">
        <ele>979.2</ele>
        <time>2022-06-14T14:14:56Z</time>
      </trkpt>
      <trkpt lat="46.46236" lon="5.95912">
        <ele>979</ele>
        <time>2022-06-14T14:15:00Z</time>
      </trkpt>
      <trkpt lat="46.46239" lon="5.95906">
        <ele>978.9</ele>
        <time>2022-06-14T14:15:04Z</time>
      </trkpt>
      <trkpt lat="46.4624" lon="5.959">
        <ele>978.8</ele>
        <time>2022-06-14T14:15:10Z</time>
      </trkpt>
      <trkpt lat="46.46243" lon="5.95893">
        <ele>978.8</ele>
        <time>2022-06-14T14:15:14Z</time>
      </trkpt>
      <trkpt lat="46.46247" lon="5.95887">
        <ele>978.5</ele>
        <time>2022-06-14T14:15:18Z</time>
      </trkpt>
      <trkpt lat="46.46249" lon="5.95881">
        <ele>978.2</ele>
        <time>2022-06-14T14:15:22Z</time>
      </trkpt>
      <trkpt lat="46.4625" lon="5.95874">
        <ele>978.4</ele>
        <time>2022-06-14T14:15:27Z</time>
      </trkpt>
      <trkpt lat="46.4625" lon="5.95867">
        <ele>978.6</ele>
        <time>2022-06-14T14:15:32Z</time>
      </trkpt>
      <trkpt lat="46.4625" lon="5.95859">
        <ele>978.6</ele>
        <time>2022-06-14T14:15:37Z</time>
      </trkpt>
      <trkpt lat="46.4625" lon="5.95852">
        <ele>978.7</ele>
        <time>2022-06-14T14:15:41Z</time>
      </trkpt>
      <trkpt lat="46.46251" lon="5.95845">
        <ele>978.9</ele>
        <time>2022-06-14T14:15:46Z</time>
      </trkpt>
      <trkpt lat="46.4625" lon="5.95839">
        <ele>979.4</ele>
        <time>2022-06-14T14:15:50Z</time>
      </trkpt>
      <trkpt lat="46.4625" lon="5.95832">
        <ele>979.7</ele>
        <time>2022-06-14T14:15:54Z</time>
      </trkpt>
      <trkpt lat="46.4625" lon="5.95825">
        <ele>979.9</ele>
        <time>2022-06-14T14:15:58Z</time>
      </trkpt>
      <trkpt lat="46.46251" lon="5.95818">
        <ele>980.1</ele>
        <time>2022-06-14T14:16:02Z</time>
      </trkpt>
      <trkpt lat="46.46252" lon="5.95812">
        <ele>980.6</ele>
        <time>2022-06-14T14:16:07Z</time>
      </trkpt>
      <trkpt lat="46.46253" lon="5.95805">
        <ele>980.8</ele>
        <time>2022-06-14T14:16:12Z</time>
      </trkpt>
      <trkpt lat="46.46254" lon="5.95799">
        <ele>981.1</ele>
        <time>2022-06-14T14:16:16Z</time>
      </trkpt>
      <trkpt lat="46.46255" lon="5.95792">
        <ele>981.4</ele>
        <time>2022-06-14T14:16:20Z</time>
      </trkpt>
      <trkpt lat="46.46258" lon="5.95785">
        <ele>981.4</ele>
        <time>2022-06-14T14:16:25Z</time>
      </trkpt>
      <trkpt lat="46.46259" lon="5.95778">
        <ele>981.2</ele>
        <time>2022-06-14T14:16:30Z</time>
      </trkpt>
      <trkpt lat="46.46261" lon="5.95772">
        <ele>980.6</ele>
        <time>2022-06-14T14:16:35Z</time>
      </trkpt>
      <trkpt lat="46.46263" lon="5.95765">
        <ele>979.8</ele>
        <time>2022-06-14T14:16:40Z</time>
      </trkpt>
      <trkpt lat="46.46265" lon="5.95759">
        <ele>979.5</ele>
        <time>2022-06-14T14:16:44Z</time>
      </trkpt>
      <trkpt lat="46.46268" lon="5.95751">
        <ele>979.4</ele>
        <time>2022-06-14T14:16:48Z</time>
      </trkpt>
      <trkpt lat="46.46269" lon="5.95745">
        <ele>979.6</ele>
        <time>2022-06-14T14:16:52Z</time>
      </trkpt>
      <trkpt lat="46.4627" lon="5.95738">
        <ele>979.9</ele>
        <time>2022-06-14T14:16:57Z</time>
      </trkpt>
      <trkpt lat="46.46272" lon="5.95732">
        <ele>980.1</ele>
        <time>2022-06-14T14:17:02Z</time>
      </trkpt>
      <trkpt lat="46.46274" lon="5.95724">
        <ele>979.7</ele>
        <time>2022-06-14T14:17:08Z</time>
      </trkpt>
      <trkpt lat="46.46276" lon="5.95717">
        <ele>979</ele>
        <time>2022-06-14T14:17:13Z</time>
      </trkpt>
      <trkpt lat="46.46277" lon="5.9571">
        <ele>978.3</ele>
        <time>2022-06-14T14:17:18Z</time>
      </trkpt>
      <trkpt lat="46.46277" lon="5.95703">
        <ele>977.7</ele>
        <time>2022-06-14T14:17:23Z</time>
      </trkpt>
      <trkpt lat="46.46277" lon="5.95696">
        <ele>977.2</ele>
        <time>2022-06-14T14:17:28Z</time>
      </trkpt>
      <trkpt lat="46.46278" lon="5.95689">
        <ele>976.5</ele>
        <time>2022-06-14T14:17:33Z</time>
      </trkpt>
      <trkpt lat="46.46279" lon="5.95682">
        <ele>975.9</ele>
        <time>2022-06-14T14:17:39Z</time>
      </trkpt>
      <trkpt lat="46.4628" lon="5.95675">
        <ele>975.8</ele>
        <time>2022-06-14T14:17:45Z</time>
      </trkpt>
      <trkpt lat="46.4628" lon="5.95668">
        <ele>975.7</ele>
        <time>2022-06-14T14:17:50Z</time>
      </trkpt>
      <trkpt lat="46.46281" lon="5.9566">
        <ele>975.6</ele>
        <time>2022-06-14T14:17:55Z</time>
      </trkpt>
      <trkpt lat="46.46282" lon="5.95654">
        <ele>975.2</ele>
        <time>2022-06-14T14:18:00Z</time>
      </trkpt>
      <trkpt lat="46.46283" lon="5.95647">
        <ele>974.5</ele>
        <time>2022-06-14T14:18:05Z</time>
      </trkpt>
      <trkpt lat="46.46283" lon="5.95639">
        <ele>974</ele>
        <time>2022-06-14T14:18:10Z</time>
      </trkpt>
      <trkpt lat="46.46284" lon="5.95631">
        <ele>973.8</ele>
        <time>2022-06-14T14:18:15Z</time>
      </trkpt>
      <trkpt lat="46.46285" lon="5.95625">
        <ele>974.1</ele>
        <time>2022-06-14T14:18:19Z</time>
      </trkpt>
      <trkpt lat="46.46286" lon="5.95618">
        <ele>974.7</ele>
        <time>2022-06-14T14:18:23Z</time>
      </trkpt>
      <trkpt lat="46.46288" lon="5.95611">
        <ele>975.3</ele>
        <time>2022-06-14T14:18:27Z</time>
      </trkpt>
      <trkpt lat="46.4629" lon="5.95605">
        <ele>975.6</ele>
        <time>2022-06-14T14:18:31Z</time>
      </trkpt>
      <trkpt lat="46.46291" lon="5.95598">
        <ele>976.2</ele>
        <time>2022-06-14T14:18:36Z</time>
      </trkpt>
      <trkpt lat="46.46294" lon="5.95591">
        <ele>976.7</ele>
        <time>2022-06-14T14:18:41Z</time>
      </trkpt>
      <trkpt lat="46.46296" lon="5.95584">
        <ele>977.2</ele>
        <time>2022-06-14T14:18:46Z</time>
      </trkpt>
      <trkpt lat="46.46298" lon="5.95577">
        <ele>977.6</ele>
        <time>2022-06-14T14:18:51Z</time>
      </trkpt>
      <trkpt lat="46.463" lon="5.95571">
        <ele>977.8</ele>
        <time>2022-06-14T14:18:55Z</time>
      </trkpt>
      <trkpt lat="46.46302" lon="5.95564">
        <ele>977.6</ele>
        <time>2022-06-14T14:19:00Z</time>
      </trkpt>
      <trkpt lat="46.46304" lon="5.95558">
        <ele>976.6</ele>
        <time>2022-06-14T14:19:05Z</time>
      </trkpt>
      <trkpt lat="46.46306" lon="5.95551">
        <ele>975.9</ele>
        <time>2022-06-14T14:19:10Z</time>
      </trkpt>
      <trkpt lat="46.46309" lon="5.95545">
        <ele>975.5</ele>
        <time>2022-06-14T14:19:14Z</time>
      </trkpt>
      <trkpt lat="46.46312" lon="5.95539">
        <ele>975.4</ele>
        <time>2022-06-14T14:19:19Z</time>
      </trkpt>
      <trkpt lat="46.46315" lon="5.95533">
        <ele>975.1</ele>
        <time>2022-06-14T14:19:24Z</time>
      </trkpt>
      <trkpt lat="46.46318" lon="5.95525">
        <ele>975.1</ele>
        <time>2022-06-14T14:19:29Z</time>
      </trkpt>
      <trkpt lat="46.4632" lon="5.95519">
        <ele>975.6</ele>
        <time>2022-06-14T14:19:33Z</time>
      </trkpt>
      <trkpt lat="46.46322" lon="5.95514">
        <ele>975.9</ele>
        <time>2022-06-14T14:19:39Z</time>
      </trkpt>
      <trkpt lat="46.46327" lon="5.95512">
        <ele>978.2</ele>
        <time>2022-06-14T14:19:48Z</time>
      </trkpt>
      <trkpt lat="46.4633" lon="5.95506">
        <ele>975.8</ele>
        <time>2022-06-14T14:22:26Z</time>
      </trkpt>
      <trkpt lat="46.4633" lon="5.95498">
        <ele>978.4</ele>
        <time>2022-06-14T14:22:49Z</time>
      </trkpt>
      <trkpt lat="46.46331" lon="5.95492">
        <ele>977.1</ele>
        <time>2022-06-14T14:22:54Z</time>
      </trkpt>
      <trkpt lat="46.46331" lon="5.95485">
        <ele>975.6</ele>
        <time>2022-06-14T14:22:59Z</time>
      </trkpt>
      <trkpt lat="46.46331" lon="5.95477">
        <ele>974.1</ele>
        <time>2022-06-14T14:23:04Z</time>
      </trkpt>
      <trkpt lat="46.46332" lon="5.9547">
        <ele>973.5</ele>
        <time>2022-06-14T14:23:09Z</time>
      </trkpt>
      <trkpt lat="46.46332" lon="5.95462">
        <ele>973.3</ele>
        <time>2022-06-14T14:23:14Z</time>
      </trkpt>
      <trkpt lat="46.46332" lon="5.95456">
        <ele>973.1</ele>
        <time>2022-06-14T14:23:18Z</time>
      </trkpt>
      <trkpt lat="46.46331" lon="5.95448">
        <ele>972.9</ele>
        <time>2022-06-14T14:23:23Z</time>
      </trkpt>
      <trkpt lat="46.46332" lon="5.95441">
        <ele>973.1</ele>
        <time>2022-06-14T14:23:28Z</time>
      </trkpt>
      <trkpt lat="46.46332" lon="5.95433">
        <ele>973.4</ele>
        <time>2022-06-14T14:23:33Z</time>
      </trkpt>
      <trkpt lat="46.46332" lon="5.95427">
        <ele>973.7</ele>
        <time>2022-06-14T14:23:37Z</time>
      </trkpt>
      <trkpt lat="46.46333" lon="5.9542">
        <ele>973.8</ele>
        <time>2022-06-14T14:23:41Z</time>
      </trkpt>
      <trkpt lat="46.46334" lon="5.95412">
        <ele>974.1</ele>
        <time>2022-06-14T14:23:46Z</time>
      </trkpt>
      <trkpt lat="46.46335" lon="5.95405">
        <ele>973.9</ele>
        <time>2022-06-14T14:23:51Z</time>
      </trkpt>
      <trkpt lat="46.46335" lon="5.95398">
        <ele>973.8</ele>
        <time>2022-06-14T14:23:56Z</time>
      </trkpt>
      <trkpt lat="46.46337" lon="5.95391">
        <ele>973.4</ele>
        <time>2022-06-14T14:24:01Z</time>
      </trkpt>
      <trkpt lat="46.46338" lon="5.95383">
        <ele>973.2</ele>
        <time>2022-06-14T14:24:06Z</time>
      </trkpt>
      <trkpt lat="46.46339" lon="5.95377">
        <ele>972.7</ele>
        <time>2022-06-14T14:24:11Z</time>
      </trkpt>
      <trkpt lat="46.46341" lon="5.95371">
        <ele>972.1</ele>
        <time>2022-06-14T14:24:16Z</time>
      </trkpt>
      <trkpt lat="46.46343" lon="5.95364">
        <ele>971.2</ele>
        <time>2022-06-14T14:24:22Z</time>
      </trkpt>
      <trkpt lat="46.46344" lon="5.95357">
        <ele>970.3</ele>
        <time>2022-06-14T14:24:28Z</time>
      </trkpt>
      <trkpt lat="46.46345" lon="5.95349">
        <ele>970.2</ele>
        <time>2022-06-14T14:24:34Z</time>
      </trkpt>
      <trkpt lat="46.46347" lon="5.95343">
        <ele>970.2</ele>
        <time>2022-06-14T14:24:38Z</time>
      </trkpt>
      <trkpt lat="46.4635" lon="5.95337">
        <ele>969.7</ele>
        <time>2022-06-14T14:24:42Z</time>
      </trkpt>
      <trkpt lat="46.46352" lon="5.95332">
        <ele>968.4</ele>
        <time>2022-06-14T14:24:46Z</time>
      </trkpt>
      <trkpt lat="46.46354" lon="5.95325">
        <ele>967.3</ele>
        <time>2022-06-14T14:24:50Z</time>
      </trkpt>
      <trkpt lat="46.46355" lon="5.95319">
        <ele>966.4</ele>
        <time>2022-06-14T14:24:54Z</time>
      </trkpt>
      <trkpt lat="46.46357" lon="5.95313">
        <ele>966.3</ele>
        <time>2022-06-14T14:24:59Z</time>
      </trkpt>
      <trkpt lat="46.46358" lon="5.95306">
        <ele>966.3</ele>
        <time>2022-06-14T14:25:05Z</time>
      </trkpt>
      <trkpt lat="46.46362" lon="5.95301">
        <ele>965.9</ele>
        <time>2022-06-14T14:25:10Z</time>
      </trkpt>
      <trkpt lat="46.46365" lon="5.95295">
        <ele>965.4</ele>
        <time>2022-06-14T14:25:15Z</time>
      </trkpt>
      <trkpt lat="46.46367" lon="5.95288">
        <ele>964.7</ele>
        <time>2022-06-14T14:25:20Z</time>
      </trkpt>
      <trkpt lat="46.46368" lon="5.95281">
        <ele>964</ele>
        <time>2022-06-14T14:25:24Z</time>
      </trkpt>
      <trkpt lat="46.46367" lon="5.95273">
        <ele>963.5</ele>
        <time>2022-06-14T14:25:29Z</time>
      </trkpt>
      <trkpt lat="46.46367" lon="5.95267">
        <ele>963.3</ele>
        <time>2022-06-14T14:25:34Z</time>
      </trkpt>
      <trkpt lat="46.46367" lon="5.9526">
        <ele>963.4</ele>
        <time>2022-06-14T14:25:38Z</time>
      </trkpt>
      <trkpt lat="46.46366" lon="5.95253">
        <ele>962.9</ele>
        <time>2022-06-14T14:25:43Z</time>
      </trkpt>
      <trkpt lat="46.46366" lon="5.95246">
        <ele>962.3</ele>
        <time>2022-06-14T14:25:48Z</time>
      </trkpt>
      <trkpt lat="46.46365" lon="5.95238">
        <ele>961.1</ele>
        <time>2022-06-14T14:25:53Z</time>
      </trkpt>
      <trkpt lat="46.46363" lon="5.95232">
        <ele>959.9</ele>
        <time>2022-06-14T14:25:57Z</time>
      </trkpt>
      <trkpt lat="46.46362" lon="5.95225">
        <ele>958.9</ele>
        <time>2022-06-14T14:26:01Z</time>
      </trkpt>
      <trkpt lat="46.4636" lon="5.95218">
        <ele>957.5</ele>
        <time>2022-06-14T14:26:06Z</time>
      </trkpt>
      <trkpt lat="46.4636" lon="5.95211">
        <ele>956.6</ele>
        <time>2022-06-14T14:26:11Z</time>
      </trkpt>
      <trkpt lat="46.4636" lon="5.95203">
        <ele>955.6</ele>
        <time>2022-06-14T14:26:16Z</time>
      </trkpt>
      <trkpt lat="46.46361" lon="5.95196">
        <ele>954.5</ele>
        <time>2022-06-14T14:26:21Z</time>
      </trkpt>
      <trkpt lat="46.46362" lon="5.95189">
        <ele>953.2</ele>
        <time>2022-06-14T14:26:26Z</time>
      </trkpt>
      <trkpt lat="46.46362" lon="5.95182">
        <ele>952.4</ele>
        <time>2022-06-14T14:26:31Z</time>
      </trkpt>
      <trkpt lat="46.46362" lon="5.95175">
        <ele>952.4</ele>
        <time>2022-06-14T14:26:37Z</time>
      </trkpt>
      <trkpt lat="46.46364" lon="5.95167">
        <ele>953.2</ele>
        <time>2022-06-14T14:26:42Z</time>
      </trkpt>
      <trkpt lat="46.46365" lon="5.95161">
        <ele>953.5</ele>
        <time>2022-06-14T14:26:47Z</time>
      </trkpt>
      <trkpt lat="46.46366" lon="5.95154">
        <ele>953.7</ele>
        <time>2022-06-14T14:26:52Z</time>
      </trkpt>
      <trkpt lat="46.46367" lon="5.95147">
        <ele>954</ele>
        <time>2022-06-14T14:26:56Z</time>
      </trkpt>
      <trkpt lat="46.4637" lon="5.95141">
        <ele>953.9</ele>
        <time>2022-06-14T14:27:00Z</time>
      </trkpt>
      <trkpt lat="46.46372" lon="5.95135">
        <ele>953.8</ele>
        <time>2022-06-14T14:27:03Z</time>
      </trkpt>
      <trkpt lat="46.46375" lon="5.95129">
        <ele>953.8</ele>
        <time>2022-06-14T14:27:07Z</time>
      </trkpt>
      <trkpt lat="46.46379" lon="5.95123">
        <ele>954.1</ele>
        <time>2022-06-14T14:27:11Z</time>
      </trkpt>
      <trkpt lat="46.46382" lon="5.95118">
        <ele>954.2</ele>
        <time>2022-06-14T14:27:15Z</time>
      </trkpt>
      <trkpt lat="46.46387" lon="5.95115">
        <ele>954.7</ele>
        <time>2022-06-14T14:27:19Z</time>
      </trkpt>
      <trkpt lat="46.46391" lon="5.95113">
        <ele>954.5</ele>
        <time>2022-06-14T14:27:23Z</time>
      </trkpt>
      <trkpt lat="46.46396" lon="5.95111">
        <ele>954.8</ele>
        <time>2022-06-14T14:27:28Z</time>
      </trkpt>
      <trkpt lat="46.464" lon="5.9511">
        <ele>955</ele>
        <time>2022-06-14T14:27:32Z</time>
      </trkpt>
      <trkpt lat="46.46405" lon="5.9511">
        <ele>955.1</ele>
        <time>2022-06-14T14:27:36Z</time>
      </trkpt>
      <trkpt lat="46.4641" lon="5.95108">
        <ele>954.5</ele>
        <time>2022-06-14T14:27:42Z</time>
      </trkpt>
      <trkpt lat="46.46414" lon="5.95104">
        <ele>954</ele>
        <time>2022-06-14T14:27:47Z</time>
      </trkpt>
      <trkpt lat="46.46416" lon="5.95098">
        <ele>953.7</ele>
        <time>2022-06-14T14:27:51Z</time>
      </trkpt>
      <trkpt lat="46.46417" lon="5.95092">
        <ele>953.9</ele>
        <time>2022-06-14T14:27:55Z</time>
      </trkpt>
      <trkpt lat="46.46417" lon="5.95085">
        <ele>954.4</ele>
        <time>2022-06-14T14:28:00Z</time>
      </trkpt>
      <trkpt lat="46.46417" lon="5.95078">
        <ele>954.5</ele>
        <time>2022-06-14T14:28:06Z</time>
      </trkpt>
      <trkpt lat="46.46417" lon="5.95071">
        <ele>953.9</ele>
        <time>2022-06-14T14:28:11Z</time>
      </trkpt>
      <trkpt lat="46.46417" lon="5.95064">
        <ele>953.4</ele>
        <time>2022-06-14T14:28:17Z</time>
      </trkpt>
      <trkpt lat="46.46419" lon="5.95056">
        <ele>953.8</ele>
        <time>2022-06-14T14:28:40Z</time>
      </trkpt>
      <trkpt lat="46.4642" lon="5.9505">
        <ele>953.7</ele>
        <time>2022-06-14T14:28:44Z</time>
      </trkpt>
      <trkpt lat="46.46423" lon="5.95044">
        <ele>953.9</ele>
        <time>2022-06-14T14:28:49Z</time>
      </trkpt>
      <trkpt lat="46.46426" lon="5.95039">
        <ele>953.8</ele>
        <time>2022-06-14T14:29:00Z</time>
      </trkpt>
      <trkpt lat="46.46431" lon="5.95036">
        <ele>954.1</ele>
        <time>2022-06-14T14:29:06Z</time>
      </trkpt>
      <trkpt lat="46.46435" lon="5.95032">
        <ele>953.9</ele>
        <time>2022-06-14T14:29:12Z</time>
      </trkpt>
      <trkpt lat="46.46439" lon="5.95027">
        <ele>953.7</ele>
        <time>2022-06-14T14:29:18Z</time>
      </trkpt>
      <trkpt lat="46.46442" lon="5.95022">
        <ele>953.4</ele>
        <time>2022-06-14T14:29:25Z</time>
      </trkpt>
      <trkpt lat="46.46444" lon="5.95016">
        <ele>951.4</ele>
        <time>2022-06-14T14:29:55Z</time>
      </trkpt>
      <trkpt lat="46.46446" lon="5.95009">
        <ele>950.5</ele>
        <time>2022-06-14T14:30:01Z</time>
      </trkpt>
      <trkpt lat="46.46448" lon="5.95003">
        <ele>949.8</ele>
        <time>2022-06-14T14:30:06Z</time>
      </trkpt>
      <trkpt lat="46.4645" lon="5.94997">
        <ele>948.6</ele>
        <time>2022-06-14T14:30:14Z</time>
      </trkpt>
      <trkpt lat="46.4645" lon="5.9499">
        <ele>946.6</ele>
        <time>2022-06-14T14:30:40Z</time>
      </trkpt>
      <trkpt lat="46.46453" lon="5.94983">
        <ele>945.5</ele>
        <time>2022-06-14T14:30:46Z</time>
      </trkpt>
      <trkpt lat="46.46453" lon="5.94976">
        <ele>944.8</ele>
        <time>2022-06-14T14:30:52Z</time>
      </trkpt>
      <trkpt lat="46.46454" lon="5.94968">
        <ele>944.5</ele>
        <time>2022-06-14T14:30:58Z</time>
      </trkpt>
      <trkpt lat="46.46453" lon="5.94961">
        <ele>944.3</ele>
        <time>2022-06-14T14:31:05Z</time>
      </trkpt>
      <trkpt lat="46.46452" lon="5.94954">
        <ele>943.8</ele>
        <time>2022-06-14T14:31:11Z</time>
      </trkpt>
      <trkpt lat="46.4645" lon="5.94947">
        <ele>942.4</ele>
        <time>2022-06-14T14:31:17Z</time>
      </trkpt>
      <trkpt lat="46.46449" lon="5.9494">
        <ele>941.1</ele>
        <time>2022-06-14T14:31:23Z</time>
      </trkpt>
      <trkpt lat="46.46448" lon="5.94932">
        <ele>939.2</ele>
        <time>2022-06-14T14:31:30Z</time>
      </trkpt>
      <trkpt lat="46.46449" lon="5.94925">
        <ele>937.9</ele>
        <time>2022-06-14T14:31:35Z</time>
      </trkpt>
      <trkpt lat="46.46449" lon="5.94917">
        <ele>937.3</ele>
        <time>2022-06-14T14:31:39Z</time>
      </trkpt>
      <trkpt lat="46.46449" lon="5.9491">
        <ele>936.8</ele>
        <time>2022-06-14T14:31:44Z</time>
      </trkpt>
      <trkpt lat="46.46451" lon="5.94903">
        <ele>935.7</ele>
        <time>2022-06-14T14:31:50Z</time>
      </trkpt>
      <trkpt lat="46.46453" lon="5.94896">
        <ele>934</ele>
        <time>2022-06-14T14:31:56Z</time>
      </trkpt>
      <trkpt lat="46.46455" lon="5.94889">
        <ele>932.6</ele>
        <time>2022-06-14T14:32:01Z</time>
      </trkpt>
      <trkpt lat="46.46458" lon="5.94883">
        <ele>932.1</ele>
        <time>2022-06-14T14:32:06Z</time>
      </trkpt>
      <trkpt lat="46.46462" lon="5.94877">
        <ele>932.2</ele>
        <time>2022-06-14T14:32:11Z</time>
      </trkpt>
      <trkpt lat="46.46464" lon="5.94871">
        <ele>932.2</ele>
        <time>2022-06-14T14:32:15Z</time>
      </trkpt>
      <trkpt lat="46.46466" lon="5.94863">
        <ele>932.2</ele>
        <time>2022-06-14T14:32:20Z</time>
      </trkpt>
      <trkpt lat="46.46468" lon="5.94857">
        <ele>932.1</ele>
        <time>2022-06-14T14:32:24Z</time>
      </trkpt>
      <trkpt lat="46.46471" lon="5.9485">
        <ele>931.7</ele>
        <time>2022-06-14T14:32:29Z</time>
      </trkpt>
      <trkpt lat="46.46472" lon="5.94843">
        <ele>931.7</ele>
        <time>2022-06-14T14:32:34Z</time>
      </trkpt>
      <trkpt lat="46.46475" lon="5.94838">
        <ele>931.9</ele>
        <time>2022-06-14T14:32:38Z</time>
      </trkpt>
      <trkpt lat="46.46478" lon="5.94831">
        <ele>932.1</ele>
        <time>2022-06-14T14:32:43Z</time>
      </trkpt>
      <trkpt lat="46.4648" lon="5.94825">
        <ele>932.2</ele>
        <time>2022-06-14T14:32:47Z</time>
      </trkpt>
      <trkpt lat="46.46483" lon="5.94819">
        <ele>931.6</ele>
        <time>2022-06-14T14:32:52Z</time>
      </trkpt>
      <trkpt lat="46.46486" lon="5.94812">
        <ele>929.6</ele>
        <time>2022-06-14T14:32:58Z</time>
      </trkpt>
      <trkpt lat="46.46487" lon="5.94804">
        <ele>928.5</ele>
        <time>2022-06-14T14:33:02Z</time>
      </trkpt>
      <trkpt lat="46.46488" lon="5.94797">
        <ele>927.2</ele>
        <time>2022-06-14T14:33:09Z</time>
      </trkpt>
      <trkpt lat="46.46489" lon="5.9479">
        <ele>926.2</ele>
        <time>2022-06-14T14:33:14Z</time>
      </trkpt>
      <trkpt lat="46.46489" lon="5.94782">
        <ele>926</ele>
        <time>2022-06-14T14:33:19Z</time>
      </trkpt>
      <trkpt lat="46.46488" lon="5.94775">
        <ele>926.2</ele>
        <time>2022-06-14T14:33:24Z</time>
      </trkpt>
      <trkpt lat="46.46489" lon="5.94768">
        <ele>925.9</ele>
        <time>2022-06-14T14:33:31Z</time>
      </trkpt>
      <trkpt lat="46.46487" lon="5.9476">
        <ele>925.5</ele>
        <time>2022-06-14T14:33:37Z</time>
      </trkpt>
      <trkpt lat="46.46485" lon="5.94754">
        <ele>925.5</ele>
        <time>2022-06-14T14:33:41Z</time>
      </trkpt>
      <trkpt lat="46.46484" lon="5.94748">
        <ele>925.8</ele>
        <time>2022-06-14T14:33:45Z</time>
      </trkpt>
      <trkpt lat="46.46483" lon="5.94741">
        <ele>926.2</ele>
        <time>2022-06-14T14:33:49Z</time>
      </trkpt>
      <trkpt lat="46.46481" lon="5.94733">
        <ele>926.7</ele>
        <time>2022-06-14T14:33:54Z</time>
      </trkpt>
      <trkpt lat="46.4648" lon="5.94727">
        <ele>926.8</ele>
        <time>2022-06-14T14:33:58Z</time>
      </trkpt>
      <trkpt lat="46.46479" lon="5.94721">
        <ele>927.1</ele>
        <time>2022-06-14T14:34:02Z</time>
      </trkpt>
      <trkpt lat="46.46477" lon="5.94713">
        <ele>927.9</ele>
        <time>2022-06-14T14:34:07Z</time>
      </trkpt>
      <trkpt lat="46.46476" lon="5.94705">
        <ele>928.5</ele>
        <time>2022-06-14T14:34:12Z</time>
      </trkpt>
      <trkpt lat="46.46476" lon="5.94698">
        <ele>929.2</ele>
        <time>2022-06-14T14:34:17Z</time>
      </trkpt>
      <trkpt lat="46.46475" lon="5.94691">
        <ele>930.1</ele>
        <time>2022-06-14T14:34:22Z</time>
      </trkpt>
      <trkpt lat="46.46473" lon="5.94683">
        <ele>931.4</ele>
        <time>2022-06-14T14:34:31Z</time>
      </trkpt>
      <trkpt lat="46.46472" lon="5.94676">
        <ele>931.2</ele>
        <time>2022-06-14T14:34:37Z</time>
      </trkpt>
      <trkpt lat="46.4647" lon="5.9467">
        <ele>930.9</ele>
        <time>2022-06-14T14:34:42Z</time>
      </trkpt>
      <trkpt lat="46.46468" lon="5.94663">
        <ele>930.7</ele>
        <time>2022-06-14T14:34:47Z</time>
      </trkpt>
      <trkpt lat="46.46466" lon="5.94658">
        <ele>930.3</ele>
        <time>2022-06-14T14:34:52Z</time>
      </trkpt>
      <trkpt lat="46.46463" lon="5.94652">
        <ele>930.1</ele>
        <time>2022-06-14T14:34:56Z</time>
      </trkpt>
      <trkpt lat="46.4646" lon="5.94645">
        <ele>929.9</ele>
        <time>2022-06-14T14:35:00Z</time>
      </trkpt>
      <trkpt lat="46.46458" lon="5.94639">
        <ele>929.8</ele>
        <time>2022-06-14T14:35:04Z</time>
      </trkpt>
      <trkpt lat="46.46456" lon="5.94633">
        <ele>930.2</ele>
        <time>2022-06-14T14:35:07Z</time>
      </trkpt>
      <trkpt lat="46.46453" lon="5.94627">
        <ele>931</ele>
        <time>2022-06-14T14:35:11Z</time>
      </trkpt>
      <trkpt lat="46.46451" lon="5.94621">
        <ele>931.3</ele>
        <time>2022-06-14T14:35:16Z</time>
      </trkpt>
      <trkpt lat="46.4645" lon="5.94614">
        <ele>931.7</ele>
        <time>2022-06-14T14:35:20Z</time>
      </trkpt>
      <trkpt lat="46.46448" lon="5.94608">
        <ele>932.5</ele>
        <time>2022-06-14T14:35:24Z</time>
      </trkpt>
      <trkpt lat="46.46445" lon="5.94601">
        <ele>933.8</ele>
        <time>2022-06-14T14:35:29Z</time>
      </trkpt>
      <trkpt lat="46.46443" lon="5.94594">
        <ele>934.9</ele>
        <time>2022-06-14T14:35:34Z</time>
      </trkpt>
      <trkpt lat="46.46443" lon="5.94587">
        <ele>935.9</ele>
        <time>2022-06-14T14:35:39Z</time>
      </trkpt>
      <trkpt lat="46.46445" lon="5.9458">
        <ele>936.2</ele>
        <time>2022-06-14T14:35:43Z</time>
      </trkpt>
      <trkpt lat="46.46446" lon="5.94574">
        <ele>936.2</ele>
        <time>2022-06-14T14:35:47Z</time>
      </trkpt>
      <trkpt lat="46.46447" lon="5.94566">
        <ele>936.1</ele>
        <time>2022-06-14T14:35:51Z</time>
      </trkpt>
      <trkpt lat="46.46449" lon="5.94559">
        <ele>935.8</ele>
        <time>2022-06-14T14:35:55Z</time>
      </trkpt>
      <trkpt lat="46.46451" lon="5.94552">
        <ele>935.1</ele>
        <time>2022-06-14T14:36:01Z</time>
      </trkpt>
      <trkpt lat="46.46452" lon="5.94545">
        <ele>933.5</ele>
        <time>2022-06-14T14:36:10Z</time>
      </trkpt>
      <trkpt lat="46.46455" lon="5.9454">
        <ele>932.7</ele>
        <time>2022-06-14T14:36:14Z</time>
      </trkpt>
      <trkpt lat="46.46456" lon="5.94533">
        <ele>932</ele>
        <time>2022-06-14T14:36:18Z</time>
      </trkpt>
      <trkpt lat="46.46458" lon="5.94525">
        <ele>931.5</ele>
        <time>2022-06-14T14:36:22Z</time>
      </trkpt>
      <trkpt lat="46.46461" lon="5.9452">
        <ele>930.8</ele>
        <time>2022-06-14T14:36:27Z</time>
      </trkpt>
      <trkpt lat="46.46462" lon="5.94512">
        <ele>929.9</ele>
        <time>2022-06-14T14:36:32Z</time>
      </trkpt>
      <trkpt lat="46.46465" lon="5.94506">
        <ele>928.6</ele>
        <time>2022-06-14T14:36:36Z</time>
      </trkpt>
      <trkpt lat="46.46466" lon="5.94499">
        <ele>927</ele>
        <time>2022-06-14T14:36:42Z</time>
      </trkpt>
      <trkpt lat="46.46467" lon="5.94492">
        <ele>926.1</ele>
        <time>2022-06-14T14:36:47Z</time>
      </trkpt>
      <trkpt lat="46.46468" lon="5.94486">
        <ele>925.2</ele>
        <time>2022-06-14T14:36:52Z</time>
      </trkpt>
      <trkpt lat="46.46469" lon="5.94479">
        <ele>924.4</ele>
        <time>2022-06-14T14:36:57Z</time>
      </trkpt>
      <trkpt lat="46.4647" lon="5.94472">
        <ele>923.5</ele>
        <time>2022-06-14T14:37:02Z</time>
      </trkpt>
      <trkpt lat="46.46471" lon="5.94463">
        <ele>923.2</ele>
        <time>2022-06-14T14:37:07Z</time>
      </trkpt>
      <trkpt lat="46.46472" lon="5.94457">
        <ele>924.2</ele>
        <time>2022-06-14T14:37:14Z</time>
      </trkpt>
      <trkpt lat="46.46472" lon="5.9445">
        <ele>924.9</ele>
        <time>2022-06-14T14:37:21Z</time>
      </trkpt>
      <trkpt lat="46.46473" lon="5.94443">
        <ele>925.1</ele>
        <time>2022-06-14T14:37:25Z</time>
      </trkpt>
      <trkpt lat="46.46474" lon="5.94436">
        <ele>925.1</ele>
        <time>2022-06-14T14:37:29Z</time>
      </trkpt>
      <trkpt lat="46.46475" lon="5.9443">
        <ele>925.5</ele>
        <time>2022-06-14T14:37:33Z</time>
      </trkpt>
      <trkpt lat="46.46476" lon="5.94423">
        <ele>926</ele>
        <time>2022-06-14T14:37:38Z</time>
      </trkpt>
      <trkpt lat="46.46479" lon="5.94417">
        <ele>925.4</ele>
        <time>2022-06-14T14:37:43Z</time>
      </trkpt>
      <trkpt lat="46.4648" lon="5.9441">
        <ele>924.5</ele>
        <time>2022-06-14T14:37:48Z</time>
      </trkpt>
      <trkpt lat="46.46481" lon="5.94403">
        <ele>923.8</ele>
        <time>2022-06-14T14:37:53Z</time>
      </trkpt>
      <trkpt lat="46.46482" lon="5.94396">
        <ele>923.1</ele>
        <time>2022-06-14T14:37:59Z</time>
      </trkpt>
      <trkpt lat="46.46484" lon="5.94389">
        <ele>922.3</ele>
        <time>2022-06-14T14:38:05Z</time>
      </trkpt>
      <trkpt lat="46.46484" lon="5.94382">
        <ele>921.5</ele>
        <time>2022-06-14T14:38:10Z</time>
      </trkpt>
      <trkpt lat="46.46484" lon="5.94375">
        <ele>920.9</ele>
        <time>2022-06-14T14:38:14Z</time>
      </trkpt>
      <trkpt lat="46.46484" lon="5.94368">
        <ele>920.5</ele>
        <time>2022-06-14T14:38:18Z</time>
      </trkpt>
      <trkpt lat="46.46484" lon="5.9436">
        <ele>920.4</ele>
        <time>2022-06-14T14:38:23Z</time>
      </trkpt>
      <trkpt lat="46.46485" lon="5.94353">
        <ele>921.1</ele>
        <time>2022-06-14T14:38:27Z</time>
      </trkpt>
      <trkpt lat="46.46486" lon="5.94346">
        <ele>921.7</ele>
        <time>2022-06-14T14:38:31Z</time>
      </trkpt>
      <trkpt lat="46.46486" lon="5.94338">
        <ele>921.7</ele>
        <time>2022-06-14T14:38:36Z</time>
      </trkpt>
      <trkpt lat="46.46487" lon="5.94331">
        <ele>921.8</ele>
        <time>2022-06-14T14:38:41Z</time>
      </trkpt>
      <trkpt lat="46.46487" lon="5.94323">
        <ele>921.5</ele>
        <time>2022-06-14T14:38:46Z</time>
      </trkpt>
      <trkpt lat="46.46488" lon="5.94316">
        <ele>920.2</ele>
        <time>2022-06-14T14:38:51Z</time>
      </trkpt>
      <trkpt lat="46.46487" lon="5.94309">
        <ele>920</ele>
        <time>2022-06-14T14:38:55Z</time>
      </trkpt>
      <trkpt lat="46.46488" lon="5.94302">
        <ele>919.9</ele>
        <time>2022-06-14T14:38:59Z</time>
      </trkpt>
      <trkpt lat="46.46488" lon="5.94295">
        <ele>919.6</ele>
        <time>2022-06-14T14:39:04Z</time>
      </trkpt>
      <trkpt lat="46.46488" lon="5.94288">
        <ele>919.3</ele>
        <time>2022-06-14T14:39:09Z</time>
      </trkpt>
      <trkpt lat="46.46488" lon="5.94281">
        <ele>918.4</ele>
        <time>2022-06-14T14:39:14Z</time>
      </trkpt>
      <trkpt lat="46.46488" lon="5.94273">
        <ele>918.4</ele>
        <time>2022-06-14T14:39:19Z</time>
      </trkpt>
      <trkpt lat="46.46489" lon="5.94266">
        <ele>919.2</ele>
        <time>2022-06-14T14:39:24Z</time>
      </trkpt>
      <trkpt lat="46.46489" lon="5.94258">
        <ele>919.8</ele>
        <time>2022-06-14T14:39:29Z</time>
      </trkpt>
      <trkpt lat="46.46488" lon="5.94252">
        <ele>920.4</ele>
        <time>2022-06-14T14:39:33Z</time>
      </trkpt>
      <trkpt lat="46.46487" lon="5.94244">
        <ele>920.6</ele>
        <time>2022-06-14T14:39:38Z</time>
      </trkpt>
      <trkpt lat="46.46486" lon="5.94237">
        <ele>920.1</ele>
        <time>2022-06-14T14:39:43Z</time>
      </trkpt>
      <trkpt lat="46.46485" lon="5.9423">
        <ele>919.7</ele>
        <time>2022-06-14T14:39:48Z</time>
      </trkpt>
      <trkpt lat="46.46483" lon="5.94223">
        <ele>920.1</ele>
        <time>2022-06-14T14:39:52Z</time>
      </trkpt>
      <trkpt lat="46.46481" lon="5.94216">
        <ele>920.5</ele>
        <time>2022-06-14T14:39:57Z</time>
      </trkpt>
      <trkpt lat="46.4648" lon="5.94209">
        <ele>921.1</ele>
        <time>2022-06-14T14:40:01Z</time>
      </trkpt>
      <trkpt lat="46.46478" lon="5.94201">
        <ele>921.8</ele>
        <time>2022-06-14T14:40:05Z</time>
      </trkpt>
      <trkpt lat="46.46477" lon="5.94193">
        <ele>922.4</ele>
        <time>2022-06-14T14:40:09Z</time>
      </trkpt>
      <trkpt lat="46.46475" lon="5.94187">
        <ele>923</ele>
        <time>2022-06-14T14:40:14Z</time>
      </trkpt>
      <trkpt lat="46.46473" lon="5.94181">
        <ele>923.6</ele>
        <time>2022-06-14T14:40:19Z</time>
      </trkpt>
      <trkpt lat="46.46471" lon="5.94174">
        <ele>924</ele>
        <time>2022-06-14T14:40:24Z</time>
      </trkpt>
      <trkpt lat="46.46469" lon="5.94168">
        <ele>924.1</ele>
        <time>2022-06-14T14:40:29Z</time>
      </trkpt>
      <trkpt lat="46.46467" lon="5.9416">
        <ele>924.2</ele>
        <time>2022-06-14T14:40:34Z</time>
      </trkpt>
      <trkpt lat="46.46465" lon="5.94153">
        <ele>924.3</ele>
        <time>2022-06-14T14:40:39Z</time>
      </trkpt>
      <trkpt lat="46.46463" lon="5.94145">
        <ele>924.5</ele>
        <time>2022-06-14T14:40:44Z</time>
      </trkpt>
      <trkpt lat="46.46462" lon="5.94138">
        <ele>924.9</ele>
        <time>2022-06-14T14:40:49Z</time>
      </trkpt>
      <trkpt lat="46.4646" lon="5.9413">
        <ele>925.1</ele>
        <time>2022-06-14T14:40:55Z</time>
      </trkpt>
      <trkpt lat="46.46458" lon="5.94122">
        <ele>925.2</ele>
        <time>2022-06-14T14:40:59Z</time>
      </trkpt>
      <trkpt lat="46.46457" lon="5.94115">
        <ele>924.9</ele>
        <time>2022-06-14T14:41:04Z</time>
      </trkpt>
      <trkpt lat="46.46455" lon="5.94108">
        <ele>924.6</ele>
        <time>2022-06-14T14:41:09Z</time>
      </trkpt>
      <trkpt lat="46.46453" lon="5.94101">
        <ele>924.1</ele>
        <time>2022-06-14T14:41:15Z</time>
      </trkpt>
      <trkpt lat="46.46451" lon="5.94094">
        <ele>923.8</ele>
        <time>2022-06-14T14:41:21Z</time>
      </trkpt>
      <trkpt lat="46.4645" lon="5.94086">
        <ele>922.9</ele>
        <time>2022-06-14T14:41:27Z</time>
      </trkpt>
      <trkpt lat="46.46449" lon="5.9408">
        <ele>922.5</ele>
        <time>2022-06-14T14:41:31Z</time>
      </trkpt>
      <trkpt lat="46.46448" lon="5.94073">
        <ele>922</ele>
        <time>2022-06-14T14:41:35Z</time>
      </trkpt>
      <trkpt lat="46.46446" lon="5.94067">
        <ele>921.4</ele>
        <time>2022-06-14T14:41:39Z</time>
      </trkpt>
      <trkpt lat="46.46443" lon="5.9406">
        <ele>920.3</ele>
        <time>2022-06-14T14:41:45Z</time>
      </trkpt>
      <trkpt lat="46.46442" lon="5.94053">
        <ele>919.3</ele>
        <time>2022-06-14T14:41:51Z</time>
      </trkpt>
      <trkpt lat="46.46441" lon="5.94046">
        <ele>918.6</ele>
        <time>2022-06-14T14:41:56Z</time>
      </trkpt>
      <trkpt lat="46.46439" lon="5.94039">
        <ele>917.8</ele>
        <time>2022-06-14T14:42:00Z</time>
      </trkpt>
      <trkpt lat="46.46437" lon="5.94033">
        <ele>917.6</ele>
        <time>2022-06-14T14:42:05Z</time>
      </trkpt>
      <trkpt lat="46.46435" lon="5.94026">
        <ele>917.7</ele>
        <time>2022-06-14T14:42:09Z</time>
      </trkpt>
      <trkpt lat="46.46433" lon="5.94019">
        <ele>917.9</ele>
        <time>2022-06-14T14:42:13Z</time>
      </trkpt>
      <trkpt lat="46.46431" lon="5.94013">
        <ele>918.3</ele>
        <time>2022-06-14T14:42:17Z</time>
      </trkpt>
      <trkpt lat="46.46429" lon="5.94007">
        <ele>918.6</ele>
        <time>2022-06-14T14:42:22Z</time>
      </trkpt>
      <trkpt lat="46.46428" lon="5.93999">
        <ele>918.7</ele>
        <time>2022-06-14T14:42:28Z</time>
      </trkpt>
      <trkpt lat="46.46426" lon="5.93991">
        <ele>919.2</ele>
        <time>2022-06-14T14:42:32Z</time>
      </trkpt>
      <trkpt lat="46.46425" lon="5.93985">
        <ele>919.8</ele>
        <time>2022-06-14T14:42:36Z</time>
      </trkpt>
      <trkpt lat="46.46423" lon="5.93978">
        <ele>920.2</ele>
        <time>2022-06-14T14:42:41Z</time>
      </trkpt>
      <trkpt lat="46.46422" lon="5.93971">
        <ele>919.9</ele>
        <time>2022-06-14T14:42:47Z</time>
      </trkpt>
      <trkpt lat="46.4642" lon="5.93965">
        <ele>919.5</ele>
        <time>2022-06-14T14:42:52Z</time>
      </trkpt>
      <trkpt lat="46.46418" lon="5.93958">
        <ele>919</ele>
        <time>2022-06-14T14:42:58Z</time>
      </trkpt>
      <trkpt lat="46.46416" lon="5.93952">
        <ele>918.3</ele>
        <time>2022-06-14T14:43:02Z</time>
      </trkpt>
      <trkpt lat="46.46415" lon="5.93945">
        <ele>917.5</ele>
        <time>2022-06-14T14:43:06Z</time>
      </trkpt>
      <trkpt lat="46.46413" lon="5.93938">
        <ele>916.8</ele>
        <time>2022-06-14T14:43:10Z</time>
      </trkpt>
      <trkpt lat="46.46411" lon="5.93932">
        <ele>916.4</ele>
        <time>2022-06-14T14:43:14Z</time>
      </trkpt>
      <trkpt lat="46.4641" lon="5.93925">
        <ele>916.5</ele>
        <time>2022-06-14T14:43:18Z</time>
      </trkpt>
      <trkpt lat="46.46408" lon="5.93918">
        <ele>917</ele>
        <time>2022-06-14T14:43:22Z</time>
      </trkpt>
      <trkpt lat="46.46404" lon="5.93913">
        <ele>917.6</ele>
        <time>2022-06-14T14:43:26Z</time>
      </trkpt>
      <trkpt lat="46.46403" lon="5.93906">
        <ele>918.3</ele>
        <time>2022-06-14T14:43:31Z</time>
      </trkpt>
      <trkpt lat="46.46401" lon="5.93898">
        <ele>918.7</ele>
        <time>2022-06-14T14:43:36Z</time>
      </trkpt>
      <trkpt lat="46.46399" lon="5.93891">
        <ele>918.3</ele>
        <time>2022-06-14T14:43:41Z</time>
      </trkpt>
      <trkpt lat="46.46397" lon="5.93885">
        <ele>918.3</ele>
        <time>2022-06-14T14:43:45Z</time>
      </trkpt>
      <trkpt lat="46.46396" lon="5.93877">
        <ele>917.6</ele>
        <time>2022-06-14T14:43:51Z</time>
      </trkpt>
      <trkpt lat="46.46395" lon="5.9387">
        <ele>916.8</ele>
        <time>2022-06-14T14:43:56Z</time>
      </trkpt>
      <trkpt lat="46.46392" lon="5.93864">
        <ele>916.5</ele>
        <time>2022-06-14T14:44:00Z</time>
      </trkpt>
      <trkpt lat="46.46391" lon="5.93858">
        <ele>916.3</ele>
        <time>2022-06-14T14:44:04Z</time>
      </trkpt>
      <trkpt lat="46.46389" lon="5.93851">
        <ele>916.2</ele>
        <time>2022-06-14T14:44:09Z</time>
      </trkpt>
      <trkpt lat="46.46387" lon="5.93844">
        <ele>916.1</ele>
        <time>2022-06-14T14:44:14Z</time>
      </trkpt>
      <trkpt lat="46.46386" lon="5.93837">
        <ele>915.8</ele>
        <time>2022-06-14T14:44:19Z</time>
      </trkpt>
      <trkpt lat="46.46385" lon="5.93828">
        <ele>915.4</ele>
        <time>2022-06-14T14:44:24Z</time>
      </trkpt>
      <trkpt lat="46.46387" lon="5.93822">
        <ele>914.7</ele>
        <time>2022-06-14T14:44:28Z</time>
      </trkpt>
      <trkpt lat="46.46386" lon="5.93815">
        <ele>914.5</ele>
        <time>2022-06-14T14:44:33Z</time>
      </trkpt>
      <trkpt lat="46.46384" lon="5.93808">
        <ele>914.9</ele>
        <time>2022-06-14T14:44:38Z</time>
      </trkpt>
      <trkpt lat="46.46382" lon="5.93801">
        <ele>914.8</ele>
        <time>2022-06-14T14:44:44Z</time>
      </trkpt>
      <trkpt lat="46.4638" lon="5.93794">
        <ele>915.1</ele>
        <time>2022-06-14T14:44:49Z</time>
      </trkpt>
      <trkpt lat="46.4638" lon="5.93788">
        <ele>914.9</ele>
        <time>2022-06-14T14:44:54Z</time>
      </trkpt>
      <trkpt lat="46.46381" lon="5.93781">
        <ele>914.7</ele>
        <time>2022-06-14T14:44:58Z</time>
      </trkpt>
      <trkpt lat="46.46381" lon="5.93774">
        <ele>914.5</ele>
        <time>2022-06-14T14:45:02Z</time>
      </trkpt>
      <trkpt lat="46.4638" lon="5.93767">
        <ele>914.3</ele>
        <time>2022-06-14T14:45:06Z</time>
      </trkpt>
      <trkpt lat="46.46378" lon="5.93761">
        <ele>914</ele>
        <time>2022-06-14T14:45:10Z</time>
      </trkpt>
      <trkpt lat="46.46377" lon="5.93755">
        <ele>913.8</ele>
        <time>2022-06-14T14:45:14Z</time>
      </trkpt>
      <trkpt lat="46.46375" lon="5.93749">
        <ele>913.5</ele>
        <time>2022-06-14T14:45:18Z</time>
      </trkpt>
      <trkpt lat="46.46373" lon="5.93743">
        <ele>913.4</ele>
        <time>2022-06-14T14:45:22Z</time>
      </trkpt>
      <trkpt lat="46.46371" lon="5.93735">
        <ele>913.5</ele>
        <time>2022-06-14T14:45:26Z</time>
      </trkpt>
      <trkpt lat="46.4637" lon="5.93728">
        <ele>913.8</ele>
        <time>2022-06-14T14:45:30Z</time>
      </trkpt>
      <trkpt lat="46.46369" lon="5.93721">
        <ele>914.3</ele>
        <time>2022-06-14T14:45:35Z</time>
      </trkpt>
      <trkpt lat="46.46366" lon="5.93715">
        <ele>914.6</ele>
        <time>2022-06-14T14:45:40Z</time>
      </trkpt>
      <trkpt lat="46.46364" lon="5.9371">
        <ele>914.6</ele>
        <time>2022-06-14T14:45:45Z</time>
      </trkpt>
      <trkpt lat="46.46363" lon="5.93702">
        <ele>914</ele>
        <time>2022-06-14T14:45:50Z</time>
      </trkpt>
      <trkpt lat="46.46361" lon="5.93695">
        <ele>913</ele>
        <time>2022-06-14T14:45:55Z</time>
      </trkpt>
      <trkpt lat="46.46359" lon="5.93687">
        <ele>912.4</ele>
        <time>2022-06-14T14:46:00Z</time>
      </trkpt>
      <trkpt lat="46.46356" lon="5.93682">
        <ele>911.8</ele>
        <time>2022-06-14T14:46:05Z</time>
      </trkpt>
      <trkpt lat="46.46353" lon="5.93675">
        <ele>911.1</ele>
        <time>2022-06-14T14:46:11Z</time>
      </trkpt>
      <trkpt lat="46.4635" lon="5.93669">
        <ele>910.4</ele>
        <time>2022-06-14T14:46:16Z</time>
      </trkpt>
      <trkpt lat="46.46347" lon="5.93663">
        <ele>909.9</ele>
        <time>2022-06-14T14:46:21Z</time>
      </trkpt>
      <trkpt lat="46.46343" lon="5.93657">
        <ele>909.1</ele>
        <time>2022-06-14T14:46:26Z</time>
      </trkpt>
      <trkpt lat="46.46339" lon="5.93652">
        <ele>907.8</ele>
        <time>2022-06-14T14:46:32Z</time>
      </trkpt>
      <trkpt lat="46.46337" lon="5.93645">
        <ele>907.1</ele>
        <time>2022-06-14T14:46:38Z</time>
      </trkpt>
      <trkpt lat="46.46334" lon="5.9364">
        <ele>907.1</ele>
        <time>2022-06-14T14:46:44Z</time>
      </trkpt>
      <trkpt lat="46.46331" lon="5.93634">
        <ele>906.8</ele>
        <time>2022-06-14T14:46:49Z</time>
      </trkpt>
      <trkpt lat="46.46326" lon="5.93631">
        <ele>906.6</ele>
        <time>2022-06-14T14:46:54Z</time>
      </trkpt>
      <trkpt lat="46.46322" lon="5.93625">
        <ele>906.9</ele>
        <time>2022-06-14T14:46:59Z</time>
      </trkpt>
      <trkpt lat="46.46319" lon="5.93619">
        <ele>906.9</ele>
        <time>2022-06-14T14:47:04Z</time>
      </trkpt>
      <trkpt lat="46.46315" lon="5.93615">
        <ele>906.6</ele>
        <time>2022-06-14T14:47:08Z</time>
      </trkpt>
      <trkpt lat="46.46311" lon="5.93611">
        <ele>906.1</ele>
        <time>2022-06-14T14:47:13Z</time>
      </trkpt>
      <trkpt lat="46.46307" lon="5.93608">
        <ele>905.7</ele>
        <time>2022-06-14T14:47:18Z</time>
      </trkpt>
      <trkpt lat="46.46305" lon="5.93602">
        <ele>905.3</ele>
        <time>2022-06-14T14:47:23Z</time>
      </trkpt>
      <trkpt lat="46.46303" lon="5.93595">
        <ele>905.3</ele>
        <time>2022-06-14T14:47:27Z</time>
      </trkpt>
      <trkpt lat="46.463" lon="5.93589">
        <ele>905.8</ele>
        <time>2022-06-14T14:47:31Z</time>
      </trkpt>
      <trkpt lat="46.46296" lon="5.93584">
        <ele>906.3</ele>
        <time>2022-06-14T14:47:35Z</time>
      </trkpt>
      <trkpt lat="46.46293" lon="5.93578">
        <ele>905.8</ele>
        <time>2022-06-14T14:47:41Z</time>
      </trkpt>
      <trkpt lat="46.46291" lon="5.93572">
        <ele>905.3</ele>
        <time>2022-06-14T14:47:45Z</time>
      </trkpt>
      <trkpt lat="46.46289" lon="5.93565">
        <ele>904.8</ele>
        <time>2022-06-14T14:47:49Z</time>
      </trkpt>
      <trkpt lat="46.46287" lon="5.93558">
        <ele>904.4</ele>
        <time>2022-06-14T14:47:54Z</time>
      </trkpt>
      <trkpt lat="46.46285" lon="5.93551">
        <ele>904.4</ele>
        <time>2022-06-14T14:48:00Z</time>
      </trkpt>
      <trkpt lat="46.46282" lon="5.93545">
        <ele>904.2</ele>
        <time>2022-06-14T14:48:06Z</time>
      </trkpt>
      <trkpt lat="46.4628" lon="5.93538">
        <ele>903.7</ele>
        <time>2022-06-14T14:48:11Z</time>
      </trkpt>
      <trkpt lat="46.46278" lon="5.93531">
        <ele>903</ele>
        <time>2022-06-14T14:48:16Z</time>
      </trkpt>
      <trkpt lat="46.46276" lon="5.93525">
        <ele>902</ele>
        <time>2022-06-14T14:48:21Z</time>
      </trkpt>
      <trkpt lat="46.46274" lon="5.93519">
        <ele>901.2</ele>
        <time>2022-06-14T14:48:26Z</time>
      </trkpt>
      <trkpt lat="46.46271" lon="5.93513">
        <ele>900.8</ele>
        <time>2022-06-14T14:48:31Z</time>
      </trkpt>
      <trkpt lat="46.46268" lon="5.93507">
        <ele>900.3</ele>
        <time>2022-06-14T14:48:36Z</time>
      </trkpt>
      <trkpt lat="46.46265" lon="5.93501">
        <ele>899.6</ele>
        <time>2022-06-14T14:48:46Z</time>
      </trkpt>
      <trkpt lat="46.46262" lon="5.93495">
        <ele>899.1</ele>
        <time>2022-06-14T14:48:50Z</time>
      </trkpt>
      <trkpt lat="46.4626" lon="5.93489">
        <ele>898.8</ele>
        <time>2022-06-14T14:48:54Z</time>
      </trkpt>
      <trkpt lat="46.46257" lon="5.93483">
        <ele>899.5</ele>
        <time>2022-06-14T14:48:58Z</time>
      </trkpt>
      <trkpt lat="46.46254" lon="5.93476">
        <ele>902.1</ele>
        <time>2022-06-14T14:49:04Z</time>
      </trkpt>
      <trkpt lat="46.4625" lon="5.93471">
        <ele>904.7</ele>
        <time>2022-06-14T14:49:09Z</time>
      </trkpt>
      <trkpt lat="46.46246" lon="5.93467">
        <ele>906.4</ele>
        <time>2022-06-14T14:49:13Z</time>
      </trkpt>
      <trkpt lat="46.46242" lon="5.93463">
        <ele>907.7</ele>
        <time>2022-06-14T14:49:17Z</time>
      </trkpt>
      <trkpt lat="46.46239" lon="5.93457">
        <ele>908.9</ele>
        <time>2022-06-14T14:49:21Z</time>
      </trkpt>
      <trkpt lat="46.46236" lon="5.9345">
        <ele>910</ele>
        <time>2022-06-14T14:49:24Z</time>
      </trkpt>
      <trkpt lat="46.46234" lon="5.93443">
        <ele>911.3</ele>
        <time>2022-06-14T14:49:28Z</time>
      </trkpt>
      <trkpt lat="46.46232" lon="5.93436">
        <ele>911</ele>
        <time>2022-06-14T14:49:34Z</time>
      </trkpt>
      <trkpt lat="46.46229" lon="5.9343">
        <ele>909.9</ele>
        <time>2022-06-14T14:49:39Z</time>
      </trkpt>
      <trkpt lat="46.46226" lon="5.93424">
        <ele>908.7</ele>
        <time>2022-06-14T14:49:43Z</time>
      </trkpt>
      <trkpt lat="46.46223" lon="5.93418">
        <ele>907.5</ele>
        <time>2022-06-14T14:49:48Z</time>
      </trkpt>
      <trkpt lat="46.46221" lon="5.93412">
        <ele>906.3</ele>
        <time>2022-06-14T14:49:53Z</time>
      </trkpt>
      <trkpt lat="46.46219" lon="5.93404">
        <ele>905.5</ele>
        <time>2022-06-14T14:49:58Z</time>
      </trkpt>
      <trkpt lat="46.46217" lon="5.93398">
        <ele>905.3</ele>
        <time>2022-06-14T14:50:03Z</time>
      </trkpt>
      <trkpt lat="46.46213" lon="5.93393">
        <ele>905.1</ele>
        <time>2022-06-14T14:50:09Z</time>
      </trkpt>
      <trkpt lat="46.4621" lon="5.93388">
        <ele>904.6</ele>
        <time>2022-06-14T14:50:14Z</time>
      </trkpt>
      <trkpt lat="46.46206" lon="5.93385">
        <ele>904.3</ele>
        <time>2022-06-14T14:50:18Z</time>
      </trkpt>
      <trkpt lat="46.46204" lon="5.93378">
        <ele>903.2</ele>
        <time>2022-06-14T14:50:22Z</time>
      </trkpt>
      <trkpt lat="46.46203" lon="5.9337">
        <ele>901.9</ele>
        <time>2022-06-14T14:50:26Z</time>
      </trkpt>
      <trkpt lat="46.46202" lon="5.93362">
        <ele>900.7</ele>
        <time>2022-06-14T14:50:31Z</time>
      </trkpt>
      <trkpt lat="46.462" lon="5.93356">
        <ele>899.8</ele>
        <time>2022-06-14T14:50:35Z</time>
      </trkpt>
      <trkpt lat="46.46196" lon="5.9335">
        <ele>899.8</ele>
        <time>2022-06-14T14:50:39Z</time>
      </trkpt>
      <trkpt lat="46.46193" lon="5.93346">
        <ele>900.6</ele>
        <time>2022-06-14T14:50:42Z</time>
      </trkpt>
      <trkpt lat="46.46188" lon="5.93341">
        <ele>902.2</ele>
        <time>2022-06-14T14:50:46Z</time>
      </trkpt>
      <trkpt lat="46.46185" lon="5.93336">
        <ele>903.9</ele>
        <time>2022-06-14T14:50:50Z</time>
      </trkpt>
      <trkpt lat="46.46182" lon="5.9333">
        <ele>905.7</ele>
        <time>2022-06-14T14:50:55Z</time>
      </trkpt>
      <trkpt lat="46.46179" lon="5.93324">
        <ele>906.8</ele>
        <time>2022-06-14T14:51:00Z</time>
      </trkpt>
      <trkpt lat="46.46179" lon="5.93317">
        <ele>907.7</ele>
        <time>2022-06-14T14:51:05Z</time>
      </trkpt>
      <trkpt lat="46.46177" lon="5.9331">
        <ele>907.4</ele>
        <time>2022-06-14T14:51:12Z</time>
      </trkpt>
      <trkpt lat="46.46174" lon="5.93304">
        <ele>906.5</ele>
        <time>2022-06-14T14:51:18Z</time>
      </trkpt>
      <trkpt lat="46.46172" lon="5.93297">
        <ele>906.2</ele>
        <time>2022-06-14T14:51:22Z</time>
      </trkpt>
      <trkpt lat="46.46171" lon="5.9329">
        <ele>906</ele>
        <time>2022-06-14T14:51:26Z</time>
      </trkpt>
      <trkpt lat="46.46169" lon="5.93283">
        <ele>906</ele>
        <time>2022-06-14T14:51:31Z</time>
      </trkpt>
      <trkpt lat="46.46168" lon="5.93276">
        <ele>905.8</ele>
        <time>2022-06-14T14:51:35Z</time>
      </trkpt>
      <trkpt lat="46.46165" lon="5.9327">
        <ele>906.7</ele>
        <time>2022-06-14T14:51:41Z</time>
      </trkpt>
      <trkpt lat="46.46161" lon="5.93273">
        <ele>909</ele>
        <time>2022-06-14T14:51:50Z</time>
      </trkpt>
      <trkpt lat="46.46156" lon="5.93276">
        <ele>910.1</ele>
        <time>2022-06-14T14:51:55Z</time>
      </trkpt>
      <trkpt lat="46.46151" lon="5.93279">
        <ele>910.9</ele>
        <time>2022-06-14T14:52:00Z</time>
      </trkpt>
      <trkpt lat="46.46146" lon="5.93281">
        <ele>911.6</ele>
        <time>2022-06-14T14:52:04Z</time>
      </trkpt>
      <trkpt lat="46.46141" lon="5.93284">
        <ele>912.3</ele>
        <time>2022-06-14T14:52:08Z</time>
      </trkpt>
      <trkpt lat="46.46137" lon="5.9329">
        <ele>912.5</ele>
        <time>2022-06-14T14:52:13Z</time>
      </trkpt>
      <trkpt lat="46.46133" lon="5.93293">
        <ele>912.7</ele>
        <time>2022-06-14T14:52:18Z</time>
      </trkpt>
      <trkpt lat="46.46128" lon="5.93294">
        <ele>913.1</ele>
        <time>2022-06-14T14:52:24Z</time>
      </trkpt>
      <trkpt lat="46.46124" lon="5.93299">
        <ele>914</ele>
        <time>2022-06-14T14:52:29Z</time>
      </trkpt>
      <trkpt lat="46.46123" lon="5.93306">
        <ele>915.2</ele>
        <time>2022-06-14T14:53:12Z</time>
      </trkpt>
      <trkpt lat="46.46118" lon="5.93305">
        <ele>915</ele>
        <time>2022-06-14T14:53:17Z</time>
      </trkpt>
      <trkpt lat="46.46115" lon="5.93298">
        <ele>915.1</ele>
        <time>2022-06-14T14:53:21Z</time>
      </trkpt>
      <trkpt lat="46.46112" lon="5.93292">
        <ele>915.2</ele>
        <time>2022-06-14T14:53:24Z</time>
      </trkpt>
      <trkpt lat="46.46109" lon="5.93286">
        <ele>914.5</ele>
        <time>2022-06-14T14:53:28Z</time>
      </trkpt>
      <trkpt lat="46.46105" lon="5.9328">
        <ele>912.9</ele>
        <time>2022-06-14T14:53:32Z</time>
      </trkpt>
      <trkpt lat="46.46103" lon="5.93273">
        <ele>910.5</ele>
        <time>2022-06-14T14:53:36Z</time>
      </trkpt>
      <trkpt lat="46.46101" lon="5.93267">
        <ele>906.3</ele>
        <time>2022-06-14T14:53:42Z</time>
      </trkpt>
      <trkpt lat="46.46099" lon="5.9326">
        <ele>903.2</ele>
        <time>2022-06-14T14:53:47Z</time>
      </trkpt>
      <trkpt lat="46.46098" lon="5.93253">
        <ele>901</ele>
        <time>2022-06-14T14:53:52Z</time>
      </trkpt>
      <trkpt lat="46.46096" lon="5.93246">
        <ele>899.9</ele>
        <time>2022-06-14T14:53:57Z</time>
      </trkpt>
      <trkpt lat="46.46094" lon="5.9324">
        <ele>899.1</ele>
        <time>2022-06-14T14:54:02Z</time>
      </trkpt>
      <trkpt lat="46.46093" lon="5.93233">
        <ele>898.7</ele>
        <time>2022-06-14T14:54:06Z</time>
      </trkpt>
      <trkpt lat="46.46091" lon="5.93225">
        <ele>898.5</ele>
        <time>2022-06-14T14:54:10Z</time>
      </trkpt>
      <trkpt lat="46.46089" lon="5.93218">
        <ele>898.6</ele>
        <time>2022-06-14T14:54:15Z</time>
      </trkpt>
      <trkpt lat="46.46089" lon="5.93211">
        <ele>898.1</ele>
        <time>2022-06-14T14:54:19Z</time>
      </trkpt>
      <trkpt lat="46.4609" lon="5.93203">
        <ele>896.9</ele>
        <time>2022-06-14T14:54:24Z</time>
      </trkpt>
      <trkpt lat="46.46087" lon="5.93198">
        <ele>896</ele>
        <time>2022-06-14T14:54:30Z</time>
      </trkpt>
      <trkpt lat="46.46083" lon="5.93193">
        <ele>895.5</ele>
        <time>2022-06-14T14:54:34Z</time>
      </trkpt>
      <trkpt lat="46.46082" lon="5.93187">
        <ele>894.7</ele>
        <time>2022-06-14T14:54:39Z</time>
      </trkpt>
      <trkpt lat="46.4608" lon="5.9318">
        <ele>893.5</ele>
        <time>2022-06-14T14:54:44Z</time>
      </trkpt>
      <trkpt lat="46.46077" lon="5.93173">
        <ele>892.6</ele>
        <time>2022-06-14T14:54:49Z</time>
      </trkpt>
      <trkpt lat="46.46073" lon="5.93168">
        <ele>892.4</ele>
        <time>2022-06-14T14:54:54Z</time>
      </trkpt>
      <trkpt lat="46.46069" lon="5.93166">
        <ele>893</ele>
        <time>2022-06-14T14:54:58Z</time>
      </trkpt>
      <trkpt lat="46.46064" lon="5.93167">
        <ele>894.3</ele>
        <time>2022-06-14T14:55:02Z</time>
      </trkpt>
      <trkpt lat="46.4606" lon="5.93166">
        <ele>896</ele>
        <time>2022-06-14T14:55:07Z</time>
      </trkpt>
      <trkpt lat="46.46054" lon="5.93165">
        <ele>898.9</ele>
        <time>2022-06-14T14:55:13Z</time>
      </trkpt>
      <trkpt lat="46.46049" lon="5.93163">
        <ele>901.4</ele>
        <time>2022-06-14T14:55:18Z</time>
      </trkpt>
      <trkpt lat="46.46045" lon="5.9316">
        <ele>903.3</ele>
        <time>2022-06-14T14:55:24Z</time>
      </trkpt>
      <trkpt lat="46.4604" lon="5.93157">
        <ele>903.3</ele>
        <time>2022-06-14T14:55:30Z</time>
      </trkpt>
      <trkpt lat="46.46037" lon="5.93152">
        <ele>903.4</ele>
        <time>2022-06-14T14:55:35Z</time>
      </trkpt>
      <trkpt lat="46.46033" lon="5.93148">
        <ele>903.3</ele>
        <time>2022-06-14T14:55:40Z</time>
      </trkpt>
      <trkpt lat="46.4603" lon="5.93142">
        <ele>903.2</ele>
        <time>2022-06-14T14:55:45Z</time>
      </trkpt>
      <trkpt lat="46.46028" lon="5.93136">
        <ele>903.1</ele>
        <time>2022-06-14T14:55:50Z</time>
      </trkpt>
      <trkpt lat="46.46025" lon="5.93131">
        <ele>902.4</ele>
        <time>2022-06-14T14:55:55Z</time>
      </trkpt>
      <trkpt lat="46.4602" lon="5.9313">
        <ele>899.5</ele>
        <time>2022-06-14T14:56:05Z</time>
      </trkpt>
      <trkpt lat="46.46016" lon="5.93131">
        <ele>893.6</ele>
        <time>2022-06-14T14:56:24Z</time>
      </trkpt>
      <trkpt lat="46.46013" lon="5.93126">
        <ele>892</ele>
        <time>2022-06-14T14:56:28Z</time>
      </trkpt>
      <trkpt lat="46.46009" lon="5.93121">
        <ele>891.1</ele>
        <time>2022-06-14T14:56:32Z</time>
      </trkpt>
      <trkpt lat="46.46007" lon="5.93114">
        <ele>890.7</ele>
        <time>2022-06-14T14:56:36Z</time>
      </trkpt>
      <trkpt lat="46.46003" lon="5.93109">
        <ele>891.9</ele>
        <time>2022-06-14T14:56:40Z</time>
      </trkpt>
      <trkpt lat="46.45999" lon="5.93104">
        <ele>894</ele>
        <time>2022-06-14T14:56:44Z</time>
      </trkpt>
      <trkpt lat="46.45996" lon="5.93099">
        <ele>895.9</ele>
        <time>2022-06-14T14:56:47Z</time>
      </trkpt>
      <trkpt lat="46.45992" lon="5.93095">
        <ele>897.8</ele>
        <time>2022-06-14T14:56:50Z</time>
      </trkpt>
      <trkpt lat="46.45988" lon="5.93091">
        <ele>899.6</ele>
        <time>2022-06-14T14:56:53Z</time>
      </trkpt>
      <trkpt lat="46.45983" lon="5.93088">
        <ele>901.3</ele>
        <time>2022-06-14T14:56:57Z</time>
      </trkpt>
      <trkpt lat="46.45979" lon="5.93084">
        <ele>902.2</ele>
        <time>2022-06-14T14:57:00Z</time>
      </trkpt>
      <trkpt lat="46.45975" lon="5.93082">
        <ele>903.1</ele>
        <time>2022-06-14T14:57:04Z</time>
      </trkpt>
      <trkpt lat="46.4597" lon="5.9308">
        <ele>903.9</ele>
        <time>2022-06-14T14:57:08Z</time>
      </trkpt>
      <trkpt lat="46.45966" lon="5.93075">
        <ele>904.3</ele>
        <time>2022-06-14T14:57:13Z</time>
      </trkpt>
      <trkpt lat="46.45965" lon="5.93068">
        <ele>903.5</ele>
        <time>2022-06-14T14:57:28Z</time>
      </trkpt>
      <trkpt lat="46.45961" lon="5.93063">
        <ele>903.4</ele>
        <time>2022-06-14T14:57:33Z</time>
      </trkpt>
      <trkpt lat="46.45957" lon="5.93059">
        <ele>902.7</ele>
        <time>2022-06-14T14:57:38Z</time>
      </trkpt>
      <trkpt lat="46.45952" lon="5.93061">
        <ele>902.2</ele>
        <time>2022-06-14T14:57:45Z</time>
      </trkpt>
      <trkpt lat="46.45948" lon="5.93064">
        <ele>902.3</ele>
        <time>2022-06-14T14:57:51Z</time>
      </trkpt>
      <trkpt lat="46.45945" lon="5.9307">
        <ele>901.4</ele>
        <time>2022-06-14T14:57:57Z</time>
      </trkpt>
      <trkpt lat="46.45957" lon="5.93061">
        <ele>908.1</ele>
        <time>2022-06-14T15:00:18Z</time>
      </trkpt>
      <trkpt lat="46.45953" lon="5.93067">
        <ele>908.9</ele>
        <time>2022-06-14T15:00:21Z</time>
      </trkpt>
      <trkpt lat="46.45947" lon="5.93068">
        <ele>912.5</ele>
        <time>2022-06-14T15:00:48Z</time>
      </trkpt>
    </trkseg>
  </trk>
</gpx>